# Wetter Temperatur Luftdruck Luftfeuchtigkeit Sichtweite Windgeschwindigkeit Windrichtung Zeit
1 Clouds 2 1011 52 10000 2.06 0 13:40 22.04.2021
2 Clouds 2 1011 52 10000 2.06 0 13:21 22.04.2021
3 Clouds 2 1009 65 10000 4.12 270 12:45 22.04.2021
4 Clouds 2 1009 65 10000 4.12 270 12:23 22.04.2021
5 Clouds 2 1009 55 10000 5.66 220 11:48 22.04.2021
6 Clouds 2 1009 55 10000 5.66 220 11:24 22.04.2021
7 Clear 3 1009 48 10000 4.63 220 10:46 22.04.2021
8 Clear 3 1009 48 10000 4.63 220 10:26 22.04.2021
9 Clear 3 1009 48 10000 6.17 220 09:58 22.04.2021
10 Clear 3 1009 48 10000 6.17 220 09:30 22.04.2021
11 Clear 3 1009 52 10000 2.06 0 08:45 22.04.2021
12 Clear 3 1009 52 10000 2.06 0 08:23 22.04.2021
13 Clouds 3 1009 45 10000 4.63 250 07:46 22.04.2021
14 Clouds 4 1009 45 10000 4.63 250 07:27 22.04.2021
15 Clouds 4 1009 45 10000 3.6 240 06:40 22.04.2021
16 Clouds 4 1009 45 10000 4.63 240 05:53 22.04.2021
17 Clouds 5 1009 45 10000 4.63 240 05:20 22.04.2021
18 Clouds 7 1006 49 10000 6.17 240 01:41 22.04.2021
19 Clouds 9 1003 57 10000 3.6 260 23:54 21.04.2021
20 Clouds 9 1003 57 10000 3.6 260 23:35 21.04.2021
21 Rain 10 1002 71 10000 1.54 0 22:45 21.04.2021
22 Rain 11 1002 71 10000 1.54 0 22:25 21.04.2021
23 Clouds 13 1001 72 10000 5.14 250 21:59 21.04.2021
24 Clouds 13 1001 72 10000 5.14 250 21:40 21.04.2021
25 Rain 13 1001 72 10000 5.14 250 21:19 21.04.2021
26 Clouds 19 999 63 10000 3.09 150 20:24 21.04.2021
27 Clouds 18 1001 55 10000 2.06 180 19:46 21.04.2021
28 Clouds 19 1001 55 10000 2.06 180 19:27 21.04.2021
29 Clouds 19 1003 59 10000 2.57 220 18:51 21.04.2021
30 Clouds 19 1003 59 10000 2.57 220 18:33 21.04.2021
31 Clouds 18 1004 55 10000 2.06 200 17:59 21.04.2021
32 Clouds 19 1004 55 10000 2.06 200 17:39 21.04.2021
33 Clouds 18 1004 55 10000 2.06 200 17:20 21.04.2021
34 Clouds 16 1005 59 10000 2.06 220 16:38 21.04.2021
35 Clouds 16 1006 58 10000 2.06 230 15:52 21.04.2021
36 Clouds 15 1006 58 10000 2.06 230 15:25 21.04.2021
37 Clouds 15 1007 58 10000 2.06 240 14:45 21.04.2021
38 Clouds 14 1007 58 10000 2.06 240 14:25 21.04.2021
39 Clouds 14 1008 54 10000 2.06 190 13:50 21.04.2021
40 Clouds 13 1008 54 10000 2.06 190 13:22 21.04.2021
41 Clouds 13 1008 51 10000 2.06 280 12:47 21.04.2021
42 Clouds 13 1008 51 10000 2.06 280 12:23 21.04.2021
43 Clouds 13 1009 51 10000 2.57 290 11:46 21.04.2021
44 Clouds 13 1009 51 10000 2.57 290 11:23 21.04.2021
45 Clear 13 1010 58 10000 3.09 280 10:40 21.04.2021
46 Clear 13 1011 54 10000 2.57 280 09:57 21.04.2021
47 Clear 14 1011 54 10000 2.57 280 09:31 21.04.2021
48 Clear 14 1011 51 10000 3.09 270 08:51 21.04.2021
49 Clear 14 1011 51 10000 3.09 270 08:24 21.04.2021
50 Clear 14 1012 54 10000 3.6 280 07:57 21.04.2021
51 Clear 15 1012 54 10000 3.6 280 07:29 21.04.2021
52 Clear 15 1013 51 10000 3.6 270 06:23 21.04.2021
53 Clear 18 1012 45 10000 4.12 240 02:56 21.04.2021
54 Clear 22 1012 33 10000 3.6 240 00:28 21.04.2021
55 Clouds 22 1011 33 10000 4.63 270 23:47 20.04.2021
56 Clear 23 1012 35 10000 4.63 240 22:50 20.04.2021
57 Clear 23 1012 35 10000 4.63 240 22:24 20.04.2021
58 Clear 23 1013 33 10000 4.63 250 21:59 20.04.2021
59 Clear 23 1013 33 10000 4.63 250 21:41 20.04.2021
60 Clear 23 1013 33 10000 4.63 250 21:22 20.04.2021
61 Clear 23 1013 33 10000 6.17 260 20:41 20.04.2021
62 Clear 23 1013 33 10000 6.17 260 20:21 20.04.2021
63 Clear 22 1014 37 10000 5.66 260 19:51 20.04.2021
64 Clear 22 1014 37 10000 5.66 260 19:33 20.04.2021
65 Clear 21 1014 40 10000 4.63 260 18:50 20.04.2021
66 Clear 21 1014 40 10000 4.63 260 18:31 20.04.2021
67 Clear 19 1014 45 10000 4.12 240 17:43 20.04.2021
68 Clear 18 1014 59 10000 2.57 250 16:55 20.04.2021
69 Clear 18 1014 59 10000 2.57 250 16:35 20.04.2021
70 Clear 15 1014 71 10000 3.6 250 15:41 20.04.2021
71 Clear 14 1014 71 10000 3.6 250 15:21 20.04.2021
72 Clear 13 1014 76 10000 2.57 240 14:49 20.04.2021
73 Clear 12 1014 76 10000 2.57 240 14:24 20.04.2021
74 Clear 11 1014 76 10000 3.09 270 13:29 20.04.2021
75 Clear 10 1013 76 10000 3.09 290 12:55 20.04.2021
76 Clear 10 1013 76 10000 3.09 290 12:28 20.04.2021
77 Clear 10 1013 76 10000 2.06 270 11:47 20.04.2021
78 Clear 10 1013 76 10000 2.06 270 11:28 20.04.2021
79 Clear 11 1013 76 10000 2.57 210 10:55 20.04.2021
80 Clear 11 1013 76 10000 2.57 210 10:36 20.04.2021
81 Clear 11 1013 76 10000 2.57 210 10:18 20.04.2021
82 Clear 11 1013 66 10000 2.57 260 09:19 20.04.2021
83 Clear 11 1013 66 10000 1.54 260 08:46 20.04.2021
84 Clear 12 1013 66 10000 3.01 244 07:59 20.04.2021
85 Clear 12 1013 66 10000 3.01 244 07:33 20.04.2021
86 Clear 12 1012 62 10000 1.54 250 05:48 20.04.2021
87 Clear 12 1012 62 10000 1.54 250 05:30 20.04.2021
88 Clear 13 1012 58 10000 2.73 228 04:24 20.04.2021
89 Clear 17 1010 48 10000 2.57 210 00:52 20.04.2021
90 Clear 17 1010 48 10000 2.57 210 00:20 20.04.2021
91 Clouds 16 1010 51 10000 2.57 220 23:31 19.04.2021
92 Clouds 16 1010 51 10000 2.57 160 22:45 19.04.2021
93 Clouds 15 1010 51 10000 2.57 160 22:26 19.04.2021
94 Clear 16 1010 44 10000 4.12 180 21:43 19.04.2021
95 Clear 16 1010 44 10000 4.12 180 21:20 19.04.2021
96 Clouds 16 1010 42 10000 3.6 180 20:41 19.04.2021
97 Clouds 17 1010 42 10000 3.6 180 20:20 19.04.2021
98 Clouds 17 1011 42 10000 4.63 160 19:50 19.04.2021
99 Clouds 17 1011 42 10000 4.63 160 19:27 19.04.2021
100 Clear 17 1011 39 10000 1.54 170 18:59 19.04.2021
101 Clear 17 1011 39 10000 1.54 170 18:40 19.04.2021
102 Clear 18 1011 39 10000 1.54 170 18:19 19.04.2021
103 Clear 18 1011 51 10000 2.57 260 17:43 19.04.2021
104 Clear 16 1011 51 10000 2.57 260 17:23 19.04.2021
105 Clear 17 1012 51 10000 2.06 260 16:43 19.04.2021
106 Clear 16 1012 51 10000 2.06 260 16:24 19.04.2021
107 Clear 15 1012 62 10000 1.47 246 15:42 19.04.2021
108 Clear 14 1012 62 10000 1.4 250 15:23 19.04.2021
109 Clear 13 1012 71 10000 1.54 260 14:51 19.04.2021
110 Clear 13 1012 71 10000 1.54 260 14:30 19.04.2021
111 Clouds 11 1012 71 10000 1.45 245 13:50 19.04.2021
112 Clouds 11 1012 71 10000 0.88 295 13:27 19.04.2021
113 Clouds 10 1012 66 10000 0.88 295 12:48 19.04.2021
114 Clouds 11 1012 66 10000 0.99 288 12:27 19.04.2021
115 Clouds 11 1012 54 10000 0.99 288 11:58 19.04.2021
116 Clouds 11 1013 50 10000 2.57 210 11:27 19.04.2021
117 Clouds 11 1012 54 10000 1.54 260 10:55 19.04.2021
118 Clouds 11 1012 54 10000 1.54 260 10:36 19.04.2021
119 Clouds 11 1012 54 10000 1.54 260 10:36 19.04.2021
120 Clouds 11 1012 54 10000 1.54 260 10:18 19.04.2021
121 Clouds 11 1012 54 10000 1.54 260 10:18 19.04.2021
122 Clouds 11 1012 54 10000 1.54 260 10:18 19.04.2021
123 Clouds 12 1012 58 10000 2.57 290 09:39 19.04.2021
124 Clouds 12 1012 58 10000 2.57 290 09:20 19.04.2021
125 Clear 12 1012 62 10000 1.93 271 08:32 19.04.2021
126 Clouds 12 1012 66 10000 1.54 200 07:49 19.04.2021
127 Clouds 12 1012 66 10000 1.54 200 07:21 19.04.2021
128 Clear 12 1012 66 10000 2.06 190 06:45 19.04.2021
129 Clouds 14 1011 51 10000 1.54 240 02:41 19.04.2021
130 Clouds 14 1011 58 10000 3.37 290 01:40 19.04.2021
131 Clouds 15 1010 58 10000 4.07 269 00:33 19.04.2021
132 Clouds 15 1010 54 10000 3.75 274 23:19 18.04.2021
133 Clouds 15 1010 54 10000 2.57 170 22:53 18.04.2021
134 Clouds 15 1010 54 10000 2.57 170 22:31 18.04.2021
135 Clouds 16 1009 41 10000 2.57 200 21:45 18.04.2021
136 Clouds 16 1009 41 10000 2.57 200 21:23 18.04.2021
137 Clouds 16 1009 42 10000 2.57 190 20:41 18.04.2021
138 Clouds 16 1009 42 10000 2.57 190 20:21 18.04.2021
139 Clouds 16 1010 47 10000 3.09 240 19:56 18.04.2021
140 Clouds 16 1010 47 10000 3.09 240 19:35 18.04.2021
141 Clouds 15 1011 44 10000 4.12 250 18:59 18.04.2021
142 Clouds 15 1011 44 10000 4.12 250 18:38 18.04.2021
143 Clouds 14 1011 44 10000 4.12 250 18:20 18.04.2021
144 Clouds 14 1011 44 10000 2.06 0 17:42 18.04.2021
145 Clouds 14 1011 44 10000 2.06 0 17:24 18.04.2021
146 Clouds 13 1012 50 10000 3.6 240 16:45 18.04.2021
147 Clouds 13 1012 50 10000 3.6 240 16:19 18.04.2021
148 Clouds 12 1012 54 10000 4.37 316 15:41 18.04.2021
149 Clouds 11 1012 54 10000 4.56 316 15:23 18.04.2021
150 Clouds 11 1012 62 10000 4.55 316 14:42 18.04.2021
151 Clouds 10 1012 62 10000 4.32 311 14:20 18.04.2021
152 Clouds 10 1011 66 10000 2.06 260 13:54 18.04.2021
153 Clouds 9 1011 66 10000 2.06 260 13:32 18.04.2021
154 Clouds 9 1010 66 10000 3.33 309 12:49 18.04.2021
155 Clouds 9 1010 66 10000 3.34 316 12:24 18.04.2021
156 Clouds 9 1010 62 10000 2.06 260 11:41 18.04.2021
157 Clouds 9 1010 62 10000 2.06 260 11:20 18.04.2021
158 Clouds 9 1010 62 10000 2.06 250 10:46 18.04.2021
159 Clouds 10 1010 62 10000 2.06 250 10:22 18.04.2021
160 Clouds 10 1010 62 10000 3.09 250 09:47 18.04.2021
161 Clouds 10 1010 62 10000 3.09 250 09:28 18.04.2021
162 Clouds 10 1010 54 10000 2.57 250 08:56 18.04.2021
163 Clouds 10 1010 54 10000 2.57 250 08:34 18.04.2021
164 Clouds 10 1010 58 10000 2.57 260 07:55 18.04.2021
165 Clouds 10 1010 58 10000 2.57 260 07:37 18.04.2021
166 Clouds 11 1010 54 10000 1.54 0 05:42 18.04.2021
167 Clouds 11 1010 54 10000 1.54 0 05:23 18.04.2021
168 Clouds 11 1009 50 10000 4.1 325 02:39 18.04.2021
169 Clouds 12 1009 50 10000 5.06 313 02:20 18.04.2021
170 Clouds 12 1009 43 10000 4.12 240 00:37 18.04.2021
171 Clouds 12 1008 47 10000 1.54 290 23:33 17.04.2021
172 Clouds 12 1008 47 10000 3.6 250 22:51 17.04.2021
173 Clouds 12 1008 47 10000 3.6 250 22:30 17.04.2021
174 Clouds 12 1008 47 10000 2.06 0 21:50 17.04.2021
175 Clouds 12 1008 47 10000 2.06 0 21:28 17.04.2021
176 Clouds 12 1008 47 10000 4.12 240 20:47 17.04.2021
177 Clouds 12 1008 47 10000 4.12 240 20:27 17.04.2021
178 Clouds 12 1008 47 10000 3.09 220 19:44 17.04.2021
179 Clouds 11 1009 43 10000 4.63 240 19:21 17.04.2021
180 Clouds 11 1009 54 10000 2.57 260 18:55 17.04.2021
181 Clouds 11 1009 54 10000 2.57 260 18:28 17.04.2021
182 Clouds 10 1009 57 10000 3.09 250 17:56 17.04.2021
183 Clouds 10 1009 57 10000 3.09 250 17:38 17.04.2021
184 Clouds 10 1009 61 10000 2.57 0 16:52 17.04.2021
185 Clouds 9 1009 61 10000 2.57 0 16:27 17.04.2021
186 Clouds 8 1009 71 10000 2.57 240 15:39 17.04.2021
187 Clouds 7 1009 71 10000 1.54 0 14:50 17.04.2021
188 Clouds 7 1009 71 10000 1.54 0 14:29 17.04.2021
189 Clouds 7 1009 76 10000 2.57 0 13:46 17.04.2021
190 Clouds 6 1008 76 10000 3.6 50 13:19 17.04.2021
191 Clouds 6 1008 76 10000 4.44 322 12:36 17.04.2021
192 Clouds 6 1008 76 10000 4.68 313 12:18 17.04.2021
193 Clouds 6 1007 76 10000 2.06 0 11:39 17.04.2021
194 Clouds 6 1007 76 10000 2.06 0 11:20 17.04.2021
195 Clouds 6 1007 76 10000 2.06 240 10:41 17.04.2021
196 Clouds 7 1007 71 10000 2.06 270 10:22 17.04.2021
197 Clouds 7 1006 71 10000 5.5 304 09:19 17.04.2021
198 Clouds 7 1006 71 10000 1.54 0 08:34 17.04.2021
199 Clouds 7 1006 71 10000 5.5 306 07:59 17.04.2021
200 Clouds 8 1006 71 10000 1.54 0 06:42 17.04.2021
201 Clouds 8 1006 71 10000 2.06 0 03:49 17.04.2021
202 Clouds 8 1005 76 10000 1.54 0 02:28 17.04.2021
203 Clouds 9 1003 58 10000 1.54 0 00:43 17.04.2021
204 Clouds 10 1003 58 10000 1.54 0 00:21 17.04.2021
205 Clouds 10 1003 66 10000 8.29 298 23:43 16.04.2021
206 Clouds 10 1003 66 10000 8.42 294 23:20 16.04.2021
207 Rain 10 1003 54 10000 1.54 0 22:42 16.04.2021
208 Clouds 11 1003 54 10000 1.54 0 22:20 16.04.2021
209 Rain 11 1003 54 10000 7.6 294 21:49 16.04.2021
210 Clouds 11 1003 54 10000 7.06 298 21:28 16.04.2021
211 Clouds 11 1003 66 10000 2.06 0 20:47 16.04.2021
212 Clouds 11 1003 66 10000 2.06 0 20:24 16.04.2021
213 Clouds 10 1003 62 9656 1.54 0 19:50 16.04.2021
214 Clouds 9 1003 62 9656 1.54 0 19:27 16.04.2021
215 Clouds 10 1004 50 10000 1.54 0 18:28 16.04.2021
216 Clouds 10 1004 57 10000 2.57 220 17:55 16.04.2021
217 Clouds 9 1004 57 10000 2.57 220 17:21 16.04.2021
218 Clouds 9 1004 61 10000 5.14 260 16:59 16.04.2021
219 Clouds 9 1004 61 10000 5.14 260 16:41 16.04.2021
220 Clouds 8 1004 61 10000 5.14 260 16:21 16.04.2021
221 Clear 8 1005 66 10000 2.57 0 15:42 16.04.2021
222 Clear 7 1005 70 10000 3.09 0 14:59 16.04.2021
223 Clear 7 1005 70 10000 3.09 0 14:40 16.04.2021
224 Clouds 6 1005 81 10000 5.68 310 13:59 16.04.2021
225 Clouds 6 1005 81 10000 5.68 310 13:38 16.04.2021
226 Clouds 5 1005 81 10000 5.54 303 13:18 16.04.2021
227 Clear 5 1005 87 10000 1.54 250 12:44 16.04.2021
228 Clear 5 1005 87 10000 1.54 250 12:25 16.04.2021
229 Clouds 5 1005 87 10000 1.54 0 11:43 16.04.2021
230 Clouds 6 1005 87 10000 4.89 301 11:24 16.04.2021
231 Clouds 6 1005 81 10000 2.06 0 10:43 16.04.2021
232 Clouds 6 1005 81 10000 2.06 0 10:25 16.04.2021
233 Clouds 6 1006 81 10000 4.6 304 09:52 16.04.2021
234 Clouds 6 1006 81 10000 4.21 311 09:24 16.04.2021
235 Clouds 6 1006 76 10000 4.19 311 08:46 16.04.2021
236 Rain 7 1006 76 10000 2.06 0 08:27 16.04.2021
237 Clouds 7 1006 76 10000 3.09 60 07:47 16.04.2021
238 Clouds 7 1006 76 10000 1.54 0 07:28 16.04.2021
239 Clouds 8 1006 87 10000 2.06 0 06:47 16.04.2021
240 Clouds 8 1005 87 10000 2.06 0 05:33 16.04.2021
241 Clouds 8 1005 87 10000 2.06 0 05:33 16.04.2021
242 Clouds 9 1006 81 10000 2.06 260 04:18 16.04.2021
243 Rain 10 1005 93 10000 2.06 0 00:49 16.04.2021
244 Rain 10 1005 93 10000 2.06 0 00:22 16.04.2021
245 Rain 10 1004 93 10000 2.06 0 23:58 15.04.2021
246 Rain 11 1004 93 10000 1.54 210 23:35 15.04.2021
247 Rain 12 1004 94 10000 2.06 80 22:53 15.04.2021
248 Clouds 12 1004 94 10000 2.06 80 22:26 15.04.2021
249 Rain 12 1005 94 10000 1.54 0 21:56 15.04.2021
250 Rain 12 1005 94 10000 1.54 0 21:37 15.04.2021
251 Rain 12 1005 94 10000 1.54 0 21:19 15.04.2021
252 Rain 12 1006 93 6437 1.54 0 20:40 15.04.2021
253 Rain 12 1006 93 6437 1.54 0 20:21 15.04.2021
254 Rain 12 1006 94 8047 1.54 0 19:42 15.04.2021
255 Rain 12 1006 94 8047 1.54 0 19:23 15.04.2021
256 Rain 11 1007 93 10000 1.54 0 18:42 15.04.2021
257 Rain 11 1007 93 10000 1.54 0 18:20 15.04.2021
258 Rain 12 1008 87 10000 2.57 0 17:54 15.04.2021
259 Rain 12 1008 87 10000 2.57 0 17:36 15.04.2021
260 Clouds 12 1008 87 10000 2.57 170 16:57 15.04.2021
261 Clouds 13 1008 76 10000 2.32 192 16:39 15.04.2021
262 Clouds 13 1008 76 10000 2.49 218 16:20 15.04.2021
263 Clouds 12 1008 82 10000 3.09 30 15:44 15.04.2021
264 Clouds 13 1008 82 10000 3.09 30 15:25 15.04.2021
265 Clouds 12 1008 82 10000 3.6 40 14:39 15.04.2021
266 Clouds 12 1008 82 10000 3.09 30 14:21 15.04.2021
267 Clouds 12 1008 87 10000 3.6 50 13:41 15.04.2021
268 Clouds 12 1008 87 10000 3.6 50 13:18 15.04.2021
269 Clouds 12 1009 82 10000 2.57 40 12:39 15.04.2021
270 Clouds 12 1009 82 10000 2.57 40 12:20 15.04.2021
271 Clouds 12 1009 82 10000 2.57 30 11:44 15.04.2021
272 Clouds 13 1009 88 10000 1.54 280 11:23 15.04.2021
273 Clouds 13 1009 88 10000 1.54 280 11:23 15.04.2021
274 Clouds 13 1009 88 10000 1.54 280 11:23 15.04.2021
275 Clouds 13 1009 88 10000 1.54 270 10:49 15.04.2021
276 Clouds 13 1009 88 10000 1.54 270 10:27 15.04.2021
277 Clouds 13 1010 88 10000 2.58 223 09:46 15.04.2021
278 Clouds 13 1010 88 10000 2.54 231 09:23 15.04.2021
279 Clouds 13 1011 88 10000 1.54 260 08:47 15.04.2021
280 Clouds 14 1012 88 10000 2.57 240 07:53 15.04.2021
281 Clouds 14 1012 88 10000 2.57 240 07:24 15.04.2021
282 Clouds 14 1012 82 10000 3.6 240 06:40 15.04.2021
283 Clouds 14 1012 82 10000 3.6 240 06:21 15.04.2021
284 Clouds 15 1013 77 10000 3.09 260 04:51 15.04.2021
285 Clouds 17 1013 67 10000 2.57 270 01:24 15.04.2021
286 Clouds 19 1014 55 10000 4.12 270 23:43 14.04.2021
287 Clouds 19 1014 55 10000 4.12 270 23:25 14.04.2021
288 Clouds 20 1014 48 10000 2.57 260 22:47 14.04.2021
289 Clouds 20 1014 48 10000 2.57 260 22:25 14.04.2021
290 Clouds 20 1015 42 10000 3.6 240 21:49 14.04.2021
291 Rain 21 1015 42 10000 3.6 240 21:31 14.04.2021
292 Clouds 20 1016 40 10000 2.57 260 20:58 14.04.2021
293 Clouds 21 1016 40 10000 2.57 260 20:34 14.04.2021
294 Clouds 21 1016 35 10000 5.18 258 19:55 14.04.2021
295 Clouds 21 1016 35 10000 2.34 243 19:21 14.04.2021
296 Clear 19 1017 55 10000 1.54 220 18:57 14.04.2021
297 Clear 20 1017 30 10000 3.09 220 18:36 14.04.2021
298 Clear 19 1017 55 10000 1.54 220 18:18 14.04.2021
299 Clear 17 1018 59 10000 2.06 250 17:29 14.04.2021
300 Clear 15 1018 51 10000 1.83 246 16:58 14.04.2021
301 Clear 16 1018 71 10000 1.83 246 16:39 14.04.2021
302 Clear 15 1018 51 10000 1.36 260 16:19 14.04.2021
303 Clear 13 1019 76 10000 3.09 240 15:39 14.04.2021
304 Clear 12 1019 76 10000 3.09 240 15:18 14.04.2021
305 Clear 11 1019 71 10000 1.54 0 14:40 14.04.2021
306 Clear 11 1019 81 10000 2.57 260 14:20 14.04.2021
307 Clear 10 1019 87 10000 3.09 250 13:46 14.04.2021
308 Clear 9 1018 81 10000 2.57 270 12:45 14.04.2021
309 Clear 9 1018 81 10000 2.57 270 12:18 14.04.2021
310 Clear 9 1019 81 10000 1.54 250 11:42 14.04.2021
311 Clear 9 1019 81 10000 1.54 250 11:23 14.04.2021
312 Clear 9 1019 87 10000 2.16 237 10:34 14.04.2021
313 Clear 9 1019 87 10000 2.09 222 09:43 14.04.2021
314 Clear 9 1019 87 10000 1.95 211 09:25 14.04.2021
315 Clear 9 1019 87 10000 1.54 120 08:56 14.04.2021
316 Clear 9 1019 87 10000 1.54 120 08:30 14.04.2021
317 Clear 10 1019 76 10000 2.06 0 07:42 14.04.2021
318 Clear 10 1019 71 10000 1.54 0 06:35 14.04.2021
319 Clear 10 1019 71 10000 3.09 40 05:50 14.04.2021
320 Clear 15 1017 58 10000 2.49 92 02:40 14.04.2021
321 Clear 17 1017 42 10000 2.06 330 01:19 14.04.2021
322 Clear 18 1017 39 10000 1.54 0 00:32 14.04.2021
323 Clear 18 1017 39 10000 2.57 350 23:38 13.04.2021
324 Clear 17 1017 39 10000 3.09 140 22:45 13.04.2021
325 Clear 17 1017 39 10000 3.09 140 22:23 13.04.2021
326 Clear 17 1017 39 10000 1.54 0 21:50 13.04.2021
327 Clear 17 1017 39 10000 1.54 0 21:32 13.04.2021
328 Clear 16 1017 41 10000 1.54 0 20:55 13.04.2021
329 Clear 16 1017 41 10000 1.54 0 20:37 13.04.2021
330 Clear 16 1017 41 10000 1.54 0 20:37 13.04.2021
331 Clear 16 1017 41 10000 1.54 0 20:19 13.04.2021
332 Clear 15 1018 51 10000 2.57 0 19:27 13.04.2021
333 Clear 15 1018 51 10000 2.57 0 19:27 13.04.2021
334 Clouds 14 1019 50 10000 1.54 0 18:58 13.04.2021
335 Clouds 14 1019 50 10000 1.54 0 18:33 13.04.2021
336 Clouds 12 1019 58 10000 2.06 280 17:45 13.04.2021
337 Clouds 12 1019 58 10000 2.06 280 17:23 13.04.2021
338 Clouds 12 1019 66 10000 2.57 60 16:57 13.04.2021
339 Clouds 11 1019 66 10000 2.57 60 16:38 13.04.2021
340 Clouds 11 1019 66 10000 2.57 60 16:19 13.04.2021
341 Clouds 10 1018 71 10000 2.57 80 15:39 13.04.2021
342 Clouds 8 1018 81 10000 2.06 90 14:59 13.04.2021
343 Clouds 8 1018 81 10000 2.06 90 14:38 13.04.2021
344 Clouds 8 1018 81 10000 2.06 90 14:18 13.04.2021
345 Clouds 7 1017 76 10000 3.09 50 13:41 13.04.2021
346 Clouds 7 1017 76 10000 3.09 50 13:22 13.04.2021
347 Clear 7 1016 81 10000 3.09 50 12:53 13.04.2021
348 Clear 7 1016 81 10000 3.09 50 12:23 13.04.2021
349 Clouds 7 1016 87 10000 3.49 5 11:48 13.04.2021
350 Clouds 7 1016 87 10000 3.4 3 11:28 13.04.2021
351 Clouds 7 1015 87 10000 3.09 40 10:44 13.04.2021
352 Clouds 7 1015 87 10000 3.09 40 10:20 13.04.2021
353 Clouds 7 1015 87 10000 3.6 40 09:52 13.04.2021
354 Clouds 7 1015 87 10000 3.6 40 09:34 13.04.2021
355 Rain 7 1015 93 10000 5.14 50 08:51 13.04.2021
356 Rain 7 1015 93 10000 5.14 50 08:25 13.04.2021
357 Rain 8 1015 93 10000 3.6 30 07:59 13.04.2021
358 Rain 8 1015 93 10000 3.6 30 07:35 13.04.2021
359 Rain 8 1015 93 10000 4.63 40 06:29 13.04.2021
360 Rain 8 1014 93 6437 2.06 0 04:27 13.04.2021
361 Rain 8 1012 93 9656 1.54 110 01:37 13.04.2021
362 Rain 8 1010 87 10000 2.06 0 23:59 12.04.2021
363 Rain 8 1010 87 10000 2.06 0 23:39 12.04.2021
364 Rain 8 1010 87 10000 2.06 0 23:18 12.04.2021
365 Rain 9 1010 87 10000 1.07 63 22:38 12.04.2021
366 Rain 9 1009 71 10000 2.57 40 21:56 12.04.2021
367 Rain 9 1009 71 10000 2.57 40 21:36 12.04.2021
368 Rain 10 1009 71 10000 2.57 40 21:18 12.04.2021
369 Rain 9 1009 76 10000 4.12 30 20:38 12.04.2021
370 Rain 9 1009 76 10000 4.12 30 20:20 12.04.2021
371 Rain 9 1009 76 10000 4.12 30 20:20 12.04.2021
372 Rain 9 1009 71 10000 5.14 30 19:43 12.04.2021
373 Clouds 9 1009 71 10000 5.14 30 19:22 12.04.2021
374 Clouds 9 1009 71 10000 6.17 30 18:56 12.04.2021
375 Clouds 9 1009 71 10000 6.17 30 18:37 12.04.2021
376 Clouds 9 1009 71 10000 6.17 30 18:18 12.04.2021
377 Clouds 9 1009 71 10000 4.63 20 17:42 12.04.2021
378 Clouds 8 1009 71 10000 4.63 20 17:20 12.04.2021
379 Clouds 8 1009 76 10000 5.14 40 16:44 12.04.2021
380 Clouds 8 1009 76 10000 6.69 50 16:26 12.04.2021
381 Clouds 8 1008 76 10000 6.69 40 15:48 12.04.2021
382 Clouds 8 1008 76 10000 6.69 40 15:21 12.04.2021
383 Clouds 8 1007 71 10000 6.69 40 14:49 12.04.2021
384 Clouds 8 1007 71 10000 6.69 40 14:29 12.04.2021
385 Clouds 8 1006 76 10000 6.69 30 13:45 12.04.2021
386 Clouds 8 1006 76 10000 6.69 30 13:22 12.04.2021
387 Clouds 8 1006 87 10000 9.26 40 12:44 12.04.2021
388 Clouds 8 1006 87 10000 9.26 40 12:24 12.04.2021
389 Clouds 8 1006 93 10000 6.69 30 11:51 12.04.2021
390 Mist 7 1004 93 6437 10.8 40 10:56 12.04.2021
391 Mist 7 1004 93 6437 10.8 40 10:38 12.04.2021
392 Mist 7 1004 93 6437 10.8 40 10:20 12.04.2021
393 Mist 8 1005 93 4828 5.66 30 09:40 12.04.2021
394 Mist 8 1005 93 4828 5.66 30 09:18 12.04.2021
395 Mist 8 1005 100 3219 6.17 30 08:35 12.04.2021
396 Mist 8 1005 93 6437 6.17 30 07:32 12.04.2021
397 Mist 8 1005 93 4828 4.12 30 06:57 12.04.2021
398 Mist 9 1005 93 4828 7.2 30 05:51 12.04.2021
399 Clouds 9 1004 93 10000 5.66 30 04:28 12.04.2021
400 Clouds 12 1002 94 10000 7.2 50 00:52 12.04.2021
401 Clouds 12 1002 94 10000 7.2 50 00:24 12.04.2021
402 Clouds 12 1001 94 10000 7.72 40 23:46 11.04.2021
403 Clouds 12 1001 94 10000 7.72 40 23:46 11.04.2021
404 Clouds 12 1001 94 10000 7.72 40 23:27 11.04.2021
405 Rain 13 1002 94 6437 7.72 60 22:46 11.04.2021
406 Rain 13 1002 94 6437 7.72 60 22:23 11.04.2021
407 Rain 13 1001 100 8047 5.14 30 21:46 11.04.2021
408 Rain 13 1001 100 3219 6.17 30 21:27 11.04.2021
409 Rain 13 1002 94 3219 4.63 40 20:55 11.04.2021
410 Rain 13 1002 94 10000 5.14 40 20:30 11.04.2021
411 Rain 13 1002 94 6437 5.14 40 19:56 11.04.2021
412 Rain 13 1002 94 6437 5.14 40 19:37 11.04.2021
413 Rain 13 1002 94 6437 5.14 40 19:18 11.04.2021
414 Rain 14 1002 100 10000 5.66 30 18:42 11.04.2021
415 Rain 14 1002 100 10000 5.66 30 18:24 11.04.2021
416 Rain 14 1003 100 10000 5.66 50 17:46 11.04.2021
417 Rain 14 1003 100 10000 5.66 50 17:28 11.04.2021
418 Rain 13 1004 94 10000 5.14 50 16:51 11.04.2021
419 Rain 13 1004 94 10000 5.14 50 16:23 11.04.2021
420 Rain 13 1005 94 10000 3.09 30 15:55 11.04.2021
421 Rain 13 1005 94 10000 3.09 30 15:37 11.04.2021
422 Rain 13 1005 94 10000 3.09 30 15:19 11.04.2021
423 Mist 12 1005 94 4828 4.12 40 14:46 11.04.2021
424 Mist 12 1005 100 1609 2.06 40 13:53 11.04.2021
425 Fog 12 1006 100 805 2.12 139 13:31 11.04.2021
426 Mist 12 1005 94 2012 2.57 20 12:54 11.04.2021
427 Fog 12 1005 94 805 2.57 30 12:22 11.04.2021
428 Fog 12 1006 94 402 2.06 30 11:53 11.04.2021
429 Mist 12 1005 94 1207 3.09 40 11:29 11.04.2021
430 Mist 12 1006 94 1609 3.6 50 10:50 11.04.2021
431 Mist 12 1006 94 2012 3.09 50 10:32 11.04.2021
432 Mist 12 1006 100 8047 1.54 50 09:59 11.04.2021
433 Mist 12 1006 94 9656 1.6 122 09:37 11.04.2021
434 Mist 12 1006 94 9656 1.44 119 09:19 11.04.2021
435 Mist 12 1007 94 8047 2.06 40 08:30 11.04.2021
436 Mist 12 1007 94 8047 2.06 40 08:30 11.04.2021
437 Mist 12 1009 94 8047 1.54 260 07:24 11.04.2021
438 Mist 12 1009 94 6437 2.57 40 06:56 11.04.2021
439 Mist 12 1009 94 8047 2.06 40 05:44 11.04.2021
440 Mist 13 1009 94 9656 2.57 40 05:21 11.04.2021
441 Clouds 13 1009 88 10000 3.09 40 04:35 11.04.2021
442 Clear 14 1011 82 10000 1.54 0 02:56 11.04.2021
443 Clear 17 1012 67 10000 2.9 163 00:40 11.04.2021
444 Clear 17 1012 67 10000 2.88 163 00:40 11.04.2021
445 Clear 18 1013 67 10000 1.54 280 23:51 10.04.2021
446 Clear 18 1013 67 10000 1.54 280 23:27 10.04.2021
447 Clear 19 1013 63 10000 3.09 260 22:51 10.04.2021
448 Clear 19 1013 63 10000 3.09 260 22:24 10.04.2021
449 Clouds 19 1014 67 10000 3.09 270 21:51 10.04.2021
450 Clouds 18 1014 67 10000 3.09 270 21:23 10.04.2021
451 Clouds 18 1015 67 10000 2.57 0 20:52 10.04.2021
452 Clouds 18 1015 67 10000 2.57 0 20:29 10.04.2021
453 Clouds 18 1016 59 10000 2.06 0 19:46 10.04.2021
454 Clouds 17 1016 82 10000 3.09 260 19:27 10.04.2021
455 Clouds 16 1017 72 10000 3.94 172 18:54 10.04.2021
456 Clouds 16 1017 72 10000 3.93 172 18:34 10.04.2021
457 Clouds 15 1017 82 10000 1.54 240 17:54 10.04.2021
458 Clouds 15 1017 82 10000 1.54 240 17:34 10.04.2021
459 Clouds 14 1018 88 10000 2.06 270 16:31 10.04.2021
460 Clouds 13 1018 82 10000 1.74 193 15:56 10.04.2021
461 Clouds 13 1018 82 10000 1.75 192 15:35 10.04.2021
462 Clouds 11 1019 82 8047 1.91 192 14:50 10.04.2021
463 Clouds 11 1019 82 8047 1.57 176 14:25 10.04.2021
464 Clouds 11 1018 87 10000 2.57 240 13:47 10.04.2021
465 Clouds 11 1018 87 10000 2.57 240 13:28 10.04.2021
466 Clouds 10 1017 87 10000 1.96 187 12:38 10.04.2021
467 Clouds 10 1019 87 10000 1.54 260 11:59 10.04.2021
468 Clouds 10 1019 87 10000 1.54 260 11:41 10.04.2021
469 Clouds 10 1019 87 10000 1.54 260 11:18 10.04.2021
470 Clouds 10 1019 87 10000 1.86 180 10:42 10.04.2021
471 Clouds 10 1019 87 10000 2.19 189 10:23 10.04.2021
472 Clouds 10 1019 87 10000 2.52 195 09:29 10.04.2021
473 Clouds 10 1020 87 10000 2.06 110 08:58 10.04.2021
474 Clouds 10 1020 87 10000 2.06 110 08:31 10.04.2021
475 Clouds 10 1020 93 10000 2.87 177 07:54 10.04.2021
476 Clouds 10 1020 93 10000 2.55 173 07:25 10.04.2021
477 Clouds 10 1021 93 10000 2.06 190 06:27 10.04.2021
478 Clouds 10 1021 93 10000 2.06 190 06:27 10.04.2021
479 Clouds 10 1021 93 10000 1.54 180 04:49 10.04.2021
480 Clouds 10 1021 87 10000 2.06 170 02:58 10.04.2021
481 Clouds 10 1021 87 10000 2.06 170 02:37 10.04.2021
482 Clouds 11 1021 82 10000 2.06 190 00:55 10.04.2021
483 Clouds 11 1021 82 10000 2.06 190 00:30 10.04.2021
484 Clouds 11 1021 81 10000 2.57 150 23:49 09.04.2021
485 Rain 11 1021 81 10000 2.57 150 23:27 09.04.2021
486 Rain 11 1021 71 10000 4.11 157 22:44 09.04.2021
487 Rain 11 1021 71 10000 4.07 157 22:26 09.04.2021
488 Clouds 12 1022 66 10000 2.57 160 21:39 09.04.2021
489 Clouds 12 1022 66 10000 2.57 160 21:20 09.04.2021
490 Clouds 12 1022 66 10000 2.57 160 21:20 09.04.2021
491 Clouds 13 1022 62 10000 4.63 170 20:46 09.04.2021
492 Clouds 13 1022 62 10000 4.63 170 20:23 09.04.2021
493 Clear 13 1022 66 10000 3.6 170 19:58 09.04.2021
494 Clear 13 1022 66 10000 3.6 170 19:39 09.04.2021
495 Clear 13 1022 66 10000 3.6 170 19:20 09.04.2021
496 Clouds 13 1023 71 10000 4.12 180 18:41 09.04.2021
497 Clouds 13 1023 71 10000 4.12 180 18:22 09.04.2021
498 Clouds 13 1023 71 10000 1.54 100 17:44 09.04.2021
499 Clouds 12 1023 71 10000 1.54 100 17:25 09.04.2021
500 Clouds 12 1023 76 10000 3.09 0 16:41 09.04.2021
501 Clouds 11 1023 76 10000 3.09 0 16:23 09.04.2021
502 Clouds 11 1023 81 10000 3.09 150 15:43 09.04.2021
503 Clouds 10 1023 81 10000 3.09 150 15:23 09.04.2021
504 Clouds 10 1023 87 10000 2.57 160 14:46 09.04.2021
505 Clouds 10 1023 87 10000 2.57 160 14:21 09.04.2021
506 Clouds 9 1023 87 10000 2.06 140 13:43 09.04.2021
507 Clouds 9 1022 87 10000 3.6 160 13:22 09.04.2021
508 Clear 9 1022 87 10000 1.54 150 12:47 09.04.2021
509 Clear 9 1022 87 10000 1.54 150 12:23 09.04.2021
510 Clear 9 1021 81 10000 2.57 170 11:42 09.04.2021
511 Clear 9 1021 81 10000 2.57 170 11:20 09.04.2021
512 Clear 9 1021 81 10000 1.83 141 10:37 09.04.2021
513 Clear 10 1021 76 10000 2.22 138 09:56 09.04.2021
514 Clear 10 1021 76 10000 2.38 154 09:27 09.04.2021
515 Clear 10 1021 76 10000 1.54 120 08:55 09.04.2021
516 Clear 10 1021 76 10000 1.54 120 08:28 09.04.2021
517 Clear 10 1021 76 10000 2.57 50 07:21 09.04.2021
518 Clear 11 1021 71 10000 3.55 157 06:26 09.04.2021
519 Clear 13 1020 58 10000 2.06 0 03:57 09.04.2021
520 Clear 13 1020 58 10000 2.06 0 03:39 09.04.2021
521 Clear 18 1019 45 10000 3.6 170 00:39 09.04.2021
522 Clear 18 1019 45 10000 3.6 170 00:21 09.04.2021
523 Clear 18 1019 45 10000 4.12 190 23:32 08.04.2021
524 Clear 20 1018 42 10000 3.09 210 22:52 08.04.2021
525 Clear 20 1018 42 10000 3.09 210 22:27 08.04.2021
526 Clear 20 1019 48 10000 3.09 230 21:58 08.04.2021
527 Clear 20 1019 48 10000 3.09 230 21:40 08.04.2021
528 Clear 20 1019 37 10000 2.57 190 21:22 08.04.2021
529 Clear 20 1019 45 10000 3.6 270 20:58 08.04.2021
530 Clear 20 1019 37 10000 2.06 0 20:39 08.04.2021
531 Clear 19 1020 45 10000 3.09 260 19:59 08.04.2021
532 Clear 19 1020 45 10000 3.09 260 19:40 08.04.2021
533 Clear 19 1020 45 10000 3.09 260 19:19 08.04.2021
534 Clear 18 1020 48 10000 2.57 260 18:42 08.04.2021
535 Clear 18 1020 48 10000 2.57 260 18:19 08.04.2021
536 Clear 17 1021 45 10000 2.06 260 17:42 08.04.2021
537 Clear 17 1021 45 10000 2.06 260 17:20 08.04.2021
538 Clear 15 1021 44 10000 2.06 260 16:45 08.04.2021
539 Clear 15 1021 44 10000 2.06 260 16:22 08.04.2021
540 Clear 14 1021 54 10000 2.57 270 15:46 08.04.2021
541 Clear 13 1021 54 10000 2.57 270 15:26 08.04.2021
542 Clear 12 1021 66 10000 0.81 130 14:43 08.04.2021
543 Clear 11 1021 66 10000 1.66 98 14:21 08.04.2021
544 Clear 10 1020 66 10000 1.66 98 13:49 08.04.2021
545 Clear 10 1020 66 10000 1.31 99 13:24 08.04.2021
546 Clear 9 1020 71 10000 1.54 170 12:58 08.04.2021
547 Clear 9 1020 71 10000 1.54 170 12:34 08.04.2021
548 Clear 9 1020 66 10000 1.54 250 11:57 08.04.2021
549 Clear 9 1020 66 10000 1.54 250 11:29 08.04.2021
550 Clear 9 1019 71 10000 1.38 169 10:56 08.04.2021
551 Clear 9 1019 71 10000 2 136 10:26 08.04.2021
552 Clear 9 1019 71 10000 2 136 10:26 08.04.2021
553 Clear 9 1019 71 10000 2.01 136 10:26 08.04.2021
554 Clear 9 1019 71 10000 2 136 10:26 08.04.2021
555 Clear 9 1019 66 10000 2 136 09:49 08.04.2021
556 Clear 9 1019 66 10000 2 136 09:30 08.04.2021
557 Clear 9 1019 71 10000 3.03 123 08:45 08.04.2021
558 Clear 9 1019 71 10000 3.61 128 08:22 08.04.2021
559 Clear 10 1019 66 10000 2.57 180 07:47 08.04.2021
560 Clear 10 1019 62 10000 3.92 127 06:48 08.04.2021
561 Clear 14 1016 47 10000 2.06 110 02:26 08.04.2021
562 Clear 18 1015 34 10000 3.17 28 00:34 08.04.2021
563 Clear 20 1014 34 10000 2.06 230 23:56 07.04.2021
564 Clear 20 1014 34 10000 2.06 230 23:37 07.04.2021
565 Clear 21 1014 34 10000 2.06 230 23:18 07.04.2021
566 Clear 21 1014 32 10000 2.06 220 22:43 07.04.2021
567 Clear 21 1014 32 10000 2.06 220 22:22 07.04.2021
568 Clear 21 1014 32 10000 2.06 220 22:22 07.04.2021
569 Clear 21 1014 32 10000 2.06 220 22:22 07.04.2021
570 Clear 20 1015 34 10000 2.06 220 21:42 07.04.2021
571 Clear 20 1015 34 10000 2.06 220 21:21 07.04.2021
572 Clear 19 1015 36 10000 2.57 260 20:42 07.04.2021
573 Clear 19 1015 36 10000 2.57 260 20:20 07.04.2021
574 Clear 18 1016 34 10000 2.06 170 19:42 07.04.2021
575 Clear 18 1016 34 10000 2.06 170 19:24 07.04.2021
576 Clouds 17 1016 39 10000 2.06 240 18:47 07.04.2021
577 Clouds 16 1016 39 10000 2.06 240 18:19 07.04.2021
578 Clouds 14 1017 47 10000 3.09 40 17:53 07.04.2021
579 Clouds 14 1017 47 10000 3.09 40 17:35 07.04.2021
580 Clouds 13 1017 50 10000 2.06 30 16:48 07.04.2021
581 Clouds 13 1017 50 10000 2.06 30 16:22 07.04.2021
582 Clear 13 1017 47 10000 3.83 25 15:57 07.04.2021
583 Clear 13 1017 47 10000 3.83 25 15:38 07.04.2021
584 Clear 12 1017 50 10000 3.82 15 14:56 07.04.2021
585 Clear 12 1017 50 10000 3.22 23 14:29 07.04.2021
586 Clear 11 1016 50 10000 3.6 60 13:49 07.04.2021
587 Clear 11 1016 50 10000 3.6 60 13:23 07.04.2021
588 Clouds 11 1016 43 10000 2.59 345 12:50 07.04.2021
589 Clouds 11 1016 43 10000 1.99 32 12:24 07.04.2021
590 Clear 10 1015 50 10000 2.57 60 11:54 07.04.2021
591 Clear 11 1015 50 10000 2.57 60 11:26 07.04.2021
592 Clear 11 1015 43 10000 1.54 90 10:52 07.04.2021
593 Clear 11 1015 43 10000 1.54 90 10:19 07.04.2021
594 Clear 12 1015 38 10000 2.75 14 09:41 07.04.2021
595 Clear 12 1015 38 10000 2.46 1 09:21 07.04.2021
596 Clear 12 1016 41 10000 2.57 348 08:41 07.04.2021
597 Clear 12 1016 41 10000 3.16 352 08:18 07.04.2021
598 Clear 12 1015 38 10000 3.16 352 07:42 07.04.2021
599 Clear 13 1015 38 10000 3.04 12 07:21 07.04.2021
600 Clear 13 1015 33 10000 2.37 357 06:24 07.04.2021
601 Clear 15 1015 19 10000 4.06 339 04:23 07.04.2021
602 Clear 20 1012 10 10000 1.54 0 00:21 07.04.2021
603 Clear 21 1012 11 10000 2.06 0 23:46 06.04.2021
604 Clear 21 1012 11 10000 2.06 0 23:21 06.04.2021
605 Clear 20 1012 12 10000 4.63 260 22:40 06.04.2021
606 Clear 20 1012 12 10000 4.63 260 22:19 06.04.2021
607 Clear 20 1012 12 10000 4.63 260 22:19 06.04.2021
608 Clear 20 1013 14 10000 3.6 250 21:41 06.04.2021
609 Clear 20 1013 14 10000 3.6 250 21:22 06.04.2021
610 Clear 19 1013 16 10000 4.96 336 20:54 06.04.2021
611 Clear 18 1013 16 10000 4.57 343 20:24 06.04.2021
612 Clear 18 1014 19 10000 2.06 0 19:56 06.04.2021
613 Clear 17 1014 19 10000 2.06 0 19:34 06.04.2021
614 Clear 16 1015 20 10000 2.57 280 18:57 06.04.2021
615 Clear 16 1015 20 10000 2.57 280 18:39 06.04.2021
616 Clear 16 1015 20 10000 2.57 280 18:19 06.04.2021
617 Clear 15 1016 26 10000 3.09 250 17:41 06.04.2021
618 Clear 14 1016 26 10000 3.09 250 17:18 06.04.2021
619 Clear 13 1016 30 10000 3.09 260 16:43 06.04.2021
620 Clear 12 1016 37 10000 3.09 270 15:59 06.04.2021
621 Clear 11 1016 37 10000 3.09 270 15:25 06.04.2021
622 Clear 10 1016 43 10000 2.06 0 14:43 06.04.2021
623 Clear 10 1016 43 10000 2.06 0 14:24 06.04.2021
624 Clear 9 1015 46 10000 2.57 260 13:46 06.04.2021
625 Clear 8 1015 46 10000 2.57 260 13:25 06.04.2021
626 Clear 8 1015 46 10000 2.57 250 12:45 06.04.2021
627 Clear 8 1015 46 10000 2.57 250 12:27 06.04.2021
628 Clear 8 1015 46 10000 2.57 250 12:27 06.04.2021
629 Clear 8 1015 43 10000 3.09 250 11:59 06.04.2021
630 Clear 9 1015 43 10000 3.09 250 11:40 06.04.2021
631 Clear 9 1015 43 10000 3.09 250 11:19 06.04.2021
632 Clear 9 1015 43 10000 2.06 230 10:42 06.04.2021
633 Clear 9 1015 43 10000 2.06 230 10:21 06.04.2021
634 Clear 10 1015 35 10000 3.72 317 09:44 06.04.2021
635 Clear 10 1015 35 10000 3.91 326 09:23 06.04.2021
636 Clear 11 1015 35 10000 2.57 250 08:29 06.04.2021
637 Clear 11 1015 30 10000 2.57 260 07:32 06.04.2021
638 Clear 12 1015 28 10000 3.6 150 06:54 06.04.2021
639 Clear 16 1013 25 10000 2.06 0 03:55 06.04.2021
640 Clear 19 1011 16 10000 2.06 0 00:59 06.04.2021
641 Clear 19 1011 16 10000 2.06 0 00:38 06.04.2021
642 Clear 19 1011 16 10000 2.06 0 00:20 06.04.2021
643 Clear 20 1011 18 10000 2.57 0 23:41 05.04.2021
644 Clear 20 1011 18 10000 2.57 0 23:18 05.04.2021
645 Clear 20 1011 16 10000 1.54 0 22:41 05.04.2021
646 Clear 20 1011 16 10000 1.54 0 22:20 05.04.2021
647 Clear 19 1012 17 10000 2.06 0 21:38 05.04.2021
648 Clear 19 1012 17 10000 2.06 0 21:19 05.04.2021
649 Clear 19 1013 19 10000 7.5 321 20:42 05.04.2021
650 Clear 19 1013 19 10000 7.5 321 20:42 05.04.2021
651 Clear 19 1013 19 10000 7.5 321 20:42 05.04.2021
652 Clear 18 1013 19 10000 6.93 324 20:22 05.04.2021
653 Clear 18 1013 20 10000 6.94 324 19:38 05.04.2021
654 Clear 17 1013 20 10000 6.9 324 19:19 05.04.2021
655 Clear 16 1014 21 10000 1.54 0 18:42 05.04.2021
656 Clear 15 1014 21 10000 1.54 0 18:20 05.04.2021
657 Clear 15 1015 21 10000 1.54 0 17:47 05.04.2021
658 Clear 14 1016 23 10000 4.63 240 17:24 05.04.2021
659 Clear 13 1015 26 10000 2.06 0 16:56 05.04.2021
660 Clear 14 1015 26 10000 2.06 0 16:37 05.04.2021
661 Clear 13 1015 26 10000 2.06 0 16:18 05.04.2021
662 Clear 12 1016 40 10000 6.68 330 15:40 05.04.2021
663 Clear 12 1016 40 10000 6.65 326 15:21 05.04.2021
664 Clear 10 1016 49 10000 3.09 260 14:36 05.04.2021
665 Clear 10 1016 49 10000 3.09 260 14:36 05.04.2021
666 Clear 9 1016 49 10000 3.09 0 13:54 05.04.2021
667 Clear 8 1016 49 10000 3.09 0 13:29 05.04.2021
668 Clear 8 1016 49 10000 3.6 260 12:47 05.04.2021
669 Clear 8 1016 49 10000 3.6 260 12:47 05.04.2021
670 Clear 8 1016 49 10000 3.6 260 12:26 05.04.2021
671 Clear 9 1016 49 10000 2.06 0 11:52 05.04.2021
672 Clear 9 1016 49 10000 2.06 0 11:30 05.04.2021
673 Clear 9 1016 46 10000 2.06 260 10:56 05.04.2021
674 Clear 9 1016 46 10000 2.06 260 10:36 05.04.2021
675 Clear 10 1016 46 10000 5 310 09:49 05.04.2021
676 Clear 10 1016 46 10000 4.57 315 09:26 05.04.2021
677 Clear 10 1016 43 10000 1.54 270 08:59 05.04.2021
678 Clear 10 1016 43 10000 1.54 270 08:37 05.04.2021
679 Clear 10 1016 43 10000 1.54 270 08:19 05.04.2021
680 Clear 11 1017 46 10000 2.06 190 07:33 05.04.2021
681 Clear 14 1016 44 10000 6.54 335 03:58 05.04.2021
682 Clouds 16 1014 36 10000 6.36 337 01:34 05.04.2021
683 Clouds 16 1014 33 10000 1.54 290 00:20 05.04.2021
684 Clouds 17 1015 38 10000 2.57 220 23:38 04.04.2021
685 Clouds 17 1015 38 10000 2.57 220 23:18 04.04.2021
686 Clear 17 1015 36 10000 2.06 200 22:49 04.04.2021
687 Clear 17 1015 36 10000 2.06 200 22:26 04.04.2021
688 Clear 16 1016 38 10000 2.57 230 21:23 04.04.2021
689 Clear 15 1018 41 10000 3.09 250 20:51 04.04.2021
690 Clear 15 1018 41 10000 3.09 250 20:25 04.04.2021
691 Clouds 14 1018 35 10000 2.06 250 19:43 04.04.2021
692 Clouds 13 1018 35 10000 2.06 250 19:22 04.04.2021
693 Clouds 13 1018 35 10000 2.06 250 19:22 04.04.2021
694 Clouds 13 1019 35 10000 2.06 270 18:57 04.04.2021
695 Clouds 12 1019 35 10000 2.06 270 18:38 04.04.2021
696 Clouds 12 1019 35 10000 2.06 270 18:20 04.04.2021
697 Clouds 11 1019 46 10000 1.54 250 17:37 04.04.2021
698 Clouds 11 1019 46 10000 1.54 250 17:19 04.04.2021
699 Clouds 10 1020 46 10000 2.06 270 16:41 04.04.2021
700 Clouds 10 1020 61 10000 2.15 274 15:58 04.04.2021
701 Clouds 9 1020 61 10000 2.15 274 15:33 04.04.2021
702 Clouds 8 1021 61 10000 1.54 270 14:45 04.04.2021
703 Clouds 8 1021 61 10000 1.54 270 14:27 04.04.2021
704 Clouds 7 1021 53 10000 2.47 270 13:30 04.04.2021
705 Clouds 7 1021 57 10000 1.54 230 12:57 04.04.2021
706 Clouds 7 1021 57 10000 1.54 230 12:33 04.04.2021
707 Clouds 7 1022 53 10000 2.57 240 11:59 04.04.2021
708 Clouds 7 1022 53 10000 2.57 240 11:39 04.04.2021
709 Clouds 7 1022 53 10000 2.57 240 11:20 04.04.2021
710 Clouds 7 1022 49 10000 2.57 250 10:40 04.04.2021
711 Clouds 8 1023 49 10000 4 291 09:53 04.04.2021
712 Clouds 8 1023 49 10000 4.48 296 09:25 04.04.2021
713 Clouds 8 1024 36 10000 4.5 296 08:53 04.04.2021
714 Clouds 8 1024 36 10000 4.48 296 08:35 04.04.2021
715 Clouds 8 1024 36 10000 4.48 296 08:35 04.04.2021
716 Clouds 8 1024 36 10000 2.06 260 07:54 04.04.2021
717 Clear 8 1024 34 10000 2.57 250 06:37 04.04.2021
718 Clear 8 1024 29 10000 1.54 250 05:33 04.04.2021
719 Clear 10 1023 26 10000 1.54 230 01:28 04.04.2021
720 Clear 11 1024 26 10000 2.57 200 00:20 04.04.2021
721 Clear 12 1024 15 10000 3.6 270 23:48 03.04.2021
722 Clear 12 1024 22 10000 2.06 230 23:29 03.04.2021
723 Clear 11 1025 22 10000 2.06 0 22:52 03.04.2021
724 Clear 11 1025 22 10000 2.06 0 22:22 03.04.2021
725 Clear 11 1025 22 10000 2.57 0 21:49 03.04.2021
726 Clear 11 1025 17 10000 3.6 270 21:24 03.04.2021
727 Clear 10 1026 25 10000 3.09 250 20:51 03.04.2021
728 Clear 9 1026 25 10000 3.09 250 20:28 03.04.2021
729 Clear 8 1027 23 10000 3.6 260 19:51 03.04.2021
730 Clear 8 1027 23 10000 3.6 260 19:27 03.04.2021
731 Clear 7 1028 23 10000 2.06 0 18:53 03.04.2021
732 Clear 7 1028 23 10000 2.06 0 18:34 03.04.2021
733 Clear 6 1028 26 10000 2.06 0 17:55 03.04.2021
734 Clear 5 1029 20 10000 3.6 270 17:26 03.04.2021
735 Clear 5 1029 31 10000 2.57 0 16:54 03.04.2021
736 Clear 4 1029 26 10000 1.54 0 16:25 03.04.2021
737 Clear 3 1029 41 10000 3.09 0 15:52 03.04.2021
738 Clear 3 1029 41 10000 3.09 0 15:31 03.04.2021
739 Clear 2 1029 47 10000 2.06 0 14:52 03.04.2021
740 Clear 1 1029 47 10000 2.06 0 14:26 03.04.2021
741 Clear 0 1029 47 10000 2.06 0 13:55 03.04.2021
742 Clear 0 1029 47 10000 2.06 0 13:35 03.04.2021
743 Clear 0 1028 40 10000 2.06 0 12:59 03.04.2021
744 Clear 0 1028 40 10000 2.06 0 12:35 03.04.2021
745 Clear 0 1027 40 10000 2.57 0 11:54 03.04.2021
746 Clear 0 1027 40 10000 2.57 0 11:30 03.04.2021
747 Clear 0 1027 47 10000 1.54 0 10:49 03.04.2021
748 Clear 0 1027 47 10000 1.54 0 10:27 03.04.2021
749 Clear 0 1027 38 10000 2.06 0 09:47 03.04.2021
750 Clear 0 1027 38 10000 2.06 0 09:25 03.04.2021
751 Clear 0 1027 44 10000 2.57 260 08:38 03.04.2021
752 Clear 1 1027 38 10000 2.57 280 07:48 03.04.2021
753 Clear 1 1027 38 10000 2.57 280 07:27 03.04.2021
754 Clear 2 1026 35 10000 2.57 270 04:27 03.04.2021
755 Clouds 3 1024 38 10000 3.09 70 02:58 03.04.2021
756 Clouds 3 1024 38 10000 3.09 70 02:34 03.04.2021
757 Clouds 3 1023 41 10000 5.66 60 01:44 03.04.2021
758 Clouds 3 1023 32 10000 7.4 339 00:19 03.04.2021
759 Clouds 3 1022 33 10000 2.06 0 23:46 02.04.2021
760 Clouds 3 1022 33 10000 2.06 0 23:21 02.04.2021
761 Clouds 3 1022 41 10000 2.57 0 22:50 02.04.2021
762 Clouds 3 1022 41 10000 2.57 0 22:30 02.04.2021
763 Clouds 2 1022 41 10000 7.18 333 21:42 02.04.2021
764 Clouds 2 1022 35 10000 3.6 230 21:20 02.04.2021
765 Clouds 2 1023 34 10000 7.2 240 20:48 02.04.2021
766 Clouds 2 1023 34 10000 7.2 240 20:26 02.04.2021
767 Clouds 1 1023 34 10000 5.14 230 19:56 02.04.2021
768 Clouds 1 1023 34 10000 5.14 230 19:37 02.04.2021
769 Clouds 1 1023 34 10000 5.14 230 19:19 02.04.2021
770 Clouds 1 1023 34 10000 5.14 240 18:38 02.04.2021
771 Clouds 1 1023 34 10000 5.14 240 18:19 02.04.2021
772 Clouds 0 1023 40 10000 3.09 0 17:37 02.04.2021
773 Clouds 0 1023 40 10000 6.97 333 16:48 02.04.2021
774 Clear -1 1023 37 10000 4.12 280 15:54 02.04.2021
775 Clear -1 1023 37 10000 4.12 280 15:32 02.04.2021
776 Clear -2 1022 47 10000 1.54 0 14:48 02.04.2021
777 Clear -2 1022 47 10000 1.54 0 14:27 02.04.2021
778 Clear -2 1022 47 10000 1.54 0 13:42 02.04.2021
779 Clear -2 1022 47 10000 1.54 0 13:19 02.04.2021
780 Clear -1 1020 47 10000 4.12 230 12:41 02.04.2021
781 Clear -1 1020 47 10000 4.12 230 12:41 02.04.2021
782 Clear -1 1020 47 10000 4.12 230 12:20 02.04.2021
783 Clouds 0 1019 55 10000 6.69 240 11:54 02.04.2021
784 Clouds 0 1019 55 10000 6.69 240 11:20 02.04.2021
785 Clouds 1 1018 60 10000 3.09 0 10:50 02.04.2021
786 Clouds 1 1018 60 10000 3.09 0 10:29 02.04.2021
787 Clouds 1 1018 51 10000 6.69 250 09:53 02.04.2021
788 Clouds 1 1018 51 10000 6.69 250 09:53 02.04.2021
789 Clouds 1 1018 51 10000 6.69 250 09:27 02.04.2021
790 Clouds 2 1018 56 10000 1.54 0 08:54 02.04.2021
791 Clouds 2 1018 56 10000 1.54 0 08:30 02.04.2021
792 Clouds 3 1018 52 10000 5.66 240 07:30 02.04.2021
793 Clouds 3 1017 52 10000 3.09 0 06:52 02.04.2021
794 Clouds 4 1017 52 10000 2.06 0 05:28 02.04.2021
795 Clouds 6 1015 42 10000 1.54 0 02:45 02.04.2021
796 Clouds 7 1013 36 10000 5.14 250 00:52 02.04.2021
797 Clouds 8 1013 40 10000 2.57 0 00:22 02.04.2021
798 Clouds 9 1012 32 10000 8.58 317 23:40 01.04.2021
799 Clouds 10 1012 32 10000 4.12 240 22:59 01.04.2021
800 Clouds 10 1012 32 10000 4.12 240 22:20 01.04.2021
801 Clouds 10 1011 37 10000 5.66 240 21:51 01.04.2021
802 Clouds 10 1011 37 10000 5.66 240 21:28 01.04.2021
803 Clouds 9 1011 53 10000 8.17 319 20:54 01.04.2021
804 Clouds 9 1011 53 10000 7.83 322 20:28 01.04.2021
805 Clouds 8 1011 65 10000 2.57 0 19:56 01.04.2021
806 Clouds 7 1011 65 10000 2.57 0 19:36 01.04.2021
807 Clouds 6 1011 70 10000 7.81 323 18:47 01.04.2021
808 Clouds 6 1011 75 10000 7.14 331 18:19 01.04.2021
809 Rain 5 1011 81 10000 1.54 0 17:54 01.04.2021
810 Clouds 5 1011 81 10000 1.54 0 17:33 01.04.2021
811 Clouds 5 1011 75 10000 4.63 230 16:54 01.04.2021
812 Clouds 6 1010 76 10000 2.06 0 16:34 01.04.2021
813 Clouds 6 1010 81 10000 6.84 317 15:49 01.04.2021
814 Rain 6 1010 81 10000 7.16 346 15:20 01.04.2021
815 Rain 6 1009 81 10000 3.09 0 14:48 01.04.2021
816 Rain 6 1009 81 10000 3.09 0 14:28 01.04.2021
817 Rain 6 1009 81 10000 7.54 320 13:58 01.04.2021
818 Rain 6 1009 81 10000 7.54 320 13:31 01.04.2021
819 Rain 7 1008 81 10000 1.54 0 12:56 01.04.2021
820 Rain 7 1008 81 10000 1.54 0 12:34 01.04.2021
821 Rain 7 1007 81 10000 2.06 0 11:58 01.04.2021
822 Clouds 7 1007 81 10000 2.06 0 11:40 01.04.2021
823 Clouds 7 1007 81 10000 2.06 0 11:18 01.04.2021
824 Clouds 7 1007 87 10000 8.51 324 10:45 01.04.2021
825 Clouds 8 1007 87 10000 6.6 329 10:24 01.04.2021
826 Clouds 9 1006 93 10000 1.54 0 09:32 01.04.2021
827 Clouds 10 1006 100 10000 1.54 0 08:54 01.04.2021
828 Clouds 10 1006 100 10000 1.54 0 08:54 01.04.2021
829 Clouds 11 1006 100 10000 4.02 309 08:28 01.04.2021
830 Clouds 14 1007 94 10000 2.06 280 07:22 01.04.2021
831 Mist 14 1009 94 4828 2.21 290 06:56 01.04.2021
832 Rain 14 1011 100 10000 1.51 236 05:34 01.04.2021
833 Rain 14 1013 94 10000 3.34 161 03:20 01.04.2021
834 Rain 15 1015 88 10000 1.54 0 00:19 01.04.2021
835 Clouds 15 1015 77 10000 4.97 170 23:40 31.03.2021
836 Clouds 15 1016 77 10000 2.06 0 22:56 31.03.2021
837 Rain 15 1016 77 10000 2.06 0 22:37 31.03.2021
838 Rain 15 1016 77 10000 2.06 0 22:18 31.03.2021
839 Rain 16 1016 63 10000 4.12 160 21:40 31.03.2021
840 Rain 17 1016 63 10000 4.12 160 21:19 31.03.2021
841 Clouds 17 1017 67 10000 3.6 180 20:41 31.03.2021
842 Clouds 17 1017 67 10000 3.6 180 20:22 31.03.2021
843 Clouds 17 1018 72 10000 1.54 190 19:42 31.03.2021
844 Clouds 17 1018 72 10000 1.54 190 19:21 31.03.2021
845 Clouds 17 1019 72 10000 2.06 300 18:57 31.03.2021
846 Clouds 17 1019 72 10000 2.06 300 18:38 31.03.2021
847 Clouds 17 1020 67 10000 2.57 0 17:51 31.03.2021
848 Clouds 16 1020 67 10000 2.57 0 17:30 31.03.2021
849 Clouds 15 1021 77 10000 2.57 250 16:55 31.03.2021
850 Clouds 15 1021 77 10000 2.57 250 16:36 31.03.2021
851 Clouds 14 1021 72 10000 2.06 0 15:59 31.03.2021
852 Clouds 13 1021 82 10000 4.46 173 15:41 31.03.2021
853 Clouds 13 1021 82 10000 3.9 176 15:19 31.03.2021
854 Clouds 12 1022 82 10000 3.9 176 14:42 31.03.2021
855 Clouds 11 1022 82 10000 3.37 173 14:19 31.03.2021
856 Clouds 10 1022 82 10000 3.37 173 13:35 31.03.2021
857 Clear 9 1022 82 10000 1.54 30 12:41 31.03.2021
858 Clear 9 1022 82 10000 1.54 30 12:20 31.03.2021
859 Clear 9 1022 87 10000 2.06 30 11:41 31.03.2021
860 Clear 9 1022 87 10000 2.06 30 11:20 31.03.2021
861 Clear 9 1023 87 10000 2.06 0 10:46 31.03.2021
862 Clear 9 1023 87 10000 2.06 0 10:24 31.03.2021
863 Clear 9 1024 82 10000 3.45 173 09:38 31.03.2021
864 Clear 9 1025 81 10000 3.59 176 08:55 31.03.2021
865 Clear 9 1025 81 10000 3.59 176 08:33 31.03.2021
866 Clear 9 1025 81 10000 2.06 0 07:49 31.03.2021
867 Clear 9 1026 76 10000 2.57 280 06:38 31.03.2021
868 Clear 10 1026 76 10000 2.57 200 03:51 31.03.2021
869 Clear 11 1026 54 10000 5.66 160 01:38 31.03.2021
870 Clear 12 1027 50 10000 6.69 170 00:48 31.03.2021
871 Clear 13 1027 50 10000 6.69 170 00:19 31.03.2021
872 Clear 14 1027 44 10000 7.2 160 23:33 30.03.2021
873 Clear 14 1028 38 10000 8.23 160 22:59 30.03.2021
874 Clear 14 1028 38 10000 8.23 160 22:40 30.03.2021
875 Clear 14 1028 38 10000 8.23 160 22:21 30.03.2021
876 Clear 15 1029 41 10000 6.69 160 21:48 30.03.2021
877 Clear 15 1029 41 10000 6.69 160 21:20 30.03.2021
878 Clear 15 1029 38 10000 3.6 150 20:51 30.03.2021
879 Clear 15 1029 38 10000 3.6 150 20:28 30.03.2021
880 Clear 14 1030 35 10000 4.63 190 19:51 30.03.2021
881 Clear 14 1030 35 10000 4.63 190 19:27 30.03.2021
882 Clear 13 1030 44 10000 6.17 160 18:39 30.03.2021
883 Clear 12 1031 43 10000 3.6 150 17:58 30.03.2021
884 Clear 12 1031 43 10000 3.6 150 17:38 30.03.2021
885 Clear 12 1031 43 10000 3.6 150 17:20 30.03.2021
886 Clear 11 1031 50 10000 4.12 180 16:45 30.03.2021
887 Clear 11 1031 50 10000 4.12 180 16:23 30.03.2021
888 Clear 9 1030 53 10000 3.6 140 15:21 30.03.2021
889 Clear 8 1030 61 10000 3.09 30 14:57 30.03.2021
890 Clear 7 1030 61 10000 3.09 30 14:22 30.03.2021
891 Clear 7 1029 53 10000 4.12 30 13:59 30.03.2021
892 Clear 6 1029 53 10000 4.12 30 13:37 30.03.2021
893 Clear 6 1029 49 10000 3.6 40 12:49 30.03.2021
894 Clear 6 1029 49 10000 3.6 40 12:29 30.03.2021
895 Clear 6 1028 39 10000 2.06 30 11:58 30.03.2021
896 Clear 6 1028 39 10000 2.06 30 11:23 30.03.2021
897 Clear 6 1028 39 10000 2.06 30 10:47 30.03.2021
898 Clear 7 1028 39 10000 2.06 30 10:28 30.03.2021
899 Clear 6 1027 42 10000 0.94 39 09:57 30.03.2021
900 Clear 6 1027 42 10000 0.94 39 09:37 30.03.2021
901 Clear 7 1027 42 10000 0.96 4 09:18 30.03.2021
902 Clear 7 1027 40 10000 2.06 40 08:39 30.03.2021
903 Clear 7 1027 36 10000 0.65 6 07:52 30.03.2021
904 Clear 7 1027 36 10000 0.89 347 07:22 30.03.2021
905 Clear 8 1025 40 10000 3.6 50 05:49 30.03.2021
906 Clear 9 1025 40 10000 3.6 50 05:19 30.03.2021
907 Clear 12 1021 26 10000 5.66 230 00:58 30.03.2021
908 Clear 12 1020 24 10000 6.17 210 23:51 29.03.2021
909 Clear 13 1020 26 10000 6.17 230 22:54 29.03.2021
910 Clear 12 1020 26 10000 6.17 230 22:32 29.03.2021
911 Clear 12 1018 28 10000 2.57 0 21:52 29.03.2021
912 Clear 12 1018 28 10000 2.57 0 21:31 29.03.2021
913 Clear 12 1018 35 10000 2.06 0 20:50 29.03.2021
914 Clear 11 1018 35 10000 2.06 0 20:28 29.03.2021
915 Clouds 10 1018 35 10000 3.09 0 19:50 29.03.2021
916 Clouds 10 1018 35 10000 3.09 0 19:27 29.03.2021
917 Clouds 10 1017 37 10000 3.09 0 18:51 29.03.2021
918 Clouds 9 1018 34 10000 6.69 240 18:27 29.03.2021
919 Clouds 9 1016 37 10000 4.63 220 17:52 29.03.2021
920 Clouds 9 1016 37 10000 4.63 220 17:33 29.03.2021
921 Clouds 9 1015 43 10000 4.12 280 16:50 29.03.2021
922 Clouds 8 1015 43 10000 4.12 280 16:24 29.03.2021
923 Clouds 8 1013 46 10000 2.57 0 15:40 29.03.2021
924 Clouds 8 1013 46 10000 2.57 0 15:22 29.03.2021
925 Clouds 7 1012 46 10000 2.57 0 14:47 29.03.2021
926 Clouds 7 1011 46 10000 2.57 0 13:56 29.03.2021
927 Clouds 7 1011 46 10000 2.57 0 13:37 29.03.2021
928 Clouds 7 1009 46 10000 2.06 0 12:59 29.03.2021
929 Clouds 7 1009 46 10000 2.06 0 12:40 29.03.2021
930 Clouds 7 1007 53 10000 4.12 270 11:46 29.03.2021
931 Clouds 7 1007 53 10000 4.12 270 11:28 29.03.2021
932 Clouds 8 1006 53 10000 3.09 0 10:46 29.03.2021
933 Clouds 8 1006 53 10000 3.09 0 10:21 29.03.2021
934 Clouds 8 1005 53 10000 5.66 270 09:32 29.03.2021
935 Clouds 10 1004 53 10000 4.12 280 08:43 29.03.2021
936 Clouds 10 1004 53 10000 4.12 280 08:25 29.03.2021
937 Clear 11 1003 50 10000 3.09 0 07:20 29.03.2021
938 Clouds 12 1001 66 10000 2.06 0 06:25 29.03.2021
939 Rain 14 999 88 10000 1.54 0 02:58 29.03.2021
940 Clouds 16 998 88 10000 2.06 40 00:45 29.03.2021
941 Clouds 16 998 88 10000 2.06 40 00:18 29.03.2021
942 Clouds 15 999 88 10000 3.09 280 23:30 28.03.2021
943 Clouds 14 999 94 10000 2.57 0 22:50 28.03.2021
944 Clouds 13 999 94 10000 2.57 0 22:30 28.03.2021
945 Clouds 13 1001 94 10000 6.44 181 21:57 28.03.2021
946 Clouds 13 1001 94 10000 6.44 181 21:38 28.03.2021
947 Clouds 13 1001 94 10000 6.8 182 21:18 28.03.2021
948 Clouds 13 1003 94 10000 6.8 182 20:42 28.03.2021
949 Clouds 12 1003 94 10000 7.17 176 20:24 28.03.2021
950 Mist 12 1004 94 4828 3.09 0 19:42 28.03.2021
951 Mist 12 1005 94 4023 8.45 171 19:22 28.03.2021
952 Clouds 12 1007 94 10000 1.54 0 18:53 28.03.2021
953 Clouds 12 1008 94 10000 2.57 30 18:25 28.03.2021
954 Rain 11 1010 93 10000 2.57 0 17:46 28.03.2021
955 Rain 11 1011 93 8047 3.09 40 17:23 28.03.2021
956 Rain 11 1013 87 6437 2.06 60 16:45 28.03.2021
957 Rain 10 1013 93 3219 5.89 145 16:23 28.03.2021
958 Rain 11 1013 82 8047 3.09 0 15:25 28.03.2021
959 Clouds 11 1014 82 10000 5.66 30 14:50 28.03.2021
960 Clouds 11 1014 82 10000 4.12 40 14:30 28.03.2021
961 Clouds 11 1016 76 10000 5.14 30 13:43 28.03.2021
962 Clouds 11 1016 76 10000 5.14 30 13:20 28.03.2021
963 Clouds 11 1017 82 10000 2.06 0 12:49 28.03.2021
964 Clouds 11 1017 82 10000 2.06 0 12:29 28.03.2021
965 Clouds 10 1017 81 10000 2.57 0 11:43 28.03.2021
966 Clouds 10 1017 81 10000 2.57 0 11:24 28.03.2021
967 Clouds 10 1017 81 10000 3.09 0 10:44 28.03.2021
968 Clouds 10 1017 81 10000 3.09 0 10:24 28.03.2021
969 Clear 10 1018 76 10000 4.63 40 09:46 28.03.2021
970 Clear 10 1018 76 10000 4.63 40 09:24 28.03.2021
971 Clear 11 1019 62 10000 2.57 30 08:45 28.03.2021
972 Clear 12 1020 58 10000 1.54 0 07:49 28.03.2021
973 Clear 13 1020 62 10000 2.06 270 06:30 28.03.2021
974 Clear 13 1021 67 10000 3.94 160 03:55 28.03.2021
975 Clear 14 1020 62 10000 1.54 0 00:53 28.03.2021
976 Clear 14 1020 62 10000 1.54 0 00:20 28.03.2021
977 Clear 14 1020 58 10000 3.09 0 23:40 27.03.2021
978 Clear 15 1020 51 10000 3.09 140 22:58 27.03.2021
979 Clear 15 1020 51 10000 3.09 140 22:36 27.03.2021
980 Clear 16 1020 45 10000 4.63 170 21:58 27.03.2021
981 Clear 16 1020 45 10000 4.63 170 21:37 27.03.2021
982 Clear 17 1020 45 10000 4.63 170 21:19 27.03.2021
983 Clear 19 1020 37 10000 1.54 240 20:38 27.03.2021
984 Clear 19 1020 37 10000 1.54 240 20:20 27.03.2021
985 Clouds 19 1020 42 10000 2.57 190 19:42 27.03.2021
986 Clouds 19 1020 42 10000 2.57 190 19:23 27.03.2021
987 Clouds 18 1021 45 10000 2.57 200 18:49 27.03.2021
988 Clouds 18 1021 45 10000 2.57 200 18:28 27.03.2021
989 Clear 17 1021 48 10000 3.09 220 17:54 27.03.2021
990 Clear 17 1021 48 10000 3.09 220 17:24 27.03.2021
991 Clear 16 1022 44 10000 3.6 250 16:51 27.03.2021
992 Clear 16 1022 44 10000 3.6 250 16:29 27.03.2021
993 Clear 14 1022 51 10000 2.06 0 15:54 27.03.2021
994 Clear 14 1022 51 10000 2.06 0 15:27 27.03.2021
995 Clear 13 1022 54 10000 3.09 0 14:50 27.03.2021
996 Clear 11 1021 54 10000 1.54 0 13:59 27.03.2021
997 Clear 11 1021 54 10000 1.54 0 13:26 27.03.2021
998 Clear 10 1020 57 10000 3.6 250 12:56 27.03.2021
999 Clear 10 1020 57 10000 3.6 250 12:31 27.03.2021
1000 Clear 10 1019 54 10000 2.06 280 11:47 27.03.2021
1001 Clear 10 1019 54 10000 2.06 280 11:27 27.03.2021
1002 Clear 11 1018 58 10000 5.06 302 10:46 27.03.2021
1003 Clear 11 1018 58 10000 4.97 303 10:24 27.03.2021
1004 Clear 11 1018 54 10000 2.57 0 09:29 27.03.2021
1005 Clear 11 1018 54 10000 2.57 0 09:29 27.03.2021
1006 Clear 12 1017 58 10000 5.07 305 08:49 27.03.2021
1007 Clear 12 1017 58 10000 5.06 305 08:31 27.03.2021
1008 Clear 12 1017 54 10000 1.54 0 07:36 27.03.2021
1009 Clear 12 1017 54 10000 6.15 299 06:58 27.03.2021
1010 Clear 13 1017 54 10000 6.62 300 06:34 27.03.2021
1011 Clear 13 1017 54 10000 6.15 299 06:34 27.03.2021
1012 Clear 14 1015 51 10000 3.09 0 04:40 27.03.2021
1013 Clear 21 1008 40 10000 3.09 0 00:56 27.03.2021
1014 Clear 21 1008 40 10000 3.09 0 00:31 27.03.2021
1015 Clear 24 1005 35 10000 5.14 280 23:55 26.03.2021
1016 Clear 24 1005 35 10000 5.14 280 23:22 26.03.2021
1017 Clear 25 1004 31 10000 11.83 260 22:36 26.03.2021
1018 Clouds 27 1003 31 10000 11.32 270 21:40 26.03.2021
1019 Clouds 27 1003 31 10000 11.32 270 21:22 26.03.2021
1020 Clouds 27 1002 33 10000 13.38 270 20:49 26.03.2021
1021 Clouds 27 1002 33 10000 13.38 270 20:30 26.03.2021
1022 Clouds 27 1002 33 10000 13.38 270 20:30 26.03.2021
1023 Clouds 27 1002 33 10000 13.38 270 20:30 26.03.2021
1024 Clouds 26 1003 46 10000 11.32 260 19:50 26.03.2021
1025 Clouds 26 1003 46 10000 11.32 260 19:30 26.03.2021
1026 Clouds 24 1003 60 10000 7.72 270 18:46 26.03.2021
1027 Clouds 24 1003 60 10000 7.72 270 18:27 26.03.2021
1028 Clouds 20 1004 73 10000 6.69 270 17:49 26.03.2021
1029 Clouds 18 1004 82 10000 6.17 270 17:18 26.03.2021
1030 Clouds 16 1005 88 10000 3.09 0 16:34 26.03.2021
1031 Clouds 15 1007 88 10000 6.8 213 15:58 26.03.2021
1032 Clouds 15 1007 88 10000 6.8 213 15:58 26.03.2021
1033 Clouds 15 1007 88 10000 5.47 202 15:26 26.03.2021
1034 Clouds 14 1007 94 10000 1.54 0 14:39 26.03.2021
1035 Clouds 13 1008 94 10000 2.06 40 13:46 26.03.2021
1036 Clouds 13 1008 94 10000 2.06 40 13:46 26.03.2021
1037 Clouds 13 1008 94 10000 2.06 40 13:22 26.03.2021
1038 Clouds 12 1009 88 10000 2.06 20 12:35 26.03.2021
1039 Mist 12 1011 94 8047 2.46 152 11:47 26.03.2021
1040 Clouds 12 1009 94 10000 3.09 20 11:27 26.03.2021
1041 Clouds 11 1010 93 10000 3.09 30 10:42 26.03.2021
1042 Clouds 11 1010 87 10000 3.6 40 10:19 26.03.2021
1043 Clear 11 1011 94 10000 2.57 0 09:41 26.03.2021
1044 Clouds 11 1012 87 10000 2.57 30 08:48 26.03.2021
1045 Clouds 11 1012 87 10000 2.57 30 08:26 26.03.2021
1046 Clouds 11 1013 93 10000 2.06 40 07:44 26.03.2021
1047 Clouds 11 1013 93 10000 2.06 40 07:22 26.03.2021
1048 Clouds 11 1015 94 10000 4.99 164 06:55 26.03.2021
1049 Clouds 13 1016 88 10000 3.09 40 05:32 26.03.2021
1050 Rain 13 1017 88 10000 4.1 172 03:29 26.03.2021
1051 Clear 16 1017 88 10000 1.54 260 00:52 26.03.2021
1052 Clouds 17 1017 77 10000 1.54 270 23:51 25.03.2021
1053 Clouds 17 1017 77 10000 1.54 270 23:33 25.03.2021
1054 Clouds 17 1018 77 10000 2.57 260 22:40 25.03.2021
1055 Clouds 18 1018 77 10000 2.57 260 22:19 25.03.2021
1056 Clouds 18 1018 77 10000 2.57 250 21:45 25.03.2021
1057 Clouds 19 1018 77 10000 2.57 250 21:24 25.03.2021
1058 Clouds 19 1019 72 10000 2.06 240 20:38 25.03.2021
1059 Clouds 19 1019 72 10000 2.06 240 20:18 25.03.2021
1060 Clouds 19 1019 82 10000 2.06 250 19:40 25.03.2021
1061 Clouds 18 1019 82 10000 2.06 250 19:21 25.03.2021
1062 Clouds 18 1019 77 10000 2.06 0 18:43 25.03.2021
1063 Haze 17 1019 77 8047 2.06 260 18:25 25.03.2021
1064 Mist 15 1019 94 2414 1.64 239 17:40 25.03.2021
1065 Mist 15 1019 94 2414 1.63 239 17:21 25.03.2021
1066 Mist 14 1020 94 8047 1.63 239 16:37 25.03.2021
1067 Mist 13 1020 94 8047 2.2 265 16:19 25.03.2021
1068 Fog 12 1020 100 402 2.06 240 15:41 25.03.2021
1069 Fog 12 1020 100 402 2.06 240 15:19 25.03.2021
1070 Fog 12 1020 93 402 1.54 230 14:41 25.03.2021
1071 Fog 11 1018 93 402 0.94 343 13:40 25.03.2021
1072 Fog 11 1018 93 402 0.87 324 13:20 25.03.2021
1073 Mist 11 1018 93 1207 0.87 324 12:38 25.03.2021
1074 Mist 11 1018 100 2012 1.44 337 12:19 25.03.2021
1075 Fog 11 1018 93 805 1.44 337 11:45 25.03.2021
1076 Mist 11 1017 100 1609 1.69 16 11:26 25.03.2021
1077 Mist 11 1017 93 3219 1.54 250 10:50 25.03.2021
1078 Mist 10 1016 100 1609 2.67 10 10:24 25.03.2021
1079 Mist 10 1016 100 4828 4.12 40 09:55 25.03.2021
1080 Mist 10 1016 100 4828 4.12 40 09:36 25.03.2021
1081 Mist 10 1017 100 4828 3.09 60 08:43 25.03.2021
1082 Clouds 10 1017 100 10000 4.12 40 07:59 25.03.2021
1083 Mist 10 1017 93 6437 5.66 50 06:59 25.03.2021
1084 Mist 10 1017 93 4828 5.66 50 06:25 25.03.2021
1085 Mist 10 1017 100 3219 6.17 50 05:49 25.03.2021
1086 Rain 11 1018 93 10000 5.66 30 02:48 25.03.2021
1087 Rain 12 1018 94 6437 6.69 40 00:21 25.03.2021
1088 Rain 11 1019 94 6437 5.66 20 23:51 24.03.2021
1089 Rain 12 1019 94 6437 5.66 20 23:28 24.03.2021
1090 Rain 12 1019 94 8047 5.66 30 22:49 24.03.2021
1091 Rain 12 1019 94 8047 5.66 30 22:28 24.03.2021
1092 Rain 12 1020 82 10000 4.63 40 21:44 24.03.2021
1093 Rain 12 1020 82 10000 4.63 40 21:24 24.03.2021
1094 Rain 12 1021 76 10000 4.12 50 20:43 24.03.2021
1095 Rain 12 1021 76 10000 4.12 50 20:20 24.03.2021
1096 Clouds 13 1021 71 10000 4.63 50 19:48 24.03.2021
1097 Clouds 13 1021 71 10000 4.63 50 19:28 24.03.2021
1098 Clouds 13 1022 71 10000 4.63 40 18:49 24.03.2021
1099 Clouds 13 1022 71 10000 4.63 40 18:23 24.03.2021
1100 Clouds 13 1022 71 10000 4.63 30 17:51 24.03.2021
1101 Clouds 13 1022 71 10000 4.63 30 17:31 24.03.2021
1102 Clouds 12 1022 71 10000 4.63 30 16:52 24.03.2021
1103 Clear 12 1023 76 10000 5.14 30 16:29 24.03.2021
1104 Clouds 11 1023 87 10000 5.66 40 15:50 24.03.2021
1105 Clouds 10 1023 87 10000 5.66 40 15:32 24.03.2021
1106 Clouds 10 1023 81 10000 5.66 40 14:48 24.03.2021
1107 Clouds 10 1023 87 10000 6.17 30 14:26 24.03.2021
1108 Clouds 9 1023 87 10000 4.63 40 13:55 24.03.2021
1109 Clouds 9 1023 87 10000 4.63 40 13:28 24.03.2021
1110 Clouds 9 1023 87 10000 4.63 70 12:44 24.03.2021
1111 Clouds 9 1023 87 10000 4.63 70 12:23 24.03.2021
1112 Clouds 8 1022 87 10000 4.12 60 11:49 24.03.2021
1113 Clear 8 1023 87 10000 4.63 60 10:59 24.03.2021
1114 Clear 8 1023 87 10000 4.63 60 10:41 24.03.2021
1115 Clear 8 1023 87 10000 4.63 60 10:22 24.03.2021
1116 Clear 8 1023 81 10000 5.14 30 09:53 24.03.2021
1117 Clear 9 1023 81 10000 5.14 30 09:22 24.03.2021
1118 Clear 9 1023 76 10000 3.09 50 08:52 24.03.2021
1119 Clear 9 1023 76 10000 3.09 50 08:26 24.03.2021
1120 Clear 9 1024 76 10000 3.6 30 07:41 24.03.2021
1121 Clear 9 1024 76 10000 4.12 30 06:54 24.03.2021
1122 Clear 10 1024 76 10000 3.09 50 05:35 24.03.2021
1123 Clear 12 1025 62 10000 4.63 140 00:56 24.03.2021
1124 Clear 13 1025 62 10000 4.63 140 00:28 24.03.2021
1125 Clear 15 1024 48 10000 4.12 130 23:22 23.03.2021
1126 Clear 15 1024 44 10000 4.63 150 22:58 23.03.2021
1127 Clear 15 1024 44 10000 4.63 150 22:40 23.03.2021
1128 Clear 16 1025 45 10000 3.6 140 21:58 23.03.2021
1129 Clear 16 1025 45 10000 3.6 140 21:39 23.03.2021
1130 Clear 16 1025 45 10000 3.6 140 21:19 23.03.2021
1131 Clear 16 1025 55 10000 2.06 260 20:40 23.03.2021
1132 Clear 17 1025 55 10000 2.06 260 20:22 23.03.2021
1133 Clear 17 1026 55 10000 3.6 250 19:44 23.03.2021
1134 Clear 17 1026 55 10000 3.6 250 19:23 23.03.2021
1135 Clear 16 1027 58 10000 3.09 50 18:43 23.03.2021
1136 Clear 15 1027 58 10000 3.09 50 18:21 23.03.2021
1137 Clear 15 1027 66 10000 3.6 70 17:44 23.03.2021
1138 Clear 13 1027 66 10000 3.6 70 17:21 23.03.2021
1139 Clear 12 1027 76 10000 3.09 90 16:26 23.03.2021
1140 Clear 10 1027 87 10000 4.63 70 15:59 23.03.2021
1141 Clear 10 1027 87 10000 4.63 70 15:38 23.03.2021
1142 Mist 8 1027 93 9656 4.63 60 14:50 23.03.2021
1143 Mist 7 1027 93 8047 4.63 60 14:21 23.03.2021
1144 Mist 6 1027 100 8047 4.63 60 13:49 23.03.2021
1145 Mist 6 1027 93 8047 4.63 50 13:26 23.03.2021
1146 Mist 6 1026 93 6437 4.12 60 12:47 23.03.2021
1147 Mist 5 1026 93 9656 4.12 60 12:27 23.03.2021
1148 Clouds 5 1026 93 10000 4.63 50 11:56 23.03.2021
1149 Clouds 6 1026 93 10000 4.63 50 11:36 23.03.2021
1150 Mist 5 1026 87 9656 4.12 60 10:44 23.03.2021
1151 Clear 6 1026 81 10000 3.6 50 10:22 23.03.2021
1152 Clouds 6 1026 81 10000 3.09 50 09:57 23.03.2021
1153 Clouds 6 1026 81 10000 3.09 50 09:29 23.03.2021
1154 Clouds 6 1026 81 10000 3.6 70 08:58 23.03.2021
1155 Clouds 6 1026 81 10000 3.6 70 08:39 23.03.2021
1156 Clouds 6 1026 81 10000 3.6 70 08:20 23.03.2021
1157 Clear 7 1026 81 10000 3.09 60 07:28 23.03.2021
1158 Clear 7 1027 76 10000 3.09 60 06:59 23.03.2021
1159 Clear 7 1027 76 10000 3.09 60 06:23 23.03.2021
1160 Clear 8 1027 76 10000 3.09 40 03:21 23.03.2021
1161 Clear 10 1027 50 10000 3.09 140 00:56 23.03.2021
1162 Clear 12 1027 33 10000 2.06 0 23:33 22.03.2021
1163 Clear 13 1027 33 10000 3.66 153 22:46 22.03.2021
1164 Clear 14 1027 33 10000 3.51 155 22:24 22.03.2021
1165 Clear 14 1028 33 10000 4.63 160 21:57 22.03.2021
1166 Clear 14 1028 33 10000 4.63 160 21:36 22.03.2021
1167 Clear 14 1028 33 10000 4.63 160 21:18 22.03.2021
1168 Clear 14 1028 38 10000 4.63 160 20:38 22.03.2021
1169 Clear 14 1028 38 10000 4.63 160 20:19 22.03.2021
1170 Clear 14 1029 58 10000 3.09 270 19:48 22.03.2021
1171 Clear 14 1029 58 10000 3.09 270 19:29 22.03.2021
1172 Clear 14 1030 47 10000 3.09 260 18:46 22.03.2021
1173 Clear 14 1030 47 10000 3.09 260 18:27 22.03.2021
1174 Clear 13 1030 35 10000 2.06 30 17:57 22.03.2021
1175 Clear 13 1030 35 10000 2.06 30 17:37 22.03.2021
1176 Clear 13 1030 35 10000 2.06 30 17:18 22.03.2021
1177 Clear 12 1031 43 10000 2.06 70 16:43 22.03.2021
1178 Clear 11 1031 62 10000 2.57 50 15:59 22.03.2021
1179 Clear 10 1031 62 10000 2.57 50 15:38 22.03.2021
1180 Clear 10 1031 62 10000 2.57 50 15:18 22.03.2021
1181 Clear 8 1031 81 10000 2.57 60 14:50 22.03.2021
1182 Clear 8 1031 81 10000 2.57 60 14:31 22.03.2021
1183 Clear 6 1031 81 10000 2.57 50 13:47 22.03.2021
1184 Clear 6 1031 81 10000 2.57 50 13:25 22.03.2021
1185 Clear 5 1031 81 10000 1.52 54 12:53 22.03.2021
1186 Clear 5 1031 81 10000 1.08 50 12:24 22.03.2021
1187 Clear 5 1031 81 10000 1.07 50 11:48 22.03.2021
1188 Clear 5 1031 81 10000 0.84 62 11:25 22.03.2021
1189 Clear 5 1031 81 10000 1.54 240 10:44 22.03.2021
1190 Clear 5 1031 81 10000 1.54 240 10:24 22.03.2021
1191 Clouds 5 1031 87 10000 2.06 60 09:44 22.03.2021
1192 Clear 6 1031 75 10000 0.81 148 09:23 22.03.2021
1193 Clear 6 1031 75 10000 0.81 148 08:45 22.03.2021
1194 Clear 6 1031 75 10000 1.44 160 08:25 22.03.2021
1195 Clear 6 1032 81 10000 1.44 160 07:46 22.03.2021
1196 Clear 7 1032 70 10000 1.75 193 06:59 22.03.2021
1197 Clear 7 1032 70 10000 1.75 193 06:36 22.03.2021
1198 Clear 9 1033 37 10000 1.54 150 02:47 22.03.2021
1199 Clear 12 1033 24 10000 3.05 161 00:33 22.03.2021
1200 Clear 13 1033 26 10000 3.04 161 23:55 21.03.2021
1201 Clear 13 1033 26 10000 3.03 156 23:20 21.03.2021
1202 Clear 14 1033 27 10000 1.54 230 22:58 21.03.2021
1203 Clear 15 1033 27 10000 1.54 230 22:30 21.03.2021
1204 Clear 16 1034 27 10000 2.57 240 21:42 21.03.2021
1205 Clear 16 1034 27 10000 2.57 240 21:24 21.03.2021
1206 Clear 16 1034 31 10000 2.06 240 20:48 21.03.2021
1207 Clear 16 1034 31 10000 2.06 240 20:29 21.03.2021
1208 Clear 16 1034 19 10000 3.6 250 19:59 21.03.2021
1209 Clear 16 1034 19 10000 3.6 250 19:28 21.03.2021
1210 Clear 15 1035 20 10000 1.54 260 18:56 21.03.2021
1211 Clear 15 1035 20 10000 1.54 260 18:32 21.03.2021
1212 Clear 14 1035 26 10000 2.57 260 17:59 21.03.2021
1213 Clear 14 1035 26 10000 2.57 260 17:40 21.03.2021
1214 Clear 13 1035 26 10000 2.57 260 17:18 21.03.2021
1215 Clear 13 1036 32 10000 1.99 14 16:48 21.03.2021
1216 Clear 12 1036 32 10000 2.02 12 16:22 21.03.2021
1217 Clear 11 1036 35 10000 2.02 12 15:42 21.03.2021
1218 Clear 11 1036 35 10000 2.05 3 15:20 21.03.2021
1219 Clear 9 1036 65 10000 2.05 3 14:46 21.03.2021
1220 Clear 8 1036 65 10000 2.02 358 14:27 21.03.2021
1221 Clear 6 1035 81 10000 2.02 358 13:57 21.03.2021
1222 Clear 6 1035 81 10000 2.02 358 13:38 21.03.2021
1223 Clear 5 1035 81 10000 1.64 356 12:43 21.03.2021
1224 Clear 4 1035 81 10000 1.39 355 12:25 21.03.2021
1225 Clear 4 1035 81 10000 1.39 355 12:25 21.03.2021
1226 Clear 4 1035 75 10000 1.39 355 11:41 21.03.2021
1227 Clear 4 1035 75 10000 1.58 359 11:20 21.03.2021
1228 Clear 4 1034 70 10000 1.58 359 10:44 21.03.2021
1229 Clear 5 1034 70 10000 1.97 5 10:26 21.03.2021
1230 Clear 5 1034 75 10000 1.97 5 09:49 21.03.2021
1231 Clear 5 1034 75 10000 1.97 5 09:30 21.03.2021
1232 Clear 5 1034 70 10000 1.54 240 08:56 21.03.2021
1233 Clear 5 1034 70 10000 1.54 240 08:31 21.03.2021
1234 Clear 5 1034 61 10000 2.06 230 07:50 21.03.2021
1235 Clear 5 1034 61 10000 2.06 230 07:23 21.03.2021
1236 Clear 6 1034 49 10000 3.09 280 06:21 21.03.2021
1237 Clear 8 1034 46 10000 1.38 319 03:41 21.03.2021
1238 Clear 10 1033 32 10000 2.06 280 00:57 21.03.2021
1239 Clear 11 1033 32 10000 2.06 280 00:37 21.03.2021
1240 Clear 11 1033 32 10000 2.06 280 00:19 21.03.2021
1241 Clear 11 1033 30 10000 2.06 270 23:42 20.03.2021
1242 Clear 13 1033 30 10000 2.06 270 23:19 20.03.2021
1243 Clear 14 1033 30 10000 2.57 220 22:24 20.03.2021
1244 Clear 14 1033 29 10000 2.57 0 21:49 20.03.2021
1245 Clear 14 1033 29 10000 2.57 0 21:27 20.03.2021
1246 Clear 14 1034 33 10000 2.57 230 20:50 20.03.2021
1247 Clear 14 1034 33 10000 2.57 230 20:25 20.03.2021
1248 Clear 14 1034 33 10000 2.57 230 20:25 20.03.2021
1249 Clear 13 1034 32 10000 1.54 200 19:56 20.03.2021
1250 Clear 13 1034 32 10000 1.54 200 19:38 20.03.2021
1251 Clear 13 1034 32 10000 1.54 200 19:20 20.03.2021
1252 Clear 11 1035 43 10000 3.6 200 18:44 20.03.2021
1253 Clear 11 1035 43 10000 3.6 200 18:21 20.03.2021
1254 Clear 10 1036 42 10000 1.54 0 17:43 20.03.2021
1255 Clear 9 1036 42 10000 1.54 0 17:22 20.03.2021
1256 Clear 8 1036 36 10000 2.57 240 16:43 20.03.2021
1257 Clear 7 1036 36 10000 2.57 240 16:20 20.03.2021
1258 Clear 6 1036 33 10000 2.57 250 15:49 20.03.2021
1259 Clear 5 1036 33 10000 2.57 250 15:29 20.03.2021
1260 Clear 4 1036 35 10000 1.54 0 14:42 20.03.2021
1261 Clear 3 1036 35 10000 1.54 0 14:22 20.03.2021
1262 Clear 2 1035 38 10000 1.35 329 13:32 20.03.2021
1263 Clear 1 1035 38 10000 1.71 341 12:44 20.03.2021
1264 Clear 1 1035 38 10000 1.76 346 12:25 20.03.2021
1265 Clear 1 1034 44 10000 2.06 0 11:44 20.03.2021
1266 Clear 1 1034 44 10000 2.06 0 11:24 20.03.2021
1267 Clear 1 1034 44 10000 1.54 0 10:47 20.03.2021
1268 Clear 1 1034 44 10000 1.54 0 10:27 20.03.2021
1269 Clear 1 1033 40 10000 2.41 355 09:54 20.03.2021
1270 Clear 1 1033 48 10000 2.06 0 09:27 20.03.2021
1271 Clear 2 1033 44 10000 3.09 50 08:56 20.03.2021
1272 Clear 2 1033 44 10000 3.09 50 08:29 20.03.2021
1273 Clear 2 1033 41 10000 2.06 0 07:50 20.03.2021
1274 Clear 2 1033 41 10000 2.06 0 07:31 20.03.2021
1275 Clear 2 1032 41 10000 2.82 1 06:46 20.03.2021
1276 Clear 3 1031 38 10000 3.34 17 05:37 20.03.2021
1277 Clear 3 1030 33 10000 2.06 0 03:46 20.03.2021
1278 Clear 4 1029 36 10000 2.57 0 02:44 20.03.2021
1279 Clear 6 1027 21 10000 5.66 20 23:57 19.03.2021
1280 Clear 6 1027 21 10000 5.66 20 23:29 19.03.2021
1281 Clear 6 1026 19 10000 4.12 20 22:48 19.03.2021
1282 Clear 6 1026 19 10000 4.12 20 22:27 19.03.2021
1283 Clear 6 1025 26 10000 4.63 80 21:56 19.03.2021
1284 Clear 6 1025 26 10000 4.63 80 21:22 19.03.2021
1285 Clear 6 1025 29 10000 3.6 90 20:57 19.03.2021
1286 Clear 5 1025 29 10000 3.6 90 20:39 19.03.2021
1287 Clear 5 1025 29 10000 3.6 90 20:21 19.03.2021
1288 Clear 5 1025 31 10000 3.09 0 19:45 19.03.2021
1289 Clear 4 1025 31 10000 3.09 0 19:20 19.03.2021
1290 Clear 4 1025 28 10000 3.09 0 18:40 19.03.2021
1291 Clear 3 1025 28 10000 6.17 350 18:18 19.03.2021
1292 Clear 3 1024 35 10000 4.63 70 17:52 19.03.2021
1293 Clear 2 1024 30 10000 6.69 360 17:28 19.03.2021
1294 Clear 2 1023 32 10000 2.57 0 16:52 19.03.2021
1295 Clear 2 1023 32 10000 2.57 0 16:27 19.03.2021
1296 Clear 1 1022 32 10000 6.69 10 15:55 19.03.2021
1297 Clear 1 1022 32 10000 6.69 10 15:26 19.03.2021
1298 Clear 0 1021 34 10000 4.63 20 14:47 19.03.2021
1299 Clear 0 1021 34 10000 4.63 20 14:27 19.03.2021
1300 Clear 0 1018 37 10000 7.72 40 13:40 19.03.2021
1301 Clear 0 1017 32 10000 5.66 20 12:57 19.03.2021
1302 Clear 0 1017 32 10000 5.66 20 12:35 19.03.2021
1303 Clouds 1 1015 48 10000 4.12 90 11:44 19.03.2021
1304 Clouds 2 1015 35 10000 9.77 20 10:54 19.03.2021
1305 Clouds 2 1014 52 10000 4.63 70 10:31 19.03.2021
1306 Clouds 2 1013 70 10000 5.14 60 09:58 19.03.2021
1307 Clouds 2 1013 70 10000 5.14 60 09:39 19.03.2021
1308 Clouds 3 1013 70 10000 5.14 60 09:19 19.03.2021
1309 Rain 3 1013 87 10000 3.09 0 08:40 19.03.2021
1310 Rain 2 1013 87 10000 2.57 0 08:21 19.03.2021
1311 Rain 3 1012 87 10000 2.57 0 07:39 19.03.2021
1312 Rain 5 1010 87 10000 4.63 50 06:52 19.03.2021
1313 Rain 6 1009 87 10000 4.12 60 03:57 19.03.2021
1314 Mist 7 1008 93 8047 6.17 40 00:58 19.03.2021
1315 Rain 7 1009 93 10000 7.2 30 23:49 18.03.2021
1316 Rain 7 1009 93 10000 7.2 30 23:26 18.03.2021
1317 Rain 7 1010 93 10000 6.17 40 22:41 18.03.2021
1318 Rain 7 1010 93 10000 6.17 40 22:22 18.03.2021
1319 Mist 7 1010 93 8047 6.69 30 21:40 18.03.2021
1320 Rain 7 1011 93 4828 6.69 30 20:54 18.03.2021
1321 Rain 7 1011 93 4828 6.69 30 20:35 18.03.2021
1322 Rain 7 1012 93 4023 2.57 20 19:59 18.03.2021
1323 Rain 7 1012 93 4023 2.57 20 19:59 18.03.2021
1324 Rain 7 1012 93 4023 2.57 20 19:41 18.03.2021
1325 Rain 7 1012 93 10000 5.66 40 19:21 18.03.2021
1326 Rain 7 1014 93 6437 5.14 40 18:39 18.03.2021
1327 Rain 7 1014 93 9656 3.09 80 17:51 18.03.2021
1328 Rain 7 1014 93 9656 3.09 80 17:26 18.03.2021
1329 Rain 7 1016 93 9656 3.09 30 16:52 18.03.2021
1330 Rain 7 1016 93 9656 3.09 30 16:32 18.03.2021
1331 Rain 7 1016 93 10000 3.23 89 15:56 18.03.2021
1332 Rain 7 1016 93 10000 3.28 89 15:37 18.03.2021
1333 Rain 7 1016 93 10000 1.93 76 15:18 18.03.2021
1334 Rain 7 1017 93 9656 1.93 76 14:41 18.03.2021
1335 Clouds 7 1017 93 10000 0.36 149 14:18 18.03.2021
1336 Clouds 7 1017 93 10000 0.36 149 13:37 18.03.2021
1337 Mist 6 1017 87 8047 0.95 139 13:19 18.03.2021
1338 Mist 6 1018 81 6437 1.54 280 12:37 18.03.2021
1339 Mist 6 1018 81 6437 1.54 280 12:37 18.03.2021
1340 Mist 6 1018 81 6437 1.54 280 12:19 18.03.2021
1341 Clouds 7 1018 81 10000 1.54 260 11:44 18.03.2021
1342 Clouds 7 1018 81 10000 1.54 260 11:20 18.03.2021
1343 Clouds 7 1018 81 10000 1.54 270 10:41 18.03.2021
1344 Clouds 7 1018 81 10000 1.54 270 10:23 18.03.2021
1345 Clouds 6 1018 87 10000 0.95 188 09:52 18.03.2021
1346 Clouds 6 1018 87 10000 0.95 218 09:27 18.03.2021
1347 Clouds 6 1020 81 10000 2.06 270 08:45 18.03.2021
1348 Clouds 6 1020 81 10000 2.06 270 08:25 18.03.2021
1349 Clouds 6 1020 87 10000 2.57 280 07:47 18.03.2021
1350 Clouds 6 1020 87 10000 3.09 200 06:50 18.03.2021
1351 Clouds 6 1020 87 10000 3.09 200 06:26 18.03.2021
1352 Clouds 6 1021 87 10000 2.57 200 05:27 18.03.2021
1353 Clouds 7 1022 76 10000 1.54 250 00:49 18.03.2021
1354 Clouds 7 1021 70 10000 2.06 270 23:39 17.03.2021
1355 Clouds 7 1022 70 10000 3.6 240 22:43 17.03.2021
1356 Clouds 7 1022 70 10000 3.6 240 22:43 17.03.2021
1357 Clouds 8 1022 70 10000 3.6 240 22:24 17.03.2021
1358 Clouds 8 1021 66 10000 2.06 0 21:52 17.03.2021
1359 Clouds 8 1021 66 10000 2.06 0 21:33 17.03.2021
1360 Clouds 8 1020 76 10000 2.06 240 20:58 17.03.2021
1361 Clouds 8 1020 76 10000 2.06 240 20:40 17.03.2021
1362 Clouds 8 1021 76 10000 2.57 270 20:20 17.03.2021
1363 Clouds 8 1022 70 10000 2.57 260 19:43 17.03.2021
1364 Clouds 8 1022 70 10000 2.57 260 19:20 17.03.2021
1365 Clouds 7 1022 70 10000 2.57 270 18:52 17.03.2021
1366 Clouds 7 1022 70 10000 2.57 270 18:32 17.03.2021
1367 Clouds 6 1023 75 10000 1.54 30 17:43 17.03.2021
1368 Clouds 6 1023 75 10000 1.54 30 17:23 17.03.2021
1369 Clouds 5 1023 81 10000 2.06 20 16:43 17.03.2021
1370 Clouds 4 1023 81 10000 2.06 20 16:21 17.03.2021
1371 Clouds 4 1023 81 10000 3.09 70 15:49 17.03.2021
1372 Clouds 3 1023 81 10000 3.09 70 15:30 17.03.2021
1373 Clouds 3 1023 75 10000 4.12 60 14:43 17.03.2021
1374 Clouds 2 1023 75 10000 4.12 60 14:21 17.03.2021
1375 Clouds 2 1023 81 10000 4.63 60 13:55 17.03.2021
1376 Clouds 2 1023 81 10000 4.63 60 13:27 17.03.2021
1377 Clouds 2 1023 81 10000 4.12 60 12:50 17.03.2021
1378 Clouds 2 1023 81 10000 4.12 60 12:29 17.03.2021
1379 Clouds 2 1022 87 10000 4.12 60 11:50 17.03.2021
1380 Clouds 2 1022 87 10000 4.12 60 11:23 17.03.2021
1381 Clouds 2 1022 80 10000 3.6 50 10:54 17.03.2021
1382 Clouds 2 1022 80 10000 3.6 50 10:26 17.03.2021
1383 Clouds 1 1022 80 10000 3.09 50 09:48 17.03.2021
1384 Clouds 2 1022 80 10000 3.09 50 09:25 17.03.2021
1385 Clouds 1 1022 80 10000 3.09 60 08:58 17.03.2021
1386 Clouds 1 1022 80 10000 3.09 60 08:38 17.03.2021
1387 Clouds 1 1022 80 10000 5.14 50 07:49 17.03.2021
1388 Clouds 1 1022 80 10000 5.14 50 07:30 17.03.2021
1389 Clouds 1 1023 80 10000 5.14 50 06:42 17.03.2021
1390 Clouds 2 1024 70 10000 4.63 60 04:23 17.03.2021
1391 Clouds 2 1023 75 10000 3.09 40 03:25 17.03.2021
1392 Clouds 2 1023 65 10000 2.57 120 00:40 17.03.2021
1393 Clouds 2 1023 64 10000 1.54 0 23:33 16.03.2021
1394 Clouds 2 1024 51 10000 4.24 154 22:59 16.03.2021
1395 Clouds 2 1024 56 10000 3.6 120 22:40 16.03.2021
1396 Clouds 2 1024 51 10000 4.18 161 22:21 16.03.2021
1397 Clouds 2 1024 55 10000 3.09 140 21:39 16.03.2021
1398 Clouds 2 1024 55 10000 3.09 140 21:21 16.03.2021
1399 Clouds 2 1025 51 10000 2.06 140 20:46 16.03.2021
1400 Clouds 2 1025 51 10000 2.06 140 20:18 16.03.2021
1401 Clouds 1 1026 55 10000 2.57 60 19:43 16.03.2021
1402 Clouds 1 1026 55 10000 2.57 60 19:24 16.03.2021
1403 Clouds 1 1027 51 10000 1.54 0 18:47 16.03.2021
1404 Clouds 1 1027 51 10000 1.54 0 18:29 16.03.2021
1405 Clouds 1 1027 40 10000 2.57 120 17:50 16.03.2021
1406 Clouds 1 1027 40 10000 2.57 120 17:32 16.03.2021
1407 Clouds 1 1027 37 10000 2.06 190 16:53 16.03.2021
1408 Clouds 1 1027 37 10000 2.06 190 16:53 16.03.2021
1409 Clouds 1 1027 37 10000 2.06 190 16:31 16.03.2021
1410 Clear 0 1028 37 10000 2.06 160 15:48 16.03.2021
1411 Clear 0 1028 37 10000 2.06 160 15:22 16.03.2021
1412 Clear 0 1028 37 10000 2.06 160 15:22 16.03.2021
1413 Clear 0 1028 37 10000 2.06 160 15:22 16.03.2021
1414 Clear 0 1027 37 10000 4.63 50 14:59 16.03.2021
1415 Clear 0 1027 37 10000 4.63 50 14:40 16.03.2021
1416 Clear -1 1027 37 10000 4.63 50 14:22 16.03.2021
1417 Clear -1 1027 40 10000 3.09 0 13:57 16.03.2021
1418 Clear -2 1027 40 10000 3.09 0 13:29 16.03.2021
1419 Clear -2 1027 47 10000 5.14 70 12:56 16.03.2021
1420 Clear -2 1027 47 10000 5.14 70 12:36 16.03.2021
1421 Clear -1 1027 47 10000 5.14 50 11:56 16.03.2021
1422 Clear -2 1027 47 10000 5.14 50 11:32 16.03.2021
1423 Clear -1 1027 24 10000 2.06 0 10:49 16.03.2021
1424 Clear -1 1027 37 10000 3.09 80 10:21 16.03.2021
1425 Clear -1 1027 27 10000 2.57 40 09:40 16.03.2021
1426 Clear -1 1027 27 10000 2.57 40 09:20 16.03.2021
1427 Clear -1 1027 24 10000 2.57 40 08:55 16.03.2021
1428 Clear -1 1027 24 10000 2.57 40 08:36 16.03.2021
1429 Clear -1 1028 27 10000 1.2 52 07:53 16.03.2021
1430 Clear 0 1027 34 10000 1.4 52 07:24 16.03.2021
1431 Clear 0 1028 34 10000 1.54 0 06:38 16.03.2021
1432 Clear 0 1028 19 10000 1.54 30 05:37 16.03.2021
1433 Clear 1 1028 30 10000 2.06 0 04:28 16.03.2021
1434 Clear 2 1027 17 10000 3.6 300 02:27 16.03.2021
1435 Clear 3 1027 14 10000 4.63 300 00:47 16.03.2021
1436 Clear 3 1026 13 10000 4.63 300 23:54 15.03.2021
1437 Clear 3 1026 13 10000 4.63 300 23:27 15.03.2021
1438 Clear 4 1026 12 10000 2.57 0 22:49 15.03.2021
1439 Clear 4 1026 12 10000 2.57 0 22:29 15.03.2021
1440 Clear 4 1026 13 10000 4.63 290 21:52 15.03.2021
1441 Clear 3 1026 13 10000 4.63 290 21:32 15.03.2021
1442 Clear 3 1026 17 10000 1.54 0 20:56 15.03.2021
1443 Clear 3 1026 17 10000 1.54 0 20:37 15.03.2021
1444 Clear 3 1026 17 10000 1.54 0 20:19 15.03.2021
1445 Clear 2 1027 22 10000 4.12 100 19:48 15.03.2021
1446 Clear 2 1027 14 10000 2.57 0 19:30 15.03.2021
1447 Clear 1 1028 20 10000 2.06 0 18:48 15.03.2021
1448 Clear 1 1028 20 10000 2.06 0 18:23 15.03.2021
1449 Clear 0 1028 27 10000 2.57 0 17:55 15.03.2021
1450 Clear 0 1028 27 10000 2.57 0 17:29 15.03.2021
1451 Clear -1 1028 22 10000 4.12 310 16:50 15.03.2021
1452 Clear -2 1028 22 10000 4.12 310 16:31 15.03.2021
1453 Clear -2 1027 33 10000 9.26 320 15:45 15.03.2021
1454 Clear -3 1028 26 10000 4.63 310 15:25 15.03.2021
1455 Clear -3 1027 30 10000 8.61 332 14:44 15.03.2021
1456 Clear -4 1027 30 10000 8.69 333 14:22 15.03.2021
1457 Clear -4 1026 30 10000 3.6 330 13:47 15.03.2021
1458 Clear -4 1026 30 10000 3.6 330 13:25 15.03.2021
1459 Clear -4 1026 30 10000 6.17 300 12:48 15.03.2021
1460 Clear -4 1026 30 10000 6.17 300 12:19 15.03.2021
1461 Clear -4 1025 36 10000 3.09 0 11:52 15.03.2021
1462 Clear -4 1025 36 10000 3.09 0 11:32 15.03.2021
1463 Clear -4 1024 31 10000 5.66 310 10:54 15.03.2021
1464 Clear -4 1024 31 10000 5.66 310 10:30 15.03.2021
1465 Clear -3 1024 29 10000 5.14 300 09:52 15.03.2021
1466 Clear -3 1024 29 10000 5.14 300 09:34 15.03.2021
1467 Clear -2 1024 29 10000 9.27 324 08:54 15.03.2021
1468 Clear -2 1024 47 10000 9.3 324 08:32 15.03.2021
1469 Clear -1 1023 34 10000 5.66 300 07:55 15.03.2021
1470 Clear -1 1023 34 10000 5.66 300 07:32 15.03.2021
1471 Clouds -1 1023 37 10000 6.69 300 06:40 15.03.2021
1472 Clouds 0 1022 40 10000 1.54 0 05:32 15.03.2021
1473 Clouds 2 1019 35 10000 5.14 330 01:36 15.03.2021
1474 Clouds 5 1016 33 10000 6.69 310 23:58 14.03.2021
1475 Clouds 6 1016 33 10000 6.69 310 23:20 14.03.2021
1476 Clouds 7 1015 34 10000 10.58 324 22:47 14.03.2021
1477 Clouds 8 1015 34 10000 10.68 319 22:23 14.03.2021
1478 Clouds 9 1014 29 10000 5.66 330 21:49 14.03.2021
1479 Clouds 10 1014 29 10000 5.66 330 21:20 14.03.2021
1480 Clouds 11 1013 24 10000 2.06 0 20:50 14.03.2021
1481 Clouds 11 1013 24 10000 2.06 0 20:27 14.03.2021
1482 Clouds 11 1013 24 10000 1.54 0 19:50 14.03.2021
1483 Clouds 11 1013 24 10000 1.54 0 19:24 14.03.2021
1484 Clouds 11 1014 25 10000 2.06 0 18:56 14.03.2021
1485 Clouds 11 1014 25 10000 2.06 0 18:28 14.03.2021
1486 Clouds 11 1015 30 10000 1.54 0 17:41 14.03.2021
1487 Clouds 10 1015 30 10000 1.54 0 17:23 14.03.2021
1488 Clouds 10 1015 30 10000 1.54 0 17:23 14.03.2021
1489 Clear 10 1015 32 10000 1.54 0 16:52 14.03.2021
1490 Clear 10 1015 32 10000 1.54 0 16:33 14.03.2021
1491 Clear 9 1016 34 10000 4.63 270 15:57 14.03.2021
1492 Clear 9 1016 34 10000 4.63 270 15:39 14.03.2021
1493 Clear 8 1017 36 10000 4.63 260 14:45 14.03.2021
1494 Clear 7 1017 36 10000 4.63 260 14:26 14.03.2021
1495 Clouds 6 1016 36 10000 2.57 0 13:50 14.03.2021
1496 Clouds 6 1016 36 10000 2.57 0 13:31 14.03.2021
1497 Clear 5 1016 36 10000 2.57 250 12:47 14.03.2021
1498 Clear 5 1016 36 10000 2.57 250 12:29 14.03.2021
1499 Clear 5 1016 36 10000 2.06 260 11:58 14.03.2021
1500 Clear 5 1016 36 10000 2.06 260 11:36 14.03.2021
1501 Clear 5 1017 33 10000 3.09 260 10:59 14.03.2021
1502 Clear 5 1017 33 10000 3.09 260 10:38 14.03.2021
1503 Clear 5 1017 33 10000 3.09 260 10:19 14.03.2021
1504 Clear 6 1017 33 10000 3.6 250 09:44 14.03.2021
1505 Clear 6 1017 33 10000 3.6 250 09:23 14.03.2021
1506 Clear 6 1018 33 10000 3.09 250 08:51 14.03.2021
1507 Clear 6 1018 33 10000 3.09 250 08:32 14.03.2021
1508 Clear 6 1018 31 10000 3.09 270 07:52 14.03.2021
1509 Clear 6 1018 31 10000 3.09 270 07:22 14.03.2021
1510 Clear 6 1019 33 10000 4.63 270 05:33 14.03.2021
1511 Clear 8 1021 31 10000 6.69 270 00:59 14.03.2021
1512 Clear 8 1021 31 10000 6.69 270 00:20 14.03.2021
1513 Clear 9 1022 20 10000 5.14 280 23:57 13.03.2021
1514 Clear 9 1021 27 10000 5.66 260 23:37 13.03.2021
1515 Clear 9 1021 27 10000 5.66 260 23:18 13.03.2021
1516 Clear 9 1022 25 10000 7.2 260 22:43 13.03.2021
1517 Clear 9 1023 25 10000 5.14 250 21:50 13.03.2021
1518 Clear 9 1023 25 10000 5.14 250 21:30 13.03.2021
1519 Clear 8 1024 27 10000 5.66 250 20:56 13.03.2021
1520 Clear 8 1024 27 10000 5.66 250 20:37 13.03.2021
1521 Clear 8 1024 27 10000 5.66 250 20:19 13.03.2021
1522 Clear 8 1025 29 10000 3.6 230 19:38 13.03.2021
1523 Clear 7 1025 29 10000 3.6 230 19:20 13.03.2021
1524 Clear 7 1026 24 10000 4.12 250 18:42 13.03.2021
1525 Clear 6 1026 24 10000 4.12 250 18:20 13.03.2021
1526 Clear 5 1027 26 10000 2.57 250 17:47 13.03.2021
1527 Clear 5 1027 26 10000 2.57 250 17:28 13.03.2021
1528 Clear 4 1027 30 10000 3.09 0 16:52 13.03.2021
1529 Clear 4 1027 30 10000 3.09 0 16:34 13.03.2021
1530 Clear 3 1027 33 10000 2.06 0 15:55 13.03.2021
1531 Clear 2 1026 38 10000 2.57 0 14:59 13.03.2021
1532 Clear 2 1026 38 10000 2.57 0 14:41 13.03.2021
1533 Clear 2 1026 38 10000 2.57 0 14:21 13.03.2021
1534 Clear 1 1026 32 10000 2.06 0 13:27 13.03.2021
1535 Clear 1 1025 32 10000 4.63 340 12:52 13.03.2021
1536 Clear 1 1025 38 10000 3.09 170 12:34 13.03.2021
1537 Clear 1 1024 32 10000 2.57 0 11:54 13.03.2021
1538 Clear 1 1024 32 10000 2.57 0 11:33 13.03.2021
1539 Clear 2 1022 28 10000 5.14 310 10:58 13.03.2021
1540 Clear 2 1022 28 10000 5.14 310 10:31 13.03.2021
1541 Clear 4 1020 28 10000 1.54 0 09:59 13.03.2021
1542 Clear 4 1020 28 10000 1.54 0 09:32 13.03.2021
1543 Clear 8 1019 34 10000 2.06 0 08:54 13.03.2021
1544 Clear 8 1019 34 10000 2.06 0 08:54 13.03.2021
1545 Clear 8 1019 34 10000 2.06 0 08:21 13.03.2021
1546 Clear 9 1018 34 10000 2.57 0 07:57 13.03.2021
1547 Clear 9 1018 34 10000 2.57 0 07:33 13.03.2021
1548 Clear 12 1018 26 10000 2.06 0 05:30 13.03.2021
1549 Clear 15 1016 28 10000 6.17 270 02:42 13.03.2021
1550 Clear 17 1016 22 10000 8.23 270 00:33 13.03.2021
1551 Clear 19 1016 17 10000 9.26 270 23:46 12.03.2021
1552 Clear 18 1016 17 10000 9.26 270 23:26 12.03.2021
1553 Clear 19 1016 18 10000 7.2 270 22:32 12.03.2021
1554 Clear 19 1016 17 10000 4.12 260 21:59 12.03.2021
1555 Clear 19 1016 17 10000 4.12 260 21:38 12.03.2021
1556 Clear 19 1016 17 10000 4.12 260 21:19 12.03.2021
1557 Clear 19 1017 19 10000 2.06 260 20:48 12.03.2021
1558 Clear 20 1017 19 10000 2.06 260 20:24 12.03.2021
1559 Clear 18 1019 24 10000 3.09 260 19:45 12.03.2021
1560 Clear 18 1019 24 10000 3.09 260 19:27 12.03.2021
1561 Clear 17 1019 27 10000 2.06 250 18:54 12.03.2021
1562 Clear 17 1019 27 10000 2.06 250 18:32 12.03.2021
1563 Clouds 16 1020 34 10000 3.6 260 17:45 12.03.2021
1564 Clouds 17 1020 34 10000 3.6 260 17:27 12.03.2021
1565 Clouds 15 1021 39 10000 1.54 0 16:51 12.03.2021
1566 Clouds 15 1021 39 10000 1.54 0 16:29 12.03.2021
1567 Clouds 15 1021 44 10000 4.3 327 15:45 12.03.2021
1568 Clouds 15 1021 44 10000 4.85 347 15:21 12.03.2021
1569 Clouds 14 1021 47 10000 1.54 0 14:46 12.03.2021
1570 Clouds 14 1021 47 10000 1.54 0 14:19 12.03.2021
1571 Clouds 14 1019 67 10000 2.06 270 13:41 12.03.2021
1572 Clouds 15 1019 67 10000 2.06 270 13:20 12.03.2021
1573 Clouds 15 1019 63 10000 2.57 260 12:52 12.03.2021
1574 Clouds 15 1019 63 10000 2.57 260 12:30 12.03.2021
1575 Clouds 15 1018 58 10000 3.09 270 11:58 12.03.2021
1576 Clouds 15 1018 58 10000 3.09 270 11:40 12.03.2021
1577 Clouds 15 1018 58 10000 3.09 270 11:18 12.03.2021
1578 Clear 15 1018 55 10000 3.09 260 10:44 12.03.2021
1579 Clear 15 1018 55 10000 3.09 260 10:22 12.03.2021
1580 Clear 15 1018 51 10000 5.66 270 09:37 12.03.2021
1581 Clear 16 1018 51 10000 5.66 270 09:18 12.03.2021
1582 Clear 16 1018 51 10000 6.69 270 08:39 12.03.2021
1583 Clear 16 1018 44 10000 5.66 260 07:41 12.03.2021
1584 Clear 16 1018 44 10000 5.66 260 07:21 12.03.2021
1585 Clear 16 1018 44 10000 6.17 270 06:44 12.03.2021
1586 Clear 15 1018 47 10000 3.6 260 05:52 12.03.2021
1587 Clear 16 1019 47 10000 1.54 60 00:55 12.03.2021
1588 Clear 18 1019 42 10000 3.95 221 23:56 11.03.2021
1589 Clear 18 1020 39 10000 3.09 40 22:59 11.03.2021
1590 Clear 19 1020 39 10000 3.09 40 22:39 11.03.2021
1591 Clear 19 1020 39 10000 3.09 40 22:20 11.03.2021
1592 Clear 19 1021 34 10000 2.57 40 21:46 11.03.2021
1593 Clear 20 1021 34 10000 2.57 40 21:25 11.03.2021
1594 Clear 20 1021 30 10000 2.06 270 20:49 11.03.2021
1595 Clear 20 1021 30 10000 2.06 270 20:23 11.03.2021
1596 Clear 20 1023 34 10000 3.09 270 19:56 11.03.2021
1597 Clear 20 1023 34 10000 3.09 270 19:36 11.03.2021
1598 Clear 18 1024 39 10000 4.56 219 18:54 11.03.2021
1599 Clear 18 1024 39 10000 4.56 219 18:35 11.03.2021
1600 Clear 16 1025 51 10000 1.54 260 17:54 11.03.2021
1601 Clear 15 1025 51 10000 1.54 260 17:36 11.03.2021
1602 Clear 14 1026 62 10000 3.6 270 16:42 11.03.2021
1603 Clear 13 1026 62 10000 3.6 270 16:24 11.03.2021
1604 Clear 11 1027 71 10000 3.8 215 15:44 11.03.2021
1605 Clear 10 1027 81 10000 1.54 270 15:21 11.03.2021
1606 Clear 9 1027 87 10000 2.06 260 14:45 11.03.2021
1607 Clear 8 1027 87 10000 2.06 260 14:19 11.03.2021
1608 Mist 7 1027 93 2414 1.54 30 13:46 11.03.2021
1609 Mist 7 1027 87 6437 2.06 250 13:22 11.03.2021
1610 Mist 7 1027 93 8047 2.34 222 12:56 11.03.2021
1611 Mist 7 1027 93 8047 2.47 230 12:36 11.03.2021
1612 Mist 7 1027 93 8047 2.66 197 12:18 11.03.2021
1613 Mist 7 1027 93 6437 2.06 40 11:42 11.03.2021
1614 Mist 7 1027 93 6437 2.06 40 11:19 11.03.2021
1615 Mist 7 1027 93 4828 2.57 40 10:28 11.03.2021
1616 Mist 7 1027 93 6437 3.09 30 09:53 11.03.2021
1617 Mist 7 1027 93 6437 3.09 30 09:34 11.03.2021
1618 Clouds 8 1028 93 10000 2.57 20 08:59 11.03.2021
1619 Mist 8 1028 93 8047 1.85 235 08:40 11.03.2021
1620 Clouds 8 1029 87 10000 2.15 199 07:59 11.03.2021
1621 Clouds 8 1029 87 10000 1.84 190 07:22 11.03.2021
1622 Clouds 8 1029 87 10000 1.84 190 06:48 11.03.2021
1623 Clouds 8 1029 87 10000 1.88 180 06:23 11.03.2021
1624 Clouds 8 1029 87 10000 1.89 181 06:23 11.03.2021
1625 Clouds 7 1031 76 10000 1.54 0 02:48 11.03.2021
1626 Clear 7 1032 71 10000 3.09 0 00:47 11.03.2021
1627 Clear 7 1032 71 10000 3.09 0 00:46 11.03.2021
1628 Clear 9 1032 66 10000 3.09 0 23:27 10.03.2021
1629 Clear 9 1032 66 10000 3.09 0 23:26 10.03.2021
1630 Clear 9 1032 66 10000 3.09 0 23:25 10.03.2021
1631 -273 0 0 0 0 0 22:46 10.03.2021
1632 Clear 10 1032 58 10000 4.63 130 22:45 10.03.2021
1633 Clear 10 1032 58 10000 4.63 130 22:27 10.03.2021
1634 Clear 10 1033 58 10000 5.14 120 21:47 10.03.2021
1635 Clear 11 1033 58 10000 5.14 120 21:23 10.03.2021
1636 Clear 11 1034 54 10000 3.6 130 20:46 10.03.2021
1637 Clear 11 1034 54 10000 3.6 130 20:28 10.03.2021
1638 Clear 11 1034 54 10000 3.6 130 19:50 10.03.2021
1639 Clear 11 1034 54 10000 3.6 130 19:30 10.03.2021
1640 Clear 11 1035 54 10000 2.57 0 18:47 10.03.2021
1641 Clear 11 1035 54 10000 2.57 0 18:28 10.03.2021
1642 Clear 11 1035 54 10000 3.6 170 17:57 10.03.2021
1643 Clear 11 1035 54 10000 3.6 170 17:39 10.03.2021
1644 Clear 11 1035 54 10000 3.6 170 17:19 10.03.2021
1645 Clear 10 1035 43 10000 2.57 160 16:45 10.03.2021
1646 Clear 9 1035 43 10000 2.57 160 16:25 10.03.2021
1647 Clear 9 1035 49 10000 3.09 40 15:48 10.03.2021
1648 Clear 7 1035 49 10000 3.09 40 15:25 10.03.2021
1649 Clear 6 1035 57 10000 4.63 50 14:57 10.03.2021
1650 Clear 6 1035 57 10000 4.63 50 14:22 10.03.2021
1651 Clear 5 1034 61 10000 5.14 40 13:53 10.03.2021
1652 Clear 4 1034 61 10000 5.14 40 13:31 10.03.2021
1653 Clear 4 1034 61 10000 2.57 50 12:48 10.03.2021
1654 Clear 4 1034 61 10000 2.57 50 12:24 10.03.2021
1655 Clear 3 1034 61 10000 2.06 50 11:50 10.03.2021
1656 Clear 4 1034 61 10000 2.06 50 11:25 10.03.2021
1657 Clear 4 1033 56 10000 2.57 60 10:51 10.03.2021
1658 Clear 4 1033 56 10000 2.57 60 10:32 10.03.2021
1659 Clear 5 1032 61 10000 1.81 26 09:56 10.03.2021
1660 Clear 5 1032 61 10000 1.81 26 09:38 10.03.2021
1661 Clear 5 1032 61 10000 1.68 28 09:18 10.03.2021
1662 Clear 5 1032 46 10000 4.63 40 08:44 10.03.2021
1663 Clear 5 1032 46 10000 4.63 40 08:26 10.03.2021
1664 Clear 6 1031 43 10000 5.14 30 07:44 10.03.2021
1665 Clear 6 1032 42 10000 3.09 20 07:24 10.03.2021
1666 Clear 6 1031 46 10000 4.12 60 06:52 10.03.2021
1667 Clear 11 1029 35 10000 2.06 0 02:44 10.03.2021
1668 Clear 14 1027 33 10000 3.42 324 00:31 10.03.2021
1669 Clear 16 1026 27 10000 4 325 23:33 09.03.2021
1670 Clear 16 1026 27 10000 4.85 312 22:52 09.03.2021
1671 Clear 16 1026 27 10000 4.92 306 22:34 09.03.2021
1672 Clear 17 1026 25 10000 2.57 0 21:59 09.03.2021
1673 Clear 17 1026 25 10000 2.57 0 21:38 09.03.2021
1674 Clear 17 1026 25 10000 2.57 0 21:20 09.03.2021
1675 Clear 17 1025 27 10000 4.64 314 20:55 09.03.2021
1676 Clear 17 1025 27 10000 5.19 313 20:36 09.03.2021
1677 Clear 17 1025 27 10000 5.19 313 20:18 09.03.2021
1678 Clear 17 1025 25 10000 2.06 0 19:43 09.03.2021
1679 Clear 17 1025 25 10000 2.06 0 19:24 09.03.2021
1680 Clear 16 1026 31 10000 3.09 0 18:40 09.03.2021
1681 Clear 16 1026 31 10000 3.09 0 18:18 09.03.2021
1682 Clear 14 1026 32 10000 4.63 260 17:45 09.03.2021
1683 Clear 13 1026 32 10000 4.63 260 17:24 09.03.2021
1684 Clear 12 1027 32 10000 3.6 240 16:40 09.03.2021
1685 Clear 12 1027 32 10000 3.6 240 16:21 09.03.2021
1686 Clear 10 1027 27 10000 2.57 0 15:56 09.03.2021
1687 Clear 9 1027 36 10000 3.09 250 15:25 09.03.2021
1688 Clouds 8 1027 42 10000 2.57 260 14:52 09.03.2021
1689 Clouds 7 1027 42 10000 2.57 260 14:26 09.03.2021
1690 Clouds 6 1027 42 10000 3.6 240 13:42 09.03.2021
1691 Clouds 6 1027 42 10000 3.6 240 13:21 09.03.2021
1692 Clouds 5 1027 48 10000 3.6 260 12:54 09.03.2021
1693 Clouds 5 1027 48 10000 3.6 260 12:54 09.03.2021
1694 Clouds 5 1027 48 10000 3.6 260 12:36 09.03.2021
1695 Clouds 4 1027 48 10000 4.12 260 11:45 09.03.2021
1696 Clouds 4 1027 48 10000 4.12 260 11:22 09.03.2021
1697 Clear 4 1027 45 10000 4.12 250 10:59 09.03.2021
1698 Clear 4 1027 45 10000 4.12 250 10:39 09.03.2021
1699 Clear 4 1027 45 10000 4.12 250 10:21 09.03.2021
1700 Clouds 4 1027 45 10000 3.6 270 09:47 09.03.2021
1701 Clouds 4 1027 45 10000 3.6 270 09:27 09.03.2021
1702 Clouds 4 1028 41 10000 3.6 260 08:57 09.03.2021
1703 Clouds 4 1028 41 10000 3.6 260 08:33 09.03.2021
1704 Clear 4 1028 38 10000 4.12 270 07:47 09.03.2021
1705 Clear 4 1028 38 10000 4.12 270 07:27 09.03.2021
1706 Clouds 4 1028 45 10000 3.09 270 06:59 09.03.2021
1707 Clear 4 1029 45 10000 3.09 250 05:53 09.03.2021
1708 Clear 5 1030 39 10000 2.57 260 01:48 09.03.2021
1709 Clear 6 1029 24 10000 3.6 290 23:58 08.03.2021
1710 Clear 6 1029 24 10000 3.6 290 23:39 08.03.2021
1711 Clear 6 1029 24 10000 3.6 290 23:20 08.03.2021
1712 Clear 6 1029 24 10000 3.09 0 22:41 08.03.2021
1713 Clear 6 1029 24 10000 3.09 0 22:23 08.03.2021
1714 Clear 6 1029 24 10000 2.57 0 21:50 08.03.2021
1715 Clear 6 1029 24 10000 2.57 0 21:50 08.03.2021
1716 Clear 6 1029 24 10000 2.57 0 21:30 08.03.2021
1717 Clear 5 1029 26 10000 4.63 250 20:44 08.03.2021
1718 Clear 5 1029 26 10000 4.63 250 20:23 08.03.2021
1719 Clear 5 1030 26 10000 2.57 0 19:53 08.03.2021
1720 Clear 4 1030 24 10000 3.26 314 19:27 08.03.2021
1721 Clear 3 1031 32 10000 2.06 0 18:38 08.03.2021
1722 Clear 3 1031 32 10000 2.06 0 18:19 08.03.2021
1723 Clear 2 1032 32 10000 2.06 0 17:48 08.03.2021
1724 Clear 1 1032 32 10000 2.06 0 17:24 08.03.2021
1725 Clear 1 1032 38 10000 2.06 0 16:45 08.03.2021
1726 Clear 0 1032 37 10000 2.06 0 16:26 08.03.2021
1727 Clear -1 1033 43 10000 3.6 290 15:47 08.03.2021
1728 Clear -1 1033 43 10000 3.6 290 15:24 08.03.2021
1729 Clear -2 1032 55 10000 3.6 110 14:38 08.03.2021
1730 Clear -2 1032 46 10000 3.09 0 14:19 08.03.2021
1731 Clear -3 1031 54 10000 2.06 280 13:25 08.03.2021
1732 Clear -3 1031 54 10000 2.57 0 12:59 08.03.2021
1733 Clear -3 1031 54 10000 2.57 0 12:41 08.03.2021
1734 Clear -3 1031 54 10000 2.57 0 12:20 08.03.2021
1735 Clear -3 1030 54 10000 3.42 317 11:38 08.03.2021
1736 Clear -3 1030 54 10000 3.5 329 11:18 08.03.2021
1737 Clear -2 1030 50 10000 2.06 0 10:41 08.03.2021
1738 Clear -2 1030 50 10000 2.06 0 10:19 08.03.2021
1739 Clear -2 1030 55 10000 2.57 0 09:41 08.03.2021
1740 Clear -2 1030 55 10000 2.57 0 09:22 08.03.2021
1741 Clear -2 1030 51 10000 2.57 0 08:27 08.03.2021
1742 Clear -1 1030 51 10000 4.17 327 07:23 08.03.2021
1743 Clear -1 1029 43 10000 1.54 290 06:42 08.03.2021
1744 Clear 1 1029 41 10000 2.06 0 03:37 08.03.2021
1745 Clear 3 1027 41 10000 1.54 0 00:44 08.03.2021
1746 Clear 4 1026 33 10000 4.12 300 23:54 07.03.2021
1747 Clear 4 1026 33 10000 4.12 300 23:28 07.03.2021
1748 Clear 5 1026 33 10000 4.44 320 22:59 07.03.2021
1749 Clear 5 1026 33 10000 4.44 320 22:41 07.03.2021
1750 Clear 5 1026 33 10000 4.23 320 22:20 07.03.2021
1751 Clear 5 1026 33 10000 6.17 270 21:42 07.03.2021
1752 Clear 5 1026 33 10000 6.17 270 21:24 07.03.2021
1753 Clear 4 1026 33 10000 2.06 0 20:46 07.03.2021
1754 Clear 4 1026 33 10000 2.06 0 20:28 07.03.2021
1755 Clear 4 1027 36 10000 2.57 270 19:56 07.03.2021
1756 Clear 3 1027 36 10000 2.57 270 19:38 07.03.2021
1757 Clear 3 1027 35 10000 3.6 280 19:19 07.03.2021
1758 Clear 3 1027 38 10000 4.63 250 18:42 07.03.2021
1759 Clear 2 1027 38 10000 4.63 250 18:19 07.03.2021
1760 Clear 2 1028 41 10000 3.6 250 17:40 07.03.2021
1761 Clear 1 1028 41 10000 3.6 250 17:20 07.03.2021
1762 Clouds 1 1028 44 10000 1.54 0 16:58 07.03.2021
1763 Clouds 1 1028 40 10000 3.09 0 16:38 07.03.2021
1764 Clouds 0 1028 40 10000 3.09 0 16:19 07.03.2021
1765 Clear 0 1028 43 10000 2.57 300 15:42 07.03.2021
1766 Clear -1 1028 43 10000 2.57 300 15:22 07.03.2021
1767 Clear -1 1027 55 10000 3.09 270 14:30 07.03.2021
1768 Clouds -2 1027 55 10000 1.54 0 13:59 07.03.2021
1769 Clouds -2 1027 55 10000 1.54 0 13:40 07.03.2021
1770 Clouds -2 1027 55 10000 1.54 0 13:21 07.03.2021
1771 Clouds -2 1026 55 10000 2.57 270 12:45 07.03.2021
1772 Clouds -2 1026 55 10000 2.57 270 12:27 07.03.2021
1773 Clouds -2 1025 55 10000 1.54 0 11:45 07.03.2021
1774 Clouds -2 1025 55 10000 1.54 0 11:22 07.03.2021
1775 Clouds -2 1025 55 10000 4.8 309 10:43 07.03.2021
1776 Clouds -2 1025 55 10000 4.83 310 10:25 07.03.2021
1777 Clear -1 1024 59 10000 2.57 0 09:43 07.03.2021
1778 Clear -1 1024 59 10000 2.57 0 09:23 07.03.2021
1779 Clouds -1 1024 59 10000 3.09 0 08:45 07.03.2021
1780 Clouds -1 1024 59 10000 3.09 0 08:24 07.03.2021
1781 Clouds -1 1024 51 10000 3.34 301 07:34 07.03.2021
1782 Clear -1 1023 47 10000 2.06 0 02:42 07.03.2021
1783 Clouds 0 1021 40 10000 2.57 0 00:51 07.03.2021
1784 Clouds 1 1020 34 10000 3.6 290 23:50 06.03.2021
1785 Clouds 1 1020 34 10000 3.6 290 23:30 06.03.2021
1786 Clouds 1 1019 37 10000 6.17 300 22:48 06.03.2021
1787 Clouds 1 1019 37 10000 6.17 300 22:29 06.03.2021
1788 Clouds 1 1019 44 10000 2.06 0 21:58 06.03.2021
1789 Clouds 1 1019 44 10000 2.06 0 21:22 06.03.2021
1790 Clouds 1 1019 44 10000 2.06 0 20:53 06.03.2021
1791 Clouds 1 1019 44 10000 2.06 0 20:33 06.03.2021
1792 Clouds 1 1019 41 10000 2.06 0 19:50 06.03.2021
1793 Clouds 1 1019 41 10000 2.06 0 19:22 06.03.2021
1794 Clouds 1 1019 41 10000 3.6 250 18:56 06.03.2021
1795 Clouds 1 1019 41 10000 3.6 250 18:56 06.03.2021
1796 Clouds 1 1019 34 10000 5.14 300 18:38 06.03.2021
1797 Clouds 1 1019 34 10000 5.14 300 18:18 06.03.2021
1798 Clouds 0 1019 40 10000 1.54 300 17:44 06.03.2021
1799 Clouds 0 1019 40 10000 1.54 300 17:24 06.03.2021
1800 Clouds 0 1019 40 10000 3.09 0 16:52 06.03.2021
1801 Clouds 0 1019 40 10000 3.09 0 16:29 06.03.2021
1802 Clouds 0 1018 37 10000 8.23 300 15:54 06.03.2021
1803 Clouds 0 1018 37 10000 8.23 300 15:32 06.03.2021
1804 Clouds 0 1018 37 10000 8.23 300 15:32 06.03.2021
1805 Clouds 0 1018 47 10000 6.69 300 14:54 06.03.2021
1806 Clouds 0 1018 47 10000 6.69 300 14:30 06.03.2021
1807 Clouds 0 1017 51 10000 2.57 0 13:44 06.03.2021
1808 Clouds 0 1017 51 10000 2.57 0 13:23 06.03.2021
1809 Clouds 0 1017 51 10000 4.63 250 12:46 06.03.2021
1810 Clouds 0 1017 51 10000 4.63 250 12:20 06.03.2021
1811 Clouds 0 1017 51 10000 4.63 250 12:20 06.03.2021
1812 Clouds 0 1017 51 10000 4.63 250 12:20 06.03.2021
1813 Clouds 0 1017 51 10000 4.63 250 12:20 06.03.2021
1814 Clear 0 1016 59 10000 1.54 0 11:57 06.03.2021
1815 Clear 0 1016 59 10000 1.54 0 11:22 06.03.2021
1816 Clear -1 1016 59 10000 2.57 0 10:52 06.03.2021
1817 Clear -1 1016 59 10000 2.57 0 10:28 06.03.2021
1818 Clouds 0 1015 51 10000 1.54 0 09:50 06.03.2021
1819 Clouds 0 1015 51 10000 1.54 0 09:21 06.03.2021
1820 Clouds 0 1015 51 10000 2.06 0 08:52 06.03.2021
1821 Clouds 0 1015 51 10000 2.06 0 08:25 06.03.2021
1822 Clouds 1 1015 44 10000 2.06 0 07:42 06.03.2021
1823 Clouds 1 1015 44 10000 2.06 0 07:21 06.03.2021
1824 Clouds 1 1014 38 10000 3.09 0 05:40 06.03.2021
1825 Clear 1 1013 30 10000 2.57 270 02:52 06.03.2021
1826 Clear 1 1013 27 10000 6.83 306 01:28 06.03.2021
1827 Clear 2 1012 25 10000 1.54 0 00:44 06.03.2021
1828 Clear 2 1012 20 10000 5.66 290 23:39 05.03.2021
1829 Clear 2 1012 20 10000 5.66 290 23:39 05.03.2021
1830 Clear 2 1012 20 10000 5.66 290 23:18 05.03.2021
1831 Clear 3 1011 17 10000 5.14 290 22:43 05.03.2021
1832 Clear 3 1011 17 10000 5.14 290 22:20 05.03.2021
1833 Clear 3 1011 18 10000 6.69 290 21:42 05.03.2021
1834 Clear 3 1011 18 10000 6.69 290 21:23 05.03.2021
1835 Clear 3 1011 20 10000 8.23 280 20:43 05.03.2021
1836 Clear 2 1011 20 10000 8.23 280 20:23 05.03.2021
1837 Clear 2 1012 21 10000 5.66 270 19:45 05.03.2021
1838 Clear 2 1012 21 10000 5.66 270 19:22 05.03.2021
1839 Clear 1 1012 21 10000 8.23 300 18:44 05.03.2021
1840 Clear 1 1012 21 10000 8.23 300 18:25 05.03.2021
1841 Clear 0 1013 25 10000 2.06 0 17:51 05.03.2021
1842 Clear 0 1013 25 10000 2.06 0 17:32 05.03.2021
1843 Clear -1 1013 37 10000 1.54 0 16:43 05.03.2021
1844 Clear -2 1013 37 10000 1.54 0 16:23 05.03.2021
1845 Clear -2 1014 40 10000 2.06 0 15:54 05.03.2021
1846 Clear -3 1014 40 10000 2.06 0 15:27 05.03.2021
1847 Clear -4 1014 46 10000 2.57 0 14:52 05.03.2021
1848 Clear -4 1014 46 10000 2.57 0 14:34 05.03.2021
1849 Clear -5 1014 50 10000 2.06 0 13:45 05.03.2021
1850 Clear -5 1014 50 10000 2.06 0 13:21 05.03.2021
1851 Clear -5 1013 50 10000 2.06 0 12:46 05.03.2021
1852 Clear -5 1013 39 10000 5.66 310 11:40 05.03.2021
1853 Clear -5 1013 39 10000 5.66 310 11:40 05.03.2021
1854 Clear -4 1013 50 10000 2.06 0 11:21 05.03.2021
1855 Clear -4 1012 54 10000 7.07 312 10:57 05.03.2021
1856 Clear -4 1012 54 10000 7.07 312 10:57 05.03.2021
1857 Clear -4 1012 54 10000 7.07 312 10:37 05.03.2021
1858 Clear -4 1012 54 10000 7.01 316 10:19 05.03.2021
1859 Clear -4 1012 59 10000 7.04 316 09:45 05.03.2021
1860 Clear -4 1012 59 10000 6.91 319 09:26 05.03.2021
1861 Clear -3 1012 50 10000 6.91 319 08:40 05.03.2021
1862 Clear -3 1012 50 10000 7.44 318 08:20 05.03.2021
1863 Clear -3 1012 54 10000 1.54 0 07:36 05.03.2021
1864 Clear -3 1012 50 10000 2.06 0 06:45 05.03.2021
1865 Clear -3 1012 50 10000 2.06 0 06:27 05.03.2021
1866 Clear 1 1012 38 10000 2.57 0 01:40 05.03.2021
1867 Clear 1 1011 38 10000 1.54 0 00:26 05.03.2021
1868 Clear 3 1011 32 10000 7.72 300 23:26 04.03.2021
1869 Clear 4 1010 30 10000 8.23 300 22:38 04.03.2021
1870 Clear 5 1009 31 10000 5.66 300 21:56 04.03.2021
1871 Clear 5 1009 31 10000 5.66 300 21:37 04.03.2021
1872 Clear 5 1009 31 10000 5.66 300 21:18 04.03.2021
1873 Clouds 6 1009 39 10000 2.57 0 20:41 04.03.2021
1874 Clouds 6 1009 39 10000 2.57 0 20:21 04.03.2021
1875 Clouds 6 1009 42 10000 1.54 0 19:53 04.03.2021
1876 Clouds 6 1009 42 10000 1.54 0 19:27 04.03.2021
1877 Clouds 6 1010 45 10000 7.8 317 18:55 04.03.2021
1878 Clouds 5 1010 45 10000 7.8 317 18:31 04.03.2021
1879 Clouds 5 1011 45 10000 2.06 0 17:59 04.03.2021
1880 Clouds 5 1011 45 10000 2.06 0 17:40 04.03.2021
1881 Clouds 5 1011 45 10000 2.06 0 17:20 04.03.2021
1882 Clouds 5 1011 49 10000 3.6 290 16:44 04.03.2021
1883 Clouds 5 1011 49 10000 3.6 290 16:44 04.03.2021
1884 Clouds 5 1011 49 10000 3.6 290 16:44 04.03.2021
1885 Clouds 5 1011 45 10000 6.17 300 16:24 04.03.2021
1886 Clouds 5 1011 52 10000 2.06 0 15:48 04.03.2021
1887 Clouds 5 1011 52 10000 2.06 0 15:30 04.03.2021
1888 Clouds 5 1011 56 10000 2.57 0 14:45 04.03.2021
1889 Clouds 5 1011 56 10000 2.57 0 14:22 04.03.2021
1890 Clouds 4 1011 65 10000 3.6 240 13:45 04.03.2021
1891 Clouds 4 1011 65 10000 3.6 240 13:23 04.03.2021
1892 Clear 3 1010 65 10000 2.06 230 12:44 04.03.2021
1893 Clear 3 1010 65 10000 2.06 230 12:20 04.03.2021
1894 Clouds 4 1011 60 10000 2.06 260 11:42 04.03.2021
1895 Clouds 4 1011 60 10000 2.06 260 11:20 04.03.2021
1896 Clear 4 1010 56 10000 2.06 0 10:46 04.03.2021
1897 Clear 5 1010 56 10000 2.06 0 10:25 04.03.2021
1898 Clouds 4 1011 56 10000 4.5 312 09:36 04.03.2021
1899 Clouds 5 1011 53 10000 4.35 311 08:56 04.03.2021
1900 Clouds 5 1011 53 10000 4.34 311 08:34 04.03.2021
1901 Clouds 5 1011 56 10000 1.54 160 07:49 04.03.2021
1902 Clouds 5 1011 56 10000 1.54 160 07:19 04.03.2021
1903 Clouds 6 1011 49 10000 2.98 298 06:24 04.03.2021
1904 Clouds 8 1011 46 10000 2.23 338 02:39 04.03.2021
1905 Clear 8 1011 46 10000 2.06 250 01:24 04.03.2021
1906 Clear 11 1010 35 10000 5.14 270 22:43 03.03.2021
1907 Clear 11 1010 35 10000 5.14 270 22:25 03.03.2021
1908 Clear 11 1010 35 10000 5.66 260 21:43 03.03.2021
1909 Clear 11 1010 35 10000 5.66 260 21:24 03.03.2021
1910 Clear 11 1011 32 10000 5.66 260 20:57 03.03.2021
1911 Clear 11 1011 32 10000 5.66 260 20:39 03.03.2021
1912 Clear 9 1011 34 10000 4.63 260 19:59 03.03.2021
1913 Clear 9 1011 34 10000 4.63 260 19:40 03.03.2021
1914 Clear 9 1011 34 10000 4.63 260 19:19 03.03.2021
1915 Clear 8 1012 36 10000 5.14 260 18:45 03.03.2021
1916 Clear 8 1012 36 10000 5.14 260 18:20 03.03.2021
1917 Clear 7 1013 42 10000 4.63 230 17:42 03.03.2021
1918 Clear 7 1013 42 10000 4.63 230 17:18 03.03.2021
1919 Clear 6 1014 42 10000 4.63 250 16:41 03.03.2021
1920 Clear 6 1014 42 10000 4.63 250 16:22 03.03.2021
1921 Clear 4 1014 44 10000 4.12 260 15:33 03.03.2021
1922 Clear 2 1015 51 10000 5.14 250 14:56 03.03.2021
1923 Clear 2 1015 51 10000 5.14 250 14:30 03.03.2021
1924 Clear 1 1015 55 10000 3.6 260 13:52 03.03.2021
1925 Clear 0 1015 55 10000 3.6 260 13:31 03.03.2021
1926 Clear 0 1015 59 10000 4.12 250 12:45 03.03.2021
1927 Clear -1 1015 59 10000 4.12 250 12:26 03.03.2021
1928 Clear 0 1016 59 10000 4.12 260 11:48 03.03.2021
1929 Clear 0 1016 59 10000 4.12 260 11:28 03.03.2021
1930 Clear -1 1016 55 10000 3.6 250 10:50 03.03.2021
1931 Clear -1 1016 55 10000 3.6 250 10:31 03.03.2021
1932 Clear -1 1017 51 10000 3.6 250 09:53 03.03.2021
1933 Clear 0 1017 51 10000 3.6 250 09:35 03.03.2021
1934 Clear 0 1018 51 10000 4.12 260 08:46 03.03.2021
1935 Clear 0 1018 51 10000 4.12 260 08:22 03.03.2021
1936 Clear 0 1018 51 10000 3.6 260 07:50 03.03.2021
1937 Clear 0 1018 51 10000 5.14 250 06:52 03.03.2021
1938 Clear 0 1019 47 10000 4.12 250 05:49 03.03.2021
1939 Clear 0 1019 47 10000 4.12 250 05:29 03.03.2021
1940 Clear -1 1020 43 10000 3.6 270 04:35 03.03.2021
1941 Clear 0 1020 32 10000 2.57 240 03:52 03.03.2021
1942 Clear 0 1022 27 10000 5 296 00:18 03.03.2021
1943 Clear 1 1021 25 10000 4.63 280 23:32 02.03.2021
1944 Clear 1 1021 25 10000 5.66 290 22:44 02.03.2021
1945 Clear 1 1021 25 10000 5.66 290 22:21 02.03.2021
1946 Clear 1 1021 25 10000 8.23 270 21:46 02.03.2021
1947 Clear 1 1021 25 10000 8.23 270 21:28 02.03.2021
1948 Clear 0 1021 27 10000 6.17 280 20:55 02.03.2021
1949 Clear 0 1021 27 10000 6.17 280 20:36 02.03.2021
1950 Clear 0 1021 27 10000 6.17 280 20:18 02.03.2021
1951 Clear 0 1022 27 10000 3.09 0 19:43 02.03.2021
1952 Clear -1 1022 27 10000 3.09 0 19:24 02.03.2021
1953 Clear -1 1022 29 10000 6.69 310 18:41 02.03.2021
1954 Clear -1 1022 29 10000 6.69 310 18:21 02.03.2021
1955 Clear -2 1023 40 10000 2.06 0 17:54 02.03.2021
1956 Clear -2 1023 40 10000 2.06 0 17:36 02.03.2021
1957 Clear -3 1023 30 10000 6.69 290 17:18 02.03.2021
1958 Clear -3 1023 30 10000 7.2 310 16:38 02.03.2021
1959 Clear -4 1023 46 10000 1.54 0 15:52 02.03.2021
1960 Clear -4 1023 36 10000 4.12 290 15:25 02.03.2021
1961 Clear -5 1023 46 10000 2.06 0 14:42 02.03.2021
1962 Clear -5 1023 46 10000 2.06 0 14:18 02.03.2021
1963 Clouds -6 1022 50 10000 2.06 0 13:42 02.03.2021
1964 Clouds -6 1022 50 10000 2.06 0 13:23 02.03.2021
1965 Clear -6 1021 35 10000 4.63 300 12:45 02.03.2021
1966 Clear -6 1021 35 10000 4.63 300 12:24 02.03.2021
1967 Clouds -5 1020 46 10000 2.06 0 11:44 02.03.2021
1968 Clouds -5 1020 46 10000 2.06 0 11:22 02.03.2021
1969 Clear -5 1019 39 10000 7.2 280 10:43 02.03.2021
1970 Clouds -4 1019 43 10000 2.57 0 10:24 02.03.2021
1971 Clear -4 1018 43 10000 1.54 0 09:41 02.03.2021
1972 Clear -4 1018 43 10000 1.54 0 09:22 02.03.2021
1973 Clear -3 1017 40 10000 2.06 0 08:40 02.03.2021
1974 Clear -3 1017 40 10000 2.06 0 08:22 02.03.2021
1975 Clear -1 1015 43 10000 2.57 0 07:41 02.03.2021
1976 Clouds 0 1014 44 10000 2.57 0 06:37 02.03.2021
1977 Clouds 2 1012 41 10000 1.54 0 05:47 02.03.2021
1978 Clouds 1 1012 41 10000 1.54 0 05:29 02.03.2021
1979 Clouds 4 1009 45 10000 1.54 0 02:35 02.03.2021
1980 Clear 5 1009 42 10000 2.06 0 01:42 02.03.2021
1981 Clear 5 1009 42 10000 2.06 0 01:18 02.03.2021
1982 Clouds 8 1006 42 10000 2.06 0 23:29 01.03.2021
1983 Clouds 8 1005 49 10000 1.54 0 22:43 01.03.2021
1984 Clouds 8 1005 49 10000 1.54 0 22:25 01.03.2021
1985 Clouds 8 1004 66 10000 1.54 0 21:52 01.03.2021
1986 Clouds 9 1004 66 10000 1.54 0 21:24 01.03.2021
1987 Clouds 9 1002 76 10000 2.57 0 20:59 01.03.2021
1988 Clouds 9 1002 76 10000 2.57 0 20:39 01.03.2021
1989 Clouds 8 1002 76 10000 2.57 0 20:18 01.03.2021
1990 Clouds 8 1003 93 10000 4.63 260 19:42 01.03.2021
1991 Clouds 8 1003 93 10000 4.63 260 19:18 01.03.2021
1992 Clouds 7 1004 93 10000 3.09 260 18:40 01.03.2021
1993 Clouds 7 1004 93 10000 3.09 260 18:21 01.03.2021
1994 Mist 7 1004 93 6437 3.6 260 17:42 01.03.2021
1995 Mist 7 1004 93 6437 3.6 260 17:20 01.03.2021
1996 Clouds 6 1004 93 10000 4.12 250 16:45 01.03.2021
1997 Mist 6 1004 87 6437 3.6 260 16:26 01.03.2021
1998 Mist 6 1004 87 6437 3.09 260 15:46 01.03.2021
1999 Mist 6 1004 93 4023 2.06 210 15:22 01.03.2021
2000 Mist 5 1004 93 6437 3.09 280 14:55 01.03.2021
2001 Mist 5 1004 93 6437 2.57 280 14:36 01.03.2021
2002 Mist 5 1005 100 4828 2.57 250 13:47 01.03.2021
2003 Rain 5 1006 93 6437 2.57 260 13:28 01.03.2021
2004 Rain 5 1006 93 8047 3.09 270 12:59 01.03.2021
2005 Rain 5 1006 93 10000 1.93 228 12:40 01.03.2021
2006 Rain 5 1006 93 10000 1.55 219 12:20 01.03.2021
2007 Rain 5 1007 93 10000 1.55 219 11:46 01.03.2021
2008 Rain 5 1007 93 10000 1.55 219 11:46 01.03.2021
2009 Clouds 5 1007 100 10000 2.57 70 10:59 01.03.2021
2010 Clouds 4 1007 100 10000 2.57 70 10:36 01.03.2021
2011 Rain 4 1007 100 10000 2.57 70 10:18 01.03.2021
2012 Rain 4 1008 100 6437 5.14 60 09:46 01.03.2021
2013 Rain 4 1008 100 6437 5.14 60 09:23 01.03.2021
2014 Rain 4 1008 100 6437 5.14 60 09:23 01.03.2021
2015 Rain 5 1009 93 10000 3.6 40 08:53 01.03.2021
2016 Rain 5 1009 93 10000 3.6 40 08:22 01.03.2021
2017 Mist 5 1011 87 6437 6.17 40 06:54 01.03.2021
2018 Rain 5 1011 87 8047 7.2 40 06:24 01.03.2021
2019 Mist 6 1018 87 6437 5.66 50 02:26 01.03.2021
2020 Clouds 5 1021 81 10000 4.12 50 23:41 28.02.2021
2021 Rain 5 1021 87 10000 4.63 60 22:56 28.02.2021
2022 -273 0 0 0 0 0 22:26 28.02.2021
2023 Clouds 5 1022 81 10000 4.63 60 22:26 28.02.2021
2024 Rain 5 1023 75 10000 2.57 70 21:55 28.02.2021
2025 Rain 5 1023 75 10000 2.57 70 21:33 28.02.2021
2026 Rain 5 1024 75 10000 3.09 40 20:58 28.02.2021
2027 Rain 5 1024 75 10000 3.09 40 20:38 28.02.2021
2028 Rain 5 1024 75 10000 3.09 40 20:38 28.02.2021
2029 Rain 6 1024 75 10000 3.09 40 20:18 28.02.2021
2030 Rain 6 1025 70 10000 3.09 60 19:45 28.02.2021
2031 Rain 7 1025 70 10000 3.09 60 19:24 28.02.2021
2032 Rain 7 1024 61 10000 7.2 50 18:44 28.02.2021
2033 Clouds 6 1024 61 10000 7.2 50 18:25 28.02.2021
2034 Clouds 6 1026 70 10000 6.17 50 17:51 28.02.2021
2035 Clouds 6 1026 70 10000 6.17 50 17:28 28.02.2021
2036 Clouds 6 1026 70 10000 6.17 50 17:28 28.02.2021
2037 Clouds 6 1026 65 10000 6.17 40 16:57 28.02.2021
2038 Clouds 6 1026 65 10000 6.17 40 16:38 28.02.2021
2039 Clouds 6 1026 65 10000 6.17 40 16:19 28.02.2021
2040 Clear 6 1027 70 10000 5.14 30 15:49 28.02.2021
2041 Clear 5 1027 70 10000 5.14 30 15:25 28.02.2021
2042 Clear 5 1027 70 10000 3.09 40 14:53 28.02.2021
2043 Clear 5 1027 70 10000 3.09 40 14:30 28.02.2021
2044 Clear 5 1027 70 10000 2.57 40 13:52 28.02.2021
2045 Clear 4 1027 70 10000 2.57 40 13:22 28.02.2021
2046 Clear 4 1027 70 10000 2.57 40 13:22 28.02.2021
2047 Clear 4 1028 75 10000 1.74 26 12:59 28.02.2021
2048 Clear 4 1028 75 10000 1.75 26 12:59 28.02.2021
2049 Clear 4 1028 75 10000 1.75 26 12:59 28.02.2021
2050 Clear 4 1028 75 10000 1.74 26 12:40 28.02.2021
2051 Clear 4 1028 75 10000 1.59 35 12:22 28.02.2021
2052 Clear 4 1026 75 10000 1.59 36 11:55 28.02.2021
2053 Clear 4 1026 75 10000 1.36 56 11:26 28.02.2021
2054 Clear 5 1026 81 10000 1.54 260 10:59 28.02.2021
2055 Clear 5 1026 81 10000 1.54 260 10:29 28.02.2021
2056 Clear 5 1025 75 10000 1.85 14 09:58 28.02.2021
2057 Clear 5 1025 75 10000 1.25 302 09:36 28.02.2021
2058 Clear 5 1024 81 10000 2.06 260 08:59 28.02.2021
2059 Clear 5 1024 81 10000 2.06 260 08:37 28.02.2021
2060 Clear 5 1024 81 10000 2.06 260 08:19 28.02.2021
2061 Clear 5 1024 81 10000 2.57 260 07:43 28.02.2021
2062 Clear 5 1024 81 10000 2.57 260 07:24 28.02.2021
2063 Clear 5 1024 81 10000 2.57 250 06:23 28.02.2021
2064 Clear 6 1022 87 10000 3.09 250 03:48 28.02.2021
2065 Clear 7 1021 81 10000 3.09 250 02:26 28.02.2021
2066 Clear 7 1020 81 10000 3.09 0 01:23 28.02.2021
2067 Clear 8 1018 76 10000 5.14 270 00:39 28.02.2021
2068 Clouds 8 1017 81 10000 5.14 270 23:50 27.02.2021
2069 Clouds 9 1017 81 10000 5.14 270 23:21 27.02.2021
2070 Clouds 10 1017 81 10000 5.14 260 22:50 27.02.2021
2071 Clouds 10 1016 87 10000 5.66 270 22:23 27.02.2021
2072 Clouds 10 1016 93 10000 5.14 260 21:58 27.02.2021
2073 Clouds 10 1016 93 10000 5.14 260 21:37 27.02.2021
2074 Mist 9 1016 93 4828 3.6 270 20:56 27.02.2021
2075 Mist 9 1016 93 4828 3.6 270 20:38 27.02.2021
2076 Mist 9 1016 93 3219 3.6 270 20:18 27.02.2021
2077 Mist 9 1016 93 3219 2.06 290 19:41 27.02.2021
2078 Mist 9 1016 93 3219 2.06 290 19:23 27.02.2021
2079 Mist 8 1017 100 4828 2.73 187 18:40 27.02.2021
2080 Mist 8 1017 100 4828 3.96 152 18:20 27.02.2021
2081 Mist 7 1018 93 4023 3.96 152 17:43 27.02.2021
2082 Mist 7 1019 93 4023 5.43 139 17:20 27.02.2021
2083 Mist 7 1019 93 4023 5.43 139 17:20 27.02.2021
2084 Mist 7 1020 93 4828 4.63 50 16:51 27.02.2021
2085 Rain 6 1020 93 4828 4.63 50 16:32 27.02.2021
2086 Rain 6 1022 93 9656 6.69 50 15:57 27.02.2021
2087 Rain 6 1022 93 9656 6.69 50 15:38 27.02.2021
2088 Rain 5 1023 87 6437 6.17 20 14:49 27.02.2021
2089 Rain 5 1023 87 6437 6.17 20 14:30 27.02.2021
2090 Rain 4 1024 87 10000 4.63 30 13:50 27.02.2021
2091 Rain 4 1024 87 10000 4.63 30 13:27 27.02.2021
2092 Clouds 4 1026 93 10000 3.6 30 12:56 27.02.2021
2093 Rain 4 1026 93 10000 3.6 30 12:30 27.02.2021
2094 Rain 4 1026 87 10000 4.63 30 11:58 27.02.2021
2095 Rain 4 1026 87 10000 4.63 30 11:40 27.02.2021
2096 Rain 4 1027 87 10000 4.12 40 11:21 27.02.2021
2097 Rain 4 1028 75 10000 2.06 110 10:44 27.02.2021
2098 Rain 4 1028 75 10000 2.06 110 10:22 27.02.2021
2099 Clouds 4 1029 70 10000 3.7 146 09:48 27.02.2021
2100 Clouds 4 1029 70 10000 3.16 206 09:26 27.02.2021
2101 Clouds 4 1030 65 10000 3.09 60 08:41 27.02.2021
2102 Clouds 4 1030 65 10000 3.09 60 08:21 27.02.2021
2103 Clouds 4 1031 60 10000 2.06 150 07:41 27.02.2021
2104 Clear 4 1032 60 10000 4.12 150 04:47 27.02.2021
2105 Clear 4 1032 56 10000 3.09 200 00:54 27.02.2021
2106 Clear 5 1032 42 10000 1.54 210 23:54 26.02.2021
2107 Clear 5 1032 42 10000 1.54 210 23:28 26.02.2021
2108 Clear 5 1031 42 10000 3.6 190 22:59 26.02.2021
2109 Clear 6 1031 42 10000 3.6 190 22:30 26.02.2021
2110 Clear 7 1031 36 10000 3.09 220 21:47 26.02.2021
2111 Clear 7 1031 36 10000 3.09 220 21:28 26.02.2021
2112 Clear 7 1030 39 10000 3.6 220 20:44 26.02.2021
2113 Clear 7 1030 39 10000 3.6 220 20:44 26.02.2021
2114 Clear 7 1030 39 10000 3.6 220 20:22 26.02.2021
2115 Clear 7 1031 39 10000 3.6 210 19:52 26.02.2021
2116 Clear 7 1031 39 10000 3.6 210 19:25 26.02.2021
2117 Clear 7 1032 36 10000 3.6 210 18:46 26.02.2021
2118 Clear 6 1032 36 10000 3.6 210 18:23 26.02.2021
2119 Clear 6 1032 39 10000 3.09 190 17:44 26.02.2021
2120 Clear 6 1032 39 10000 3.09 190 17:26 26.02.2021
2121 Clear 5 1033 38 10000 3.09 260 16:56 26.02.2021
2122 Clear 5 1033 38 10000 3.09 260 16:37 26.02.2021
2123 Clear 4 1033 38 10000 3.09 260 16:19 26.02.2021
2124 Clear 4 1033 41 10000 3.6 270 15:41 26.02.2021
2125 Clear 3 1033 41 10000 3.6 270 15:22 26.02.2021
2126 Clear 2 1032 44 10000 3.6 250 14:51 26.02.2021
2127 Clear 2 1032 44 10000 3.6 250 14:30 26.02.2021
2128 Clear 1 1030 48 10000 2.06 0 13:46 26.02.2021
2129 Clear 1 1030 48 10000 2.06 0 13:28 26.02.2021
2130 Clear 1 1029 44 10000 2.06 0 12:43 26.02.2021
2131 Clear 1 1029 44 10000 2.06 0 12:25 26.02.2021
2132 Clear 2 1028 38 10000 1.54 0 11:38 26.02.2021
2133 Clear 2 1027 48 10000 3.09 0 10:54 26.02.2021
2134 Clear 2 1027 48 10000 3.09 0 10:21 26.02.2021
2135 Clear 2 1026 48 10000 3.6 40 09:47 26.02.2021
2136 Clear 2 1026 48 10000 3.6 40 09:27 26.02.2021
2137 Clear 3 1026 41 10000 3.6 40 08:32 26.02.2021
2138 Clear 3 1026 38 10000 4.12 60 07:55 26.02.2021
2139 Clear 3 1026 38 10000 4.12 60 07:20 26.02.2021
2140 Clear 3 1025 48 10000 2.57 240 05:40 26.02.2021
2141 Clear 3 1025 52 10000 1.54 0 04:52 26.02.2021
2142 Clear 5 1024 39 10000 2.57 260 02:36 26.02.2021
2143 Clear 7 1022 31 10000 2.57 270 00:25 26.02.2021
2144 Clear 8 1022 25 10000 5.14 290 23:31 25.02.2021
2145 Clear 8 1021 29 10000 3.6 280 22:57 25.02.2021
2146 Clear 8 1021 29 10000 3.6 280 22:37 25.02.2021
2147 Clear 9 1021 29 10000 5.38 305 21:50 25.02.2021
2148 Clear 9 1021 29 10000 5.38 305 21:31 25.02.2021
2149 Clear 8 1020 31 10000 5.3 304 20:54 25.02.2021
2150 Clear 8 1020 31 10000 5.3 304 20:36 25.02.2021
2151 Clear 8 1020 31 10000 5.3 306 20:18 25.02.2021
2152 Clear 8 1020 31 10000 5.3 306 20:18 25.02.2021
2153 Clear 8 1020 31 10000 5.14 310 19:46 25.02.2021
2154 Clear 8 1020 31 10000 5.14 310 19:19 25.02.2021
2155 Clear 8 1020 31 10000 5.14 310 19:19 25.02.2021
2156 Clear 7 1021 33 10000 4.63 280 18:40 25.02.2021
2157 Clear 7 1021 33 10000 4.63 280 18:18 25.02.2021
2158 Clear 7 1020 36 10000 5.14 290 17:35 25.02.2021
2159 Clear 6 1020 33 10000 5.14 290 16:59 25.02.2021
2160 Clear 6 1020 33 10000 5.14 290 16:33 25.02.2021
2161 Clear 6 1019 39 10000 2.57 0 15:49 25.02.2021
2162 Clear 6 1019 39 10000 2.57 0 15:28 25.02.2021
2163 Clear 6 1019 39 10000 2.57 0 15:28 25.02.2021
2164 Clear 5 1018 45 10000 1.54 0 14:40 25.02.2021
2165 Clear 5 1018 45 10000 5.14 300 14:20 25.02.2021
2166 Clear 4 1016 52 10000 8.01 325 13:41 25.02.2021
2167 Clear 4 1016 52 10000 7.61 317 13:20 25.02.2021
2168 Clear 6 1015 49 10000 2.06 0 12:39 25.02.2021
2169 Clear 6 1015 49 10000 2.06 0 12:20 25.02.2021
2170 Clear 8 1013 46 10000 2.06 0 11:43 25.02.2021
2171 Clear 9 1012 46 10000 7.64 313 10:54 25.02.2021
2172 Clear 9 1012 46 10000 7.6 311 10:36 25.02.2021
2173 Clear 10 1010 61 10000 1.54 0 09:48 25.02.2021
2174 Clear 10 1010 61 10000 1.54 0 09:28 25.02.2021
2175 Clear 9 1009 61 10000 4.12 260 08:46 25.02.2021
2176 Clear 8 1009 61 10000 4.12 260 08:21 25.02.2021
2177 Clouds 8 1008 66 10000 5.14 270 07:42 25.02.2021
2178 Clouds 8 1008 66 10000 5.14 270 07:18 25.02.2021
2179 Clouds 8 1009 71 10000 4.63 260 05:55 25.02.2021
2180 Clear 8 1011 57 10000 4.12 230 01:52 25.02.2021
2181 Clear 8 1011 57 10000 4.12 230 01:27 25.02.2021
2182 Clear 8 1011 53 10000 2.06 0 00:33 25.02.2021
2183 Clear 10 1012 43 10000 2.57 0 23:40 24.02.2021
2184 Clear 10 1013 43 10000 2.57 170 22:58 24.02.2021
2185 Clear 10 1013 43 10000 2.57 170 22:30 24.02.2021
2186 Clear 11 1015 35 10000 3.09 210 21:56 24.02.2021
2187 Clear 11 1015 35 10000 3.09 210 21:34 24.02.2021
2188 Clear 11 1016 40 10000 4.12 240 20:51 24.02.2021
2189 Clear 11 1016 40 10000 4.12 240 20:29 24.02.2021
2190 Clear 11 1016 40 10000 3.6 220 19:52 24.02.2021
2191 Clear 11 1016 40 10000 3.6 220 19:26 24.02.2021
2192 Clear 9 1018 46 10000 3.09 230 18:54 24.02.2021
2193 Clear 9 1018 46 10000 3.09 230 18:33 24.02.2021
2194 Clear 8 1019 49 10000 2.57 240 17:45 24.02.2021
2195 Clear 8 1019 49 10000 2.57 240 17:25 24.02.2021
2196 Clear 7 1019 57 10000 3.09 260 16:49 24.02.2021
2197 Clear 7 1019 57 10000 3.09 260 16:22 24.02.2021
2198 Clear 6 1019 61 10000 3.09 260 15:58 24.02.2021
2199 Clear 6 1019 61 10000 3.09 260 15:36 24.02.2021
2200 Clear 5 1019 65 10000 2.57 250 14:52 24.02.2021
2201 Clear 5 1019 65 10000 2.57 250 14:32 24.02.2021
2202 Clear 4 1018 65 10000 2.57 0 13:56 24.02.2021
2203 Clear 4 1018 65 10000 2.57 0 13:37 24.02.2021
2204 Clear 4 1018 65 10000 2.57 0 13:19 24.02.2021
2205 Clear 3 1017 65 10000 3.6 260 12:42 24.02.2021
2206 Clear 3 1017 65 10000 3.6 260 12:23 24.02.2021
2207 Clear 3 1017 65 10000 3.6 260 12:23 24.02.2021
2208 Clear 3 1017 65 10000 2.06 250 11:42 24.02.2021
2209 Clear 3 1015 65 10000 2.57 0 10:49 24.02.2021
2210 Clear 3 1015 65 10000 2.57 0 10:29 24.02.2021
2211 Clear 4 1016 65 10000 4.12 260 09:41 24.02.2021
2212 Clear 4 1016 65 10000 4.12 260 09:18 24.02.2021
2213 Clear 4 1015 60 10000 3.6 250 08:33 24.02.2021
2214 Clear 5 1014 61 10000 1.54 270 07:55 24.02.2021
2215 Clear 5 1014 61 10000 1.54 270 07:20 24.02.2021
2216 Clouds 6 1013 61 10000 3.37 259 06:20 24.02.2021
2217 Clouds 7 1008 57 10000 1.54 0 02:47 24.02.2021
2218 Clouds 7 1005 61 10000 5.66 270 00:20 24.02.2021
2219 Clouds 6 1004 65 10000 4.12 270 23:20 23.02.2021
2220 Clouds 6 1003 65 10000 3.09 270 22:37 23.02.2021
2221 Clouds 6 1003 65 10000 3.09 270 22:19 23.02.2021
2222 Clouds 6 1003 70 10000 4.12 270 21:41 23.02.2021
2223 Clouds 6 1003 70 10000 4.12 270 21:22 23.02.2021
2224 Clouds 5 1003 81 10000 3.6 260 20:47 23.02.2021
2225 Clouds 5 1003 81 10000 3.6 260 20:29 23.02.2021
2226 Rain 4 1004 75 10000 2.57 260 19:47 23.02.2021
2227 Clouds 4 1004 75 10000 2.57 260 19:27 23.02.2021
2228 Clouds 4 1005 70 10000 7.72 260 18:53 23.02.2021
2229 Clouds 4 1005 70 10000 7.72 260 18:31 23.02.2021
2230 Clouds 4 1005 70 10000 4.12 270 17:54 23.02.2021
2231 Clouds 4 1005 70 10000 4.12 270 17:33 23.02.2021
2232 Clouds 4 1006 70 10000 3.09 250 16:50 23.02.2021
2233 Clouds 4 1006 70 10000 3.09 250 16:25 23.02.2021
2234 Clear 3 1007 75 10000 3.09 240 15:57 23.02.2021
2235 Clear 3 1007 75 10000 3.09 240 15:38 23.02.2021
2236 Clear 3 1007 75 10000 3.09 240 15:18 23.02.2021
2237 Clouds 2 1007 80 10000 2.57 260 14:42 23.02.2021
2238 Clouds 2 1007 80 10000 2.57 260 14:24 23.02.2021
2239 Clouds 2 1007 80 10000 3.09 260 13:43 23.02.2021
2240 Clouds 2 1007 80 10000 3.09 260 13:23 23.02.2021
2241 Clouds 2 1007 80 10000 3.6 270 12:51 23.02.2021
2242 Clouds 2 1007 80 10000 3.6 270 12:20 23.02.2021
2243 Clear 2 1007 80 10000 4.12 250 11:47 23.02.2021
2244 Clear 2 1007 80 10000 4.12 250 11:21 23.02.2021
2245 Clouds 2 1007 75 10000 4.12 260 10:48 23.02.2021
2246 Clouds 2 1007 75 10000 4.12 260 10:30 23.02.2021
2247 Clear 2 1007 80 10000 3.09 0 09:43 23.02.2021
2248 Clear 2 1007 80 10000 3.09 0 09:24 23.02.2021
2249 Clear 2 1008 87 10000 5.14 260 08:49 23.02.2021
2250 Clear 2 1008 87 10000 5.14 260 08:22 23.02.2021
2251 Clouds 2 1008 87 10000 5.14 270 07:53 23.02.2021
2252 Clouds 2 1008 93 10000 6.17 260 05:32 23.02.2021
2253 Clouds 3 1008 93 10000 5.66 260 04:46 23.02.2021
2254 Clouds 2 1007 93 10000 4.63 260 02:34 23.02.2021
2255 Clouds 2 1006 100 10000 2.06 260 00:20 23.02.2021
2256 Clouds 2 1006 100 10000 2.57 260 23:57 22.02.2021
2257 Rain 2 1007 93 9656 2.57 260 23:21 22.02.2021
2258 Rain 1 1008 93 9656 4.12 240 22:41 22.02.2021
2259 Snow 2 1008 93 8047 2.06 250 22:20 22.02.2021
2260 Snow 1 1009 93 6437 2.06 40 21:45 22.02.2021
2261 Mist 1 1009 93 6437 2.06 40 21:23 22.02.2021
2262 Snow 1 1010 93 3219 2.57 30 20:52 22.02.2021
2263 Snow 1 1012 87 805 2.06 70 20:29 22.02.2021
2264 Snow 1 1013 93 2012 4.12 40 19:54 22.02.2021
2265 Snow 1 1013 93 2012 4.12 40 19:35 22.02.2021
2266 Snow 1 1016 86 805 7.54 197 18:57 22.02.2021
2267 Snow 1 1018 80 1207 2.57 250 18:57 22.02.2021
2268 Snow 1 1018 80 1207 2.57 250 18:39 22.02.2021
2269 Snow 1 1018 80 1207 2.57 250 18:20 22.02.2021
2270 Rain 3 1020 70 10000 3.6 200 17:26 22.02.2021
2271 Clouds 3 1021 69 10000 2.57 200 16:57 22.02.2021
2272 Clouds 3 1021 69 10000 2.57 200 16:39 22.02.2021
2273 Clear 2 1023 69 10000 3.6 250 15:52 22.02.2021
2274 Clear 2 1023 69 10000 3.6 250 15:28 22.02.2021
2275 Clear 1 1024 69 10000 3.6 230 14:48 22.02.2021
2276 Clear 1 1024 69 10000 3.6 230 14:29 22.02.2021
2277 Clear 0 1025 64 10000 5.14 210 13:47 22.02.2021
2278 Clear 0 1025 64 10000 5.14 210 13:19 22.02.2021
2279 Clear 0 1026 64 10000 3.6 210 12:41 22.02.2021
2280 Clear 0 1026 64 10000 3.6 210 12:20 22.02.2021
2281 Clouds -1 1027 64 10000 3.09 230 11:44 22.02.2021
2282 Clouds -1 1027 64 10000 3.09 230 11:25 22.02.2021
2283 Clouds -1 1028 59 10000 3.09 200 10:50 22.02.2021
2284 Clouds -1 1028 59 10000 3.09 200 10:27 22.02.2021
2285 Clouds -1 1029 64 10000 2.57 230 09:49 22.02.2021
2286 Clouds -1 1029 64 10000 2.57 230 09:29 22.02.2021
2287 Clear -1 1030 64 10000 3.09 240 08:54 22.02.2021
2288 Clear -1 1030 64 10000 3.09 240 08:31 22.02.2021
2289 Clear -1 1031 64 10000 3.09 230 07:58 22.02.2021
2290 Clear -1 1031 64 10000 3.09 230 07:27 22.02.2021
2291 Clear -1 1031 64 10000 2.57 230 06:46 22.02.2021
2292 Clear -1 1032 64 10000 2.57 250 05:45 22.02.2021
2293 Clear -1 1033 59 10000 2.06 220 03:44 22.02.2021
2294 Clear -1 1033 55 10000 2.57 230 02:52 22.02.2021
2295 Clear 1 1033 44 10000 2.06 210 00:49 22.02.2021
2296 Clear 1 1033 44 10000 2.06 210 00:24 22.02.2021
2297 Clear 2 1033 35 10000 2.57 250 23:35 21.02.2021
2298 Clear 3 1033 38 10000 3.09 260 22:55 21.02.2021
2299 Clear 2 1033 35 10000 2.57 280 22:24 21.02.2021
2300 Clear 2 1033 35 10000 2.57 280 22:24 21.02.2021
2301 Clear 2 1033 38 10000 3.6 300 21:49 21.02.2021
2302 Clear 2 1033 38 10000 3.6 300 21:30 21.02.2021
2303 Clear 2 1034 35 10000 2.57 0 20:49 21.02.2021
2304 Clear 2 1034 35 10000 2.57 0 20:20 21.02.2021
2305 Clear 2 1034 40 10000 2.57 0 19:59 21.02.2021
2306 Clear 1 1034 40 10000 2.57 0 19:39 21.02.2021
2307 Clear 1 1034 40 10000 2.57 0 19:20 21.02.2021
2308 Clear 1 1034 41 10000 2.57 0 18:26 21.02.2021
2309 Clear 0 1034 44 10000 2.06 160 17:47 21.02.2021
2310 Clear 0 1034 47 10000 2.06 0 17:21 21.02.2021
2311 Clear -1 1034 55 10000 2.06 0 16:51 21.02.2021
2312 Clear -1 1034 55 10000 2.06 0 16:29 21.02.2021
2313 Clear -2 1034 59 10000 2.57 0 15:26 21.02.2021
2314 Clear -3 1033 68 10000 4.12 250 14:59 21.02.2021
2315 Clear -4 1033 68 10000 4.12 250 14:39 21.02.2021
2316 Clear -4 1033 68 10000 4.12 250 14:18 21.02.2021
2317 Clear -5 1033 68 10000 2.57 0 13:30 21.02.2021
2318 Clear -5 1032 63 10000 3.09 0 12:56 21.02.2021
2319 Clear -5 1032 63 10000 3.09 0 12:27 21.02.2021
2320 Clear -4 1031 68 10000 3.09 0 11:43 21.02.2021
2321 Clear -4 1030 68 10000 3.6 250 10:57 21.02.2021
2322 Clear -4 1030 68 10000 3.6 250 10:22 21.02.2021
2323 Clear -4 1029 68 10000 3.09 0 09:52 21.02.2021
2324 Clear -4 1029 68 10000 3.09 0 09:27 21.02.2021
2325 Clear -4 1029 68 10000 3.09 250 08:43 21.02.2021
2326 Clear -4 1029 68 10000 3.09 250 08:19 21.02.2021
2327 Clear -3 1028 64 10000 1.54 0 07:31 21.02.2021
2328 Clear -3 1027 64 10000 5.11 304 06:52 21.02.2021
2329 Clouds -1 1023 59 10000 5.14 306 02:49 21.02.2021
2330 Clouds -1 1023 59 10000 5.46 303 02:29 21.02.2021
2331 Clear 0 1021 51 10000 5.45 295 00:42 21.02.2021
2332 Clear 0 1021 51 10000 5.04 295 00:18 21.02.2021
2333 Clouds 1 1020 40 10000 3.09 0 23:20 20.02.2021
2334 Clouds 1 1019 48 10000 1.54 0 22:41 20.02.2021
2335 Clouds 1 1019 48 10000 1.54 0 22:23 20.02.2021
2336 Clouds 1 1019 44 10000 5.66 300 21:44 20.02.2021
2337 Clouds 1 1019 44 10000 5.66 300 21:24 20.02.2021
2338 Clouds 1 1019 40 10000 5.66 310 20:46 20.02.2021
2339 Clouds 1 1019 40 10000 5.66 310 20:22 20.02.2021
2340 Clouds 1 1020 47 10000 2.57 0 19:52 20.02.2021
2341 Clouds 1 1020 47 10000 2.57 0 19:29 20.02.2021
2342 Clouds 1 1020 47 10000 4.12 280 18:41 20.02.2021
2343 Clouds 1 1020 47 10000 4.12 280 18:21 20.02.2021
2344 Clear 0 1020 55 10000 4.12 240 17:39 20.02.2021
2345 Clear 0 1020 59 10000 2.57 0 16:57 20.02.2021
2346 Clear 0 1020 59 10000 2.57 0 16:33 20.02.2021
2347 Clear 0 1020 59 10000 2.57 0 16:33 20.02.2021
2348 Clear -1 1020 64 10000 1.54 0 15:56 20.02.2021
2349 Clear -2 1020 64 10000 1.54 0 15:36 20.02.2021
2350 Clouds -3 1019 63 10000 4.12 270 14:49 20.02.2021
2351 Clouds -3 1019 63 10000 4.12 270 14:24 20.02.2021
2352 Clear -3 1019 80 10000 1.54 0 13:49 20.02.2021
2353 Clear -3 1019 80 10000 1.54 0 13:27 20.02.2021
2354 Clouds -2 1019 86 10000 2.06 0 12:52 20.02.2021
2355 Clouds -2 1019 86 10000 2.06 0 12:32 20.02.2021
2356 Clouds -1 1019 86 10000 5.13 310 11:48 20.02.2021
2357 Clouds -1 1019 86 10000 5.11 310 11:30 20.02.2021
2358 Clouds 0 1018 80 10000 1.54 0 10:50 20.02.2021
2359 Clouds 0 1018 80 10000 1.54 0 10:21 20.02.2021
2360 Clouds 0 1018 80 10000 2.06 250 09:41 20.02.2021
2361 Clouds 0 1018 80 10000 1.54 250 08:49 20.02.2021
2362 Clouds 0 1018 80 10000 1.54 250 08:22 20.02.2021
2363 Clouds 0 1018 80 10000 3.04 319 03:41 20.02.2021
2364 Clouds 0 1018 93 10000 2.48 339 02:31 20.02.2021
2365 Snow 0 1019 86 3219 3.11 336 01:51 20.02.2021
2366 Snow 0 1018 86 9656 3.51 331 00:49 20.02.2021
2367 Snow 0 1018 86 9656 3.78 343 00:30 20.02.2021
2368 Mist 0 1018 86 9656 3.11 353 23:24 19.02.2021
2369 Snow 0 1017 86 4828 3.11 353 22:42 19.02.2021
2370 Snow 0 1018 86 8047 1.54 0 22:19 19.02.2021
2371 Snow 0 1018 80 2816 1.54 0 21:39 19.02.2021
2372 Snow 0 1018 80 2816 1.54 0 21:21 19.02.2021
2373 Snow 0 1019 86 10000 5.14 40 20:40 19.02.2021
2374 Snow 0 1019 86 10000 4.12 50 20:22 19.02.2021
2375 Snow 0 1019 86 6437 3.6 20 19:44 19.02.2021
2376 Mist 0 1019 86 6437 3.6 20 19:20 19.02.2021
2377 Snow -1 1020 86 2816 3.6 50 18:46 19.02.2021
2378 Snow -1 1020 86 2816 3.6 50 18:26 19.02.2021
2379 Snow -1 1021 86 2414 2.57 0 17:35 19.02.2021
2380 Snow -1 1021 86 805 4.63 70 16:41 19.02.2021
2381 Snow -1 1021 93 3219 6.17 30 16:21 19.02.2021
2382 Snow -2 1021 93 10000 7.72 40 15:53 19.02.2021
2383 Snow -2 1021 93 10000 7.72 40 15:27 19.02.2021
2384 Snow -2 1022 93 6437 6.17 30 14:48 19.02.2021
2385 Mist -2 1022 93 6437 6.17 30 14:27 19.02.2021
2386 Snow -2 1022 93 8047 6.17 30 13:54 19.02.2021
2387 Snow -2 1022 93 8047 6.17 30 13:35 19.02.2021
2388 Mist -2 1022 93 8047 7.2 30 12:52 19.02.2021
2389 Snow -2 1022 93 8047 7.2 30 12:25 19.02.2021
2390 Snow -2 1021 93 9656 7.72 30 11:54 19.02.2021
2391 Snow -2 1021 93 9656 7.72 30 11:26 19.02.2021
2392 Snow -2 1022 93 8047 6.17 30 10:55 19.02.2021
2393 Mist -2 1022 93 8047 6.17 30 10:32 19.02.2021
2394 Snow -2 1022 93 10000 6.69 30 09:52 19.02.2021
2395 Snow -2 1022 93 10000 6.69 30 09:27 19.02.2021
2396 Snow -3 1023 93 4828 2.57 0 08:55 19.02.2021
2397 Rain -3 1024 93 3219 4.12 20 08:28 19.02.2021
2398 Rain -3 1024 93 3219 4.12 20 08:28 19.02.2021
2399 Mist -3 1024 93 4828 4.63 40 07:54 19.02.2021
2400 Snow -3 1024 93 4828 4.63 40 07:36 19.02.2021
2401 Snow -3 1024 86 4828 3.09 40 06:58 19.02.2021
2402 Mist -3 1025 86 4023 3.6 30 06:31 19.02.2021
2403 Mist -3 1026 93 6437 5.66 30 04:42 19.02.2021
2404 Snow -3 1025 86 10000 6.69 30 02:31 19.02.2021
2405 Mist -3 1026 93 9656 7.72 30 01:26 19.02.2021
2406 Mist -3 1026 93 8047 6.69 30 00:27 19.02.2021
2407 Mist -2 1026 93 4828 7.2 40 23:45 18.02.2021
2408 Snow -2 1026 93 4828 7.2 40 23:27 18.02.2021
2409 Snow -2 1026 93 10000 7.2 30 22:37 18.02.2021
2410 Snow -2 1026 93 10000 7.2 30 22:18 18.02.2021
2411 Snow -3 1027 80 4828 4.12 40 21:40 18.02.2021
2412 Snow -3 1027 80 4828 4.12 40 21:21 18.02.2021
2413 Snow -3 1027 86 1207 5.14 30 20:39 18.02.2021
2414 Mist -3 1027 86 1207 5.14 30 20:21 18.02.2021
2415 Snow -3 1026 86 402 5.66 50 19:43 18.02.2021
2416 Snow -3 1026 93 3219 8.23 50 19:20 18.02.2021
2417 Snow -3 1028 86 2012 4.12 70 18:50 18.02.2021
2418 Mist -3 1028 86 2012 4.12 70 18:26 18.02.2021
2419 Snow -4 1030 80 402 1.54 0 17:52 18.02.2021
2420 Snow -4 1030 80 402 1.54 0 17:25 18.02.2021
2421 Snow -4 1030 80 402 3.09 60 16:47 18.02.2021
2422 Snow -4 1031 80 402 3.6 50 16:29 18.02.2021
2423 Snow -4 1031 86 402 4.12 50 15:43 18.02.2021
2424 Snow -4 1032 80 805 2.57 0 15:24 18.02.2021
2425 Snow -4 1032 80 2012 4.12 50 14:55 18.02.2021
2426 Snow -4 1032 80 2816 4.63 30 14:34 18.02.2021
2427 Snow -4 1032 74 805 5.66 40 13:50 18.02.2021
2428 Snow -4 1033 68 805 5.14 50 13:22 18.02.2021
2429 Snow -3 1032 59 10000 7.2 60 12:56 18.02.2021
2430 Clouds -3 1032 43 10000 4.12 50 12:36 18.02.2021
2431 Clouds -3 1033 34 10000 3.6 30 11:48 18.02.2021
2432 Clouds -2 1033 43 10000 4.63 40 11:28 18.02.2021
2433 Clouds -2 1031 47 10000 4.63 70 10:58 18.02.2021
2434 Clouds -2 1031 47 10000 4.63 70 10:40 18.02.2021
2435 Clouds -2 1031 47 10000 4.63 70 10:20 18.02.2021
2436 Clear -2 1031 34 10000 3.09 30 09:39 18.02.2021
2437 Clouds -2 1031 55 10000 3.09 80 09:19 18.02.2021
2438 Clear -2 1031 55 10000 4.63 50 08:31 18.02.2021
2439 Clear -2 1032 55 10000 4.63 30 07:58 18.02.2021
2440 Clear -2 1032 55 10000 4.63 30 07:30 18.02.2021
2441 Clouds -2 1031 51 10000 3.6 50 06:29 18.02.2021
2442 Clear -1 1031 34 10000 1.54 0 01:20 18.02.2021
2443 Clear -1 1029 31 10000 2.57 280 23:49 17.02.2021
2444 Clear 0 1029 31 10000 2.57 280 23:20 17.02.2021
2445 Clear 0 1029 27 10000 2.42 334 22:46 17.02.2021
2446 Clear 0 1029 27 10000 2.42 334 22:22 17.02.2021
2447 Clear 0 1029 34 10000 1.54 0 21:48 17.02.2021
2448 Clear 0 1029 34 10000 1.54 0 21:22 17.02.2021
2449 Clear -1 1029 31 10000 2.57 310 20:47 17.02.2021
2450 Clear -1 1029 31 10000 2.57 310 20:28 17.02.2021
2451 Clear -1 1030 34 10000 3.6 310 19:48 17.02.2021
2452 Clear -1 1030 34 10000 3.6 310 19:30 17.02.2021
2453 Clear -1 1030 43 10000 2.06 280 18:45 17.02.2021
2454 Clear -2 1030 43 10000 2.06 280 18:24 17.02.2021
2455 Clear -2 1029 46 10000 4.63 170 17:41 17.02.2021
2456 Clear -2 1029 46 10000 4.63 170 17:41 17.02.2021
2457 Clear -3 1029 46 10000 4.63 170 17:19 17.02.2021
2458 Clear -4 1028 42 10000 3.6 300 16:46 17.02.2021
2459 Clear -4 1028 42 10000 3.6 300 16:25 17.02.2021
2460 Clear -5 1028 50 10000 2.57 0 15:44 17.02.2021
2461 Clear -5 1028 50 10000 2.57 0 15:25 17.02.2021
2462 Clear -5 1028 54 10000 6.34 327 14:48 17.02.2021
2463 Clear -5 1028 54 10000 6.73 318 14:29 17.02.2021
2464 Clear -5 1026 50 10000 2.57 0 13:48 17.02.2021
2465 Clear -4 1026 50 10000 2.57 0 13:30 17.02.2021
2466 Clear -4 1024 54 10000 1.54 0 12:49 17.02.2021
2467 Clear -4 1024 54 10000 1.54 0 12:24 17.02.2021
2468 Clear -3 1023 50 10000 2.06 0 11:45 17.02.2021
2469 Clear -3 1022 46 10000 5.14 290 11:25 17.02.2021
2470 Clear -3 1021 54 10000 2.06 0 10:49 17.02.2021
2471 Clear -3 1021 54 10000 2.06 0 10:31 17.02.2021
2472 Clear -2 1020 51 10000 2.06 0 09:55 17.02.2021
2473 Clear -2 1020 51 10000 2.06 0 09:30 17.02.2021
2474 Clear -1 1019 55 10000 1.54 0 08:45 17.02.2021
2475 Clear -1 1019 55 10000 1.54 0 08:23 17.02.2021
2476 Clouds 0 1018 55 10000 2.06 0 07:34 17.02.2021
2477 Clouds 1 1016 55 10000 2.57 0 06:37 17.02.2021
2478 Clouds 2 1012 56 10000 6.17 270 03:52 17.02.2021
2479 Clouds 3 1011 60 10000 4.63 270 02:31 17.02.2021
2480 Clouds 5 1009 56 10000 8.23 270 01:34 17.02.2021
2481 Clouds 6 1007 57 10000 3.6 270 00:25 17.02.2021
2482 Clouds 8 1005 61 10000 2.57 0 23:39 16.02.2021
2483 Clear 9 1004 53 10000 8.75 260 22:47 16.02.2021
2484 Clear 10 1004 53 10000 8.75 260 22:26 16.02.2021
2485 Clear 10 1004 53 10000 8.75 260 22:26 16.02.2021
2486 Clouds 11 1002 58 10000 7.2 270 21:59 16.02.2021
2487 Clouds 11 1002 58 10000 7.2 270 21:39 16.02.2021
2488 Clouds 11 1002 58 10000 7.2 270 21:21 16.02.2021
2489 Clouds 10 1002 71 10000 5.14 260 20:55 16.02.2021
2490 Clouds 10 1002 71 10000 5.14 260 20:37 16.02.2021
2491 Clouds 10 1002 71 10000 5.14 260 20:18 16.02.2021
2492 Clouds 8 1002 87 10000 3.6 230 19:39 16.02.2021
2493 Clouds 8 1002 87 10000 3.6 230 19:19 16.02.2021
2494 Clouds 8 1003 87 10000 4.63 260 18:37 16.02.2021
2495 Clouds 8 1003 87 10000 4.63 260 18:18 16.02.2021
2496 Clouds 7 1003 93 10000 3.09 260 17:47 16.02.2021
2497 Clouds 7 1003 93 10000 3.09 270 17:23 16.02.2021
2498 Clouds 7 1002 93 10000 3.6 250 16:45 16.02.2021
2499 Clouds 6 1002 93 10000 3.6 250 16:22 16.02.2021
2500 Mist 5 1002 93 6437 3.6 240 15:43 16.02.2021
2501 Mist 5 1002 93 6437 3.6 240 15:24 16.02.2021
2502 Mist 4 1002 100 2414 1.54 0 14:44 16.02.2021
2503 Mist 4 1002 93 4023 3.09 190 14:25 16.02.2021
2504 Mist 4 1003 100 3219 1.54 290 13:53 16.02.2021
2505 Rain 5 1002 93 1207 2.57 270 13:30 16.02.2021
2506 Rain 4 1001 100 2414 5.66 30 12:44 16.02.2021
2507 Rain 4 1002 93 4023 8.75 360 12:22 16.02.2021
2508 Rain 3 1003 93 6437 10.8 30 11:48 16.02.2021
2509 Rain 3 1005 93 4828 4.63 20 11:23 16.02.2021
2510 Rain 3 1007 93 8047 4.63 30 10:54 16.02.2021
2511 Rain 2 1007 93 8047 4.63 30 10:36 16.02.2021
2512 Mist 2 1007 93 8047 4.63 30 10:18 16.02.2021
2513 Rain 2 1008 93 10000 6.17 30 09:44 16.02.2021
2514 Rain 2 1008 93 10000 6.17 30 09:25 16.02.2021
2515 Rain 2 1012 93 4828 6.17 20 08:42 16.02.2021
2516 Rain 2 1012 93 4828 6.17 20 08:19 16.02.2021
2517 Rain 1 1012 93 4828 7.2 40 07:25 16.02.2021
2518 Rain 1 1017 86 4023 2.57 0 05:28 16.02.2021
2519 Mist 0 1022 86 4828 3.09 10 00:45 16.02.2021
2520 Mist 1 1022 80 2816 2.57 0 23:41 15.02.2021
2521 Mist 1 1022 80 2816 2.57 0 23:20 15.02.2021
2522 Clouds 1 1022 80 10000 2.06 360 22:43 15.02.2021
2523 Rain 1 1022 80 10000 3.09 30 22:21 15.02.2021
2524 Rain 1 1022 75 10000 4.12 360 21:42 15.02.2021
2525 Rain 1 1022 80 6437 2.06 40 21:21 15.02.2021
2526 Rain 1 1022 75 10000 3.09 70 20:47 15.02.2021
2527 Clouds 1 1022 75 10000 3.09 70 20:26 15.02.2021
2528 Clouds 1 1022 75 10000 3.09 70 20:26 15.02.2021
2529 Clouds 1 1023 69 10000 3.23 19 19:44 15.02.2021
2530 Clouds 1 1023 69 10000 3.33 13 19:23 15.02.2021
2531 Clouds 1 1023 69 10000 4.12 30 18:47 15.02.2021
2532 Rain 1 1024 64 10000 3.09 20 18:26 15.02.2021
2533 Rain 1 1024 64 10000 3.09 20 17:43 15.02.2021
2534 Clouds 1 1024 64 10000 3.09 20 17:25 15.02.2021
2535 Clouds 0 1024 69 10000 2.06 0 16:57 15.02.2021
2536 Rain 0 1024 69 10000 2.06 0 16:28 15.02.2021
2537 Rain 0 1024 69 10000 2.57 40 15:54 15.02.2021
2538 Clouds 0 1024 69 10000 2.57 40 15:36 15.02.2021
2539 Clouds 0 1024 69 10000 2.57 40 15:18 15.02.2021
2540 Clouds 0 1024 64 10000 2.06 0 14:38 15.02.2021
2541 Clouds 0 1023 69 10000 5.14 30 14:19 15.02.2021
2542 Clouds 0 1023 69 10000 3.09 40 13:47 15.02.2021
2543 Clouds 0 1023 69 10000 2.06 0 13:19 15.02.2021
2544 Clouds 0 1023 64 10000 2.57 0 12:45 15.02.2021
2545 Clouds 0 1023 64 10000 2.57 0 12:21 15.02.2021
2546 Clouds 0 1023 64 10000 4.12 40 11:45 15.02.2021
2547 Clouds 0 1023 64 10000 4.12 40 11:22 15.02.2021
2548 Clouds 0 1023 59 10000 2.57 20 10:49 15.02.2021
2549 Clouds 0 1022 64 10000 5.14 40 10:25 15.02.2021
2550 Clouds 0 1023 69 10000 2.06 0 09:55 15.02.2021
2551 Clouds 0 1023 69 10000 2.06 0 09:33 15.02.2021
2552 Rain 0 1024 60 10000 2.06 20 08:55 15.02.2021
2553 Clouds 1 1024 69 10000 5.14 50 07:49 15.02.2021
2554 Clouds 1 1024 69 10000 4.63 40 06:59 15.02.2021
2555 Clouds 1 1024 69 10000 4.63 40 06:40 15.02.2021
2556 Clear 2 1025 64 10000 2.57 0 02:34 15.02.2021
2557 Clouds 2 1024 65 10000 3.09 50 00:55 15.02.2021
2558 Clouds 3 1024 70 10000 4.12 40 23:58 14.02.2021
2559 Clouds 3 1024 70 10000 4.12 40 23:23 14.02.2021
2560 Clouds 3 1024 70 10000 2.57 260 22:40 14.02.2021
2561 Clouds 3 1024 70 10000 2.57 260 22:40 14.02.2021
2562 Clouds 3 1024 70 10000 2.57 260 22:21 14.02.2021
2563 Clouds 3 1024 70 10000 1.69 7 21:50 14.02.2021
2564 Clouds 3 1024 70 10000 1.8 344 21:29 14.02.2021
2565 Clouds 3 1024 70 10000 2.57 0 20:52 14.02.2021
2566 Clouds 2 1024 70 10000 1.54 0 20:29 14.02.2021
2567 Clouds 2 1024 70 10000 2.06 0 19:49 14.02.2021
2568 Clouds 2 1025 69 10000 3.6 40 18:58 14.02.2021
2569 Clouds 1 1025 69 10000 3.6 40 18:39 14.02.2021
2570 Clouds 1 1025 69 10000 3.6 40 18:20 14.02.2021
2571 Clouds 0 1025 75 10000 2.06 0 17:39 14.02.2021
2572 Clouds 0 1025 80 10000 2.57 260 16:57 14.02.2021
2573 Clouds -1 1025 80 10000 2.57 260 16:38 14.02.2021
2574 Clouds -1 1025 80 10000 2.57 260 16:18 14.02.2021
2575 Clouds -1 1025 86 10000 2.57 280 15:40 14.02.2021
2576 Clouds -2 1024 86 10000 1.54 0 14:51 14.02.2021
2577 Clouds -2 1024 86 10000 1.54 0 14:27 14.02.2021
2578 Clouds -2 1024 80 10000 1.54 0 13:55 14.02.2021
2579 Clouds -3 1024 80 10000 1.54 0 13:31 14.02.2021
2580 Clouds -3 1023 86 10000 2.06 0 12:45 14.02.2021
2581 Clouds -3 1023 86 10000 2.06 0 12:21 14.02.2021
2582 Clouds -2 1023 86 10000 3.6 60 11:50 14.02.2021
2583 Clouds -3 1023 86 10000 3.6 60 11:22 14.02.2021
2584 Clouds -3 1022 80 10000 4.63 30 10:45 14.02.2021
2585 Clouds -3 1022 80 10000 6.17 50 09:57 14.02.2021
2586 Clouds -3 1022 80 10000 5.14 40 09:38 14.02.2021
2587 Clouds -3 1022 80 10000 5.14 40 09:20 14.02.2021
2588 Clouds -3 1022 80 10000 5.66 40 08:40 14.02.2021
2589 Clouds -2 1023 80 10000 4.63 30 07:57 14.02.2021
2590 Clouds -2 1023 74 10000 4.63 40 06:51 14.02.2021
2591 Clouds -2 1023 69 10000 5.66 30 05:42 14.02.2021
2592 Clouds -2 1023 59 10000 5.66 40 03:32 14.02.2021
2593 Clouds -2 1023 59 10000 6.17 30 02:22 14.02.2021
2594 Clouds -2 1024 55 10000 4.12 30 00:48 14.02.2021
2595 Clouds -2 1024 55 10000 4.12 30 00:27 14.02.2021
2596 Clouds -2 1024 55 10000 4.12 50 23:41 13.02.2021
2597 Clouds -2 1024 55 10000 4.12 50 23:21 13.02.2021
2598 Clouds -2 1025 51 10000 3.09 60 22:43 13.02.2021
2599 Clouds -2 1025 51 10000 3.09 60 22:20 13.02.2021
2600 Clouds -2 1025 43 10000 2.06 50 21:42 13.02.2021
2601 Clouds -2 1025 43 10000 2.06 50 21:22 13.02.2021
2602 Clouds -3 1025 43 10000 1.54 0 20:30 13.02.2021
2603 Clouds -2 1026 55 10000 3.09 80 19:58 13.02.2021
2604 Clouds -3 1026 43 10000 2.57 0 19:39 13.02.2021
2605 Clouds -3 1026 43 10000 2.57 0 19:21 13.02.2021
2606 Clouds -3 1027 43 10000 2.57 0 18:44 13.02.2021
2607 Clouds -3 1027 43 10000 2.57 0 18:23 13.02.2021
2608 Clouds -3 1027 36 10000 4.12 50 17:43 13.02.2021
2609 Clouds -4 1027 36 10000 4.12 50 17:23 13.02.2021
2610 Clouds -4 1027 43 10000 7.2 40 16:44 13.02.2021
2611 Clouds -4 1027 43 10000 7.2 40 16:26 13.02.2021
2612 Clouds -4 1028 46 10000 6.69 30 15:41 13.02.2021
2613 Clouds -4 1028 46 10000 6.69 30 15:22 13.02.2021
2614 Clouds -4 1028 59 10000 5.66 60 14:33 13.02.2021
2615 Clouds -4 1027 50 10000 6.17 50 13:48 13.02.2021
2616 Clouds -4 1027 50 10000 6.17 50 13:25 13.02.2021
2617 Clouds -3 1027 50 10000 5.66 50 12:50 13.02.2021
2618 Clouds -3 1027 50 10000 5.66 50 12:19 13.02.2021
2619 Clouds -3 1027 50 10000 5.66 50 12:19 13.02.2021
2620 Clouds -3 1027 54 10000 5.66 50 11:45 13.02.2021
2621 Clouds -3 1027 54 10000 5.66 50 11:45 13.02.2021
2622 Clouds -3 1027 54 10000 5.66 50 11:20 13.02.2021
2623 Clouds -3 1027 50 10000 2.57 0 10:47 13.02.2021
2624 Clouds -3 1027 50 10000 2.57 0 10:26 13.02.2021
2625 Clouds -3 1027 55 10000 3.09 80 09:59 13.02.2021
2626 Clouds -3 1027 55 10000 3.09 80 09:41 13.02.2021
2627 Clouds -3 1027 55 10000 3.09 80 09:20 13.02.2021
2628 Clouds -2 1027 47 10000 3.6 50 08:40 13.02.2021
2629 Clouds -2 1027 47 10000 3.09 50 07:53 13.02.2021
2630 Clouds -2 1027 55 10000 2.57 0 06:41 13.02.2021
2631 Clouds -2 1027 55 10000 2.57 0 06:19 13.02.2021
2632 Clouds -2 1027 55 10000 2.02 349 04:19 13.02.2021
2633 Clouds -1 1027 43 10000 2.57 270 01:54 13.02.2021
2634 Clouds -1 1027 40 10000 1.54 0 00:51 13.02.2021
2635 Clouds -1 1027 40 10000 2.57 0 23:55 12.02.2021
2636 Clouds -2 1027 40 10000 2.57 0 23:31 12.02.2021
2637 Clouds -1 1026 40 10000 2.57 270 22:58 12.02.2021
2638 Clouds -1 1026 40 10000 2.57 270 22:29 12.02.2021
2639 Clouds -1 1026 40 10000 2.06 0 21:50 12.02.2021
2640 Clouds -2 1026 40 10000 2.06 0 21:29 12.02.2021
2641 Clouds -2 1026 40 10000 3.09 0 20:57 12.02.2021
2642 Clouds -2 1027 26 10000 3.09 0 20:38 12.02.2021
2643 Clouds -2 1026 40 10000 3.09 0 20:19 12.02.2021
2644 Clouds -2 1027 43 10000 3.6 40 19:47 12.02.2021
2645 Clouds -2 1027 28 10000 2.57 310 19:25 12.02.2021
2646 Clouds -3 1028 46 10000 2.06 0 18:30 12.02.2021
2647 Clear -3 1028 31 10000 3.6 40 17:48 12.02.2021
2648 Clear -4 1028 31 10000 3.6 40 17:29 12.02.2021
2649 Clouds -4 1028 36 10000 5.14 40 16:39 12.02.2021
2650 Clear -5 1028 45 10000 1.54 0 15:47 12.02.2021
2651 Clear -6 1028 45 10000 1.54 0 15:21 12.02.2021
2652 Clear -6 1028 49 10000 4.12 340 14:53 12.02.2021
2653 Clear -7 1028 49 10000 4.12 340 14:30 12.02.2021
2654 Clear -7 1028 49 10000 4.12 340 14:30 12.02.2021
2655 Clear -6 1028 58 10000 2.06 0 13:41 12.02.2021
2656 Clear -6 1028 58 10000 2.06 0 13:23 12.02.2021
2657 Clear -6 1028 53 10000 1.54 0 12:50 12.02.2021
2658 Clear -6 1028 58 10000 2.3 10 12:31 12.02.2021
2659 Clear -6 1028 58 10000 3.09 70 11:46 12.02.2021
2660 Clear -6 1028 58 10000 3.09 70 11:20 12.02.2021
2661 Clear -5 1027 63 10000 3.6 70 10:47 12.02.2021
2662 Clear -5 1028 54 10000 3.6 60 09:53 12.02.2021
2663 Clear -5 1028 54 10000 3.6 60 09:29 12.02.2021
2664 Clear -4 1027 54 10000 3.09 0 08:57 12.02.2021
2665 Clear -4 1027 54 10000 3.09 0 08:39 12.02.2021
2666 Clear -4 1027 54 10000 3.09 0 08:18 12.02.2021
2667 Clear -4 1027 54 10000 1.54 0 07:50 12.02.2021
2668 Clear -3 1027 54 10000 3.29 358 06:57 12.02.2021
2669 Clear -2 1027 51 10000 1.54 0 05:49 12.02.2021
2670 Clear -2 1027 51 10000 1.54 0 05:24 12.02.2021
2671 Clear -1 1025 64 10000 4.63 200 01:56 12.02.2021
2672 Clear 0 1024 55 10000 2.06 0 23:45 11.02.2021
2673 Clear 0 1024 55 10000 2.06 0 23:22 11.02.2021
2674 Clear 0 1024 55 10000 2.34 349 22:58 11.02.2021
2675 Clear 0 1024 55 10000 2.34 349 22:39 11.02.2021
2676 Clear 0 1024 55 10000 2.64 349 22:21 11.02.2021
2677 Clouds 0 1024 60 10000 1.54 120 21:39 11.02.2021
2678 Clouds 0 1024 60 10000 1.54 120 21:20 11.02.2021
2679 Clouds 0 1024 55 10000 4.12 290 20:46 11.02.2021
2680 Clouds 0 1024 55 10000 4.12 290 20:22 11.02.2021
2681 Clouds -1 1024 69 10000 2.06 100 19:50 11.02.2021
2682 Clouds -1 1024 69 10000 2.06 100 19:32 11.02.2021
2683 Clouds -1 1025 74 10000 4.63 50 18:59 11.02.2021
2684 Clouds -1 1025 80 10000 2.06 50 18:30 11.02.2021
2685 Clouds -2 1025 80 10000 3.09 60 17:58 11.02.2021
2686 Clouds -2 1025 80 10000 3.09 60 17:37 11.02.2021
2687 Clouds -2 1025 80 10000 3.09 60 17:18 11.02.2021
2688 Clouds -3 1025 64 10000 3.09 60 16:41 11.02.2021
2689 Clouds -2 1025 86 10000 4.12 80 16:22 11.02.2021
2690 Clouds -3 1025 86 10000 3.6 40 15:44 11.02.2021
2691 Clouds -3 1025 86 10000 3.6 40 15:26 11.02.2021
2692 Clouds -3 1025 86 10000 4.63 50 14:51 11.02.2021
2693 Clouds -3 1025 74 10000 3.09 60 14:30 11.02.2021
2694 Clouds -4 1025 74 10000 4.63 60 13:42 11.02.2021
2695 Snow -4 1025 74 10000 4.63 60 13:19 11.02.2021
2696 Snow -3 1025 74 10000 4.12 30 12:53 11.02.2021
2697 Snow -4 1025 80 4828 2.06 50 12:30 11.02.2021
2698 Snow -4 1025 80 4828 2.57 0 11:47 11.02.2021
2699 Snow -4 1025 80 4828 4.12 30 11:25 11.02.2021
2700 Snow -3 1024 80 3219 3.09 40 10:45 11.02.2021
2701 Snow -3 1024 80 3219 3.09 40 10:26 11.02.2021
2702 Snow -3 1024 93 4023 4.63 60 09:54 11.02.2021
2703 Snow -3 1025 93 2816 3.09 60 09:24 11.02.2021
2704 Snow -3 1026 86 1609 3.13 41 08:54 11.02.2021
2705 Snow -3 1026 93 2414 1.54 0 08:30 11.02.2021
2706 Mist -2 1025 93 1207 2.33 25 07:39 11.02.2021
2707 Snow -2 1026 80 2414 3.09 260 06:41 11.02.2021
2708 Snow -1 1026 64 6437 3.09 260 05:38 11.02.2021
2709 Clouds 1 1026 60 10000 5.14 230 02:43 11.02.2021
2710 Clouds 1 1026 60 10000 5.14 230 02:19 11.02.2021
2711 Clouds 1 1026 51 10000 2.57 210 00:22 11.02.2021
2712 Clouds 1 1026 41 10000 2.57 220 23:46 10.02.2021
2713 Clouds 1 1026 41 10000 2.57 220 23:18 10.02.2021
2714 Clouds 1 1026 37 10000 1.61 325 22:42 10.02.2021
2715 Clouds 1 1026 37 10000 2.44 327 22:19 10.02.2021
2716 Clouds 1 1027 38 10000 3.09 240 21:39 10.02.2021
2717 Clouds 1 1027 38 10000 3.09 240 21:20 10.02.2021
2718 Clear 1 1027 37 10000 3.09 310 20:47 10.02.2021
2719 Clear 1 1027 37 10000 3.09 310 20:24 10.02.2021
2720 Clear 1 1027 43 10000 1.54 0 19:48 10.02.2021
2721 Clear 0 1027 43 10000 1.54 0 19:27 10.02.2021
2722 Clear 0 1028 47 10000 3.6 240 18:47 10.02.2021
2723 Clear -1 1028 47 10000 2.06 0 18:26 10.02.2021
2724 Clear -1 1029 51 10000 2.57 210 17:57 10.02.2021
2725 Clear -1 1028 50 10000 3.3 308 17:26 10.02.2021
2726 Clear -2 1029 59 10000 2.06 0 16:59 10.02.2021
2727 Clear -2 1029 59 10000 2.06 0 16:41 10.02.2021
2728 Clear -2 1029 59 10000 2.06 0 16:41 10.02.2021
2729 Clear -2 1029 50 10000 3.09 290 16:23 10.02.2021
2730 Clear -3 1029 69 10000 2.57 0 15:24 10.02.2021
2731 Clear -3 1028 59 10000 2.57 350 14:53 10.02.2021
2732 Clear -3 1028 64 10000 2.06 0 14:34 10.02.2021
2733 Clear -4 1028 69 10000 2.57 250 13:55 10.02.2021
2734 Clear -4 1028 69 10000 2.57 250 13:30 10.02.2021
2735 Clear -4 1027 74 10000 2.57 240 12:55 10.02.2021
2736 Clear -4 1027 74 10000 2.57 240 12:31 10.02.2021
2737 Clouds -4 1027 80 10000 3.09 260 11:59 10.02.2021
2738 Clouds -4 1027 80 10000 3.09 260 11:39 10.02.2021
2739 Clouds -4 1027 80 10000 3.09 260 11:21 10.02.2021
2740 Clouds -4 1025 86 10000 2.06 0 10:37 10.02.2021
2741 Clouds -4 1025 86 10000 2.06 0 10:18 10.02.2021
2742 Clouds -4 1025 86 10000 2.06 0 10:18 10.02.2021
2743 Clouds -4 1025 80 10000 1.54 0 09:33 10.02.2021
2744 Clear -4 1024 86 10000 3.63 333 08:57 10.02.2021
2745 Clear -4 1024 86 10000 3.61 333 08:39 10.02.2021
2746 Clear -4 1024 86 10000 2.06 0 07:52 10.02.2021
2747 Clear -3 1024 80 10000 3.72 336 06:44 10.02.2021
2748 Clear -1 1022 80 10000 2.53 334 02:26 10.02.2021
2749 Clouds -1 1021 80 10000 2.17 351 00:24 10.02.2021
2750 Clouds 0 1020 80 10000 2.06 0 23:34 09.02.2021
2751 Clouds 0 1020 86 10000 1.54 0 22:54 09.02.2021
2752 Clouds 0 1020 86 10000 1.54 0 22:24 09.02.2021
2753 Mist 0 1019 86 9656 1.54 0 21:52 09.02.2021
2754 Mist 0 1019 86 9656 1.54 0 21:32 09.02.2021
2755 Mist 0 1020 93 3219 3.09 10 20:49 09.02.2021
2756 Mist 0 1020 93 2816 4.56 356 20:26 09.02.2021
2757 Mist 0 1020 86 6437 5.14 50 19:58 09.02.2021
2758 Mist 0 1020 86 6437 5.14 50 19:36 09.02.2021
2759 Rain 0 1022 80 4828 4.63 40 18:58 09.02.2021
2760 Rain 0 1022 80 4828 4.63 40 18:58 09.02.2021
2761 Rain 0 1022 80 4828 4.63 40 18:58 09.02.2021
2762 Rain 0 1022 80 4828 4.63 40 18:58 09.02.2021
2763 Rain 0 1022 80 4828 4.63 40 18:37 09.02.2021
2764 Rain 0 1023 69 10000 2.57 40 17:57 09.02.2021
2765 Rain 0 1023 69 10000 2.57 40 17:39 09.02.2021
2766 Rain 0 1023 69 10000 4.63 30 17:20 09.02.2021
2767 Rain 0 1024 75 10000 4.12 30 16:42 09.02.2021
2768 Clouds 0 1024 75 10000 4.12 30 16:18 09.02.2021
2769 Clouds 0 1024 75 10000 4.63 40 15:50 09.02.2021
2770 Clouds -1 1025 74 10000 5.66 30 15:25 09.02.2021
2771 Clouds -2 1026 80 10000 5.14 40 14:54 09.02.2021
2772 Snow -2 1026 80 10000 5.14 40 14:28 09.02.2021
2773 Snow -2 1026 74 10000 5.66 40 13:52 09.02.2021
2774 Snow -3 1026 74 10000 5.66 40 13:25 09.02.2021
2775 Snow -3 1027 74 10000 3.09 50 12:54 09.02.2021
2776 Snow -3 1027 74 10000 3.09 50 12:36 09.02.2021
2777 Snow -3 1028 69 10000 1.54 40 11:58 09.02.2021
2778 Snow -3 1028 69 10000 1.54 40 11:39 09.02.2021
2779 Clouds -3 1028 69 10000 1.54 40 11:20 09.02.2021
2780 Clouds -3 1029 69 10000 1.72 39 10:50 09.02.2021
2781 Clouds -4 1029 69 10000 1.1 24 10:19 09.02.2021
2782 Clear -4 1029 68 10000 1.1 24 09:43 09.02.2021
2783 Clear -4 1029 68 10000 0.53 133 09:25 09.02.2021
2784 Clear -4 1030 68 10000 1.54 260 08:47 09.02.2021
2785 Clear -4 1030 68 10000 1.54 260 08:26 09.02.2021
2786 Clear -4 1030 69 10000 2.57 210 06:49 09.02.2021
2787 Clear -4 1031 54 10000 2.57 240 04:53 09.02.2021
2788 Clear -4 1031 59 10000 3.6 240 03:41 09.02.2021
2789 Clear -3 1030 59 10000 3.6 220 00:39 09.02.2021
2790 Clear -3 1030 43 10000 2.06 0 23:57 08.02.2021
2791 Clear -2 1030 43 10000 2.06 0 23:22 08.02.2021
2792 Clouds -2 1030 40 10000 1.54 0 22:44 08.02.2021
2793 Clouds -2 1030 40 10000 1.54 0 22:26 08.02.2021
2794 Clear -2 1030 40 10000 2.57 250 21:58 08.02.2021
2795 Clear -2 1030 40 10000 2.57 250 21:36 08.02.2021
2796 Clear -2 1030 40 10000 2.57 250 21:18 08.02.2021
2797 Clear -2 1030 47 10000 3.6 220 20:42 08.02.2021
2798 Clear -2 1030 47 10000 3.6 220 20:21 08.02.2021
2799 Clouds -2 1030 46 10000 2.57 230 19:48 08.02.2021
2800 Clouds -3 1030 46 10000 2.57 230 19:26 08.02.2021
2801 Clear -3 1031 46 10000 2.06 0 18:49 08.02.2021
2802 Clear -4 1031 46 10000 2.06 0 18:25 08.02.2021
2803 Clouds -4 1031 58 10000 4.63 320 17:47 08.02.2021
2804 Clear -5 1031 49 10000 1.54 0 17:26 08.02.2021
2805 Clear -5 1031 49 10000 1.95 339 16:57 08.02.2021
2806 Clear -6 1031 49 10000 1.95 339 16:39 08.02.2021
2807 Clear -6 1031 49 10000 2.39 326 16:18 08.02.2021
2808 Clear -7 1030 53 10000 2.57 0 15:37 08.02.2021
2809 Clear -7 1030 53 10000 2.57 0 15:18 08.02.2021
2810 Clear -8 1030 53 10000 2.57 0 14:48 08.02.2021
2811 Clear -8 1030 53 10000 2.57 0 14:28 08.02.2021
2812 Clear -8 1029 68 10000 2.57 260 13:46 08.02.2021
2813 Clear -8 1029 68 10000 2.57 260 13:27 08.02.2021
2814 Clear -8 1028 68 10000 3.6 240 12:39 08.02.2021
2815 Clear -8 1027 68 10000 2.57 0 11:59 08.02.2021
2816 Clear -8 1027 68 10000 2.57 0 11:38 08.02.2021
2817 Clear -7 1026 73 10000 2.57 0 10:47 08.02.2021
2818 Clear -7 1026 73 10000 2.57 0 10:26 08.02.2021
2819 Clear -7 1025 73 10000 2.06 0 09:56 08.02.2021
2820 Clear -7 1025 73 10000 2.06 0 09:36 08.02.2021
2821 Clear -6 1023 74 10000 2.06 0 08:57 08.02.2021
2822 Clear -6 1023 74 10000 2.06 0 08:26 08.02.2021
2823 Clear -5 1022 74 10000 1.54 0 07:42 08.02.2021
2824 Clear -3 1020 80 10000 2.06 0 06:38 08.02.2021
2825 Clear -3 1018 86 10000 1.54 0 05:18 08.02.2021
2826 Clouds 0 1015 86 10000 3.6 250 02:27 08.02.2021
2827 Clouds 0 1012 86 10000 3.6 291 00:25 08.02.2021
2828 Rain 0 1011 93 10000 2.06 0 23:55 07.02.2021
2829 Rain 0 1011 86 6437 1.54 0 23:28 07.02.2021
2830 Rain 0 1011 86 4828 2.06 0 22:59 07.02.2021
2831 Rain 0 1011 93 1609 3.6 340 22:41 07.02.2021
2832 Snow 0 1011 93 1609 3.6 340 22:22 07.02.2021
2833 Snow 0 1011 86 1609 2.06 0 21:50 07.02.2021
2834 Snow 0 1011 93 402 1.54 0 21:25 07.02.2021
2835 Snow 0 1011 93 402 3.09 0 20:51 07.02.2021
2836 Snow 0 1011 93 402 3.09 0 20:32 07.02.2021
2837 Snow 0 1011 86 1207 5.66 30 19:54 07.02.2021
2838 Snow 0 1011 86 2012 6.17 30 19:30 07.02.2021
2839 Snow 0 1011 86 1207 6.69 30 18:52 07.02.2021
2840 Snow 0 1011 86 1207 6.69 30 18:34 07.02.2021
2841 Snow 0 1013 93 4023 6.69 30 17:59 07.02.2021
2842 Snow 0 1015 86 402 2.57 0 17:40 07.02.2021
2843 Snow 0 1014 93 2816 5.66 40 17:18 07.02.2021
2844 Snow 0 1014 93 2816 5.66 40 17:18 07.02.2021
2845 Snow 0 1016 86 1609 6.17 30 16:44 07.02.2021
2846 Snow 0 1016 86 1609 6.17 30 16:22 07.02.2021
2847 Snow 0 1016 75 2012 5.14 40 15:47 07.02.2021
2848 Snow 1 1016 75 2012 5.14 40 15:28 07.02.2021
2849 Clouds 2 1016 52 10000 4.63 30 14:47 07.02.2021
2850 Clouds 2 1016 52 10000 4.63 30 14:29 07.02.2021
2851 Clouds 2 1017 52 10000 6.69 40 13:52 07.02.2021
2852 Snow 2 1017 52 10000 6.69 40 13:34 07.02.2021
2853 Clouds 1 1018 52 10000 5.14 40 12:45 07.02.2021
2854 Clouds 1 1018 52 10000 5.14 40 12:22 07.02.2021
2855 Clouds 1 1019 48 10000 4.12 30 11:50 07.02.2021
2856 Clouds 1 1019 48 10000 4.12 30 11:27 07.02.2021
2857 Clear 1 1019 52 10000 4.63 40 10:51 07.02.2021
2858 Clear 1 1019 52 10000 4.63 40 10:26 07.02.2021
2859 Clear 1 1019 48 10000 3.6 40 09:49 07.02.2021
2860 Clear 1 1019 48 10000 3.6 40 09:21 07.02.2021
2861 Clear 1 1020 52 10000 2.57 40 08:31 07.02.2021
2862 Clear 1 1020 65 10000 2.83 27 07:38 07.02.2021
2863 Clear 2 1021 65 10000 2.06 200 05:57 07.02.2021
2864 Clear 3 1022 48 10000 2.06 260 03:54 07.02.2021
2865 Clear 4 1021 45 10000 3.09 270 01:37 07.02.2021
2866 Clear 5 1020 45 10000 4.63 270 00:36 07.02.2021
2867 Clear 6 1019 42 10000 6.17 260 23:46 06.02.2021
2868 Clear 6 1018 42 10000 5.14 270 22:48 06.02.2021
2869 Clear 6 1017 36 10000 6.69 270 21:43 06.02.2021
2870 Clear 6 1017 36 10000 6.69 270 21:23 06.02.2021
2871 Clouds 7 1017 36 10000 6.69 260 20:53 06.02.2021
2872 Clouds 7 1017 36 10000 6.69 260 20:26 06.02.2021
2873 Clouds 7 1016 36 10000 9.26 270 19:58 06.02.2021
2874 Clouds 7 1016 36 10000 9.26 270 19:34 06.02.2021
2875 Clear 6 1017 36 10000 9.26 270 18:59 06.02.2021
2876 Clear 6 1017 36 10000 9.26 270 18:41 06.02.2021
2877 Clear 6 1017 36 10000 9.26 270 18:20 06.02.2021
2878 Clear 6 1017 45 10000 7.2 270 17:40 06.02.2021
2879 Clear 6 1017 45 10000 7.2 270 17:20 06.02.2021
2880 Clear 4 1016 48 10000 5.14 270 16:42 06.02.2021
2881 Clear 4 1016 48 10000 5.14 270 16:24 06.02.2021
2882 Clear 3 1016 55 10000 2.57 270 15:50 06.02.2021
2883 Clear 2 1016 55 10000 2.57 270 15:29 06.02.2021
2884 Clear 2 1015 60 10000 3.6 270 14:47 06.02.2021
2885 Clear 1 1015 60 10000 3.6 270 14:28 06.02.2021
2886 Clear 0 1014 60 10000 2.06 270 13:55 06.02.2021
2887 Clear 0 1014 60 10000 2.06 270 13:36 06.02.2021
2888 Clear 0 1014 60 10000 3.09 220 12:23 06.02.2021
2889 Clear 0 1014 60 10000 2.57 230 11:58 06.02.2021
2890 Clear 0 1014 60 10000 2.57 230 11:40 06.02.2021
2891 Clear 0 1014 60 10000 2.57 230 11:19 06.02.2021
2892 Clear 1 1013 55 10000 3.09 240 10:49 06.02.2021
2893 Clear 0 1013 55 10000 3.09 240 10:25 06.02.2021
2894 Clear 1 1012 51 10000 4.12 250 09:38 06.02.2021
2895 Clear 1 1012 51 10000 4.12 250 09:19 06.02.2021
2896 Clear 1 1011 48 10000 2.06 0 08:56 06.02.2021
2897 Clear 2 1011 48 10000 2.06 0 08:29 06.02.2021
2898 Clear 3 1009 48 10000 5.14 260 06:51 06.02.2021
2899 Clear 4 1009 48 10000 5.14 260 05:41 06.02.2021
2900 Clouds 6 1005 57 10000 3.09 280 02:44 06.02.2021
2901 Clear 6 1004 65 10000 3.09 270 00:58 06.02.2021
2902 Clear 6 1004 65 10000 3.09 270 00:40 06.02.2021
2903 Clear 6 1004 65 10000 3.09 270 00:18 06.02.2021
2904 Clear 7 1003 61 10000 2.57 250 23:34 05.02.2021
2905 Clear 8 1003 61 10000 2.57 240 22:51 05.02.2021
2906 Clear 8 1003 61 10000 2.57 240 22:25 05.02.2021
2907 Clouds 8 1003 61 10000 2.57 220 21:59 05.02.2021
2908 Clouds 8 1003 61 10000 2.57 220 21:59 05.02.2021
2909 Clouds 8 1003 61 10000 2.57 220 21:39 05.02.2021
2910 Clear 8 1003 66 10000 2.57 270 20:58 05.02.2021
2911 Clear 8 1003 66 10000 2.57 270 20:34 05.02.2021
2912 Clouds 6 1004 70 10000 2.06 260 19:47 05.02.2021
2913 Clouds 6 1004 70 10000 2.06 260 19:19 05.02.2021
2914 Clouds 6 1005 75 10000 2.06 270 18:43 05.02.2021
2915 Clouds 6 1005 75 10000 2.06 270 18:43 05.02.2021
2916 Clouds 6 1005 75 10000 2.06 270 18:19 05.02.2021
2917 Clouds 5 1006 81 10000 1.54 270 17:42 05.02.2021
2918 Clouds 5 1006 81 10000 1.54 270 17:21 05.02.2021
2919 Clouds 4 1006 87 10000 2.57 260 16:44 05.02.2021
2920 Clouds 4 1006 81 10000 2.57 0 16:23 05.02.2021
2921 Clouds 3 1007 87 10000 3.09 220 15:51 05.02.2021
2922 Rain 3 1007 87 10000 3.09 220 15:25 05.02.2021
2923 Rain 3 1007 70 10000 4.12 240 14:40 05.02.2021
2924 Clouds 3 1007 70 10000 4.12 240 14:22 05.02.2021
2925 Clouds 4 1008 70 10000 7.72 230 13:58 05.02.2021
2926 Clouds 4 1007 70 10000 3.6 210 13:35 05.02.2021
2927 Clouds 4 1007 70 10000 1.54 0 12:47 05.02.2021
2928 Clouds 3 1007 70 10000 1.54 0 12:27 05.02.2021
2929 Clouds 2 1009 56 10000 1.54 0 11:40 05.02.2021
2930 Clouds 2 1009 56 10000 1.54 0 11:21 05.02.2021
2931 Clouds 2 1010 60 10000 1.54 260 10:54 05.02.2021
2932 Clouds 2 1010 60 10000 1.54 260 10:27 05.02.2021
2933 Clouds 2 1011 64 10000 3.07 198 09:47 05.02.2021
2934 Clouds 2 1011 64 10000 2.4 195 09:28 05.02.2021
2935 Clear 2 1012 69 10000 1.54 220 08:53 05.02.2021
2936 Clear 2 1012 69 10000 1.54 220 08:22 05.02.2021
2937 Clear 1 1012 60 10000 2.47 211 07:36 05.02.2021
2938 Clear 1 1012 64 10000 1.54 0 06:52 05.02.2021
2939 Clear 1 1013 64 10000 2.57 250 05:37 05.02.2021
2940 Clear 2 1013 60 10000 1.54 0 03:22 05.02.2021
2941 Clear 3 1013 65 10000 2.06 280 02:24 05.02.2021
2942 Clear 4 1012 49 10000 2.57 210 00:41 05.02.2021
2943 Clear 4 1012 49 10000 2.57 210 00:20 05.02.2021
2944 Clear 6 1012 42 10000 2.57 260 23:58 04.02.2021
2945 Clear 6 1012 42 10000 2.57 260 23:39 04.02.2021
2946 Clear 6 1012 42 10000 2.57 260 23:20 04.02.2021
2947 Clear 6 1012 42 10000 2.57 260 23:20 04.02.2021
2948 Clear 7 1012 42 10000 3.09 260 22:51 04.02.2021
2949 Clear 7 1012 42 10000 3.09 260 22:27 04.02.2021
2950 Clear 5 1011 45 10000 1.54 0 21:42 04.02.2021
2951 Clear 5 1011 45 10000 1.54 0 21:20 04.02.2021
2952 Clear 4 1011 48 10000 3.6 280 20:52 04.02.2021
2953 Clear 4 1011 48 10000 3.6 280 20:34 04.02.2021
2954 Clear 4 1011 45 10000 3.6 240 19:45 04.02.2021
2955 Clear 4 1012 48 10000 2.57 0 18:59 04.02.2021
2956 Clear 3 1012 48 10000 2.57 0 18:36 04.02.2021
2957 Clear 3 1012 48 10000 5.66 300 18:18 04.02.2021
2958 Clear 3 1012 52 10000 2.06 0 17:41 04.02.2021
2959 Clear 3 1012 52 10000 2.06 0 17:20 04.02.2021
2960 Clear 2 1012 52 10000 1.54 0 16:41 04.02.2021
2961 Clear 2 1012 52 10000 1.54 0 16:19 04.02.2021
2962 Clouds 1 1012 55 10000 3.6 250 15:40 04.02.2021
2963 Clouds 1 1012 55 10000 3.6 250 15:21 04.02.2021
2964 Clouds 0 1011 60 10000 3.09 250 14:49 04.02.2021
2965 Clouds 0 1011 60 10000 3.09 250 14:21 04.02.2021
2966 Clouds 0 1010 55 10000 5.87 310 13:56 04.02.2021
2967 Clouds 0 1010 55 10000 5.87 310 13:36 04.02.2021
2968 Clouds -1 1009 55 10000 2.57 250 12:57 04.02.2021
2969 Clouds 0 1009 55 10000 2.57 250 12:20 04.02.2021
2970 Clouds 0 1009 60 10000 3.09 0 11:42 04.02.2021
2971 Clouds 0 1009 60 10000 3.09 0 11:24 04.02.2021
2972 Clouds 0 1008 60 10000 6.18 305 10:43 04.02.2021
2973 Clouds 0 1008 60 10000 6.03 305 10:18 04.02.2021
2974 Clouds 0 1007 69 10000 3.09 240 09:43 04.02.2021
2975 Clouds 0 1007 69 10000 3.09 240 09:18 04.02.2021
2976 Clouds -1 1007 64 10000 1.54 0 08:41 04.02.2021
2977 Clouds 0 1007 69 10000 2.57 0 08:20 04.02.2021
2978 Clouds -1 1007 64 10000 2.57 300 07:41 04.02.2021
2979 Clouds -1 1007 64 10000 5.59 314 06:55 04.02.2021
2980 Clouds -1 1007 64 10000 5.56 314 06:37 04.02.2021
2981 Clouds 0 1005 60 10000 1.54 0 03:53 04.02.2021
2982 Clouds 0 1005 64 10000 6.09 323 02:26 04.02.2021
2983 Clouds 1 1003 64 10000 1.54 0 00:48 04.02.2021
2984 Clouds 2 1002 60 10000 1.54 0 23:40 03.02.2021
2985 Clouds 2 1001 60 10000 1.54 0 22:44 03.02.2021
2986 Clouds 3 1001 60 10000 1.54 0 22:23 03.02.2021
2987 Clouds 3 1000 60 10000 1.54 0 21:59 03.02.2021
2988 Clouds 3 1000 60 10000 1.54 0 21:41 03.02.2021
2989 Clouds 3 1000 60 10000 1.54 0 21:20 03.02.2021
2990 Clouds 2 999 60 10000 1.54 0 20:46 03.02.2021
2991 Clouds 2 999 60 10000 1.54 0 20:26 03.02.2021
2992 Clouds 2 999 60 10000 2.57 300 19:51 03.02.2021
2993 Clouds 2 999 60 10000 2.57 300 19:23 03.02.2021
2994 Clouds 2 999 65 10000 4.99 318 18:51 03.02.2021
2995 Clouds 2 999 65 10000 5.38 323 18:21 03.02.2021
2996 Clouds 2 999 69 10000 5.38 323 17:57 03.02.2021
2997 Clouds 1 1000 64 10000 2.57 0 17:36 03.02.2021
2998 Clouds 1 1000 64 10000 2.57 0 17:18 03.02.2021
2999 Clouds 0 1000 69 10000 3.6 310 16:36 03.02.2021
3000 Clouds 0 999 80 10000 1.54 0 15:50 03.02.2021
3001 Clouds 0 999 80 10000 1.54 0 15:31 03.02.2021
3002 Clouds -1 999 86 10000 2.06 0 14:59 03.02.2021
3003 Clouds -1 999 86 10000 2.06 0 14:41 03.02.2021
3004 Clouds -1 999 86 10000 2.06 0 14:19 03.02.2021
3005 Clouds -1 999 86 10000 2.57 0 13:43 03.02.2021
3006 Clouds -1 999 86 10000 2.57 0 13:18 03.02.2021
3007 Clouds -2 998 86 10000 2.06 250 12:39 03.02.2021
3008 Clouds -2 998 86 10000 2.06 250 12:19 03.02.2021
3009 Clouds -2 998 86 10000 1.54 0 11:41 03.02.2021
3010 Clouds -1 998 86 10000 1.54 0 11:21 03.02.2021
3011 Snow -2 997 93 10000 2.57 260 10:27 03.02.2021
3012 Snow -1 997 93 4828 4.21 323 09:58 03.02.2021
3013 Snow -2 997 93 4828 4.21 323 09:38 03.02.2021
3014 Snow -2 997 93 2816 3.9 321 09:19 03.02.2021
3015 Snow -1 997 86 4828 2.06 0 08:43 03.02.2021
3016 Snow -1 997 86 10000 3.88 328 07:54 03.02.2021
3017 Clouds 0 997 80 10000 2.06 0 06:42 03.02.2021
3018 Clouds 0 996 80 10000 2.06 270 05:19 03.02.2021
3019 Clouds 0 996 86 10000 1.54 0 04:42 03.02.2021
3020 Clouds 0 996 86 10000 1.54 0 03:52 03.02.2021
3021 Clouds 0 997 86 10000 3.6 200 02:41 03.02.2021
3022 Snow 0 997 86 10000 3.6 60 01:47 03.02.2021
3023 Snow 0 996 86 9656 2.06 0 00:24 03.02.2021
3024 Mist 1 996 86 8047 6.34 357 23:43 02.02.2021
3025 Snow 1 996 86 8047 7.04 354 23:25 02.02.2021
3026 Snow 1 995 86 10000 2.06 0 22:46 02.02.2021
3027 Rain 1 995 86 10000 2.06 0 22:21 02.02.2021
3028 Snow 0 996 86 6437 1.54 0 21:46 02.02.2021
3029 Mist 0 996 86 6437 1.54 0 21:27 02.02.2021
3030 Snow 0 995 86 4828 1.54 0 20:50 02.02.2021
3031 Snow 0 996 86 3219 1.54 0 20:23 02.02.2021
3032 Mist 0 996 86 3219 2.06 0 19:58 02.02.2021
3033 Snow 0 996 86 2816 2.06 0 19:39 02.02.2021
3034 Mist 0 996 86 2816 2.06 0 19:21 02.02.2021
3035 Mist 0 996 86 6437 3.09 0 18:41 02.02.2021
3036 Snow 0 996 86 6437 3.09 0 18:23 02.02.2021
3037 Snow 0 997 86 9656 2.06 0 17:42 02.02.2021
3038 Mist 0 997 86 9656 2.06 0 17:21 02.02.2021
3039 Snow 0 998 86 10000 4.12 360 16:51 02.02.2021
3040 Snow -1 998 86 10000 2.57 0 16:31 02.02.2021
3041 Snow -1 998 86 6437 1.54 0 15:57 02.02.2021
3042 Snow -1 998 86 6437 1.54 0 15:38 02.02.2021
3043 Snow -1 998 86 6437 1.54 0 15:18 02.02.2021
3044 Snow -1 998 93 10000 2.57 0 14:39 02.02.2021
3045 Clouds -1 998 93 10000 2.57 0 14:18 02.02.2021
3046 Clouds -1 998 93 10000 2.57 0 13:44 02.02.2021
3047 Rain -1 998 93 10000 2.57 0 13:25 02.02.2021
3048 Rain -1 998 93 10000 2.57 0 12:53 02.02.2021
3049 Rain -1 998 93 10000 2.57 0 12:23 02.02.2021
3050 Snow -1 998 93 6437 2.06 0 11:40 02.02.2021
3051 Snow -1 998 93 6437 2.06 0 11:19 02.02.2021
3052 Snow -1 999 93 4828 1.54 0 10:47 02.02.2021
3053 Snow -1 999 93 4828 1.54 0 10:26 02.02.2021
3054 Rain 0 999 93 6437 3.09 0 09:46 02.02.2021
3055 Rain 0 999 93 6437 3.09 0 09:23 02.02.2021
3056 Mist 0 999 86 9656 3.6 10 08:43 02.02.2021
3057 Snow 0 999 86 9656 3.6 10 07:50 02.02.2021
3058 Mist 0 999 86 9656 3.6 10 07:26 02.02.2021
3059 Rain 0 1000 86 8047 6.17 30 06:40 02.02.2021
3060 Rain 0 1001 86 9656 5.66 50 05:51 02.02.2021
3061 Mist 0 1002 86 3219 6.17 10 04:21 02.02.2021
3062 Snow 0 1003 86 4828 9.77 30 02:25 02.02.2021
3063 Mist 0 1004 86 2816 6.69 20 00:46 02.02.2021
3064 Snow 0 1004 86 3219 8.23 30 00:18 02.02.2021
3065 Snow -1 1005 86 2414 7.72 40 23:18 01.02.2021
3066 Mist -1 1004 86 1609 7.72 30 22:39 01.02.2021
3067 Snow -1 1006 93 402 6.17 40 22:20 01.02.2021
3068 Snow -1 1005 93 1207 6.17 30 21:46 01.02.2021
3069 Snow -1 1005 93 1207 6.17 30 21:22 01.02.2021
3070 Snow -1 1006 93 805 6.17 20 20:44 01.02.2021
3071 Snow -1 1006 93 805 6.17 20 20:25 01.02.2021
3072 Snow -2 1007 93 402 8.23 30 19:49 01.02.2021
3073 Snow -2 1007 93 402 8.23 30 19:21 01.02.2021
3074 Fog -2 1008 93 402 10.29 30 18:59 01.02.2021
3075 Snow -2 1009 93 805 7.2 30 18:40 01.02.2021
3076 Snow -2 1009 93 805 7.2 30 18:22 01.02.2021
3077 Snow -2 1011 86 402 9.26 30 17:44 01.02.2021
3078 Fog -2 1011 86 402 9.26 30 17:21 01.02.2021
3079 Snow -2 1012 93 402 11.32 40 16:41 01.02.2021
3080 Snow -2 1012 93 805 9.77 40 16:22 01.02.2021
3081 Snow -2 1013 93 1207 9.26 30 15:40 01.02.2021
3082 Snow -2 1013 93 805 8.23 40 15:19 01.02.2021
3083 Fog -2 1013 93 805 9.77 40 14:51 01.02.2021
3084 Snow -2 1014 93 1207 9.77 30 14:23 01.02.2021
3085 Snow -2 1014 86 1609 8.75 30 13:44 01.02.2021
3086 Snow -2 1014 86 1609 8.75 30 13:25 01.02.2021
3087 Snow -3 1015 86 1609 7.2 50 12:44 01.02.2021
3088 Snow -3 1014 93 4828 11.83 40 12:25 01.02.2021
3089 Snow -3 1015 93 2816 9.26 30 11:43 01.02.2021
3090 Mist -3 1015 93 2816 9.26 30 11:21 01.02.2021
3091 Mist -3 1015 93 2414 11.83 30 10:47 01.02.2021
3092 Snow -3 1015 93 4023 9.26 40 10:21 01.02.2021
3093 Snow -3 1016 93 3219 11.32 30 09:53 01.02.2021
3094 Snow -3 1016 93 3219 11.32 30 09:35 01.02.2021
3095 Snow -4 1017 93 3219 10.29 40 08:56 01.02.2021
3096 Snow -4 1017 93 2012 9.26 30 08:26 01.02.2021
3097 Snow -5 1019 93 1207 8.75 40 06:59 01.02.2021
3098 Mist -5 1022 86 2012 4.12 50 04:33 01.02.2021
3099 Snow -5 1023 80 1207 6.17 60 02:39 01.02.2021
3100 Snow -4 1024 58 6437 3.6 60 00:18 01.02.2021
3101 Snow -4 1025 54 10000 2.57 0 22:57 31.01.2021
3102 Snow -4 1025 54 10000 2.57 0 22:38 31.01.2021
3103 Snow -4 1025 54 10000 2.57 0 22:19 31.01.2021
3104 Snow -4 1025 64 10000 4.12 60 21:46 31.01.2021
3105 Snow -4 1025 64 10000 4.12 60 21:19 31.01.2021
3106 Snow -4 1026 63 10000 2.68 70 20:43 31.01.2021
3107 Clouds -4 1026 63 10000 2.15 66 20:21 31.01.2021
3108 Clouds -4 1027 63 10000 1.54 190 19:40 31.01.2021
3109 Clouds -4 1027 63 10000 1.54 190 19:40 31.01.2021
3110 Snow -4 1027 50 10000 2.73 68 19:22 31.01.2021
3111 Snow -5 1027 50 10000 2.73 68 18:56 31.01.2021
3112 Snow -5 1027 50 10000 2.73 68 18:38 31.01.2021
3113 Clouds -5 1027 50 10000 2.62 70 18:18 31.01.2021
3114 Clouds -6 1027 54 10000 3.6 50 17:43 31.01.2021
3115 Clouds -6 1027 54 10000 3.6 50 17:22 31.01.2021
3116 Clouds -6 1027 58 10000 3.6 360 16:42 31.01.2021
3117 Clouds -6 1027 58 10000 3.6 360 16:22 31.01.2021
3118 Clear -7 1028 58 10000 2.06 350 15:50 31.01.2021
3119 Clear -7 1028 58 10000 2.06 350 15:28 31.01.2021
3120 Clear -7 1028 63 10000 2.06 30 14:40 31.01.2021
3121 Clear -7 1028 63 10000 2.06 30 14:19 31.01.2021
3122 Clear -7 1028 63 10000 3.09 40 13:48 31.01.2021
3123 Clear -7 1028 63 10000 3.09 40 13:23 31.01.2021
3124 Clear -7 1027 63 10000 3.09 40 12:47 31.01.2021
3125 Clear -6 1027 63 10000 3.09 40 12:21 31.01.2021
3126 Clear -6 1028 58 10000 3.08 39 11:41 31.01.2021
3127 Clear -6 1028 58 10000 3.24 36 11:21 31.01.2021
3128 Clear -6 1027 63 10000 3.09 50 10:48 31.01.2021
3129 Clear -6 1027 63 10000 3.09 50 10:30 31.01.2021
3130 Clear -6 1027 54 10000 2.57 10 09:49 31.01.2021
3131 Clear -5 1027 54 10000 1.54 0 08:58 31.01.2021
3132 Clear -5 1027 54 10000 1.54 0 08:32 31.01.2021
3133 Clear -4 1027 46 10000 2.47 330 06:55 31.01.2021
3134 Clear -4 1027 50 10000 3.6 250 05:31 31.01.2021
3135 Clear -1 1025 31 10000 2.06 280 00:40 31.01.2021
3136 Clear -1 1025 31 10000 2.06 280 00:21 31.01.2021
3137 Clear 0 1025 29 10000 2.57 0 23:28 30.01.2021
3138 Clear 0 1025 29 10000 4.12 300 22:56 30.01.2021
3139 Clear 0 1025 29 10000 4.12 300 22:29 30.01.2021
3140 Clear 0 1024 31 10000 4.12 290 21:40 30.01.2021
3141 Clear 0 1024 31 10000 4.12 290 21:20 30.01.2021
3142 Clouds 0 1024 34 10000 7.72 320 20:46 30.01.2021
3143 Clouds 0 1024 34 10000 7.72 320 20:27 30.01.2021
3144 Clear -1 1026 34 10000 1.54 0 19:44 30.01.2021
3145 Clear -2 1026 34 10000 1.54 0 19:25 30.01.2021
3146 Clear -2 1026 50 10000 3.09 0 18:42 30.01.2021
3147 Clear -3 1026 50 10000 3.09 0 18:21 30.01.2021
3148 Clear -4 1027 54 10000 2.06 0 17:59 30.01.2021
3149 Clear -4 1027 54 10000 2.06 0 17:20 30.01.2021
3150 Clear -5 1027 54 10000 4.12 240 16:47 30.01.2021
3151 Clear -6 1027 49 10000 5.66 300 16:25 30.01.2021
3152 Clear -6 1027 63 10000 2.57 0 15:57 30.01.2021
3153 Clear -6 1027 63 10000 2.57 0 15:57 30.01.2021
3154 Clear -7 1027 63 10000 2.57 0 15:39 30.01.2021
3155 Clear -7 1027 53 10000 6.17 300 15:20 30.01.2021
3156 Clear -8 1027 68 10000 3.09 280 14:50 30.01.2021
3157 Clear -8 1027 68 10000 3.09 280 14:22 30.01.2021
3158 Clear -8 1026 68 10000 2.06 0 13:33 30.01.2021
3159 Clouds -8 1026 63 10000 2.57 0 12:49 30.01.2021
3160 Clouds -8 1026 63 10000 2.57 0 12:30 30.01.2021
3161 Clouds -8 1026 63 10000 2.57 0 12:30 30.01.2021
3162 Clear -8 1025 63 10000 1.54 0 11:59 30.01.2021
3163 Clear -8 1025 63 10000 1.54 0 11:31 30.01.2021
3164 Clear -8 1025 63 10000 1.54 0 10:51 30.01.2021
3165 Clear -8 1025 63 10000 2.06 0 09:53 30.01.2021
3166 Clear -8 1025 63 10000 2.06 0 09:31 30.01.2021
3167 Clear -8 1025 63 10000 1.54 0 08:49 30.01.2021
3168 Clear -8 1025 63 10000 1.54 0 08:30 30.01.2021
3169 Clear -8 1024 53 10000 6.17 300 06:58 30.01.2021
3170 Clear -8 1024 53 10000 6.17 300 06:19 30.01.2021
3171 Clear -7 1024 58 10000 1.54 0 03:35 30.01.2021
3172 Clear -7 1023 45 10000 4.63 300 02:25 30.01.2021
3173 Clear -6 1023 42 10000 4.63 310 01:35 30.01.2021
3174 Clear -6 1022 42 10000 6.17 290 00:47 30.01.2021
3175 Clear -6 1022 42 10000 6.17 290 00:21 30.01.2021
3176 Clear -5 1021 33 10000 3.6 300 23:49 29.01.2021
3177 Clear -5 1021 33 10000 3.6 300 23:24 29.01.2021
3178 Clouds -4 1020 33 10000 5.66 290 22:45 29.01.2021
3179 Clouds -4 1020 33 10000 5.66 290 22:22 29.01.2021
3180 Clear -4 1018 30 10000 11.83 300 21:43 29.01.2021
3181 Clear -4 1018 30 10000 11.83 300 21:25 29.01.2021
3182 Clear -4 1018 33 10000 4.63 320 20:42 29.01.2021
3183 Clear -4 1018 33 10000 4.63 320 20:21 29.01.2021
3184 Clouds -4 1018 39 10000 9.26 330 19:39 29.01.2021
3185 Clouds -4 1018 39 10000 9.26 330 19:20 29.01.2021
3186 Clouds -5 1018 46 10000 13.38 320 18:44 29.01.2021
3187 Clouds -6 1019 42 10000 11.32 300 17:45 29.01.2021
3188 Clouds -6 1019 42 10000 11.32 300 17:22 29.01.2021
3189 Clouds -7 1020 41 10000 5.66 300 16:47 29.01.2021
3190 Clouds -7 1020 41 10000 5.66 300 16:24 29.01.2021
3191 Clouds -8 1020 45 10000 5.14 290 15:54 29.01.2021
3192 Clouds -8 1020 45 10000 5.14 290 15:36 29.01.2021
3193 Clear -9 1021 41 10000 6.17 290 14:57 29.01.2021
3194 Clear -9 1021 41 10000 6.17 290 14:21 29.01.2021
3195 Clear -9 1021 41 10000 5.66 300 13:45 29.01.2021
3196 Clear -9 1021 41 10000 5.66 300 13:26 29.01.2021
3197 Clear -8 1019 41 10000 8.23 300 12:30 29.01.2021
3198 Clouds -7 1018 45 10000 9.26 300 11:58 29.01.2021
3199 Clouds -7 1018 45 10000 9.26 300 11:40 29.01.2021
3200 Clouds -7 1018 45 10000 9.26 300 11:18 29.01.2021
3201 Clear -6 1019 54 10000 2.06 0 10:41 29.01.2021
3202 Clear -6 1019 54 10000 1.54 0 10:19 29.01.2021
3203 Clear -6 1019 54 10000 1.54 0 09:37 29.01.2021
3204 Clear -6 1020 58 10000 1.54 0 08:50 29.01.2021
3205 Clear -7 1020 58 10000 1.54 0 08:26 29.01.2021
3206 Clouds -6 1021 54 10000 8.09 315 07:44 29.01.2021
3207 Clouds -6 1021 54 10000 8.76 319 07:23 29.01.2021
3208 Clouds -6 1021 54 10000 2.57 0 06:38 29.01.2021
3209 Clear -6 1022 42 10000 5.66 300 04:42 29.01.2021
3210 Clear -4 1020 36 10000 8.75 300 00:52 29.01.2021
3211 Clear -3 1020 46 10000 2.06 0 00:23 29.01.2021
3212 Clear -3 1019 37 10000 6.69 290 23:57 28.01.2021
3213 Clear -2 1019 37 10000 6.69 290 23:39 28.01.2021
3214 Clear -2 1019 37 10000 6.69 290 23:20 28.01.2021
3215 Clear -1 1018 34 10000 7.72 300 22:41 28.01.2021
3216 Clear 0 1018 34 10000 7.72 300 22:21 28.01.2021
3217 Clear 0 1018 34 10000 4.63 290 21:44 28.01.2021
3218 Clear 0 1018 34 10000 4.63 290 21:26 28.01.2021
3219 Clear 1 1017 34 10000 3.6 290 20:46 28.01.2021
3220 Clear 0 1017 34 10000 3.6 290 20:19 28.01.2021
3221 Clear 0 1017 34 10000 3.6 290 20:19 28.01.2021
3222 Clear 0 1017 34 10000 3.6 290 20:19 28.01.2021
3223 Clouds 1 1017 37 10000 9.26 330 19:54 28.01.2021
3224 Clear 0 1018 40 10000 3.6 300 19:32 28.01.2021
3225 Clear 0 1018 43 10000 3.6 330 18:54 28.01.2021
3226 Clear 0 1018 43 10000 3.6 330 18:36 28.01.2021
3227 Clear 0 1018 43 10000 3.6 330 18:18 28.01.2021
3228 Clear 0 1019 51 10000 1.54 0 17:43 28.01.2021
3229 Clear 0 1019 51 10000 1.54 0 17:24 28.01.2021
3230 Clear -1 1019 55 10000 2.06 0 16:43 28.01.2021
3231 Clear -1 1019 55 10000 2.06 0 16:21 28.01.2021
3232 Clouds -2 1019 64 10000 1.54 0 15:38 28.01.2021
3233 Clouds -2 1019 64 10000 2.06 0 14:58 28.01.2021
3234 Clouds -2 1019 64 10000 2.06 0 14:39 28.01.2021
3235 Clouds -2 1019 64 10000 2.06 0 14:39 28.01.2021
3236 Clouds -2 1019 64 10000 2.06 0 14:20 28.01.2021
3237 Clouds -2 1018 64 10000 5.84 337 13:43 28.01.2021
3238 Clouds -2 1018 64 10000 1.54 0 12:52 28.01.2021
3239 Clouds -2 1018 64 10000 1.54 0 12:33 28.01.2021
3240 Clouds -2 1018 64 10000 5.31 346 11:59 28.01.2021
3241 Clouds -2 1018 64 10000 5.31 346 11:40 28.01.2021
3242 Clouds -2 1018 64 10000 5.32 350 11:19 28.01.2021
3243 Clouds -1 1017 64 10000 1.54 0 10:50 28.01.2021
3244 Clouds -2 1017 64 10000 1.54 0 10:32 28.01.2021
3245 Clouds -1 1019 64 10000 2.06 0 09:44 28.01.2021
3246 Clouds -1 1019 64 10000 2.06 0 09:22 28.01.2021
3247 Clear -1 1019 64 10000 3.62 343 08:54 28.01.2021
3248 Clear -1 1019 64 10000 4.27 0 08:19 28.01.2021
3249 Clear -1 1019 64 10000 1.54 0 07:44 28.01.2021
3250 Clear -1 1020 64 10000 2.06 0 06:50 28.01.2021
3251 Clear -1 1020 59 10000 1.54 0 05:56 28.01.2021
3252 Clouds 0 1020 55 10000 2.57 0 03:52 28.01.2021
3253 Clouds 1 1020 60 10000 2.57 0 01:38 28.01.2021
3254 Clouds 2 1019 60 10000 3.09 260 23:48 27.01.2021
3255 Clouds 2 1019 60 10000 3.09 260 23:23 27.01.2021
3256 Clouds 2 1018 60 10000 2.06 0 22:42 27.01.2021
3257 Clouds 2 1018 60 10000 2.06 0 22:22 27.01.2021
3258 Clouds 3 1018 60 10000 2.06 0 21:43 27.01.2021
3259 Clouds 2 1018 60 10000 2.06 0 21:23 27.01.2021
3260 Clouds 3 1018 60 10000 2.06 0 21:23 27.01.2021
3261 Clouds 3 1018 64 10000 3.6 300 20:52 27.01.2021
3262 Clouds 2 1018 60 10000 4.63 300 20:24 27.01.2021
3263 Clouds 3 1017 60 10000 1.54 0 19:50 27.01.2021
3264 Clouds 3 1017 60 10000 1.54 0 19:23 27.01.2021
3265 Clouds 2 1017 65 10000 3.09 0 18:46 27.01.2021
3266 Clouds 2 1017 65 10000 3.09 0 18:26 27.01.2021
3267 Clouds 2 1017 64 10000 2.57 0 17:56 27.01.2021
3268 Clouds 3 1018 64 10000 5.14 300 17:38 27.01.2021
3269 Clouds 3 1017 64 10000 2.57 0 16:58 27.01.2021
3270 Clouds 3 1017 64 10000 2.57 0 16:39 27.01.2021
3271 Clear 2 1016 64 10000 3.6 300 16:21 27.01.2021
3272 Clouds 2 1016 70 10000 2.06 0 15:49 27.01.2021
3273 Clouds 2 1016 70 10000 2.06 0 15:29 27.01.2021
3274 Clouds 2 1015 87 10000 1.54 0 14:39 27.01.2021
3275 Clouds 2 1015 87 10000 1.54 0 14:19 27.01.2021
3276 Clouds 1 1014 93 10000 1.54 0 13:40 27.01.2021
3277 Clouds 1 1014 93 10000 3.74 300 12:46 27.01.2021
3278 Clouds 1 1014 93 10000 3.34 291 12:25 27.01.2021
3279 Clouds 1 1013 87 10000 2.06 0 11:52 27.01.2021
3280 Clouds 1 1013 87 10000 2.06 0 11:26 27.01.2021
3281 Clouds 1 1013 93 10000 2.06 250 10:51 27.01.2021
3282 Clouds 1 1013 93 10000 2.06 250 10:26 27.01.2021
3283 Clouds 1 1013 87 10000 1.54 270 09:56 27.01.2021
3284 Clouds 1 1013 87 10000 1.54 270 09:33 27.01.2021
3285 Clouds 1 1012 93 10000 2.06 40 08:47 27.01.2021
3286 Clouds 1 1012 93 10000 2.06 70 07:58 27.01.2021
3287 Clouds 1 1012 93 10000 2.06 70 07:39 27.01.2021
3288 Clouds 1 1012 93 10000 2.06 30 06:47 27.01.2021
3289 Clouds 1 1011 93 10000 3.6 30 05:56 27.01.2021
3290 Snow 1 1011 93 10000 3.6 30 05:35 27.01.2021
3291 Rain 1 1012 93 9656 4.12 70 02:46 27.01.2021
3292 Mist 1 1012 93 9656 4.12 70 02:21 27.01.2021
3293 Mist 1 1013 93 8047 5.14 20 01:46 27.01.2021
3294 Mist 1 1012 93 8047 4.63 20 00:30 27.01.2021
3295 Rain 1 1012 93 6437 5.14 40 23:40 26.01.2021
3296 Rain 1 1012 93 4023 5.14 50 23:22 26.01.2021
3297 Rain 1 1012 87 6437 5.66 30 22:44 26.01.2021
3298 Rain 1 1012 87 6437 5.66 30 22:20 26.01.2021
3299 Rain 1 1013 86 4828 5.14 40 21:53 26.01.2021
3300 Rain 1 1013 86 4828 5.14 40 21:26 26.01.2021
3301 Rain 1 1013 80 10000 5.66 50 20:56 26.01.2021
3302 Rain 0 1013 80 10000 5.66 50 20:36 26.01.2021
3303 Snow 0 1014 80 10000 4.12 50 20:18 26.01.2021
3304 Snow 0 1015 80 2414 4.63 60 19:42 26.01.2021
3305 Snow 0 1015 80 2414 4.63 60 19:19 26.01.2021
3306 Snow 0 1014 75 4023 5.66 40 18:43 26.01.2021
3307 Snow 0 1016 74 4023 3.6 50 18:23 26.01.2021
3308 Snow 1 1016 55 10000 7.2 40 17:48 26.01.2021
3309 Clouds 1 1016 55 10000 7.2 40 17:27 26.01.2021
3310 Clouds 1 1017 55 10000 6.17 40 16:54 26.01.2021
3311 Clouds 1 1017 55 10000 6.17 40 16:22 26.01.2021
3312 Clouds 1 1017 64 10000 5.14 30 15:58 26.01.2021
3313 Clouds 1 1017 64 10000 5.14 30 15:39 26.01.2021
3314 Clouds 1 1017 64 10000 5.14 30 15:19 26.01.2021
3315 Clouds 1 1017 51 10000 4.12 50 14:35 26.01.2021
3316 Clouds 1 1017 51 10000 4.12 50 14:35 26.01.2021
3317 Clouds 1 1017 60 10000 5.66 50 13:59 26.01.2021
3318 Clouds 0 1017 60 10000 5.66 50 13:33 26.01.2021
3319 Clouds 0 1017 55 10000 4.63 30 12:57 26.01.2021
3320 Clouds 0 1017 55 10000 4.63 30 12:38 26.01.2021
3321 Clouds 0 1017 55 10000 4.63 30 12:19 26.01.2021
3322 Clouds 0 1018 44 10000 3.6 60 11:49 26.01.2021
3323 Clouds 0 1018 44 10000 3.6 60 11:19 26.01.2021
3324 Clouds 0 1018 47 10000 3.6 70 10:39 26.01.2021
3325 Clouds 0 1018 47 10000 3.6 70 10:20 26.01.2021
3326 Clouds 0 1019 47 10000 2.57 60 09:39 26.01.2021
3327 Clouds 0 1019 47 10000 2.57 60 09:21 26.01.2021
3328 Clouds 0 1019 44 10000 3.6 80 08:44 26.01.2021
3329 Clouds 0 1019 40 10000 2.6 33 07:56 26.01.2021
3330 Clouds 0 1019 40 10000 2.05 26 07:19 26.01.2021
3331 Clear 0 1020 40 10000 2.57 0 05:52 26.01.2021
3332 Clear 1 1019 55 10000 4.63 60 05:33 26.01.2021
3333 Clear 1 1020 44 10000 2.57 30 03:32 26.01.2021
3334 Clear 1 1019 41 10000 1.54 30 01:19 26.01.2021
3335 Clear 2 1019 56 10000 3.09 60 00:30 26.01.2021
3336 Clear 2 1019 52 10000 0.87 309 23:33 25.01.2021
3337 Clear 3 1019 48 10000 3.09 0 22:51 25.01.2021
3338 Clear 3 1019 48 10000 3.09 0 22:31 25.01.2021
3339 Clear 3 1019 35 10000 2.06 320 21:48 25.01.2021
3340 Clear 3 1019 35 10000 2.06 320 21:22 25.01.2021
3341 Clear 3 1019 35 10000 2.06 0 20:45 25.01.2021
3342 Clear 3 1019 35 10000 2.06 0 20:27 25.01.2021
3343 Clear 3 1019 38 10000 2.41 313 19:49 25.01.2021
3344 Clear 2 1019 38 10000 2.1 317 19:27 25.01.2021
3345 Clear 2 1020 38 10000 4.12 260 18:48 25.01.2021
3346 Clear 2 1020 38 10000 4.12 260 18:26 25.01.2021
3347 Clear 1 1021 44 10000 2.57 0 17:49 25.01.2021
3348 Clear 0 1021 44 10000 2.57 0 17:26 25.01.2021
3349 Clear -1 1021 55 10000 3.6 50 16:57 25.01.2021
3350 Clear -2 1021 55 10000 3.6 50 16:39 25.01.2021
3351 Clear -2 1021 55 10000 3.6 50 16:20 25.01.2021
3352 Clear -3 1022 64 10000 1.54 0 15:43 25.01.2021
3353 Clear -3 1022 64 10000 1.54 0 15:23 25.01.2021
3354 Clear -4 1021 54 10000 2.73 336 14:39 25.01.2021
3355 Clear -4 1021 54 10000 3.21 330 14:19 25.01.2021
3356 Clear -4 1021 63 10000 2.57 0 13:45 25.01.2021
3357 Clear -4 1021 63 10000 2.57 0 13:25 25.01.2021
3358 Clear -4 1021 54 10000 2.06 0 12:45 25.01.2021
3359 Clear -4 1021 54 10000 2.06 0 12:19 25.01.2021
3360 Clear -4 1020 59 10000 1.54 0 11:47 25.01.2021
3361 Clear -4 1020 59 10000 1.54 0 11:18 25.01.2021
3362 Clouds -4 1021 59 10000 3.09 260 10:39 25.01.2021
3363 Clouds -4 1021 59 10000 3.09 260 10:18 25.01.2021
3364 Clouds -3 1021 50 10000 3.85 324 09:42 25.01.2021
3365 Clouds -3 1021 50 10000 4.07 317 09:23 25.01.2021
3366 Clouds -3 1021 50 10000 3.09 250 08:27 25.01.2021
3367 Clouds -3 1021 50 10000 2.06 0 07:31 25.01.2021
3368 Clouds -3 1021 50 10000 2.57 280 06:55 25.01.2021
3369 Clear -2 1021 43 10000 5.09 324 03:46 25.01.2021
3370 Clouds -1 1021 40 10000 1.54 0 01:30 25.01.2021
3371 Clouds -1 1021 40 10000 1.54 0 01:30 25.01.2021
3372 Clear 0 1021 34 10000 1.54 0 23:44 24.01.2021
3373 Clear 0 1021 31 10000 2.57 0 23:19 24.01.2021
3374 Clear 0 1020 27 10000 3.09 0 22:42 24.01.2021
3375 Clear 0 1020 27 10000 3.09 0 22:21 24.01.2021
3376 Clear 0 1020 27 10000 4.63 310 21:48 24.01.2021
3377 Clear 0 1020 27 10000 4.63 310 21:24 24.01.2021
3378 Clear 0 1020 31 10000 5.66 310 20:46 24.01.2021
3379 Clear 0 1020 31 10000 5.66 310 20:22 24.01.2021
3380 Clear 0 1021 32 10000 3.09 0 19:53 24.01.2021
3381 Clouds 0 1020 34 10000 7.2 300 19:27 24.01.2021
3382 Clear -1 1022 37 10000 2.06 0 18:58 24.01.2021
3383 Clear -1 1022 37 10000 2.06 0 18:39 24.01.2021
3384 Clear -2 1021 34 10000 5.66 280 18:20 24.01.2021
3385 Clear -2 1023 36 10000 6.67 312 17:50 24.01.2021
3386 Clear -2 1023 36 10000 6.97 313 17:29 24.01.2021
3387 Clear -3 1023 43 10000 2.06 0 16:59 24.01.2021
3388 Clear -3 1023 36 10000 5.14 300 16:39 24.01.2021
3389 Clear -4 1023 36 10000 5.14 300 16:19 24.01.2021
3390 Clouds -4 1023 46 10000 9.26 320 15:43 24.01.2021
3391 Clouds -4 1023 46 10000 9.26 320 15:19 24.01.2021
3392 Clear -5 1024 54 10000 1.54 0 14:43 24.01.2021
3393 Clear -6 1023 45 10000 4.63 300 13:48 24.01.2021
3394 Clear -6 1023 45 10000 4.63 300 13:30 24.01.2021
3395 Clear -5 1023 54 10000 2.57 0 12:50 24.01.2021
3396 Clear -5 1023 54 10000 2.57 0 12:21 24.01.2021
3397 Clear -5 1022 46 10000 4.63 300 11:54 24.01.2021
3398 Clear -5 1022 46 10000 4.63 300 11:25 24.01.2021
3399 Clear -5 1022 46 10000 3.6 310 10:54 24.01.2021
3400 Clear -4 1022 46 10000 3.6 310 10:30 24.01.2021
3401 Clear -4 1022 46 10000 3.6 310 10:30 24.01.2021
3402 Clear -4 1022 50 10000 2.57 0 09:46 24.01.2021
3403 Clear -4 1022 46 10000 5.14 290 09:19 24.01.2021
3404 Clouds -4 1022 46 10000 7.52 314 08:31 24.01.2021
3405 Clear -4 1022 54 10000 1.54 0 03:48 24.01.2021
3406 Clear -3 1022 39 10000 4.12 290 02:18 24.01.2021
3407 Clear -2 1021 43 10000 3.09 0 00:39 24.01.2021
3408 Clear -2 1021 43 10000 3.09 0 00:19 24.01.2021
3409 Clear -1 1019 29 10000 6.17 300 23:33 23.01.2021
3410 Clear -1 1019 29 10000 7.72 310 22:59 23.01.2021
3411 Clear -1 1019 29 10000 7.72 310 22:40 23.01.2021
3412 Clear 0 1018 31 10000 6.69 290 21:59 23.01.2021
3413 Clear 0 1018 31 10000 6.69 290 21:23 23.01.2021
3414 Clear 0 1018 31 10000 5.14 300 20:58 23.01.2021
3415 Clear 0 1018 31 10000 5.14 300 20:38 23.01.2021
3416 Clear 0 1018 31 10000 5.14 300 20:20 23.01.2021
3417 Clouds 0 1018 37 10000 3.09 0 19:43 23.01.2021
3418 Clouds 0 1018 37 10000 3.09 0 19:20 23.01.2021
3419 Clouds -1 1018 37 10000 5.66 280 18:43 23.01.2021
3420 Clouds -1 1018 37 10000 5.66 280 18:23 23.01.2021
3421 Clouds -1 1018 37 10000 6.69 300 17:43 23.01.2021
3422 Clouds -1 1018 37 10000 6.69 300 17:24 23.01.2021
3423 Clouds -1 1018 40 10000 2.06 0 16:45 23.01.2021
3424 Clear -2 1018 47 10000 3.09 0 15:58 23.01.2021
3425 Clear -2 1018 47 10000 3.09 0 15:30 23.01.2021
3426 Clouds -2 1017 43 10000 3.09 0 14:46 23.01.2021
3427 Clouds -2 1017 43 10000 3.09 0 14:25 23.01.2021
3428 Clouds -2 1017 47 10000 7.5 309 13:50 23.01.2021
3429 Clouds -2 1017 47 10000 7.09 307 13:26 23.01.2021
3430 Clouds -2 1016 51 10000 1.54 0 12:46 23.01.2021
3431 Clouds -2 1016 51 10000 1.54 0 12:25 23.01.2021
3432 Clouds -1 1015 47 10000 1.54 0 11:44 23.01.2021
3433 Clouds -1 1015 47 10000 1.54 0 11:18 23.01.2021
3434 Clouds -1 1015 40 10000 2.06 0 10:27 23.01.2021
3435 Clouds 0 1014 44 10000 2.06 0 09:54 23.01.2021
3436 Clouds 0 1014 44 10000 2.06 0 09:32 23.01.2021
3437 Clouds 1 1014 44 10000 2.57 0 08:45 23.01.2021
3438 Clouds 1 1013 44 10000 2.06 0 07:50 23.01.2021
3439 Clouds 2 1013 41 10000 4.12 280 07:18 23.01.2021
3440 Clouds 3 1012 65 10000 3.09 250 03:35 23.01.2021
3441 Clear 5 1009 45 10000 2.57 0 00:34 23.01.2021
3442 Clouds 6 1008 36 10000 4.12 290 23:37 22.01.2021
3443 Clouds 7 1008 39 10000 3.09 0 22:45 22.01.2021
3444 Clouds 7 1008 39 10000 3.09 0 22:22 22.01.2021
3445 Clouds 6 1007 42 10000 2.57 0 21:45 22.01.2021
3446 Clouds 7 1007 42 10000 2.57 0 21:26 22.01.2021
3447 Clouds 6 1006 42 10000 2.57 0 20:55 22.01.2021
3448 Clouds 6 1006 42 10000 2.57 0 20:33 22.01.2021
3449 Clouds 6 1006 42 10000 7.72 270 19:48 22.01.2021
3450 Clouds 7 1006 42 10000 7.72 270 19:21 22.01.2021
3451 Clouds 7 1006 39 10000 7.72 270 18:55 22.01.2021
3452 Clouds 7 1006 39 10000 7.72 270 18:28 22.01.2021
3453 Clouds 6 1007 45 10000 6.69 260 17:58 22.01.2021
3454 Clouds 6 1007 45 10000 6.69 260 17:39 22.01.2021
3455 Clouds 6 1007 52 10000 5.66 270 16:59 22.01.2021
3456 Clouds 6 1007 52 10000 5.66 270 16:36 22.01.2021
3457 Clouds 5 1006 52 10000 5.66 270 15:59 22.01.2021
3458 Clouds 4 1006 52 10000 5.66 270 15:26 22.01.2021
3459 Clouds 4 1005 65 10000 3.09 260 14:50 22.01.2021
3460 Clouds 3 1005 65 10000 3.09 260 14:28 22.01.2021
3461 Clouds 3 1005 65 10000 2.06 270 13:46 22.01.2021
3462 Clouds 3 1005 65 10000 2.06 270 13:27 22.01.2021
3463 Clear 2 1004 65 10000 3.09 0 12:44 22.01.2021
3464 Clear 2 1004 65 10000 3.09 0 12:20 22.01.2021
3465 Clear 3 1004 65 10000 4.12 260 11:45 22.01.2021
3466 Clear 3 1003 60 10000 3.6 260 10:49 22.01.2021
3467 Clear 3 1003 60 10000 3.6 260 10:29 22.01.2021
3468 Clouds 3 1003 65 10000 2.57 0 09:55 22.01.2021
3469 Clouds 3 1003 65 10000 2.57 0 09:20 22.01.2021
3470 Clear 3 1003 65 10000 3.6 260 08:45 22.01.2021
3471 Clear 3 1003 65 10000 3.6 260 08:22 22.01.2021
3472 Clouds 3 1003 65 10000 3.6 270 07:23 22.01.2021
3473 Clear 3 1004 56 10000 4.05 262 02:42 22.01.2021
3474 Clear 4 1004 52 10000 2.57 270 00:37 22.01.2021
3475 Clear 5 1004 49 10000 2.57 260 23:50 21.01.2021
3476 Clear 5 1004 49 10000 2.57 260 23:29 21.01.2021
3477 Clear 5 1004 49 10000 4.12 260 22:49 21.01.2021
3478 Clear 6 1004 49 10000 4.12 260 22:23 21.01.2021
3479 Clear 6 1004 52 10000 4.12 260 21:43 21.01.2021
3480 Clear 6 1004 52 10000 4.12 260 21:20 21.01.2021
3481 Clear 6 1004 49 10000 6.17 240 20:48 21.01.2021
3482 Clear 6 1004 49 10000 6.17 240 20:27 21.01.2021
3483 Clouds 5 1006 48 10000 6.69 240 19:51 21.01.2021
3484 Clouds 5 1006 48 10000 6.69 240 19:29 21.01.2021
3485 Clear 4 1008 48 10000 5.66 260 18:56 21.01.2021
3486 Clear 4 1008 48 10000 5.66 260 18:38 21.01.2021
3487 Clear 4 1008 48 10000 5.66 260 18:19 21.01.2021
3488 Clouds 2 1009 55 10000 5.14 250 17:42 21.01.2021
3489 Clouds 2 1009 55 10000 5.14 250 17:19 21.01.2021
3490 Clouds 1 1011 55 10000 4.12 230 16:42 21.01.2021
3491 Clouds 0 1011 55 10000 4.12 230 16:24 21.01.2021
3492 Clouds -1 1012 64 10000 5.14 220 15:58 21.01.2021
3493 Clouds -1 1012 64 10000 5.14 220 15:33 21.01.2021
3494 Clouds -2 1013 64 10000 5.14 230 14:52 21.01.2021
3495 Clouds -2 1013 64 10000 5.14 230 14:34 21.01.2021
3496 Clear -2 1012 64 10000 4.12 240 13:48 21.01.2021
3497 Clear -2 1012 64 10000 4.12 240 13:27 21.01.2021
3498 Clear -2 1014 69 10000 3.6 230 12:55 21.01.2021
3499 Clear -2 1014 69 10000 3.6 230 12:37 21.01.2021
3500 Clear -2 1014 69 10000 3.6 230 12:18 21.01.2021
3501 Clear -2 1014 59 10000 2.06 210 11:43 21.01.2021
3502 Clear -2 1014 59 10000 2.06 210 11:22 21.01.2021
3503 Clear -3 1015 59 10000 2.06 210 10:45 21.01.2021
3504 Clear -2 1015 59 10000 2.06 210 10:24 21.01.2021
3505 Clear -2 1016 59 10000 2.06 270 09:40 21.01.2021
3506 Clear -2 1016 59 10000 2.06 270 09:21 21.01.2021
3507 Clear -3 1017 59 10000 2.57 250 08:37 21.01.2021
3508 Clear -3 1018 59 10000 1.54 230 07:54 21.01.2021
3509 Clear -3 1018 59 10000 1.54 230 07:26 21.01.2021
3510 Clear -3 1019 59 10000 2.57 250 06:46 21.01.2021
3511 Clear -3 1018 46 10000 2.06 0 05:19 21.01.2021
3512 Clear -1 1018 37 10000 5.14 300 02:24 21.01.2021
3513 Clear 0 1017 47 10000 1.54 0 00:47 21.01.2021
3514 Clouds 0 1017 47 10000 4.63 300 23:53 20.01.2021
3515 Clouds 0 1017 47 10000 4.63 300 23:32 20.01.2021
3516 Clear 1 1016 38 10000 6.69 300 22:57 20.01.2021
3517 Clear 2 1016 38 10000 6.69 300 22:36 20.01.2021
3518 Clouds 3 1014 32 10000 3.09 300 21:56 20.01.2021
3519 Clouds 3 1014 32 10000 3.09 300 21:24 20.01.2021
3520 Clouds 3 1013 35 10000 6.17 280 20:58 20.01.2021
3521 Clouds 3 1013 35 10000 6.17 280 20:36 20.01.2021
3522 Clouds 3 1013 35 10000 6.17 280 20:18 20.01.2021
3523 Clouds 4 1013 44 10000 3.6 300 19:41 20.01.2021
3524 Clouds 4 1013 44 10000 3.6 300 19:22 20.01.2021
3525 Clouds 4 1013 52 10000 2.57 0 18:42 20.01.2021
3526 Clouds 4 1013 70 10000 1.54 0 17:57 20.01.2021
3527 Clouds 4 1013 70 10000 1.54 0 17:37 20.01.2021
3528 Clouds 3 1013 81 10000 3.09 0 16:57 20.01.2021
3529 Clouds 3 1013 87 10000 4.12 260 16:38 20.01.2021
3530 Snow 2 1013 86 10000 2.57 260 15:52 20.01.2021
3531 Snow 1 1013 86 10000 2.57 260 15:34 20.01.2021
3532 Clouds 1 1013 86 10000 2.57 240 14:51 20.01.2021
3533 Snow 1 1013 80 6437 2.57 250 14:24 20.01.2021
3534 Snow 1 1013 80 2012 2.06 260 13:48 20.01.2021
3535 Rain 1 1013 69 9656 4.63 260 13:26 20.01.2021
3536 Clouds 2 1012 52 10000 2.06 270 12:42 20.01.2021
3537 Clouds 2 1012 52 10000 2.06 270 12:20 20.01.2021
3538 Clouds 2 1012 52 10000 2.06 250 11:39 20.01.2021
3539 Clouds 2 1014 60 10000 3.09 220 10:56 20.01.2021
3540 Clouds 2 1014 60 10000 3.09 220 10:34 20.01.2021
3541 Clouds 2 1015 60 10000 1.54 270 09:55 20.01.2021
3542 Clouds 2 1015 60 10000 1.54 270 09:30 20.01.2021
3543 Clouds 2 1016 52 10000 2.06 280 08:58 20.01.2021
3544 Clouds 2 1016 52 10000 2.06 280 08:33 20.01.2021
3545 Clouds 2 1017 64 10000 2.57 260 07:59 20.01.2021
3546 Clouds 2 1017 64 10000 2.57 260 07:37 20.01.2021
3547 Clear 2 1018 56 10000 3.09 280 06:56 20.01.2021
3548 Clear 3 1020 60 10000 3.09 270 03:30 20.01.2021
3549 Clear 3 1020 65 10000 3.09 270 01:50 20.01.2021
3550 Clear 3 1019 60 10000 5.14 270 00:47 20.01.2021
3551 Clouds 4 1019 56 10000 6.17 270 23:50 19.01.2021
3552 Clouds 4 1019 56 10000 6.17 270 23:27 19.01.2021
3553 Clouds 4 1018 48 10000 3.6 280 22:58 19.01.2021
3554 Clouds 4 1018 48 10000 3.6 280 22:37 19.01.2021
3555 Clouds 5 1018 49 10000 9.26 260 22:19 19.01.2021
3556 Clouds 5 1018 49 10000 4.12 280 21:52 19.01.2021
3557 Clouds 5 1018 49 10000 4.12 280 21:28 19.01.2021
3558 Clouds 5 1017 52 10000 7.72 260 20:49 19.01.2021
3559 Clouds 5 1017 52 10000 7.72 260 20:26 19.01.2021
3560 Clouds 5 1017 42 10000 3.6 270 19:56 19.01.2021
3561 Clouds 5 1017 42 10000 3.6 270 19:31 19.01.2021
3562 Clouds 5 1018 45 10000 5.14 270 18:50 19.01.2021
3563 Clouds 5 1018 45 10000 5.14 270 18:31 19.01.2021
3564 Clouds 5 1019 45 10000 5.66 260 17:55 19.01.2021
3565 Clouds 5 1019 45 10000 5.66 260 17:37 19.01.2021
3566 Clouds 5 1019 45 10000 5.66 260 17:18 19.01.2021
3567 Clear 4 1019 52 10000 6.69 260 16:38 19.01.2021
3568 Clear 4 1019 52 10000 6.69 260 16:18 19.01.2021
3569 Clouds 3 1019 60 10000 5.66 260 15:47 19.01.2021
3570 Clouds 3 1019 60 10000 5.66 260 15:29 19.01.2021
3571 Clouds 2 1019 69 10000 4.63 250 14:42 19.01.2021
3572 Clouds 2 1019 69 10000 4.63 250 14:23 19.01.2021
3573 Clouds 2 1018 69 10000 4.12 260 13:49 19.01.2021
3574 Clouds 2 1018 69 10000 4.12 260 13:21 19.01.2021
3575 Clear 1 1018 69 10000 4.12 260 12:48 19.01.2021
3576 Clear 1 1018 69 10000 4.12 260 12:30 19.01.2021
3577 Clouds 2 1017 69 10000 4.12 270 11:50 19.01.2021
3578 Clouds 2 1017 69 10000 4.12 270 11:28 19.01.2021
3579 Clouds 2 1016 69 10000 4.12 260 10:52 19.01.2021
3580 Clouds 2 1016 69 10000 4.12 260 10:32 19.01.2021
3581 Clouds 2 1016 69 10000 3.6 260 09:53 19.01.2021
3582 Clouds 2 1016 69 10000 3.6 260 09:31 19.01.2021
3583 Clear 2 1016 64 10000 4.63 260 08:59 19.01.2021
3584 Clear 2 1016 64 10000 4.63 260 08:26 19.01.2021
3585 Clear 1 1015 69 10000 4.12 260 07:49 19.01.2021
3586 Clear 2 1015 65 10000 5.66 270 06:54 19.01.2021
3587 Clouds 4 1012 60 10000 4.85 289 02:56 19.01.2021
3588 Clouds 4 1012 60 10000 5.32 285 02:20 19.01.2021
3589 Clouds 5 1010 52 10000 5.14 260 00:18 19.01.2021
3590 Clouds 6 1009 45 10000 4.63 260 23:37 18.01.2021
3591 Clouds 6 1009 45 10000 5.14 270 23:18 18.01.2021
3592 Clouds 6 1008 42 10000 3.09 280 22:40 18.01.2021
3593 Clouds 7 1008 42 10000 3.09 280 22:19 18.01.2021
3594 Clouds 7 1006 46 10000 6.17 260 21:40 18.01.2021
3595 Clouds 7 1006 46 10000 6.17 260 21:22 18.01.2021
3596 Clouds 7 1006 46 10000 2.06 0 20:45 18.01.2021
3597 Clouds 7 1006 46 10000 2.06 0 20:26 18.01.2021
3598 Clouds 7 1006 49 10000 8.23 260 19:51 18.01.2021
3599 Clouds 7 1006 49 10000 8.23 260 19:33 18.01.2021
3600 Clouds 7 1007 53 10000 7.72 270 18:48 18.01.2021
3601 Clouds 7 1007 53 10000 7.72 270 18:24 18.01.2021
3602 Clear 7 1007 56 10000 7.2 270 17:46 18.01.2021
3603 Clear 6 1007 56 10000 7.2 270 17:26 18.01.2021
3604 Clear 6 1008 61 10000 5.14 260 16:49 18.01.2021
3605 Clear 6 1008 61 10000 5.14 260 16:23 18.01.2021
3606 Clear 4 1008 70 10000 4.12 260 15:51 18.01.2021
3607 Clear 4 1008 70 10000 4.12 260 15:27 18.01.2021
3608 Clear 3 1007 75 10000 4.63 260 14:47 18.01.2021
3609 Clear 3 1007 75 10000 4.63 260 14:28 18.01.2021
3610 Clear 3 1006 70 10000 3.09 260 13:56 18.01.2021
3611 Clear 3 1006 70 10000 3.09 260 13:38 18.01.2021
3612 Clear 3 1006 70 10000 3.09 260 13:20 18.01.2021
3613 Clouds 3 1006 70 10000 2.57 250 12:42 18.01.2021
3614 Clouds 3 1006 70 10000 2.57 250 12:18 18.01.2021
3615 Clear 3 1006 65 10000 3.09 270 11:41 18.01.2021
3616 Clear 3 1006 65 10000 3.09 270 11:23 18.01.2021
3617 Clear 3 1006 65 10000 4.12 260 10:46 18.01.2021
3618 Clear 3 1006 65 10000 4.12 260 10:20 18.01.2021
3619 Clear 4 1006 65 10000 3.6 270 09:39 18.01.2021
3620 Clear 4 1006 65 10000 3.6 270 09:18 18.01.2021
3621 Clear 4 1006 70 10000 3.6 260 08:25 18.01.2021
3622 Clouds 4 1006 65 10000 3.6 260 07:48 18.01.2021
3623 Clouds 5 1006 60 10000 3.6 240 06:35 18.01.2021
3624 Clouds 5 1007 56 10000 6.17 270 04:41 18.01.2021
3625 Clouds 5 1007 56 10000 6.17 270 04:22 18.01.2021
3626 Clouds 5 1007 56 10000 5.14 260 03:46 18.01.2021
3627 Clouds 6 1007 56 10000 5.14 260 03:25 18.01.2021
3628 Clouds 6 1007 56 10000 4.12 270 02:53 18.01.2021
3629 Clouds 6 1007 56 10000 4.12 270 02:19 18.01.2021
3630 Clouds 6 1006 52 10000 6.17 270 00:41 18.01.2021
3631 Clouds 6 1005 52 10000 5.14 270 23:51 17.01.2021
3632 Clouds 6 1005 52 10000 5.14 270 23:25 17.01.2021
3633 Clouds 6 1004 49 10000 4.63 270 22:50 17.01.2021
3634 Clouds 6 1004 49 10000 4.63 270 22:23 17.01.2021
3635 Clouds 7 1004 49 10000 4.63 260 21:43 17.01.2021
3636 Clouds 7 1004 49 10000 4.63 260 21:24 17.01.2021
3637 Clouds 7 1003 49 10000 3.6 270 20:54 17.01.2021
3638 Clouds 7 1003 49 10000 3.6 270 20:36 17.01.2021
3639 Clouds 6 1003 49 10000 3.6 270 20:18 17.01.2021
3640 Clouds 6 1003 45 10000 5.14 270 19:40 17.01.2021
3641 Clouds 6 1003 52 10000 6.69 270 18:54 17.01.2021
3642 Clouds 6 1003 52 10000 6.69 270 18:29 17.01.2021
3643 Clouds 6 1004 56 10000 9.26 260 17:51 17.01.2021
3644 Clouds 5 1004 56 10000 9.26 260 17:29 17.01.2021
3645 Clear 5 1004 56 10000 10.8 270 16:56 17.01.2021
3646 Clear 5 1004 56 10000 10.8 270 16:37 17.01.2021
3647 Clear 4 1004 56 10000 10.8 270 16:18 17.01.2021
3648 Clear 3 1004 60 10000 8.75 260 15:37 17.01.2021
3649 Clear 3 1004 60 10000 8.75 260 15:19 17.01.2021
3650 Clouds 3 1003 65 10000 7.72 270 14:42 17.01.2021
3651 Clouds 2 1003 65 10000 7.72 270 14:23 17.01.2021
3652 Clouds 2 1003 65 10000 6.69 270 13:43 17.01.2021
3653 Clouds 2 1003 65 10000 6.69 270 13:24 17.01.2021
3654 Clouds 2 1002 70 10000 6.17 260 12:46 17.01.2021
3655 Clouds 2 1002 70 10000 6.17 260 12:25 17.01.2021
3656 Clear 2 1002 70 10000 6.69 260 11:26 17.01.2021
3657 Clear 2 1001 70 10000 7.2 270 10:57 17.01.2021
3658 Clear 2 1001 70 10000 7.2 270 10:39 17.01.2021
3659 Clear 2 1001 70 10000 7.2 270 10:18 17.01.2021
3660 Clear 2 1001 70 10000 7.2 260 09:18 17.01.2021
3661 Clear 2 1000 65 10000 6.17 270 08:42 17.01.2021
3662 Clear 2 1000 65 10000 6.17 270 08:42 17.01.2021
3663 Clear 3 997 65 10000 5.14 270 04:45 17.01.2021
3664 Clear 3 997 65 10000 5.14 270 04:27 17.01.2021
3665 Clear 4 997 65 10000 2.57 0 02:30 17.01.2021
3666 Clouds 5 997 61 10000 1.54 0 00:38 17.01.2021
3667 Clouds 5 997 61 10000 1.54 0 00:18 17.01.2021
3668 Clouds 6 996 65 10000 1.54 0 23:48 16.01.2021
3669 Clouds 6 996 65 10000 1.54 0 23:19 16.01.2021
3670 Clouds 7 995 70 10000 2.57 260 22:28 16.01.2021
3671 Clouds 7 995 66 10000 2.57 0 21:58 16.01.2021
3672 Clouds 8 995 66 10000 2.57 0 21:24 16.01.2021
3673 Clouds 8 995 66 10000 2.57 0 21:24 16.01.2021
3674 Clouds 8 995 66 10000 4.63 260 20:53 16.01.2021
3675 Clouds 8 995 66 10000 4.63 260 20:53 16.01.2021
3676 Clouds 8 995 71 10000 6.69 270 20:29 16.01.2021
3677 Clouds 8 995 81 10000 5.14 270 19:55 16.01.2021
3678 Clouds 8 995 81 10000 5.14 270 19:37 16.01.2021
3679 Clouds 8 995 81 10000 5.14 270 19:18 16.01.2021
3680 Clouds 8 996 87 10000 3.09 250 18:40 16.01.2021
3681 Clouds 7 996 87 10000 3.09 250 18:20 16.01.2021
3682 Clouds 7 996 87 10000 3.6 260 17:41 16.01.2021
3683 Clouds 7 996 87 10000 3.6 260 17:21 16.01.2021
3684 Clouds 7 998 87 10000 2.57 260 16:45 16.01.2021
3685 Clouds 6 998 87 10000 2.57 260 16:25 16.01.2021
3686 Clouds 6 998 87 10000 2.57 250 15:48 16.01.2021
3687 Clouds 5 998 87 10000 2.06 270 14:59 16.01.2021
3688 Clouds 5 998 87 10000 2.06 270 14:19 16.01.2021
3689 Clouds 5 998 87 10000 1.54 190 13:48 16.01.2021
3690 Clouds 5 998 87 10000 1.54 190 13:21 16.01.2021
3691 Clouds 5 999 87 10000 6.69 30 12:39 16.01.2021
3692 Rain 5 999 87 10000 6.69 30 12:20 16.01.2021
3693 Rain 5 1000 87 10000 7.72 40 11:46 16.01.2021
3694 Rain 5 1001 87 10000 6.69 30 11:24 16.01.2021
3695 Rain 5 1001 87 10000 6.69 30 11:24 16.01.2021
3696 Rain 5 1002 87 10000 7.72 30 10:45 16.01.2021
3697 Rain 6 1002 87 10000 7.72 30 10:21 16.01.2021
3698 Rain 6 1003 93 10000 9.26 30 09:33 16.01.2021
3699 Rain 7 1005 93 4023 5.66 30 08:35 16.01.2021
3700 Rain 8 1006 87 10000 7.2 40 07:32 16.01.2021
3701 Clouds 8 1008 93 10000 8.75 50 06:43 16.01.2021
3702 Rain 7 1008 93 10000 9.26 50 04:39 16.01.2021
3703 Clouds 7 1012 87 10000 7.72 40 02:56 16.01.2021
3704 Rain 8 1013 81 10000 7.2 50 00:50 16.01.2021
3705 Clouds 8 1014 81 10000 6.69 50 00:28 16.01.2021
3706 Clouds 8 1014 76 10000 7.2 60 23:58 15.01.2021
3707 Clouds 8 1014 76 10000 7.2 60 23:22 15.01.2021
3708 Clouds 7 1013 76 10000 7.2 50 22:25 15.01.2021
3709 Clouds 7 1013 81 10000 6.69 60 21:46 15.01.2021
3710 Clouds 7 1013 81 10000 6.69 60 21:21 15.01.2021
3711 Clouds 6 1013 81 10000 5.66 30 20:41 15.01.2021
3712 Clouds 6 1013 81 10000 5.66 30 20:22 15.01.2021
3713 Clouds 6 1014 81 10000 6.17 30 19:41 15.01.2021
3714 Clouds 6 1014 81 10000 6.17 30 19:23 15.01.2021
3715 Clouds 5 1015 81 10000 5.66 30 18:44 15.01.2021
3716 Clouds 5 1015 81 10000 5.66 30 18:44 15.01.2021
3717 Clouds 5 1015 81 10000 5.66 30 18:19 15.01.2021
3718 Haze 5 1017 81 9656 5.66 30 17:52 15.01.2021
3719 Haze 5 1017 81 9656 5.66 30 17:26 15.01.2021
3720 Mist 5 1017 87 8047 5.66 60 16:58 15.01.2021
3721 Mist 5 1017 87 8047 5.66 60 16:26 15.01.2021
3722 Mist 4 1017 93 6437 5.66 50 15:56 15.01.2021
3723 Mist 4 1017 93 6437 5.66 50 15:37 15.01.2021
3724 Mist 4 1017 87 6437 3.6 30 15:18 15.01.2021
3725 Mist 3 1015 87 8047 6.69 40 14:37 15.01.2021
3726 Mist 3 1015 87 8047 6.69 40 14:18 15.01.2021
3727 Clouds 3 1015 87 10000 5.66 40 13:40 15.01.2021
3728 Clouds 2 1015 87 10000 5.66 40 13:19 15.01.2021
3729 Clear 2 1015 87 10000 4.12 50 12:45 15.01.2021
3730 Clear 2 1015 87 10000 4.12 50 12:22 15.01.2021
3731 Clear 3 1014 81 10000 5.14 40 11:42 15.01.2021
3732 Clear 3 1014 81 10000 5.14 40 11:18 15.01.2021
3733 Clouds 3 1014 81 10000 4.63 60 10:48 15.01.2021
3734 Clouds 3 1014 81 10000 4.63 60 10:21 15.01.2021
3735 Clouds 3 1015 70 10000 3.09 40 09:48 15.01.2021
3736 Clouds 3 1015 70 10000 3.09 40 09:29 15.01.2021
3737 Clear 4 1014 70 10000 4.12 50 08:28 15.01.2021
3738 Clouds 4 1013 75 10000 4.63 60 07:44 15.01.2021
3739 Clouds 4 1013 75 10000 4.63 60 07:23 15.01.2021
3740 Clear 4 1013 70 10000 3.09 50 06:37 15.01.2021
3741 Clouds 6 1011 65 10000 2.57 50 02:45 15.01.2021
3742 Clear 7 1010 53 10000 2.06 260 00:47 15.01.2021
3743 Clouds 7 1009 49 10000 1.87 305 23:34 14.01.2021
3744 Clouds 8 1009 46 10000 1.57 330 22:58 14.01.2021
3745 Clouds 8 1009 46 10000 1.57 330 22:38 14.01.2021
3746 Clouds 9 1009 46 10000 1.52 340 22:20 14.01.2021
3747 Clear 9 1009 43 10000 2.06 250 21:41 14.01.2021
3748 Clear 9 1009 43 10000 2.06 250 21:20 14.01.2021
3749 Clouds 9 1009 46 10000 1.42 320 20:48 14.01.2021
3750 Clouds 9 1009 46 10000 1.2 288 20:22 14.01.2021
3751 Clouds 9 1009 49 10000 1.54 0 19:42 14.01.2021
3752 Clouds 9 1009 49 10000 1.54 0 19:23 14.01.2021
3753 Clouds 8 1010 57 10000 1.54 170 18:50 14.01.2021
3754 Clouds 8 1010 57 10000 1.54 170 18:19 14.01.2021
3755 Clear 7 1011 61 10000 2.57 250 17:45 14.01.2021
3756 Clear 7 1011 61 10000 2.57 250 17:26 14.01.2021
3757 Clouds 6 1011 65 10000 1.26 282 16:40 14.01.2021
3758 Clear 5 1011 75 10000 1.54 298 15:58 14.01.2021
3759 Clear 5 1011 75 10000 1.54 298 15:39 14.01.2021
3760 Clouds 4 1012 75 10000 3.09 240 14:59 14.01.2021
3761 Clouds 3 1012 75 10000 3.09 240 14:38 14.01.2021
3762 Clouds 3 1012 75 10000 3.09 240 14:19 14.01.2021
3763 Clear 3 1012 81 10000 2.06 290 13:52 14.01.2021
3764 Clear 3 1012 81 10000 2.06 290 13:20 14.01.2021
3765 Clouds 3 1011 75 10000 2.06 250 12:47 14.01.2021
3766 Clouds 3 1011 75 10000 2.06 250 12:19 14.01.2021
3767 Clear 3 1011 75 10000 2.06 260 11:43 14.01.2021
3768 Clear 3 1011 75 10000 2.06 260 11:21 14.01.2021
3769 Clear 3 1011 70 10000 3.09 240 10:52 14.01.2021
3770 Clear 3 1011 70 10000 3.09 240 10:27 14.01.2021
3771 Clear 3 1012 70 10000 1.54 270 09:48 14.01.2021
3772 Clear 3 1012 70 10000 1.54 270 09:23 14.01.2021
3773 Clear 3 1012 65 10000 2.57 270 08:52 14.01.2021
3774 Clear 3 1012 65 10000 2.57 270 08:28 14.01.2021
3775 Clouds 3 1012 70 10000 1.54 220 07:50 14.01.2021
3776 Clouds 3 1013 65 10000 3.09 220 06:58 14.01.2021
3777 Clouds 4 1014 65 10000 2.06 240 05:56 14.01.2021
3778 Clouds 3 1014 65 10000 3.09 250 01:42 14.01.2021
3779 Clouds 4 1015 60 10000 5.14 260 23:56 13.01.2021
3780 Clouds 4 1015 60 10000 5.14 260 23:23 13.01.2021
3781 Clouds 5 1015 56 10000 6.69 270 22:30 13.01.2021
3782 Clouds 5 1015 52 10000 6.17 260 21:59 13.01.2021
3783 Clouds 5 1015 52 10000 6.17 260 21:59 13.01.2021
3784 Clouds 5 1015 52 10000 6.17 260 21:41 13.01.2021
3785 Clouds 5 1015 52 10000 6.17 260 21:19 13.01.2021
3786 Clouds 6 1015 49 10000 2.06 0 20:42 13.01.2021
3787 Clouds 6 1015 49 10000 6.17 260 20:20 13.01.2021
3788 Clouds 6 1016 49 10000 5.66 240 19:43 13.01.2021
3789 Clouds 6 1016 49 10000 5.66 240 19:22 13.01.2021
3790 Clouds 6 1017 52 10000 2.57 230 18:42 13.01.2021
3791 Clouds 6 1017 52 10000 2.57 230 18:22 13.01.2021
3792 Clouds 5 1018 56 10000 1.54 270 17:41 13.01.2021
3793 Clouds 5 1018 56 10000 1.54 270 17:18 13.01.2021
3794 Clouds 4 1019 65 10000 2.57 230 16:36 13.01.2021
3795 Clouds 4 1019 65 10000 2.57 230 16:18 13.01.2021
3796 Clouds 3 1019 70 10000 2.06 270 15:40 13.01.2021
3797 Clouds 3 1019 70 10000 2.06 220 14:59 13.01.2021
3798 Clouds 2 1019 70 10000 2.06 220 14:27 13.01.2021
3799 Clouds 2 1019 65 10000 2.57 270 13:39 13.01.2021
3800 Clouds 2 1019 65 10000 2.57 270 13:19 13.01.2021
3801 Clouds 2 1019 70 10000 2.57 270 12:45 13.01.2021
3802 Clouds 2 1019 70 10000 2.57 270 12:24 13.01.2021
3803 Clouds 2 1019 69 10000 1.54 240 11:50 13.01.2021
3804 Clouds 2 1019 69 10000 1.54 240 11:32 13.01.2021
3805 Clouds 1 1019 60 10000 2.57 240 10:48 13.01.2021
3806 Clouds 1 1019 60 10000 2.57 240 10:27 13.01.2021
3807 Clouds 1 1019 65 10000 3.6 270 09:40 13.01.2021
3808 Clouds 1 1019 60 10000 3.09 50 08:59 13.01.2021
3809 Clouds 2 1019 60 10000 3.09 50 08:41 13.01.2021
3810 Clouds 2 1019 60 10000 3.09 50 08:23 13.01.2021
3811 Clouds 2 1019 60 10000 1.54 280 07:29 13.01.2021
3812 Clear 2 1019 70 10000 2.06 60 05:55 13.01.2021
3813 Clouds 2 1019 65 10000 2.57 90 04:18 13.01.2021
3814 Clouds 3 1019 70 10000 2.57 70 03:43 13.01.2021
3815 Clouds 3 1019 70 10000 2.57 70 03:22 13.01.2021
3816 Clear 4 1019 60 10000 2.06 270 00:48 13.01.2021
3817 Clear 5 1018 52 10000 3.09 230 23:43 12.01.2021
3818 Clear 5 1019 42 10000 1.54 290 22:59 12.01.2021
3819 Clear 6 1019 42 10000 1.54 290 22:39 12.01.2021
3820 Clear 6 1019 42 10000 1.54 290 22:19 12.01.2021
3821 Clear 7 1019 42 10000 1.54 0 21:44 12.01.2021
3822 Clear 6 1019 42 10000 1.54 0 21:25 12.01.2021
3823 Clear 7 1019 42 10000 2.06 230 20:47 12.01.2021
3824 Clear 7 1019 42 10000 2.06 230 20:27 12.01.2021
3825 Clear 7 1019 46 10000 2.71 288 19:47 12.01.2021
3826 Clear 6 1020 42 10000 1.54 0 19:26 12.01.2021
3827 Clear 6 1020 49 10000 2.57 0 18:41 12.01.2021
3828 Clear 6 1020 49 10000 2.57 0 18:22 12.01.2021
3829 Clear 5 1021 65 10000 3.09 0 17:37 12.01.2021
3830 Clear 5 1021 65 10000 3.09 0 17:19 12.01.2021
3831 Clear 4 1022 70 10000 3.09 220 16:43 12.01.2021
3832 Clear 3 1022 70 10000 3.09 220 16:22 12.01.2021
3833 Clear 2 1022 75 10000 3.09 240 15:29 12.01.2021
3834 Clear 1 1021 80 10000 3.09 240 14:59 12.01.2021
3835 Clear 0 1021 80 10000 3.09 240 14:41 12.01.2021
3836 Clear 0 1021 80 10000 3.09 240 14:19 12.01.2021
3837 Clear 1 1021 75 10000 3.6 250 13:50 12.01.2021
3838 Clear 0 1021 75 10000 3.09 260 12:54 12.01.2021
3839 Clear 0 1021 75 10000 3.09 260 12:22 12.01.2021
3840 Clear 1 1021 75 10000 2.57 240 11:40 12.01.2021
3841 Clear 1 1021 69 10000 2.06 270 10:52 12.01.2021
3842 Clear 1 1021 69 10000 2.06 270 10:22 12.01.2021
3843 Clear 1 1021 69 10000 3.09 260 09:57 12.01.2021
3844 Clear 1 1021 69 10000 3.09 260 09:28 12.01.2021
3845 Clear 1 1022 64 10000 3.09 270 08:54 12.01.2021
3846 Clear 1 1022 64 10000 3.09 270 08:26 12.01.2021
3847 Clear 1 1021 64 10000 2.57 0 07:37 12.01.2021
3848 Clear 1 1022 64 10000 2.06 250 06:39 12.01.2021
3849 Clear 1 1022 64 10000 2.06 280 05:34 12.01.2021
3850 Clear 1 1023 69 10000 2.18 250 03:27 12.01.2021
3851 Clear 2 1023 70 10000 2.57 230 02:21 12.01.2021
3852 Clear 1 1023 69 10000 1.54 240 01:31 12.01.2021
3853 Clear 1 1023 69 10000 1.54 240 01:31 12.01.2021
3854 Clear 1 1023 69 10000 1.54 240 01:31 12.01.2021
3855 Clear 2 1024 60 10000 1.54 230 23:57 11.01.2021
3856 Clear 2 1024 60 10000 1.54 230 23:37 11.01.2021
3857 Clear 2 1024 60 10000 1.54 230 23:18 11.01.2021
3858 Clouds 2 1024 60 10000 1.84 205 22:45 11.01.2021
3859 Clouds 3 1024 60 10000 1.51 216 22:26 11.01.2021
3860 Clouds 3 1024 56 10000 2.57 260 21:43 11.01.2021
3861 Clouds 3 1024 56 10000 2.57 260 21:24 11.01.2021
3862 Clouds 3 1025 55 10000 2.57 250 20:49 11.01.2021
3863 Clouds 3 1025 55 10000 2.57 250 20:29 11.01.2021
3864 Clear 2 1025 64 10000 3.09 260 19:57 11.01.2021
3865 Clear 2 1025 64 10000 3.09 260 19:35 11.01.2021
3866 Clear 1 1025 55 10000 2.28 253 18:46 11.01.2021
3867 Clear 1 1025 55 10000 1.76 229 18:28 11.01.2021
3868 Clear 1 1027 64 10000 1.76 229 17:57 11.01.2021
3869 Clear 0 1027 64 10000 1.76 229 17:39 11.01.2021
3870 Clear 0 1027 64 10000 1.78 229 17:20 11.01.2021
3871 Clear 0 1028 64 10000 2.06 270 16:43 11.01.2021
3872 Clear 0 1028 64 10000 2.06 270 16:24 11.01.2021
3873 Clear -1 1028 69 10000 2.57 290 15:50 11.01.2021
3874 Clear -1 1028 69 10000 2.57 290 15:31 11.01.2021
3875 Clear -1 1027 69 10000 1.35 275 14:41 11.01.2021
3876 Clear -1 1027 69 10000 0.72 261 14:19 11.01.2021
3877 Clear -1 1027 69 10000 0.72 261 13:44 11.01.2021
3878 Clear -1 1027 69 10000 0.6 341 13:20 11.01.2021
3879 Clear -1 1027 74 10000 1.54 270 12:41 11.01.2021
3880 Clear -1 1027 74 10000 1.54 270 12:22 11.01.2021
3881 Clear -1 1027 74 10000 1.54 280 11:44 11.01.2021
3882 Clear -1 1027 69 10000 2.06 290 10:55 11.01.2021
3883 Clear -1 1027 69 10000 2.06 290 10:32 11.01.2021
3884 Clear -1 1027 64 10000 2.57 280 09:48 11.01.2021
3885 Clear -1 1027 64 10000 2.57 280 09:25 11.01.2021
3886 Clear -1 1027 64 10000 2.06 30 08:52 11.01.2021
3887 Clear -1 1027 64 10000 2.06 30 08:32 11.01.2021
3888 Clear -1 1027 60 10000 1.54 0 07:41 11.01.2021
3889 Clear -1 1027 60 10000 1.54 0 07:21 11.01.2021
3890 Clear -1 1027 55 10000 2.04 3 06:49 11.01.2021
3891 Clear 2 1026 52 10000 2.06 0 02:23 11.01.2021
3892 Clear 3 1025 48 10000 1.42 341 00:40 11.01.2021
3893 Clear 3 1024 41 10000 1.57 326 23:48 10.01.2021
3894 Clear 4 1024 41 10000 2.06 0 22:57 10.01.2021
3895 Clear 5 1024 41 10000 2.06 0 22:38 10.01.2021
3896 Clear 5 1024 41 10000 2.06 0 22:18 10.01.2021
3897 Clear 5 1023 41 10000 1.54 0 21:40 10.01.2021
3898 Clear 5 1023 41 10000 1.54 0 21:18 10.01.2021
3899 Clear 5 1023 38 10000 3.06 346 20:49 10.01.2021
3900 Clear 5 1023 38 10000 3.37 351 20:27 10.01.2021
3901 Clear 5 1023 39 10000 1.54 0 19:40 10.01.2021
3902 Clear 4 1023 39 10000 1.54 0 19:22 10.01.2021
3903 Clear 4 1023 39 10000 1.54 0 19:22 10.01.2021
3904 Clear 4 1023 45 10000 3.09 240 18:45 10.01.2021
3905 Clear 3 1023 45 10000 3.09 240 18:20 10.01.2021
3906 Clear 3 1023 45 10000 3.09 240 18:20 10.01.2021
3907 Clear 2 1024 51 10000 1.54 0 17:26 10.01.2021
3908 Clear 1 1024 55 10000 3.24 341 16:51 10.01.2021
3909 Clear 1 1024 55 10000 3.24 341 16:30 10.01.2021
3910 Clear 0 1023 60 10000 2.57 0 15:42 10.01.2021
3911 Clear 0 1023 60 10000 2.57 0 15:24 10.01.2021
3912 Clear -1 1021 59 10000 3.11 343 14:41 10.01.2021
3913 Clear -1 1021 59 10000 2.82 344 14:23 10.01.2021
3914 Clear -1 1021 64 10000 2.57 90 13:48 10.01.2021
3915 Clear -1 1021 64 10000 2.57 90 13:27 10.01.2021
3916 Clear -1 1020 59 10000 2.06 0 12:59 10.01.2021
3917 Clear -1 1020 59 10000 2.06 0 12:41 10.01.2021
3918 Clear -1 1019 55 10000 3.22 344 11:58 10.01.2021
3919 Clear -1 1019 55 10000 3.38 350 11:21 10.01.2021
3920 Clear -1 1019 55 10000 3.09 0 10:53 10.01.2021
3921 Clear -1 1019 55 10000 3.09 0 10:25 10.01.2021
3922 Clear 0 1019 55 10000 2.57 0 09:46 10.01.2021
3923 Clear 0 1018 55 10000 3.6 280 08:50 10.01.2021
3924 Clear 0 1018 55 10000 3.6 280 08:19 10.01.2021
3925 Clear 0 1017 60 10000 2.06 0 07:28 10.01.2021
3926 Clear 0 1017 55 10000 3.09 0 06:19 10.01.2021
3927 Clear 1 1016 51 10000 4.3 347 05:35 10.01.2021
3928 Clouds 2 1015 60 10000 2.06 0 02:55 10.01.2021
3929 Clear 2 1013 48 10000 3.31 345 00:48 10.01.2021
3930 Clouds 2 1013 48 10000 2.57 260 23:47 09.01.2021
3931 Clouds 2 1013 48 10000 2.57 260 23:28 09.01.2021
3932 Clouds 2 1013 52 10000 2.06 70 22:44 09.01.2021
3933 Clouds 2 1013 52 10000 2.06 70 22:18 09.01.2021
3934 Clouds 2 1012 41 10000 5.66 360 21:56 09.01.2021
3935 Clouds 2 1012 41 10000 5.66 360 21:37 09.01.2021
3936 Clouds 2 1012 41 10000 5.66 360 21:18 09.01.2021
3937 Clouds 2 1012 41 10000 3.6 10 20:39 09.01.2021
3938 Clouds 2 1011 44 10000 5.14 30 19:45 09.01.2021
3939 Clouds 2 1011 44 10000 5.14 30 19:22 09.01.2021
3940 Clouds 1 1012 44 10000 2.57 0 18:44 09.01.2021
3941 Clouds 1 1012 44 10000 2.57 0 18:26 09.01.2021
3942 Clouds 0 1013 43 10000 2.57 0 17:47 09.01.2021
3943 Clouds 0 1013 43 10000 2.57 0 17:27 09.01.2021
3944 Clear -1 1013 55 10000 2.57 0 16:36 09.01.2021
3945 Clear -2 1013 69 10000 4.12 60 15:52 09.01.2021
3946 Clear -2 1013 69 10000 4.12 60 15:32 09.01.2021
3947 Clear -3 1013 74 10000 3.6 80 14:41 09.01.2021
3948 Clear -3 1013 74 10000 3.6 80 14:20 09.01.2021
3949 Clear -3 1012 69 10000 4.71 357 13:49 09.01.2021
3950 Clear -3 1012 69 10000 4.71 357 13:30 09.01.2021
3951 Clear -3 1012 69 10000 4.96 359 13:30 09.01.2021
3952 Clear -3 1012 69 10000 2.06 0 12:49 09.01.2021
3953 Clear -3 1012 69 10000 2.06 0 12:24 09.01.2021
3954 Clear -3 1011 69 10000 2.57 0 11:56 09.01.2021
3955 Clear -3 1011 69 10000 2.57 0 11:30 09.01.2021
3956 Clear -3 1012 69 10000 4.12 50 10:52 09.01.2021
3957 Clear -3 1012 69 10000 4.12 50 10:33 09.01.2021
3958 Clear -3 1012 63 10000 3.09 0 09:53 09.01.2021
3959 Clear -3 1012 63 10000 3.09 0 09:29 09.01.2021
3960 Clear -2 1012 59 10000 3.6 360 08:35 09.01.2021
3961 Clear -1 1012 55 10000 3.09 0 06:58 09.01.2021
3962 Clear -1 1012 55 10000 3.09 0 06:40 09.01.2021
3963 Clear -1 1013 59 10000 3.09 0 04:53 09.01.2021
3964 Clear 0 1013 64 10000 5.14 40 03:25 09.01.2021
3965 Clear 0 1014 55 10000 2.57 30 02:32 09.01.2021
3966 Clear 1 1014 55 10000 4.63 20 01:54 09.01.2021
3967 Clear 2 1014 55 10000 1.54 0 00:37 09.01.2021
3968 Clear 2 1014 51 10000 1.54 0 23:59 08.01.2021
3969 Clear 2 1014 51 10000 1.54 0 23:19 08.01.2021
3970 Clear 3 1014 48 10000 1.54 0 22:19 08.01.2021
3971 Clear 3 1014 56 10000 2.06 0 21:46 08.01.2021
3972 Clear 3 1014 56 10000 0.97 261 20:57 08.01.2021
3973 Clear 3 1014 56 10000 1.82 281 20:26 08.01.2021
3974 Clear 3 1015 52 10000 3.09 270 19:55 08.01.2021
3975 Clear 3 1015 52 10000 3.09 270 19:22 08.01.2021
3976 Clear 2 1016 52 10000 3.09 0 18:36 08.01.2021
3977 Clear 2 1016 55 10000 2.06 0 18:18 08.01.2021
3978 Clear 1 1017 64 10000 3.09 270 17:45 08.01.2021
3979 Clear 1 1017 59 10000 1.54 290 17:22 08.01.2021
3980 Clear 0 1017 64 10000 2.57 0 16:34 08.01.2021
3981 Clear -1 1018 69 10000 2.06 0 15:44 08.01.2021
3982 Clear -1 1018 69 10000 2.06 0 15:18 08.01.2021
3983 Clear -2 1017 80 10000 3.6 50 14:35 08.01.2021
3984 Clear -2 1018 69 10000 2.06 290 13:44 08.01.2021
3985 Clear -2 1018 69 10000 2.06 290 13:18 08.01.2021
3986 Clear -2 1018 80 10000 2.57 0 12:49 08.01.2021
3987 Clear -2 1018 80 10000 2.57 0 12:20 08.01.2021
3988 Clear -2 1018 80 10000 1.54 0 11:45 08.01.2021
3989 Clear -2 1018 80 10000 1.54 0 11:27 08.01.2021
3990 Clear -2 1018 80 10000 2.57 0 10:52 08.01.2021
3991 Clear -2 1018 80 10000 2.57 0 10:32 08.01.2021
3992 Clear -2 1018 74 10000 2.06 150 09:45 08.01.2021
3993 Clear -2 1018 74 10000 2.06 150 09:27 08.01.2021
3994 Clear -1 1019 69 10000 1.54 0 08:38 08.01.2021
3995 Clear -1 1019 64 10000 2.06 350 07:27 08.01.2021
3996 Clear -1 1020 59 10000 1.54 0 05:55 08.01.2021
3997 Clear 3 1020 45 10000 4.63 290 23:48 07.01.2021
3998 Clear 3 1020 45 10000 4.63 290 23:30 07.01.2021
3999 Clear 4 1019 45 10000 2.57 0 22:47 07.01.2021
4000 Clear 5 1019 45 10000 2.57 0 22:26 07.01.2021
4001 Clear 5 1019 45 10000 2.57 0 22:26 07.01.2021
4002 Clear 5 1018 42 10000 3.6 280 21:46 07.01.2021
4003 Clear 5 1018 42 10000 3.6 280 21:27 07.01.2021
4004 Clear 5 1018 41 10000 3.09 0 20:47 07.01.2021
4005 Clear 5 1018 41 10000 3.09 0 20:29 07.01.2021
4006 Clear 5 1019 41 10000 2.57 0 19:45 07.01.2021
4007 Clear 5 1019 41 10000 2.57 0 19:23 07.01.2021
4008 Clear 4 1019 44 10000 3.84 316 18:38 07.01.2021
4009 Clear 4 1019 44 10000 4.2 332 18:19 07.01.2021
4010 Clear 3 1020 48 10000 1.54 0 17:30 07.01.2021
4011 Clear 2 1020 56 10000 2.57 0 16:55 07.01.2021
4012 Clear 2 1021 55 10000 2.57 0 16:30 07.01.2021
4013 Clear 1 1020 55 10000 2.06 0 15:48 07.01.2021
4014 Clear 1 1021 59 10000 4.94 334 15:30 07.01.2021
4015 Clear 1 1021 59 10000 4.94 334 15:30 07.01.2021
4016 Clear 0 1020 60 10000 1.54 0 14:27 07.01.2021
4017 Clear 0 1019 64 10000 2.57 0 13:49 07.01.2021
4018 Clear 0 1019 64 10000 2.57 0 13:22 07.01.2021
4019 Clear 0 1019 65 10000 3.13 334 12:52 07.01.2021
4020 Clear 0 1018 69 10000 4.93 327 12:21 07.01.2021
4021 Clear 0 1018 69 10000 4.9 327 11:38 07.01.2021
4022 Clear 0 1018 69 10000 5.2 331 10:56 07.01.2021
4023 Clear 0 1018 69 10000 5.2 331 10:37 07.01.2021
4024 Clear 0 1018 59 10000 4.6 300 09:57 07.01.2021
4025 Clear 1 1018 64 10000 1.5 260 09:38 07.01.2021
4026 Clear 1 1018 64 10000 2.1 0 08:40 07.01.2021
4027 Clear 1 1018 64 10000 2.1 0 08:21 07.01.2021
4028 Clear 1 1018 64 10000 2.1 0 07:40 07.01.2021
4029 Clear 2 1017 64 10000 2.1 0 05:52 07.01.2021
4030 Clear 2 1017 64 10000 6.5 327 01:34 07.01.2021
4031 Clear 2 1017 55 10000 5.1 300 23:58 06.01.2021
4032 Clear 2 1017 55 10000 5.1 300 23:58 06.01.2021
4033 Clouds 3 1016 51 10000 6.7 300 22:51 06.01.2021
4034 Clouds 3 1016 51 10000 6.7 300 22:23 06.01.2021
4035 Clouds 4 1016 51 10000 4.1 300 21:41 06.01.2021
4036 Clear 4 1015 48 10000 5.7 310 21:22 06.01.2021
4037 Clear 4 1015 48 10000 5.7 310 21:22 06.01.2021
4038 Clear 5 1015 48 10000 5.7 310 20:42 06.01.2021
4039 Clear 5 1015 48 10000 4.6 290 20:22 06.01.2021
4040 Clear 5 1015 48 10000 4.6 290 19:47 06.01.2021
4041 Clear 5 1015 48 10000 4.6 290 19:27 06.01.2021
4042 Clear 5 1016 52 10000 1.5 0 18:46 06.01.2021
4043 Clear 5 1016 52 10000 1.5 0 18:28 06.01.2021
4044 Clouds 4 1016 55 10000 2.6 0 17:46 06.01.2021
4045 Clouds 4 1016 55 10000 2.6 0 17:27 06.01.2021
4046 Clouds 4 1016 69 10000 2.1 0 16:57 06.01.2021
4047 Clouds 4 1016 64 10000 2.1 0 16:21 06.01.2021
4048 Clouds 3 1016 64 10000 2.1 0 15:59 06.01.2021
4049 Clouds 3 1016 64 10000 2.1 0 15:39 06.01.2021
4050 Clouds 3 1016 64 10000 2.1 0 15:21 06.01.2021
4051 Clouds 2 1015 69 10000 2.1 0 14:31 06.01.2021
4052 Clear 2 1015 69 10000 2.1 270 13:55 06.01.2021
4053 Clouds 2 1014 74 10000 3.1 250 13:27 06.01.2021
4054 Clouds 2 1014 74 10000 3.1 250 12:58 06.01.2021
4055 Clouds 2 1014 74 10000 3.1 250 12:32 06.01.2021
4056 Clouds 2 1014 74 10000 2.6 260 11:46 06.01.2021
4057 Clouds 2 1014 74 10000 2.6 260 11:23 06.01.2021
4058 Clouds 2 1014 85 10000 3.1 250 10:43 06.01.2021
4059 Clouds 2 1015 74 10000 1.5 300 09:52 06.01.2021
4060 Clouds 2 1015 86 10000 1.5 0 09:32 06.01.2021
4061 Clouds 2 1014 74 10000 1.5 0 08:52 06.01.2021
4062 Clouds 2 1014 74 10000 1.5 0 08:20 06.01.2021
4063 Clouds 2 1014 74 10000 2.1 0 07:53 06.01.2021
4064 Clouds 2 1014 74 10000 1.5 0 06:44 06.01.2021
4065 Clouds 3 1014 69 10000 2.1 0 05:31 06.01.2021
4066 Clouds 3 1014 69 10000 1.5 0 04:21 06.01.2021
4067 Clouds 4 1014 69 10000 2.1 0 02:44 06.01.2021
4068 Clouds 4 1014 69 10000 2.1 0 02:21 06.01.2021
4069 Clouds 4 1013 65 10000 3.58 354 23:57 05.01.2021
4070 Clouds 4 1013 65 10000 1.5 0 22:59 05.01.2021
4071 Clouds 4 1013 65 10000 1.5 0 22:40 05.01.2021
4072 Clouds 4 1013 65 10000 1.5 0 22:20 05.01.2021
4073 Clouds 5 1013 65 10000 2.6 0 21:37 05.01.2021
4074 Clouds 5 1012 64 10000 2.1 0 20:37 05.01.2021
4075 Clouds 5 1012 60 10000 2.1 0 20:18 05.01.2021
4076 Clouds 5 1012 60 10000 2.1 0 19:41 05.01.2021
4077 Clouds 5 1012 65 10000 2.6 190 19:21 05.01.2021
4078 Clouds 5 1013 69 10000 1.5 0 18:42 05.01.2021
4079 Clouds 5 1014 69 10000 3.1 250 18:23 05.01.2021
4080 Clouds 4 1014 69 10000 3.1 250 17:49 05.01.2021
4081 Clouds 4 1014 69 10000 3.1 250 17:26 05.01.2021
4082 Clouds 4 1014 75 10000 2.6 280 16:52 05.01.2021
4083 Clouds 4 1014 80 10000 2.6 280 16:21 05.01.2021
4084 Clouds 3 1015 80 10000 2.6 80 15:50 05.01.2021
4085 Clouds 3 1014 69 10000 4.1 60 14:56 05.01.2021
4086 Clouds 3 1014 69 10000 4.1 60 14:26 05.01.2021
4087 Clouds 3 1014 69 10000 4.1 30 13:46 05.01.2021
4088 Clouds 2 1014 74 10000 3.1 10 13:23 05.01.2021
4089 Clouds 3 1014 87 10000 3.1 80 12:48 05.01.2021
4090 Clouds 3 1014 87 10000 3.1 80 12:24 05.01.2021
4091 Clouds 3 1014 87 10000 3.6 50 11:39 05.01.2021
4092 Clouds 2 1014 74 10000 2.1 20 10:55 05.01.2021
4093 Clouds 3 1014 80 10000 4.1 70 10:36 05.01.2021
4094 Clouds 3 1014 83 10000 1.5 0 09:50 05.01.2021
4095 Clouds 3 1014 82 10000 1.5 0 09:30 05.01.2021
4096 Clouds 3 1014 80 10000 2.44 19 08:28 05.01.2021
4097 Clouds 3 1014 80 10000 2.44 19 07:46 05.01.2021
4098 Clouds 3 1015 74 10000 2.6 0 04:58 05.01.2021
4099 Clouds 4 1015 75 10000 2.76 351 01:31 05.01.2021
4100 Clouds 4 1015 67 10000 3.1 0 00:21 05.01.2021
4101 Clouds 4 1015 67 10000 3.1 0 23:38 04.01.2021
4102 Clouds 4 1015 65 10000 2.6 0 23:19 04.01.2021
4103 Clouds 5 1015 70 10000 2.1 0 22:41 04.01.2021
4104 Clouds 5 1015 65 10000 2.69 348 21:56 04.01.2021
4105 Clouds 5 1015 65 10000 2.69 348 21:37 04.01.2021
4106 Clouds 5 1015 64 10000 2.1 0 20:52 04.01.2021
4107 Clouds 5 1015 63 10000 2.1 0 20:32 04.01.2021
4108 Clouds 6 1015 63 10000 3.6 10 19:55 04.01.2021
4109 Clouds 6 1015 65 10000 2.6 0 19:29 04.01.2021
4110 Clear 6 1015 65 10000 3.6 260 18:58 04.01.2021
4111 Clear 6 1015 65 10000 3.6 260 18:40 04.01.2021
4112 Clear 5 1016 70 10000 1.5 0 17:46 04.01.2021
4113 Clear 5 1016 70 10000 1.5 0 17:28 04.01.2021
4114 Clouds 4 1017 80 10000 2.1 0 16:48 04.01.2021
4115 Clouds 4 1017 80 10000 2.1 0 16:28 04.01.2021
4116 Clouds 3 1017 86 10000 1.5 0 15:52 04.01.2021
4117 Clouds 3 1017 86 10000 1.5 0 15:52 04.01.2021
4118 Clouds 3 1017 86 10000 1.5 0 15:34 04.01.2021
4119 Clouds 2 1017 80 10000 2.1 350 14:54 04.01.2021
4120 Clouds 2 1016 86 10000 4.44 9 13:56 04.01.2021
4121 Clouds 2 1016 86 10000 4.44 9 13:35 04.01.2021
4122 Clouds 2 1016 86 10000 2.6 260 12:51 04.01.2021
4123 Clouds 2 1015 86 10000 1.5 0 12:25 04.01.2021
4124 Clouds 2 1015 86 10000 1.5 0 11:39 04.01.2021
4125 Clouds 2 1015 93 10000 2.6 50 11:18 04.01.2021
4126 Clouds 2 1015 93 10000 2.6 50 10:42 04.01.2021
4127 Clouds 2 1015 93 10000 2.6 50 10:21 04.01.2021
4128 Rain 2 1015 93 10000 3.88 13 09:25 04.01.2021
4129 Rain 2 1015 93 10000 3.6 40 08:50 04.01.2021
4130 Rain 2 1014 93 10000 4.1 40 08:22 04.01.2021
4131 Rain 2 1014 93 10000 4.1 40 07:46 04.01.2021
4132 Clouds 2 1014 93 10000 6.7 40 05:36 04.01.2021
4133 Rain 2 1014 93 10000 6.7 20 04:56 04.01.2021
4134 Mist 2 1015 93 8047 5.1 30 01:31 04.01.2021
4135 Rain 3 1014 93 10000 8.7 30 23:57 03.01.2021
4136 Clouds 3 1014 93 10000 8.7 30 23:37 03.01.2021
4137 Mist 3 1014 93 6437 7.7 30 22:57 03.01.2021
4138 Mist 3 1014 93 6437 7.7 30 22:39 03.01.2021
4139 Mist 3 1014 93 6437 7.7 30 22:21 03.01.2021
4140 Mist 3 1014 86 4828 8.7 30 21:40 03.01.2021
4141 Mist 3 1014 86 4828 8.7 30 21:22 03.01.2021
4142 Clouds 3 1015 86 10000 8.7 40 20:40 03.01.2021
4143 Clouds 3 1015 86 10000 7.7 40 20:18 03.01.2021
4144 Clouds 3 1015 86 10000 7.7 40 19:44 03.01.2021
4145 Clouds 3 1015 86 10000 7.7 40 19:24 03.01.2021
4146 Clouds 2 1016 86 10000 7.2 30 18:45 03.01.2021
4147 Clouds 2 1019 86 10000 5.7 30 18:23 03.01.2021
4148 Clouds 2 1019 86 10000 5.7 30 17:53 03.01.2021
4149 Clouds 2 1019 86 10000 5.7 30 17:27 03.01.2021
4150 Rain 2 1020 86 10000 7.2 40 16:55 03.01.2021
4151 Rain 2 1020 86 10000 7.2 40 16:36 03.01.2021
4152 Rain 2 1021 77 10000 4.6 40 16:18 03.01.2021
4153 Rain 2 1021 79 10000 4.6 40 15:40 03.01.2021
4154 Rain 2 1021 79 10000 4.1 30 14:59 03.01.2021
4155 Clouds 2 1021 78 10000 4.1 30 14:33 03.01.2021
4156 Clouds 2 1021 74 10000 4.6 40 13:52 03.01.2021
4157 Clouds 2 1021 74 10000 4.6 40 13:25 03.01.2021
4158 Clouds 2 1020 74 10000 5.1 50 12:57 03.01.2021
4159 Clear 1 1018 69 10000 8.7 40 11:44 03.01.2021
4160 Clear 1 1018 69 10000 8.7 40 11:26 03.01.2021
4161 Clear 1 1020 69 10000 4.6 60 10:57 03.01.2021
4162 Clear 1 1020 69 10000 3.6 30 10:31 03.01.2021
4163 Clear 2 1020 74 10000 5.7 50 09:45 03.01.2021
4164 Clear 2 1020 74 10000 5.7 50 09:24 03.01.2021
4165 Clear 2 1020 69 10000 2.6 0 07:59 03.01.2021
4166 Clear 2 1020 69 10000 2.6 0 06:51 03.01.2021
4167 Clear 4 1019 60 10000 2.1 0 03:20 03.01.2021
4168 Clear 4 1019 60 10000 2.1 0 02:23 03.01.2021
4169 Clear 5 1017 56 10000 4.6 300 00:25 03.01.2021
4170 Clear 6 1016 52 10000 2.6 0 23:46 02.01.2021
4171 Clear 7 1016 52 10000 2.6 0 23:19 02.01.2021
4172 Clear 7 1015 52 10000 3.6 280 22:47 02.01.2021
4173 Clear 8 1015 52 10000 3.6 280 22:28 02.01.2021
4174 Clouds 9 1013 57 10000 4.6 290 21:47 02.01.2021
4175 Clouds 9 1011 57 10000 3.6 290 21:28 02.01.2021
4176 Clouds 10 1011 57 10000 2.1 0 20:45 02.01.2021
4177 Clouds 10 1011 57 10000 2.1 0 20:25 02.01.2021
4178 Clouds 10 1009 57 10000 5.1 290 19:46 02.01.2021
4179 Clouds 10 1009 57 10000 5.1 290 19:20 02.01.2021
4180 Clouds 11 1009 62 10000 3.6 300 18:47 02.01.2021
4181 Clouds 11 1009 62 10000 3.6 300 18:29 02.01.2021
4182 Clouds 10 1009 76 10000 8.2 270 17:46 02.01.2021
4183 Clouds 10 1009 76 10000 8.2 270 17:26 02.01.2021
4184 Clouds 9 1009 81 10000 7.2 270 16:43 02.01.2021
4185 Clear 8 1009 93 10000 5.7 260 16:21 02.01.2021
4186 Clouds 6 1009 100 10000 4.1 260 15:44 02.01.2021
4187 Clouds 6 1009 100 10000 4.1 260 15:25 02.01.2021
4188 Clouds 4 1009 93 10000 4.1 250 14:39 02.01.2021
4189 Clouds 4 1009 93 10000 4.1 250 14:21 02.01.2021
4190 Clouds 3 1008 100 10000 3.1 250 13:40 02.01.2021
4191 Clouds 3 1008 100 10000 3.1 250 13:40 02.01.2021
4192 Clouds 3 1008 93 10000 3.1 0 12:54 02.01.2021
4193 Clouds 3 1008 93 10000 3.1 0 12:32 02.01.2021
4194 Mist 4 1007 100 8047 1.5 0 11:59 02.01.2021
4195 Mist 4 1007 100 8047 1.5 0 11:26 02.01.2021
4196 Clouds 4 1009 93 10000 4.1 40 10:58 02.01.2021
4197 Clouds 4 1009 93 10000 4.1 40 10:35 02.01.2021
4198 Clouds 3 1011 93 10000 3.6 80 09:59 02.01.2021
4199 Clouds 3 1011 93 10000 3.6 80 09:39 02.01.2021
4200 Mist 3 1012 93 6437 4.6 30 09:19 02.01.2021
4201 Mist 3 1012 93 6437 4.6 30 08:41 02.01.2021
4202 Mist 2 1014 93 3219 2.6 50 08:19 02.01.2021
4203 Mist 3 1017 93 9656 3.1 0 07:24 02.01.2021
4204 Clouds 3 1017 93 10000 4.6 20 06:57 02.01.2021
4205 Rain 3 1019 93 10000 4.1 20 05:55 02.01.2021
4206 Rain 3 1025 80 10000 7.2 40 01:59 02.01.2021
4207 Rain 3 1026 80 10000 4.6 30 00:39 02.01.2021
4208 Rain 3 1028 78 10000 3.1 20 23:59 01.01.2021
4209 Rain 3 1028 78 10000 3.1 20 23:37 01.01.2021
4210 Rain 3 1028 71 10000 3.1 20 23:19 01.01.2021
4211 Rain 4 1029 69 10000 2.6 50 22:44 01.01.2021
4212 Clouds 4 1029 69 10000 2.6 50 22:21 01.01.2021
4213 Rain 4 1029 64 10000 3.6 60 21:42 01.01.2021
4214 Clear 4 1030 64 10000 2.1 30 21:20 01.01.2021
4215 Clear 4 1030 64 10000 2.1 30 20:50 01.01.2021
4216 Clear 4 1031 64 10000 1.5 0 20:19 01.01.2021
4217 Clear 4 1031 64 10000 1.5 0 19:42 01.01.2021
4218 Clear 4 1031 64 10000 1.5 0 19:22 01.01.2021
4219 Clear 3 1031 64 10000 1.5 0 18:48 01.01.2021
4220 Clear 3 1031 64 10000 1.5 0 18:29 01.01.2021
4221 Clear 3 1034 60 10000 3.1 40 17:50 01.01.2021
4222 Clear 3 1034 60 10000 3.1 40 17:24 01.01.2021
4223 Clear 3 1034 60 10000 4.1 40 16:53 01.01.2021
4224 Clear 2 1034 60 10000 4.1 40 16:29 01.01.2021
4225 Clear 2 1034 59 10000 3.6 40 15:43 01.01.2021
4226 Clear 1 1034 69 10000 3.6 80 14:51 01.01.2021
4227 Clear 1 1034 69 10000 3.6 80 14:32 01.01.2021
4228 Clear 1 1034 64 10000 4.6 40 13:45 01.01.2021
4229 Clear 1 1034 64 10000 4.6 40 13:24 01.01.2021
4230 Clear 1 1033 59 10000 5.1 50 12:39 01.01.2021
4231 Clear 1 1033 59 10000 5.1 50 12:18 01.01.2021
4232 Clear 1 1032 59 10000 5.7 50 11:39 01.01.2021
4233 Clear 1 1032 59 10000 4.6 40 11:18 01.01.2021
4234 Clear 1 1032 59 10000 4.6 40 10:35 01.01.2021
4235 Clear 2 1032 59 10000 4.1 50 09:47 01.01.2021
4236 Clear 1 1031 59 10000 2.71 27 09:21 01.01.2021
4237 Clear 1 1031 59 10000 2.48 11 08:29 01.01.2021
4238 Clear 2 1029 64 10000 2.6 270 04:53 01.01.2021
4239 Clear 3 1028 60 10000 3.83 347 02:56 01.01.2021
4240 Clear 4 1027 60 10000 2.1 0 01:37 01.01.2021
4241 Clouds 5 1025 56 10000 2.6 0 00:28 01.01.2021
4242 Clouds 5 1025 56 10000 1.5 0 23:37 31.12.2020
4243 Clouds 5 1024 69 10000 3.1 0 23:19 31.12.2020
4244 Clouds 5 1024 69 10000 3.1 0 22:41 31.12.2020
4245 Clouds 5 1024 66 10000 3.1 0 22:21 31.12.2020
4246 Clouds 6 1022 60 10000 2.1 0 21:47 31.12.2020
4247 Clouds 6 1022 65 10000 3.1 0 21:29 31.12.2020
4248 Clouds 6 1021 70 10000 2.6 0 20:54 31.12.2020
4249 Clouds 7 1020 75 10000 2.1 0 20:24 31.12.2020
4250 Clouds 7 1020 75 10000 2.1 0 19:49 31.12.2020
4251 Clouds 7 1020 75 10000 2.1 0 19:31 31.12.2020
4252 Clouds 7 1020 87 10000 3.1 250 18:50 31.12.2020
4253 Clouds 7 1020 87 10000 3.1 250 18:25 31.12.2020
4254 Clouds 7 1020 93 10000 1.5 0 17:46 31.12.2020
4255 Rain 7 1020 93 10000 1.5 0 17:25 31.12.2020
4256 Rain 7 1020 93 10000 3.1 240 16:55 31.12.2020
4257 Rain 7 1020 93 10000 3.1 240 16:37 31.12.2020
4258 Rain 7 1019 93 10000 2.6 0 16:18 31.12.2020
4259 Rain 7 1019 93 10000 2.6 0 15:42 31.12.2020
4260 Rain 7 1018 93 10000 1.5 0 15:18 31.12.2020
4261 Rain 7 1018 93 10000 1.5 0 14:40 31.12.2020
4262 Rain 7 1018 93 10000 1.5 0 14:22 31.12.2020
4263 Rain 8 1017 93 10000 2.1 0 13:57 31.12.2020
4264 Rain 8 1017 93 10000 2.1 0 13:36 31.12.2020
4265 Rain 8 1017 93 10000 2.1 0 13:18 31.12.2020
4266 Rain 8 1016 87 10000 7.2 270 12:45 31.12.2020
4267 Rain 9 1016 87 10000 7.2 270 12:26 31.12.2020
4268 Rain 8 1015 81 10000 5.7 270 11:46 31.12.2020
4269 Rain 8 1015 81 10000 5.7 270 11:28 31.12.2020
4270 Rain 8 1015 81 10000 5.7 270 11:28 31.12.2020
4271 Rain 8 1015 81 10000 5.7 270 11:28 31.12.2020
4272 Rain 8 1015 70 10000 3.6 270 10:41 31.12.2020
4273 Clouds 7 1015 70 10000 3.6 270 10:22 31.12.2020
4274 Clouds 7 1016 70 10000 2.1 260 09:47 31.12.2020
4275 Clouds 7 1016 70 10000 2.1 260 09:23 31.12.2020
4276 Clouds 6 1017 65 10000 2.6 280 08:46 31.12.2020
4277 Clouds 6 1017 65 10000 2.6 280 08:28 31.12.2020
4278 Clouds 6 1017 78 10000 2.6 280 07:54 31.12.2020
4279 Clouds 6 1018 60 10000 3.6 250 06:57 31.12.2020
4280 Clouds 5 1019 65 10000 3.6 260 05:30 31.12.2020
4281 Clear 4 1021 65 10000 4.6 240 03:33 31.12.2020
4282 Clouds 4 1021 60 10000 4.6 240 02:36 31.12.2020
4283 Clear 4 1023 56 10000 4.6 250 01:55 31.12.2020
4284 Clear 4 1023 56 10000 4.6 250 01:34 31.12.2020
4285 Clear 5 1023 56 10000 3.6 260 00:56 31.12.2020
4286 Clear 4 1023 56 10000 3.6 260 00:26 31.12.2020
4287 Clear 4 1024 60 10000 3.1 250 23:36 30.12.2020
4288 Clear 4 1025 51 10000 3.1 220 23:18 30.12.2020
4289 Clear 4 1025 51 10000 3.1 220 22:35 30.12.2020
4290 Clear 4 1026 48 10000 6.2 250 21:54 30.12.2020
4291 Clear 4 1026 48 10000 6.2 250 21:54 30.12.2020
4292 Clear 4 1026 48 10000 6.2 250 21:27 30.12.2020
4293 Clear 4 1027 41 10000 6.7 220 20:53 30.12.2020
4294 Clear 4 1027 41 10000 6.7 220 20:29 30.12.2020
4295 Clear 4 1028 44 10000 4.6 210 20:00 30.12.2020
4296 Clear 3 1028 44 10000 4.6 210 19:37 30.12.2020
4297 Clear 3 1028 44 10000 4.6 210 19:18 30.12.2020
4298 Clear 2 1030 44 10000 5.1 220 18:40 30.12.2020
4299 Clear 2 1030 44 10000 5.1 220 18:22 30.12.2020
4300 Clear 2 1032 51 10000 5.1 240 17:48 30.12.2020
4301 Clear 2 1032 51 10000 5.1 240 17:29 30.12.2020
4302 Clear 1 1033 64 10000 4.6 230 16:48 30.12.2020
4303 Rain 1 1033 64 10000 4.6 230 16:20 30.12.2020
4304 Rain 0 1033 64 10000 3.1 230 15:42 30.12.2020
4305 Clouds -1 1033 76 10000 1.5 190 15:24 30.12.2020
4306 Clouds -1 1033 76 10000 1.5 190 14:43 30.12.2020
4307 Clouds -1 1034 80 10000 2.1 270 14:22 30.12.2020
4308 Clouds -2 1034 80 10000 2.1 270 13:20 30.12.2020
4309 Clear -2 1033 63 10000 1.5 270 12:27 30.12.2020
4310 Clear -2 1034 54 10000 0.88 301 11:49 30.12.2020
4311 Clear -2 1034 54 10000 2.1 0 11:23 30.12.2020
4312 Clear -2 1034 58 10000 0.98 335 10:59 30.12.2020
4313 Clear -2 1034 58 10000 0.98 335 10:39 30.12.2020
4314 Clear -2 1035 58 10000 2.6 250 10:20 30.12.2020
4315 Clear -2 1035 58 10000 2.6 250 09:47 30.12.2020
4316 Clear -2 1035 63 10000 2.1 0 09:18 30.12.2020
4317 Clear -2 1035 63 10000 2.1 0 08:24 30.12.2020
4318 Clear -2 1035 58 10000 2.6 240 07:29 30.12.2020
4319 Clear -1 1035 82 10000 1.5 270 06:44 30.12.2020
4320 Clear -1 1035 82 10000 2.6 260 05:52 30.12.2020
4321 Clear -1 1035 82 10000 2.6 260 05:31 30.12.2020
4322 Clear 0 1035 47 10000 3.1 0 04:29 30.12.2020
4323 Clear 0 1034 50 10000 2.6 280 03:28 30.12.2020
4324 Clear 0 1034 43 10000 2.6 0 02:38 30.12.2020
4325 Clear 1 1034 43 10000 1.5 0 01:51 30.12.2020
4326 Clear 1 1034 43 10000 1.5 0 01:32 30.12.2020
4327 Clear 1 1033 34 10000 2.1 0 00:47 30.12.2020
4328 Clear 1 1033 34 10000 2.1 0 00:29 30.12.2020
4329 Clear 2 1031 31 10000 6.7 300 23:54 29.12.2020
4330 Clear 2 1031 34 10000 1.5 0 23:35 29.12.2020
4331 Clear 2 1031 31 10000 5.7 300 22:58 29.12.2020
4332 Clear 2 1031 31 10000 5.7 300 22:40 29.12.2020
4333 Clouds 3 1030 29 10000 5.1 290 22:20 29.12.2020
4334 Clouds 3 1030 29 10000 5.1 290 21:46 29.12.2020
4335 Clouds 3 1030 32 10000 5.7 290 21:24 29.12.2020
4336 Clouds 3 1030 32 10000 5.7 290 20:46 29.12.2020
4337 Clouds 3 1030 32 10000 6.7 290 20:25 29.12.2020
4338 Clouds 3 1030 32 10000 6.7 290 19:47 29.12.2020
4339 Clouds 3 1030 32 10000 6.7 290 19:23 29.12.2020
4340 Clouds 3 1029 32 10000 4.6 290 18:54 29.12.2020
4341 Clouds 3 1029 32 10000 4.6 290 18:32 29.12.2020
4342 Clouds 3 1029 38 10000 1.5 0 17:56 29.12.2020
4343 Clouds 3 1029 38 10000 1.5 0 17:37 29.12.2020
4344 Clouds 3 1029 41 10000 1.5 0 17:18 29.12.2020
4345 Clouds 3 1029 41 10000 1.5 0 16:35 29.12.2020
4346 Clear 3 1028 48 10000 1.5 0 15:53 29.12.2020
4347 Clear 3 1028 48 10000 1.5 0 15:34 29.12.2020
4348 Clear 3 1028 48 10000 1.5 0 15:34 29.12.2020
4349 Clouds 3 1027 55 10000 6.7 303 14:56 29.12.2020
4350 Clouds 3 1027 55 10000 6.7 303 14:36 29.12.2020
4351 Clouds 3 1026 55 10000 1.5 0 14:18 29.12.2020
4352 Clouds 3 1026 55 10000 1.5 0 13:39 29.12.2020
4353 Clouds 3 1025 55 10000 2.1 0 13:18 29.12.2020
4354 Clouds 3 1025 55 10000 2.1 0 12:37 29.12.2020
4355 Clear 3 1024 55 10000 1.5 0 12:19 29.12.2020
4356 Clear 3 1024 55 10000 1.5 0 11:51 29.12.2020
4357 Clear 3 1024 55 10000 1.5 0 11:31 29.12.2020
4358 Clear 3 1024 55 10000 5.51 307 10:22 29.12.2020
4359 Clear 3 1023 60 10000 2.6 250 09:47 29.12.2020
4360 Clouds 3 1022 56 10000 3.1 250 09:19 29.12.2020
4361 Clouds 4 1022 56 10000 3.1 250 08:52 29.12.2020
4362 Clear 4 1022 52 10000 2.6 250 08:19 29.12.2020
4363 Clear 5 1022 52 10000 2.6 250 07:26 29.12.2020
4364 Clouds 5 1022 56 10000 3.6 250 06:26 29.12.2020
4365 Clouds 7 1020 61 10000 4.1 260 03:45 29.12.2020
4366 Clear 8 1020 57 10000 2.6 270 00:47 29.12.2020
4367 Clear 8 1020 57 10000 2.6 270 00:20 29.12.2020
4368 Clear 8 1019 57 10000 2.1 260 23:34 28.12.2020
4369 Clear 10 1019 63 10000 2.6 240 22:28 28.12.2020
4370 Clear 11 1019 46 10000 3.68 246 21:45 28.12.2020
4371 Clear 10 1019 46 10000 4.53 241 21:26 28.12.2020
4372 Clouds 9 1019 49 10000 2.1 0 20:43 28.12.2020
4373 Clouds 9 1019 49 10000 2.1 0 20:22 28.12.2020
4374 Clouds 9 1020 61 10000 3.6 260 19:49 28.12.2020
4375 Clouds 9 1020 65 10000 2.6 230 19:24 28.12.2020
4376 Clouds 8 1020 65 10000 2.6 230 18:53 28.12.2020
4377 Clouds 8 1020 65 10000 2.6 230 18:28 28.12.2020
4378 Clouds 7 1022 70 10000 4.1 230 17:47 28.12.2020
4379 Clouds 7 1022 70 10000 4.1 230 17:29 28.12.2020
4380 Clouds 7 1023 75 10000 4.1 240 16:59 28.12.2020
4381 Rain 6 1023 75 10000 4.1 240 16:29 28.12.2020
4382 Clear 6 1023 75 10000 3.1 240 15:54 28.12.2020
4383 Clear 6 1023 75 10000 3.1 240 15:33 28.12.2020
4384 Clear 6 1023 81 10000 2.6 260 14:29 28.12.2020
4385 Clear 5 1023 81 10000 2.1 0 13:47 28.12.2020
4386 Clear 5 1023 81 10000 2.1 0 13:20 28.12.2020
4387 Clouds 4 1023 70 10000 5.53 186 12:27 28.12.2020
4388 Clouds 4 1024 75 10000 1.5 0 11:55 28.12.2020
4389 Clouds 3 1025 75 10000 2.1 0 11:36 28.12.2020
4390 Clouds 3 1024 69 10000 4.67 185 11:18 28.12.2020
4391 Clouds 2 1025 74 10000 1.5 0 10:29 28.12.2020
4392 Clear 2 1026 69 10000 2.1 250 09:57 28.12.2020
4393 Clear 1 1026 69 10000 2.1 250 09:37 28.12.2020
4394 Clouds 1 1026 69 10000 3.71 190 09:18 28.12.2020
4395 Clear 1 1027 64 10000 3.1 240 06:53 28.12.2020
4396 Clear 1 1028 64 10000 3.6 240 05:23 28.12.2020
4397 Clear 1 1028 55 10000 3.03 196 03:34 28.12.2020
4398 Clear 1 1028 59 10000 1.5 0 01:55 28.12.2020
4399 Clear 2 1027 51 10000 3.6 220 23:55 27.12.2020
4400 Clear 2 1027 51 10000 3.6 220 23:29 27.12.2020
4401 Clear 2 1027 43 10000 2.1 240 22:40 27.12.2020
4402 Clear 3 1026 40 10000 2.14 210 21:55 27.12.2020
4403 Clear 3 1026 40 10000 2.31 223 21:22 27.12.2020
4404 Clear 3 1026 43 10000 2.6 290 20:37 27.12.2020
4405 Clear 3 1026 41 10000 3.1 180 19:24 27.12.2020
4406 Clear 3 1027 47 10000 2.1 240 18:52 27.12.2020
4407 Clear 2 1027 47 10000 2.1 240 18:24 27.12.2020
4408 Clear 1 1027 55 10000 3.1 240 17:59 27.12.2020
4409 Clear 2 1027 55 10000 3.1 240 17:39 27.12.2020
4410 Clear 1 1027 55 10000 3.1 240 17:18 27.12.2020
4411 Clear -1 1027 63 10000 2.1 220 16:26 27.12.2020
4412 Clear -2 1026 68 10000 3.1 270 15:37 27.12.2020
4413 Clear -3 1025 73 10000 2.6 250 14:58 27.12.2020
4414 Clear -3 1025 73 10000 2.6 250 14:38 27.12.2020
4415 Clear -4 1025 73 10000 3.1 260 13:43 27.12.2020
4416 Clear -4 1024 73 10000 3.1 270 13:19 27.12.2020
4417 Clear -4 1024 73 10000 3.1 270 12:41 27.12.2020
4418 Clear -4 1023 68 10000 4.1 270 11:49 27.12.2020
4419 Clear -4 1023 68 10000 4.1 270 11:29 27.12.2020
4420 Clear -4 1022 68 10000 3.6 260 10:51 27.12.2020
4421 Clear -4 1022 68 10000 3.6 260 10:24 27.12.2020
4422 Clear -4 1021 68 10000 4.1 260 09:42 27.12.2020
4423 Clear -4 1021 68 10000 3.6 260 08:39 27.12.2020
4424 Clear -4 1019 68 10000 4.6 260 08:18 27.12.2020
4425 Clear -4 1019 68 10000 4.6 260 07:26 27.12.2020
4426 Clear -4 1018 68 10000 5.1 260 05:44 27.12.2020
4427 Clouds -3 1017 63 10000 6.2 260 03:33 27.12.2020
4428 Clouds -2 1016 63 10000 5.7 260 02:45 27.12.2020
4429 Clouds -2 1016 50 10000 3.6 280 01:33 27.12.2020
4430 Clouds -1 1014 85 10000 6.2 260 23:57 26.12.2020
4431 Clouds -1 1014 84 10000 6.2 260 23:27 26.12.2020
4432 Clear -1 1013 84 10000 2.6 0 22:49 26.12.2020
4433 Clear -1 1012 83 10000 3.6 290 22:21 26.12.2020
4434 Clear 0 1012 83 10000 3.6 290 21:59 26.12.2020
4435 Clear 0 1012 83 10000 3.6 290 21:40 26.12.2020
4436 Clear 0 1012 46 10000 3.6 270 21:22 26.12.2020
4437 Clear 0 1012 46 10000 3.6 270 20:41 26.12.2020
4438 Clear 0 1013 46 10000 2.6 0 20:19 26.12.2020
4439 Clouds 0 1012 82 10000 7.2 280 19:27 26.12.2020
4440 Clear -1 1013 81 10000 7.7 260 18:52 26.12.2020
4441 Clear -1 1013 82 10000 7.7 260 18:28 26.12.2020
4442 Clear -1 1014 54 10000 7.7 260 17:41 26.12.2020
4443 Clear -2 1014 54 10000 7.7 260 17:21 26.12.2020
4444 Clear -3 1014 58 10000 6.7 260 16:36 26.12.2020
4445 Clear -3 1014 63 10000 7.7 270 15:38 26.12.2020
4446 Clear -4 1014 63 10000 7.7 270 15:19 26.12.2020
4447 Clear -4 1013 53 10000 7.7 230 14:29 26.12.2020
4448 Clear -4 1013 63 10000 8.2 270 13:54 26.12.2020
4449 Clear -4 1013 63 10000 8.2 270 13:32 26.12.2020
4450 Clouds -4 1013 68 10000 8.7 270 12:53 26.12.2020
4451 Clouds -4 1013 68 10000 8.7 270 12:30 26.12.2020
4452 Clouds -4 1012 68 10000 7.7 270 11:59 26.12.2020
4453 Clouds -4 1012 68 10000 7.7 270 11:41 26.12.2020
4454 Clouds -4 1012 68 10000 7.7 270 11:19 26.12.2020
4455 Clouds -3 1012 68 10000 7.7 270 10:43 26.12.2020
4456 Clouds -3 1011 68 10000 8.7 250 10:23 26.12.2020
4457 Clouds -3 1011 68 10000 8.7 250 09:41 26.12.2020
4458 Clear -3 1011 63 10000 7.7 260 08:55 26.12.2020
4459 Clouds -3 1010 63 10000 7.7 270 08:19 26.12.2020
4460 Clouds -3 1010 63 10000 7.7 270 07:21 26.12.2020
4461 Clouds -1 1008 87 10000 8.2 260 05:37 26.12.2020
4462 Clouds 1 1006 69 10000 9.3 250 02:47 26.12.2020
4463 Clouds 2 1004 81 10000 8.7 240 00:39 26.12.2020
4464 Clouds 3 1003 75 10000 9.3 240 23:50 25.12.2020
4465 Clouds 4 1003 75 10000 9.3 240 23:29 25.12.2020
4466 Clouds 5 1001 75 10000 7.2 240 22:58 25.12.2020
4467 Clouds 6 1001 75 10000 7.2 240 22:26 25.12.2020
4468 Clouds 7 1000 81 10000 8.7 250 21:44 25.12.2020
4469 Clouds 7 1000 81 10000 8.7 250 21:25 25.12.2020
4470 Clouds 8 999 87 10000 9.3 260 20:47 25.12.2020
4471 Clouds 9 999 87 10000 9.3 260 20:27 25.12.2020
4472 Clouds 11 998 87 10000 4.6 230 19:43 25.12.2020
4473 Mist 12 998 93 4828 2.1 0 18:55 25.12.2020
4474 Mist 12 998 93 4828 2.1 0 18:35 25.12.2020
4475 Rain 12 1000 93 10000 4.1 190 17:35 25.12.2020
4476 Clouds 12 1000 93 10000 4.6 180 16:56 25.12.2020
4477 Clouds 12 1000 93 10000 4.6 180 16:26 25.12.2020
4478 Clouds 12 1000 93 10000 5.7 170 15:55 25.12.2020
4479 Rain 12 1000 93 10000 4.1 170 15:34 25.12.2020
4480 Mist 12 1000 93 9656 3.1 180 14:45 25.12.2020
4481 Rain 12 1000 93 9656 3.1 180 14:21 25.12.2020
4482 Rain 12 1000 93 9656 7.4 169 13:43 25.12.2020
4483 Rain 13 1000 93 9656 7.25 163 13:25 25.12.2020
4484 Mist 13 1001 93 9656 5.1 180 12:34 25.12.2020
4485 Rain 14 1000 93 9656 4.1 230 11:52 25.12.2020
4486 Mist 14 1000 93 9656 4.1 230 11:29 25.12.2020
4487 Rain 15 1000 93 8047 6.7 190 10:49 25.12.2020
4488 Rain 15 1001 93 8047 8.7 180 10:23 25.12.2020
4489 Mist 16 1000 93 9656 8.7 160 09:32 25.12.2020
4490 Rain 16 1002 93 4828 6.2 160 08:47 25.12.2020
4491 Rain 15 1002 87 9656 7.7 140 07:58 25.12.2020
4492 Rain 15 1004 93 6437 6.2 150 06:46 25.12.2020
4493 Clouds 14 1011 87 10000 4.6 120 02:51 25.12.2020
4494 Clouds 14 1013 87 10000 6.7 170 01:41 25.12.2020
4495 Clouds 14 1014 87 10000 5.1 130 00:18 25.12.2020
4496 Clouds 13 1014 87 10000 2.6 0 23:23 24.12.2020
4497 Rain 13 1015 87 10000 4.6 160 22:50 24.12.2020
4498 Clouds 14 1015 87 10000 4.6 160 22:21 24.12.2020
4499 Clouds 14 1016 76 10000 4.6 170 21:34 24.12.2020
4500 Clouds 14 1017 76 10000 2.6 0 20:36 24.12.2020
4501 Clouds 13 1019 71 10000 5.1 170 18:52 24.12.2020
4502 Clear 13 1021 71 10000 4.6 190 18:19 24.12.2020
4503 Clear 13 1021 71 10000 4.6 190 17:37 24.12.2020
4504 Clouds 13 1022 71 10000 4.1 170 16:49 24.12.2020
4505 Clouds 13 1022 71 10000 4.1 170 16:22 24.12.2020
4506 Clouds 12 1022 76 10000 2.1 0 15:42 24.12.2020
4507 Clouds 12 1022 76 10000 2.6 0 15:19 24.12.2020
4508 Clouds 12 1022 76 10000 2.6 0 14:50 24.12.2020
4509 Clouds 11 1022 76 10000 2.6 0 14:24 24.12.2020
4510 Clouds 11 1022 81 10000 3.1 0 13:48 24.12.2020
4511 Clouds 10 1022 81 10000 3.1 0 13:29 24.12.2020
4512 Clouds 8 1023 81 10000 2.6 200 12:44 24.12.2020
4513 Clouds 8 1023 81 10000 2.6 200 12:21 24.12.2020
4514 Clouds 8 1023 81 10000 2.6 200 12:21 24.12.2020
4515 Clouds 7 1024 87 10000 2.1 0 11:47 24.12.2020
4516 Clouds 7 1024 87 10000 2.1 0 11:21 24.12.2020
4517 Clouds 7 1024 81 10000 1.5 0 10:56 24.12.2020
4518 Clouds 6 1024 81 10000 1.5 0 10:38 24.12.2020
4519 Clouds 6 1025 81 10000 3.1 0 09:52 24.12.2020
4520 Clouds 6 1025 81 10000 3.1 0 09:30 24.12.2020
4521 Clouds 5 1026 75 10000 1.5 0 08:43 24.12.2020
4522 Clear 5 1026 75 10000 4.29 188 07:43 24.12.2020
4523 Clear 5 1026 75 10000 4.6 192 07:20 24.12.2020
4524 Clear 5 1027 70 10000 4.55 192 05:56 24.12.2020
4525 Clear 4 1029 65 10000 3.1 210 02:33 24.12.2020
4526 Clear 4 1029 65 10000 3.1 240 01:45 24.12.2020
4527 Clear 5 1028 60 10000 2.6 200 01:18 24.12.2020
4528 Clear 5 1028 60 10000 3.1 130 00:22 24.12.2020
4529 Clear 5 1028 60 10000 3.1 130 23:49 23.12.2020
4530 Clear 5 1028 60 10000 3.1 130 23:31 23.12.2020
4531 Clear 5 1028 56 10000 3.6 180 22:59 23.12.2020
4532 Clear 5 1028 56 10000 3.6 180 22:40 23.12.2020
4533 Clear 5 1028 56 10000 3.6 180 22:18 23.12.2020
4534 Clear 6 1028 45 10000 3.1 140 21:31 23.12.2020
4535 Clear 7 1028 45 10000 2.6 220 20:59 23.12.2020
4536 Clear 7 1028 45 10000 2.6 220 20:37 23.12.2020
4537 Clear 6 1028 41 10000 1.13 162 20:19 23.12.2020
4538 Clear 6 1028 41 10000 1.13 162 19:42 23.12.2020
4539 Clear 6 1029 41 10000 1.36 215 19:22 23.12.2020
4540 Clear 6 1029 42 10000 1.33 206 18:54 23.12.2020
4541 Clear 6 1029 42 10000 1.33 206 18:35 23.12.2020
4542 Clear 5 1030 48 10000 2.1 230 17:44 23.12.2020
4543 Clear 5 1031 44 10000 2.1 230 17:22 23.12.2020
4544 Clear 5 1031 44 10000 2.1 230 16:56 23.12.2020
4545 Clear 5 1031 44 10000 2.1 230 16:36 23.12.2020
4546 Clear 3 1030 55 10000 3.1 240 16:18 23.12.2020
4547 Clear 3 1030 55 10000 3.1 240 15:40 23.12.2020
4548 Clear 3 1029 55 10000 2.6 240 15:22 23.12.2020
4549 Clear 3 1029 55 10000 2.6 240 14:51 23.12.2020
4550 Clear 2 1029 55 10000 2.6 240 14:25 23.12.2020
4551 Clear 2 1028 51 10000 3.1 260 13:47 23.12.2020
4552 Clear 2 1028 51 10000 3.1 260 13:21 23.12.2020
4553 Clear 2 1028 55 10000 1.99 300 12:59 23.12.2020
4554 Clear 2 1028 55 10000 2.16 305 12:38 23.12.2020
4555 Clear 2 1026 55 10000 2.74 304 12:18 23.12.2020
4556 Clear 2 1026 55 10000 2.74 304 11:45 23.12.2020
4557 Clear 3 1026 51 10000 3.6 250 10:57 23.12.2020
4558 Clear 3 1026 51 10000 3.6 250 10:39 23.12.2020
4559 Clear 3 1025 51 10000 2.6 0 10:21 23.12.2020
4560 Clear 3 1025 51 10000 2.6 0 09:27 23.12.2020
4561 Clear 4 1025 48 10000 2.6 260 08:42 23.12.2020
4562 Clear 4 1024 44 10000 4.6 260 08:18 23.12.2020
4563 Clear 5 1024 44 10000 4.6 260 07:21 23.12.2020
4564 Clouds 5 1023 48 10000 6.98 294 06:39 23.12.2020
4565 Clouds 6 1022 52 10000 1.5 270 05:26 23.12.2020
4566 Clouds 6 1021 52 10000 3.1 250 04:53 23.12.2020
4567 Clouds 6 1017 52 10000 1.5 0 00:34 23.12.2020
4568 Clouds 7 1016 48 10000 1.5 0 23:48 22.12.2020
4569 Clouds 7 1016 48 10000 1.5 0 23:28 22.12.2020
4570 Clouds 7 1014 52 10000 2.1 0 22:44 22.12.2020
4571 Clouds 7 1014 52 10000 2.1 0 22:25 22.12.2020
4572 Clouds 7 1013 52 10000 1.5 0 21:58 22.12.2020
4573 Clouds 7 1013 52 10000 1.5 0 21:38 22.12.2020
4574 Clouds 7 1011 52 10000 1.5 0 21:19 22.12.2020
4575 Clouds 7 1011 52 10000 1.5 0 20:48 22.12.2020
4576 Clouds 7 1011 52 10000 1.5 0 20:21 22.12.2020
4577 Clouds 7 1011 52 10000 1.5 0 20:21 22.12.2020
4578 Clouds 8 1010 89 10000 1.5 0 19:44 22.12.2020
4579 Clouds 8 1010 94 10000 1.5 0 19:21 22.12.2020
4580 Clouds 8 1009 61 10000 2.1 0 18:54 22.12.2020
4581 Clear 7 1009 70 10000 2.6 0 18:30 22.12.2020
4582 Clear 6 1009 70 10000 2.6 0 17:59 22.12.2020
4583 Clear 6 1009 70 10000 2.6 0 17:26 22.12.2020
4584 Clouds 5 1009 75 10000 3.6 250 16:56 22.12.2020
4585 Clouds 5 1009 75 10000 3.6 250 16:37 22.12.2020
4586 Mist 5 1008 86 8047 3.1 230 16:19 22.12.2020
4587 Mist 4 1008 86 8047 3.1 230 15:43 22.12.2020
4588 Mist 4 1007 93 8047 3.6 260 15:23 22.12.2020
4589 Mist 3 1007 93 8047 3.6 260 14:45 22.12.2020
4590 Mist 3 1007 93 8047 3.6 260 14:27 22.12.2020
4591 Mist 3 1006 93 9656 2.6 250 13:50 22.12.2020
4592 Mist 3 1006 86 9656 3.6 260 13:20 22.12.2020
4593 Mist 3 1006 86 9656 3.6 260 12:59 22.12.2020
4594 Mist 3 1006 86 9656 2.6 270 12:40 22.12.2020
4595 Mist 3 1006 86 9656 2.6 270 12:19 22.12.2020
4596 Mist 3 1005 86 8047 2.6 270 11:43 22.12.2020
4597 Mist 3 1005 86 8047 2.6 270 11:23 22.12.2020
4598 Mist 3 1005 86 9656 3.1 260 10:56 22.12.2020
4599 Mist 3 1005 86 9656 3.1 260 10:28 22.12.2020
4600 Mist 3 1005 86 9656 3.1 230 09:59 22.12.2020
4601 Mist 3 1005 86 9656 3.1 230 09:31 22.12.2020
4602 Clouds 3 1006 86 10000 2.6 230 08:59 22.12.2020
4603 Clouds 3 1006 86 10000 2.6 230 08:40 22.12.2020
4604 Clouds 3 1006 86 10000 3.1 250 08:20 22.12.2020
4605 Clouds 3 1006 86 10000 4.1 240 07:46 22.12.2020
4606 Clouds 3 1006 86 10000 2.6 260 06:37 22.12.2020
4607 Clouds 3 1007 80 10000 3.1 270 05:39 22.12.2020
4608 Clouds 4 1007 75 10000 3.1 260 02:36 22.12.2020
4609 Clear 5 1007 70 10000 4.1 270 00:44 22.12.2020
4610 Clear 5 1007 75 10000 3.1 260 23:52 21.12.2020
4611 Clear 6 1008 70 10000 3.1 250 23:24 21.12.2020
4612 Clear 7 1008 70 10000 3.1 250 22:37 21.12.2020
4613 Clear 7 1008 70 10000 3.1 250 22:19 21.12.2020
4614 Clear 8 1008 66 10000 2.6 210 21:49 21.12.2020
4615 Clear 8 1008 66 10000 2.6 210 21:30 21.12.2020
4616 Clear 8 1008 66 10000 2.1 0 20:50 21.12.2020
4617 Clear 8 1008 66 10000 2.1 0 20:25 21.12.2020
4618 Clear 7 1009 70 10000 1.5 190 19:56 21.12.2020
4619 Clear 7 1009 70 10000 1.5 190 19:37 21.12.2020
4620 Clouds 6 1010 75 10000 3.1 250 19:18 21.12.2020
4621 Clouds 6 1010 75 10000 3.1 250 18:50 21.12.2020
4622 Clouds 6 1010 75 10000 3.1 250 18:32 21.12.2020
4623 Clouds 4 1011 80 10000 1.5 230 17:43 21.12.2020
4624 Clouds 4 1011 80 10000 1.5 230 17:24 21.12.2020
4625 Clouds 4 1012 86 10000 3.1 250 16:47 21.12.2020
4626 Clouds 4 1012 86 10000 3.1 250 16:26 21.12.2020
4627 Clouds 3 1012 86 10000 1.5 270 15:45 21.12.2020
4628 Clouds 3 1012 86 10000 1.45 313 15:27 21.12.2020
4629 Clouds 3 1012 86 10000 1.45 313 14:56 21.12.2020
4630 Clouds 3 1013 86 10000 2.6 0 14:21 21.12.2020
4631 Clouds 3 1013 86 10000 2.6 0 13:42 21.12.2020
4632 Clouds 3 1013 86 10000 1.86 345 13:24 21.12.2020
4633 Clouds 3 1013 86 10000 1.96 357 12:43 21.12.2020
4634 Clouds 3 1013 86 10000 2.07 337 12:24 21.12.2020
4635 Clouds 3 1013 80 10000 1.5 160 11:56 21.12.2020
4636 Clouds 3 1013 80 10000 1.5 160 11:37 21.12.2020
4637 Clouds 2 1013 80 10000 1.5 160 11:19 21.12.2020
4638 Clouds 3 1014 86 10000 2.1 270 10:41 21.12.2020
4639 Clouds 3 1014 86 10000 2.1 270 10:22 21.12.2020
4640 Clouds 3 1015 86 10000 1.5 270 09:43 21.12.2020
4641 Clouds 3 1015 86 10000 1.5 270 09:24 21.12.2020
4642 Clouds 3 1015 86 10000 1.5 260 08:50 21.12.2020
4643 Clouds 2 1015 86 10000 2.1 270 07:51 21.12.2020
4644 Clouds 3 1015 86 10000 2.6 260 06:22 21.12.2020
4645 Clouds 2 1017 86 10000 1.34 302 04:46 21.12.2020
4646 Clouds 3 1018 86 10000 1.5 220 01:25 21.12.2020
4647 Clouds 3 1018 86 10000 1.27 216 00:31 21.12.2020
4648 Clouds 3 1019 86 10000 1.27 216 23:34 20.12.2020
4649 Clouds 3 1019 86 10000 1.5 0 22:59 20.12.2020
4650 Clouds 3 1019 86 10000 1.5 0 22:41 20.12.2020
4651 Clouds 3 1019 86 10000 1.5 0 22:21 20.12.2020
4652 Clouds 3 1019 86 10000 2.01 212 21:40 20.12.2020
4653 Clouds 3 1019 86 10000 1.9 217 21:20 20.12.2020
4654 Mist 2 1020 86 9656 4.1 240 20:51 20.12.2020
4655 Mist 2 1020 86 9656 4.1 240 20:24 20.12.2020
4656 Mist 2 1020 93 6437 1.5 220 19:46 20.12.2020
4657 Mist 2 1020 93 6437 1.5 220 19:46 20.12.2020
4658 Mist 2 1020 93 6437 1.5 220 19:28 20.12.2020
4659 Rain 2 1020 93 10000 3.12 227 18:58 20.12.2020
4660 Rain 2 1020 93 10000 3.55 224 18:38 20.12.2020
4661 Rain 2 1021 80 10000 2.1 200 18:20 20.12.2020
4662 Rain 1 1021 80 10000 2.1 200 17:44 20.12.2020
4663 Rain 1 1021 80 10000 2.1 200 17:23 20.12.2020
4664 Clouds 1 1023 69 10000 1.49 188 16:45 20.12.2020
4665 Clouds 1 1023 69 10000 1.59 193 16:27 20.12.2020
4666 Clouds 1 1024 64 10000 1.5 270 15:48 20.12.2020
4667 Clouds 0 1024 64 10000 1.5 270 15:25 20.12.2020
4668 Clouds 0 1024 59 10000 2.6 230 14:54 20.12.2020
4669 Clouds 0 1024 59 10000 2.6 230 14:33 20.12.2020
4670 Clouds -1 1024 55 10000 1.5 0 13:47 20.12.2020
4671 Clouds -1 1024 55 10000 1.5 0 13:28 20.12.2020
4672 Clouds -1 1025 59 10000 3.1 250 12:58 20.12.2020
4673 Clouds -1 1025 59 10000 3.1 250 12:39 20.12.2020
4674 Clouds -1 1025 59 10000 3.1 250 12:20 20.12.2020
4675 Clouds -1 1024 59 10000 2.1 280 11:43 20.12.2020
4676 Clouds -1 1024 55 10000 1.5 270 11:18 20.12.2020
4677 Clouds -1 1024 55 10000 1.5 270 10:45 20.12.2020
4678 Clouds -1 1025 50 10000 2.1 200 10:20 20.12.2020
4679 Clouds -1 1025 50 10000 2.1 200 09:46 20.12.2020
4680 Clouds -1 1025 50 10000 2.1 200 09:27 20.12.2020
4681 Clear -1 1026 55 10000 2.1 250 08:56 20.12.2020
4682 Clear -1 1026 55 10000 2.1 250 08:37 20.12.2020
4683 Clear -1 1026 93 10000 2.1 250 07:25 20.12.2020
4684 Clear -2 1026 94 10000 1.5 280 05:48 20.12.2020
4685 Clear -2 1027 93 10000 2.1 260 02:20 20.12.2020
4686 Clear -1 1028 55 10000 1.5 230 00:38 20.12.2020
4687 Clear -1 1029 93 10000 2.6 240 23:21 19.12.2020
4688 Clear 0 1029 93 10000 2.6 240 22:57 19.12.2020
4689 Clear 0 1029 93 10000 2.6 240 22:38 19.12.2020
4690 Clear 0 1029 55 10000 2.1 260 22:19 19.12.2020
4691 Clear 0 1029 55 10000 2.1 260 21:42 19.12.2020
4692 Clear -1 1029 50 10000 1.5 0 21:24 19.12.2020
4693 Clear -1 1028 54 10000 1.5 280 20:46 19.12.2020
4694 Clear -1 1029 54 10000 2.1 300 20:22 19.12.2020
4695 Clear -1 1029 54 10000 2.1 300 19:55 19.12.2020
4696 Clear -1 1029 54 10000 2.1 300 19:36 19.12.2020
4697 Clear -1 1029 58 10000 1.1 302 19:18 19.12.2020
4698 Clear -1 1029 58 10000 1.26 288 18:31 19.12.2020
4699 Clear -2 1030 58 10000 1.26 288 17:50 19.12.2020
4700 Clear -2 1030 58 10000 1.09 346 17:30 19.12.2020
4701 Clear -3 1031 74 10000 2.1 270 16:57 19.12.2020
4702 Clear -3 1031 74 10000 2.1 270 16:38 19.12.2020
4703 Clear -4 1031 62 10000 1.64 316 16:19 19.12.2020
4704 Clear -4 1031 62 10000 1.64 316 15:47 19.12.2020
4705 Clear -5 1030 73 10000 2.1 0 15:20 19.12.2020
4706 Clear -6 1030 67 10000 2.1 0 14:37 19.12.2020
4707 Clear -7 1030 73 10000 1.5 0 13:42 19.12.2020
4708 Clear -6 1030 73 10000 1.5 0 13:23 19.12.2020
4709 Clear -6 1030 73 10000 1.5 0 12:57 19.12.2020
4710 Clear -6 1030 73 10000 1.5 0 12:39 19.12.2020
4711 Clear -6 1030 73 10000 1.5 0 12:21 19.12.2020
4712 Clear -6 1030 73 10000 1.5 0 11:48 19.12.2020
4713 Clear -6 1030 73 10000 1.5 0 11:19 19.12.2020
4714 Clear -6 1029 73 10000 1.5 0 10:42 19.12.2020
4715 Clear -6 1030 74 10000 3.1 0 10:18 19.12.2020
4716 Clear -6 1030 74 10000 3.1 0 09:42 19.12.2020
4717 Clear -5 1029 79 10000 3.6 70 08:59 19.12.2020
4718 Clear -5 1029 79 10000 3.6 70 08:23 19.12.2020
4719 Clear -5 1029 68 10000 2.6 0 07:22 19.12.2020
4720 Clear -5 1029 68 10000 2.6 0 06:51 19.12.2020
4721 Clear -4 1028 68 10000 3.6 80 05:24 19.12.2020
4722 Clear -2 1029 68 10000 1.5 0 03:55 19.12.2020
4723 Clear -3 1028 58 10000 2.1 20 01:21 19.12.2020
4724 Clear -2 1028 58 10000 2.1 20 00:36 19.12.2020
4725 Clear -2 1027 54 10000 2.6 360 00:18 19.12.2020
4726 Clear -2 1027 54 10000 2.6 360 23:44 18.12.2020
4727 Clear -1 1027 54 10000 2.6 360 23:21 18.12.2020
4728 Clouds 0 1026 94 10000 2.1 0 22:43 18.12.2020
4729 Clouds 0 1026 64 10000 4.1 40 22:20 18.12.2020
4730 Clouds 0 1026 64 10000 3.6 60 21:47 18.12.2020
4731 Clouds 0 1025 54 10000 2.6 0 21:28 18.12.2020
4732 Clouds 0 1025 54 10000 2.6 0 20:40 18.12.2020
4733 Clouds 0 1025 59 10000 2.1 20 20:19 18.12.2020
4734 Clouds 0 1025 59 10000 2.1 20 19:41 18.12.2020
4735 Clouds -1 1025 59 10000 1.5 0 19:20 18.12.2020
4736 Clouds -1 1025 58 10000 4.1 290 18:40 18.12.2020
4737 Clouds -1 1026 58 10000 3.1 300 18:22 18.12.2020
4738 Clouds -2 1026 58 10000 3.1 300 17:24 18.12.2020
4739 Clouds -2 1026 68 10000 2.6 0 16:49 18.12.2020
4740 Clouds -2 1026 68 10000 2.6 0 16:27 18.12.2020
4741 Clouds -3 1025 63 10000 4.13 350 15:59 18.12.2020
4742 Clouds -3 1025 63 10000 4.13 350 15:41 18.12.2020
4743 Clouds -3 1025 63 10000 4.19 345 15:22 18.12.2020
4744 Clouds -4 1025 63 10000 4.19 345 14:54 18.12.2020
4745 Clouds -3 1024 68 10000 3.87 344 14:21 18.12.2020
4746 Clouds -3 1024 68 10000 3.87 344 13:50 18.12.2020
4747 Clouds -3 1024 68 10000 4.04 350 13:28 18.12.2020
4748 Clouds -3 1023 74 10000 4.04 350 12:49 18.12.2020
4749 Clouds -3 1023 74 10000 4.17 351 12:20 18.12.2020
4750 Clouds -4 1023 74 10000 3.87 347 11:23 18.12.2020
4751 Clouds -4 1022 74 10000 3.87 347 10:40 18.12.2020
4752 Clouds -4 1022 74 10000 1.5 0 10:20 18.12.2020
4753 Clouds -4 1022 74 10000 1.5 0 09:39 18.12.2020
4754 Clouds -4 1022 74 10000 1.5 0 09:21 18.12.2020
4755 Clouds -4 1022 79 10000 2.6 40 08:54 18.12.2020
4756 Clouds -5 1022 79 10000 2.6 40 08:30 18.12.2020
4757 Clouds -4 1021 74 10000 1.5 0 07:46 18.12.2020
4758 Clear -4 1021 74 10000 2.93 357 07:18 18.12.2020
4759 Clear -3 1021 74 10000 3.33 356 06:51 18.12.2020
4760 Clear -3 1021 74 10000 1.5 0 05:42 18.12.2020
4761 Clear -3 1021 74 10000 1.5 0 04:51 18.12.2020
4762 Clear -2 1021 95 10000 2.1 0 02:31 18.12.2020
4763 Clear -2 1019 95 10000 4.1 50 01:41 18.12.2020
4764 Clear -1 1019 95 10000 3.6 60 00:28 18.12.2020
4765 Clear -1 1017 69 10000 3.1 0 23:50 17.12.2020
4766 Clear -1 1017 69 10000 3.1 0 23:19 17.12.2020
4767 Clear -1 1016 63 10000 2.6 0 22:47 17.12.2020
4768 Clear -1 1016 63 10000 2.6 0 22:27 17.12.2020
4769 Clouds 0 1015 96 10000 4.6 340 21:44 17.12.2020
4770 Snow -1 1015 74 4828 1.5 0 21:20 17.12.2020
4771 Snow -1 1015 74 4828 1.5 0 20:45 17.12.2020
4772 Clouds -1 1015 96 10000 3.1 0 20:19 17.12.2020
4773 Clouds -1 1014 68 10000 4.1 350 19:56 17.12.2020
4774 Clouds -1 1014 68 10000 4.1 350 19:38 17.12.2020
4775 Snow -1 1013 68 10000 3.6 360 19:19 17.12.2020
4776 Snow -1 1013 68 10000 3.6 360 18:40 17.12.2020
4777 Clouds -2 1013 74 10000 6.2 30 18:19 17.12.2020
4778 Snow -2 1013 74 3219 5.7 360 17:45 17.12.2020
4779 Snow -2 1013 79 402 8.43 8 17:27 17.12.2020
4780 Snow -3 1013 79 1207 4.6 330 16:40 17.12.2020
4781 Snow -3 1011 92 2816 4.1 70 16:20 17.12.2020
4782 Snow -3 1012 79 1207 4.1 350 15:45 17.12.2020
4783 Snow -3 1012 79 1207 4.1 350 15:27 17.12.2020
4784 Snow -4 1009 79 1609 3.1 0 14:49 17.12.2020
4785 Mist -4 1008 100 2414 2.6 0 14:28 17.12.2020
4786 Snow -4 1009 79 2012 6.2 10 13:50 17.12.2020
4787 Snow -4 1008 92 4828 3.6 110 13:23 17.12.2020
4788 Snow -4 1006 92 2012 1.5 0 12:43 17.12.2020
4789 Snow -3 1006 92 2012 1.5 0 12:24 17.12.2020
4790 Snow -3 1005 92 2414 3.1 0 11:43 17.12.2020
4791 Rain -3 1005 92 2414 3.1 0 11:22 17.12.2020
4792 Snow -2 1006 92 2012 4.1 120 10:49 17.12.2020
4793 Rain -2 1007 96 1609 4.6 40 09:42 17.12.2020
4794 Snow -2 1007 97 1609 4.6 40 09:21 17.12.2020
4795 Snow -2 1007 96 2012 10.8 40 07:49 17.12.2020
4796 Snow -2 1007 96 2012 10.8 40 07:28 17.12.2020
4797 Rain -2 1008 95 2414 9.3 40 06:51 17.12.2020
4798 Mist -2 1009 96 2012 10.3 40 06:32 17.12.2020
4799 Snow -2 1014 92 2414 10.8 30 04:45 17.12.2020
4800 Snow -3 1022 86 805 9.8 30 00:33 17.12.2020
4801 Snow -2 1023 86 1609 10.8 30 23:51 16.12.2020
4802 Snow -2 1023 86 3219 10.3 30 23:19 16.12.2020
4803 Snow -2 1023 86 3219 10.3 30 22:54 16.12.2020
4804 Snow -2 1024 94 2816 8.2 30 22:34 16.12.2020
4805 Snow -1 1025 54 10000 8.2 60 21:50 16.12.2020
4806 Snow -1 1025 59 10000 8.2 40 21:32 16.12.2020
4807 Snow -1 1026 59 10000 10.3 40 20:55 16.12.2020
4808 Clouds -1 1026 58 10000 5.1 50 20:21 16.12.2020
4809 Clouds -1 1026 64 10000 8.2 30 19:52 16.12.2020
4810 Clouds -1 1026 58 10000 5.1 50 19:19 16.12.2020
4811 Clouds -1 1027 64 10000 6.7 20 18:53 16.12.2020
4812 Clear -1 1028 58 10000 6.2 60 18:27 16.12.2020
4813 Clouds 0 1029 55 10000 6.7 50 17:47 16.12.2020
4814 Clouds -1 1029 55 10000 6.7 50 17:28 16.12.2020
4815 Clouds -1 1030 75 10000 6.2 30 16:39 16.12.2020
4816 Clear -1 1029 74 10000 6.2 30 16:21 16.12.2020
4817 Clear -2 1029 74 10000 6.2 30 15:50 16.12.2020
4818 Clear -2 1030 46 10000 2.6 0 15:26 16.12.2020
4819 Clear -2 1029 63 10000 6.7 30 14:47 16.12.2020
4820 Clear -2 1029 63 10000 6.7 30 14:28 16.12.2020
4821 Clear -3 1030 63 10000 6.2 30 13:49 16.12.2020
4822 Clear -3 1030 63 10000 6.2 30 13:28 16.12.2020
4823 Clear -3 1031 54 10000 5.7 50 12:56 16.12.2020
4824 Clear -3 1031 54 10000 5.7 50 12:35 16.12.2020
4825 Clear -3 1030 32 10000 2.1 30 11:40 16.12.2020
4826 Clear -3 1030 32 10000 3.6 30 11:22 16.12.2020
4827 Clear -3 1030 32 10000 3.6 30 10:49 16.12.2020
4828 Clear -3 1030 33 10000 3.1 0 10:25 16.12.2020
4829 Clear -2 1030 46 10000 6.7 40 09:43 16.12.2020
4830 Clear -2 1030 42 10000 4.1 30 08:42 16.12.2020
4831 Clear -2 1029 42 10000 4.6 50 07:57 16.12.2020
4832 Clear -2 1029 42 10000 4.6 50 07:38 16.12.2020
4833 Clear -1 1029 46 10000 3.1 0 06:52 16.12.2020
4834 Clear 0 1029 47 10000 1.5 0 02:26 16.12.2020
4835 Clear 1 1029 47 10000 1.5 0 01:27 16.12.2020
4836 Clear 2 1027 44 10000 2.6 250 23:46 15.12.2020
4837 Clear 2 1027 37 10000 4.1 290 22:49 15.12.2020
4838 Clear 3 1027 37 10000 4.1 290 22:25 15.12.2020
4839 Clear 3 1026 38 10000 4.1 310 21:58 15.12.2020
4840 Clear 3 1026 38 10000 4.1 310 21:40 15.12.2020
4841 Clear 4 1025 40 10000 5.1 290 21:21 15.12.2020
4842 Clear 4 1025 40 10000 5.1 290 20:44 15.12.2020
4843 Clouds 4 1025 41 10000 3.1 0 20:26 15.12.2020
4844 Clouds 4 1025 41 10000 3.1 0 19:52 15.12.2020
4845 Clouds 4 1025 41 10000 3.1 0 19:26 15.12.2020
4846 Clear 3 1025 40 10000 4.6 350 18:39 15.12.2020
4847 Clear 3 1025 47 10000 4.64 327 18:21 15.12.2020
4848 Clear 3 1025 51 10000 4.64 327 17:44 15.12.2020
4849 Clear 3 1026 47 10000 4.78 329 17:25 15.12.2020
4850 Clear 2 1026 47 10000 4.78 329 16:43 15.12.2020
4851 Clear 2 1025 50 10000 4.1 290 16:25 15.12.2020
4852 Clear 2 1025 55 10000 3.1 0 15:42 15.12.2020
4853 Clear 1 1024 59 10000 5.7 260 15:24 15.12.2020
4854 Clear 1 1024 59 10000 5.7 260 14:43 15.12.2020
4855 Clear 1 1023 59 10000 3.6 230 14:20 15.12.2020
4856 Clear 0 1023 59 10000 3.6 230 13:51 15.12.2020
4857 Clear 0 1023 59 10000 3.6 230 13:26 15.12.2020
4858 Clear 0 1022 55 10000 1.5 0 12:46 15.12.2020
4859 Clear 0 1022 55 10000 1.5 0 12:20 15.12.2020
4860 Clear 1 1022 51 10000 1.5 0 11:54 15.12.2020
4861 Clear 1 1022 51 10000 1.5 0 11:26 15.12.2020
4862 Clear 1 1021 51 10000 2.1 0 10:53 15.12.2020
4863 Clear 1 1021 51 10000 1.5 0 10:23 15.12.2020
4864 Clear 1 1021 51 10000 1.5 0 09:49 15.12.2020
4865 Clear 1 1021 51 10000 1.5 0 09:31 15.12.2020
4866 Clear 1 1020 51 10000 2.1 0 08:49 15.12.2020
4867 Clear 1 1019 51 10000 7.53 317 08:26 15.12.2020
4868 Clear 2 1019 51 10000 7.53 317 07:49 15.12.2020
4869 Clear 2 1019 51 10000 7.32 317 07:24 15.12.2020
4870 Clear 2 1018 51 10000 2.1 0 06:28 15.12.2020
4871 Clear 3 1014 69 10000 7.68 319 03:25 15.12.2020
4872 Clear 3 1012 86 10000 2.1 0 00:34 15.12.2020
4873 Clouds 3 1011 86 10000 2.6 260 23:26 14.12.2020
4874 Clouds 3 1011 86 10000 2.1 0 22:56 14.12.2020
4875 Clouds 3 1011 93 10000 2.6 260 22:32 14.12.2020
4876 Rain 2 1011 93 10000 2.6 280 21:45 14.12.2020
4877 Rain 3 1011 93 10000 2.6 280 21:23 14.12.2020
4878 Rain 3 1011 86 10000 2.1 280 20:51 14.12.2020
4879 Rain 3 1011 93 10000 3.62 309 20:30 14.12.2020
4880 Rain 3 1012 86 8047 3.62 309 19:54 14.12.2020
4881 Rain 3 1012 86 10000 1.5 0 19:29 14.12.2020
4882 Rain 4 1013 86 10000 2.1 0 18:51 14.12.2020
4883 Rain 4 1013 86 10000 2.1 0 18:51 14.12.2020
4884 Rain 4 1014 86 9656 1.5 0 18:31 14.12.2020
4885 Rain 4 1014 86 9656 1.5 0 17:47 14.12.2020
4886 Rain 4 1015 86 10000 2.1 60 17:24 14.12.2020
4887 Rain 4 1015 86 10000 1.5 0 16:52 14.12.2020
4888 Rain 4 1016 86 6437 2.6 120 16:29 14.12.2020
4889 Rain 4 1016 86 6437 2.6 120 15:44 14.12.2020
4890 Rain 4 1015 81 10000 3.1 80 15:22 14.12.2020
4891 Rain 5 1016 60 10000 2.1 0 14:43 14.12.2020
4892 Clouds 5 1016 60 10000 2.1 0 14:25 14.12.2020
4893 Clouds 5 1016 65 10000 1.29 6 13:46 14.12.2020
4894 Clouds 5 1016 60 10000 1.5 0 13:22 14.12.2020
4895 Clouds 5 1014 65 10000 3.1 0 12:53 14.12.2020
4896 Clouds 5 1014 65 10000 3.1 0 12:29 14.12.2020
4897 Clouds 6 1016 56 10000 2.1 280 11:36 14.12.2020
4898 Clouds 6 1016 56 10000 1.58 343 10:48 14.12.2020
4899 Clouds 6 1016 56 10000 3.08 353 10:27 14.12.2020
4900 Clouds 7 1017 56 10000 3.6 360 09:44 14.12.2020
4901 Clouds 7 1017 64 10000 2.1 40 08:49 14.12.2020
4902 Clouds 7 1017 62 10000 2.1 40 08:30 14.12.2020
4903 Clouds 7 1016 61 10000 3.37 328 07:49 14.12.2020
4904 Clouds 7 1017 61 10000 1.5 0 06:55 14.12.2020
4905 Clouds 8 1016 61 10000 3.56 338 05:51 14.12.2020
4906 Clear 9 1017 66 10000 3.1 250 03:29 14.12.2020
4907 Clear 10 1016 57 10000 3.6 260 00:57 14.12.2020
4908 Clear 11 1016 57 10000 3.6 260 00:34 14.12.2020
4909 Clear 11 1016 54 10000 2.6 0 23:59 13.12.2020
4910 Clear 11 1016 54 10000 2.6 0 23:41 13.12.2020
4911 Clear 12 1016 50 10000 3.6 280 22:51 13.12.2020
4912 Clear 13 1016 50 10000 3.6 280 22:21 13.12.2020
4913 Clear 13 1016 47 10000 4.1 280 21:56 13.12.2020
4914 Clear 14 1016 47 10000 4.1 280 21:35 13.12.2020
4915 Clear 14 1014 51 10000 7.7 270 20:49 13.12.2020
4916 Clear 15 1014 51 10000 7.7 270 20:25 13.12.2020
4917 Clear 15 1014 55 10000 4.6 260 19:46 13.12.2020
4918 Clear 16 1014 55 10000 4.6 260 19:23 13.12.2020
4919 Clear 16 1014 62 10000 4.6 260 18:54 13.12.2020
4920 Clear 16 1014 62 10000 4.6 260 18:36 13.12.2020
4921 Clear 15 1015 71 10000 3.1 260 18:18 13.12.2020
4922 Clear 15 1015 71 10000 3.1 260 17:43 13.12.2020
4923 Clear 14 1015 71 10000 3.1 260 17:18 13.12.2020
4924 Clear 13 1016 76 10000 2.6 260 16:46 13.12.2020
4925 Clear 13 1016 76 10000 2.6 260 16:28 13.12.2020
4926 Clear 12 1015 81 10000 2.6 270 15:45 13.12.2020
4927 Clear 12 1015 81 10000 2.6 270 15:26 13.12.2020
4928 Clear 11 1014 81 10000 2.6 270 14:47 13.12.2020
4929 Clear 10 1014 81 10000 2.6 270 14:28 13.12.2020
4930 Clear 10 1014 81 10000 2.6 270 13:49 13.12.2020
4931 Clear 10 1014 81 10000 2.6 270 13:31 13.12.2020
4932 Clear 10 1014 87 10000 2.6 240 12:56 13.12.2020
4933 Clear 10 1014 87 10000 2.6 240 12:24 13.12.2020
4934 Clear 10 1013 81 10000 1.5 260 11:58 13.12.2020
4935 Clear 10 1013 81 10000 1.5 260 11:32 13.12.2020
4936 Clear 11 1014 81 10000 1.5 260 10:45 13.12.2020
4937 Clear 11 1014 81 10000 1.5 260 10:21 13.12.2020
4938 Clouds 11 1014 81 10000 2.6 280 09:46 13.12.2020
4939 Clouds 11 1013 81 10000 2.1 250 08:48 13.12.2020
4940 Clouds 11 1013 81 10000 2.1 250 08:30 13.12.2020
4941 Clear 11 1014 76 10000 2.6 260 07:25 13.12.2020
4942 Clear 11 1015 82 10000 3.6 270 03:24 13.12.2020
4943 Clear 12 1015 87 10000 3.6 270 02:32 13.12.2020
4944 Clear 11 1015 82 10000 2.6 260 01:36 13.12.2020
4945 Clear 11 1015 87 10000 2.1 0 00:45 13.12.2020
4946 Clear 11 1015 87 10000 2.1 320 23:45 12.12.2020
4947 Clear 11 1015 87 10000 2.1 320 23:26 12.12.2020
4948 Clouds 11 1016 93 10000 2.57 177 22:37 12.12.2020
4949 Clouds 11 1016 93 10000 2.57 177 21:47 12.12.2020
4950 Clouds 11 1016 93 10000 2.38 167 21:23 12.12.2020
4951 Mist 11 1016 87 4828 3.1 20 20:46 12.12.2020
4952 Mist 10 1016 87 4828 3.1 20 20:21 12.12.2020
4953 Mist 10 1016 87 4828 4.1 40 19:54 12.12.2020
4954 Mist 10 1017 87 4828 3.1 50 19:34 12.12.2020
4955 Mist 9 1017 87 4023 3.6 50 18:58 12.12.2020
4956 Mist 10 1018 87 4828 4.1 50 18:40 12.12.2020
4957 Mist 9 1018 87 4828 4.1 50 18:22 12.12.2020
4958 Mist 9 1020 87 9656 4.1 50 17:41 12.12.2020
4959 Clouds 9 1020 81 10000 3.6 30 16:52 12.12.2020
4960 Clouds 8 1021 81 10000 3.1 40 15:59 12.12.2020
4961 Clouds 8 1021 87 10000 3.1 30 15:40 12.12.2020
4962 Clouds 8 1021 87 10000 2.6 70 14:54 12.12.2020
4963 Clouds 8 1021 87 10000 2.6 70 14:35 12.12.2020
4964 Clouds 8 1021 87 10000 2.1 30 13:47 12.12.2020
4965 Clouds 8 1021 87 10000 2.1 30 13:26 12.12.2020
4966 Clouds 7 1021 87 10000 2.6 30 12:43 12.12.2020
4967 Clouds 8 1021 87 10000 2.1 230 11:41 12.12.2020
4968 Clouds 7 1021 81 10000 2.1 220 10:52 12.12.2020
4969 Clear 8 1021 81 10000 2.6 260 09:31 12.12.2020
4970 Clear 8 1021 87 10000 2.6 280 08:42 12.12.2020
4971 Clear 10 1021 58 10000 1.5 260 02:46 12.12.2020
4972 Clear 11 1020 58 10000 2.6 260 23:53 11.12.2020
4973 Clear 13 1020 50 10000 1.5 250 22:21 11.12.2020
4974 Clear 13 1021 54 10000 2.6 220 20:25 11.12.2020
4975 Clear 10 1023 66 10000 4.1 210 17:52 11.12.2020
4976 Clear 6 1024 70 10000 2.1 250 14:41 11.12.2020
4977 Clear 5 1024 75 10000 1.5 250 13:58 11.12.2020
4978 Clear 5 1023 75 10000 2.6 270 12:56 11.12.2020
4979 Clear 4 1023 76 10000 1.5 170 11:58 11.12.2020
4980 Clear 4 1023 76 10000 1.5 170 11:38 11.12.2020
4981 Clear 5 1024 75 10000 2.1 250 10:45 11.12.2020
4982 Clear 4 1024 75 10000 2.6 280 08:46 11.12.2020
4983 Clear 4 1024 71 10000 2.1 270 05:40 11.12.2020
4984 Clear 4 1023 70 10000 1.5 270 04:51 11.12.2020
4985 Clear 6 1023 56 10000 2.37 300 01:38 11.12.2020
4986 Clear 7 1021 64 10000 2.6 260 00:21 11.12.2020
4987 Clear 8 1021 49 10000 3.6 300 22:44 10.12.2020
4988 Clear 9 1020 49 10000 6.2 300 21:36 10.12.2020
4989 Clouds 9 1019 49 10000 4.6 270 20:41 10.12.2020
4990 Clouds 9 1019 49 10000 3.1 0 19:43 10.12.2020
4991 Clouds 9 1019 49 10000 6.2 300 18:56 10.12.2020
4992 Clouds 8 1019 57 10000 3.1 260 17:54 10.12.2020
4993 Clear 7 1019 65 10000 4.1 250 16:30 10.12.2020
4994 Clear 6 1018 70 10000 3.6 250 15:27 10.12.2020
4995 Clear 5 1017 80 10000 3.6 250 14:51 10.12.2020
4996 Clear 4 1017 80 10000 3.6 250 14:28 10.12.2020
4997 Clouds 3 1015 80 10000 2.6 0 12:54 10.12.2020
4998 Clouds 4 1014 80 10000 4.73 286 11:39 10.12.2020
4999 Clouds 3 1012 74 10000 3.1 260 08:52 10.12.2020
5000 Clouds 2 1011 74 10000 4.1 260 07:48 10.12.2020
5001 Clear 2 1011 74 10000 4.1 270 06:42 10.12.2020
5002 Clouds 2 1010 74 10000 4.6 270 03:36 10.12.2020
5003 Clouds 2 1009 74 10000 4.6 260 02:23 10.12.2020
5004 Clouds 2 1009 74 10000 5.1 250 00:23 10.12.2020
5005 Clouds 1 1008 80 10000 4.6 260 22:48 09.12.2020
5006 Snow 1 1009 80 402 1.5 0 20:30 09.12.2020
5007 Snow 0 1009 80 402 1.5 0 19:32 09.12.2020
5008 Clouds 3 1011 64 10000 7.2 260 17:44 09.12.2020
5009 Clouds 2 1011 64 10000 6.7 240 16:52 09.12.2020
5010 Clouds 2 1011 64 10000 6.7 240 16:23 09.12.2020
5011 Clouds 1 1011 69 10000 4.6 260 15:31 09.12.2020
5012 Clouds 1 1012 69 10000 5.7 260 14:40 09.12.2020
5013 Clear 1 1012 69 10000 4.6 260 14:18 09.12.2020
5014 Clear 1 1012 69 10000 4.6 260 13:19 09.12.2020
5015 Clear 1 1012 64 10000 2.6 250 12:45 09.12.2020
5016 Clear 1 1011 59 10000 1.5 260 11:54 09.12.2020
5017 Clear 1 1011 59 10000 1.5 260 11:23 09.12.2020
5018 Clear 0 1012 59 10000 3.6 270 09:39 09.12.2020
5019 Clear 0 1012 59 10000 3.6 240 08:26 09.12.2020
5020 Clear 0 1012 51 10000 6.09 313 05:57 09.12.2020
5021 Clear 1 1011 47 10000 2.1 0 04:20 09.12.2020
5022 Clear 1 1011 51 10000 6.1 311 01:59 09.12.2020
5023 Clear 2 1009 51 10000 3.1 300 23:44 08.12.2020
5024 Clear 2 1009 51 10000 3.1 300 23:21 08.12.2020
5025 Clouds 3 1008 51 10000 4.6 310 21:30 08.12.2020
5026 Clouds 1 1008 50 10000 4.6 300 19:46 08.12.2020
5027 Clouds 1 1008 50 10000 4.6 300 19:46 08.12.2020
5028 Clouds 1 1009 69 10000 4.1 300 18:59 08.12.2020
5029 Clouds 0 1009 73 10000 4.1 300 18:27 08.12.2020
5030 Clouds -1 1008 63 10000 3.6 290 15:54 08.12.2020
5031 Clouds -1 1008 63 10000 4.1 350 14:34 08.12.2020
5032 Clouds -1 1008 63 10000 3.6 360 13:36 08.12.2020
5033 Clouds -1 1007 63 10000 5.1 40 12:35 08.12.2020
5034 Clouds -1 1006 63 10000 4.6 360 11:52 08.12.2020
5035 Clouds 0 1006 87 10000 4.1 20 10:52 08.12.2020
5036 Clouds 0 1006 87 10000 4.1 20 10:31 08.12.2020
5037 Clouds 0 1006 87 10000 2.6 0 09:34 08.12.2020
5038 Clouds 0 1007 84 10000 2.1 340 07:34 08.12.2020
5039 Clear 1 1007 59 10000 5.7 360 04:22 08.12.2020
5040 Clear 2 1007 44 10000 4.6 290 01:38 08.12.2020
5041 Clear 3 1007 48 10000 3.1 250 00:44 08.12.2020
5042 Clear 3 1007 44 10000 1.5 270 22:50 07.12.2020
5043 Clear 4 1006 44 10000 3.6 290 22:18 07.12.2020
5044 Clear 4 1006 44 10000 2.1 0 20:47 07.12.2020
5045 Clear 4 1008 55 10000 3.1 260 18:58 07.12.2020
5046 Clear 2 1010 55 10000 5.1 250 17:38 07.12.2020
5047 Clear 2 1011 59 10000 4.1 260 17:18 07.12.2020
5048 Clear 2 1011 59 10000 4.1 260 16:23 07.12.2020
5049 Clear 1 1010 64 10000 3.6 250 15:24 07.12.2020
5050 Clear 0 1011 64 10000 3.6 250 14:28 07.12.2020
5051 Clear -1 1010 64 10000 3.1 270 13:35 07.12.2020
5052 Clear 0 1011 69 10000 3.1 250 11:58 07.12.2020
5053 Clear 0 1011 69 10000 3.1 250 11:58 07.12.2020
5054 Clear 0 1011 69 10000 3.1 250 11:38 07.12.2020
5055 Clear 0 1011 64 10000 3.6 270 10:23 07.12.2020
5056 Clear 0 1011 59 10000 1.5 0 08:37 07.12.2020
5057 Clear 0 1011 59 10000 1.5 0 07:30 07.12.2020
5058 Clear 1 1012 55 10000 3.6 260 05:26 07.12.2020
5059 Clear 1 1012 55 10000 1.5 0 03:45 07.12.2020
5060 Clear 2 1011 51 10000 6.89 308 00:39 07.12.2020
5061 Clear 3 1010 47 10000 5.1 280 22:48 06.12.2020
5062 Clear 4 1009 44 10000 4.6 270 21:44 06.12.2020
5063 Clear 4 1009 44 10000 7.7 300 20:41 06.12.2020
5064 Clouds 4 1009 44 10000 5.7 280 20:19 06.12.2020
5065 Clouds 4 1009 44 10000 5.7 280 19:26 06.12.2020
5066 Clear 3 1010 47 10000 8.2 300 17:31 06.12.2020
5067 Clear 3 1010 51 10000 5.7 290 16:33 06.12.2020
5068 Clear 3 1009 59 10000 2.1 0 14:49 06.12.2020
5069 Clouds 2 1009 51 10000 4.6 280 13:21 06.12.2020
5070 Clear 3 1009 55 10000 2.6 0 12:30 06.12.2020
5071 Clear 3 1009 60 10000 2.6 0 11:53 06.12.2020
5072 Clear 3 1009 60 10000 2.6 0 11:25 06.12.2020
5073 Clouds 4 1008 64 10000 2.1 0 10:36 06.12.2020
5074 Clear 3 1009 64 10000 7.75 309 09:31 06.12.2020
5075 Clear 3 1008 60 10000 1.5 0 07:41 06.12.2020
5076 Clear 4 1008 60 10000 1.5 0 05:18 06.12.2020
5077 Clouds 5 1007 52 10000 5.7 300 00:46 06.12.2020
5078 Clouds 6 1007 52 10000 1.5 0 00:27 06.12.2020
5079 Clouds 6 1006 52 10000 5.1 290 23:57 05.12.2020
5080 Clouds 7 1005 58 10000 2.1 0 22:25 05.12.2020
5081 Clouds 8 1004 58 10000 6.7 290 21:55 05.12.2020
5082 Clouds 8 1004 58 10000 6.7 290 21:30 05.12.2020
5083 Clouds 8 1003 75 10000 1.5 0 20:59 05.12.2020
5084 Rain 6 1003 87 10000 1.5 0 18:50 05.12.2020
5085 Rain 5 1003 87 10000 2.6 180 17:57 05.12.2020
5086 Rain 5 1004 86 10000 10.3 350 16:49 05.12.2020
5087 Rain 5 1004 93 8047 6.2 360 16:28 05.12.2020
5088 Rain 5 1004 93 10000 4.6 70 15:21 05.12.2020
5089 Rain 6 1006 93 4828 4.1 30 13:33 05.12.2020
5090 Rain 7 1007 93 9656 4.6 30 11:50 05.12.2020
5091 Rain 7 1008 93 10000 3.1 60 10:39 05.12.2020
5092 Rain 7 1009 93 10000 3.6 50 09:38 05.12.2020
5093 Rain 7 1012 93 10000 1.24 106 07:48 05.12.2020
5094 Rain 7 1014 93 10000 0.37 192 05:58 05.12.2020
5095 Rain 7 1017 87 10000 5.7 250 02:18 05.12.2020
5096 Rain 7 1015 87 10000 3.6 240 23:39 04.12.2020
5097 Rain 8 1016 70 10000 3.6 230 21:53 04.12.2020
5098 Clouds 10 1017 57 10000 4.1 210 19:42 04.12.2020
5099 Clouds 10 1017 61 10000 3.1 220 18:40 04.12.2020
5100 Clouds 10 1018 61 10000 3.6 230 17:48 04.12.2020
5101 Clouds 10 1018 61 10000 3.6 230 17:19 04.12.2020
5102 Clouds 8 1019 61 10000 3.1 270 15:34 04.12.2020
5103 Clouds 7 1019 65 10000 3.1 270 13:38 04.12.2020
5104 Clouds 7 1018 65 10000 1.5 240 13:20 04.12.2020
5105 Clouds 7 1018 65 10000 1.5 240 12:47 04.12.2020
5106 Clouds 7 1018 65 10000 1.5 240 12:47 04.12.2020
5107 Clouds 7 1020 61 10000 3.6 250 10:38 04.12.2020
5108 Clouds 7 1020 57 10000 4.1 280 09:41 04.12.2020
5109 Clouds 8 1021 53 10000 6.2 250 06:41 04.12.2020
5110 Clouds 8 1022 49 10000 5.7 250 05:40 04.12.2020
5111 Clear 8 1022 39 10000 4.6 260 01:55 04.12.2020
5112 Clear 9 1022 42 10000 6.7 250 22:52 03.12.2020
5113 Clear 9 1022 31 10000 2.6 0 22:22 03.12.2020
5114 Clear 10 1022 31 10000 2.1 0 20:48 03.12.2020
5115 Clear 9 1023 45 10000 4.1 230 19:27 03.12.2020
5116 Clear 9 1023 42 10000 5.1 250 18:51 03.12.2020
5117 Clear 7 1024 56 10000 5.1 260 17:41 03.12.2020
5118 Clear 6 1025 65 10000 5.1 260 17:18 03.12.2020
5119 Clear 4 1024 64 10000 5.1 250 15:52 03.12.2020
5120 Clear 3 1024 64 10000 5.1 250 15:30 03.12.2020
5121 Clear 2 1024 69 10000 5.1 250 14:35 03.12.2020
5122 Clear 2 1024 69 10000 3.6 270 13:36 03.12.2020
5123 Clear 2 1023 64 10000 4.1 270 12:26 03.12.2020
5124 Clear 2 1022 64 10000 3.1 0 11:24 03.12.2020
5125 Clear 2 1022 69 10000 3.1 250 09:33 03.12.2020
5126 Clear 3 1021 64 10000 5.7 270 05:23 03.12.2020
5127 Clear 4 1019 52 10000 5.7 250 02:45 03.12.2020
5128 Clear 5 1018 56 10000 7.7 270 00:48 03.12.2020
5129 Clouds 6 1016 56 10000 5.7 260 22:47 02.12.2020
5130 Clouds 6 1016 56 10000 5.7 260 22:26 02.12.2020
5131 Clouds 6 1014 60 10000 7.2 270 21:18 02.12.2020
5132 Clouds 6 1014 60 10000 7.2 270 20:44 02.12.2020
5133 Clouds 6 1014 60 10000 7.2 270 20:26 02.12.2020
5134 Clouds 6 1014 60 10000 8.2 270 18:39 02.12.2020
5135 Clouds 6 1014 70 10000 8.2 260 17:47 02.12.2020
5136 Clouds 6 1014 70 10000 8.2 260 17:28 02.12.2020
5137 Clouds 4 1014 72 10000 7.7 260 15:23 02.12.2020
5138 Clouds 3 1012 69 10000 7.2 270 12:50 02.12.2020
5139 Clear 2 1012 64 10000 8.2 260 10:32 02.12.2020
5140 Clear 2 1012 64 10000 8.2 250 09:32 02.12.2020
5141 Clouds 3 1010 64 10000 8.7 270 05:53 02.12.2020
5142 Clouds 7 1004 61 10000 9.3 250 22:54 01.12.2020
5143 Clouds 7 1003 61 10000 8.7 250 22:18 01.12.2020
5144 Clouds 9 1001 59 10000 4.02 295 19:36 01.12.2020
5145 Clouds 10 1001 53 10000 4.1 200 18:45 01.12.2020
5146 Clouds 11 1001 76 10000 4.1 240 16:47 01.12.2020
5147 Clouds 11 1001 81 10000 3.6 260 14:21 01.12.2020
5148 Clouds 12 999 93 10000 3.1 230 12:31 01.12.2020
5149 Clouds 12 999 87 10000 2.6 270 11:28 01.12.2020
5150 Clouds 12 999 87 10000 1.5 270 10:46 01.12.2020
5151 Clouds 12 999 87 10000 1.5 270 10:26 01.12.2020
5152 Clear 14 998 87 10000 2.6 250 07:26 01.12.2020
5153 Clouds 16 997 87 10000 6.7 230 02:57 01.12.2020
5154 Clouds 16 997 87 10000 6.7 230 02:57 01.12.2020
5155 Clouds 17 996 93 10000 5.7 200 00:57 01.12.2020
5156 Clouds 17 996 93 10000 5.7 200 00:29 01.12.2020
5157 Clouds 17 997 93 10000 7.2 180 23:20 30.11.2020
5158 Mist 16 997 93 9656 2.1 0 22:40 30.11.2020
5159 Mist 16 998 93 8047 5.1 180 22:22 30.11.2020
5160 Clouds 16 1000 87 10000 6.7 190 19:46 30.11.2020
5161 Mist 15 1001 93 6437 4.1 140 18:54 30.11.2020
5162 Rain 15 1001 93 6437 4.1 140 18:21 30.11.2020
5163 Rain 15 1003 93 2012 8.7 50 17:46 30.11.2020
5164 Rain 14 1004 93 3219 7.2 50 16:52 30.11.2020
5165 Rain 13 1011 87 10000 7.2 50 14:48 30.11.2020
5166 Rain 12 1012 76 10000 6.2 30 13:55 30.11.2020
5167 Clouds 12 1013 76 10000 5.7 30 12:59 30.11.2020
5168 Clouds 11 1013 76 10000 5.7 30 12:25 30.11.2020
5169 Clouds 11 1015 76 10000 4.6 20 11:34 30.11.2020
5170 Clouds 10 1016 76 10000 2.6 30 10:24 30.11.2020
5171 Clear 10 1018 62 10000 2.98 146 08:53 30.11.2020
5172 Clear 10 1020 53 10000 2.6 270 01:28 30.11.2020
5173 Clear 10 1020 29 10000 3.1 210 23:28 29.11.2020
5174 Clear 12 1020 30 10000 2.1 260 21:45 29.11.2020
5175 Clear 12 1020 30 10000 2.1 260 21:26 29.11.2020
5176 Clear 12 1020 30 10000 2.1 260 21:26 29.11.2020
5177 Clear 12 1020 35 10000 2.1 220 19:19 29.11.2020
5178 Clear 10 1022 46 10000 2.1 220 17:34 29.11.2020
5179 Clear 6 1022 58 10000 3.1 240 14:46 29.11.2020
5180 Clear 5 1021 61 10000 3.1 260 12:45 29.11.2020
5181 Clear 6 1021 70 10000 2.6 260 11:37 29.11.2020
5182 Clear 6 1021 56 10000 3.1 260 08:54 29.11.2020
5183 Clear 6 1021 56 10000 3.1 260 08:35 29.11.2020
5184 Clear 8 1018 57 10000 1.5 0 02:32 29.11.2020
5185 Clouds 11 1016 50 10000 1.5 0 22:59 28.11.2020
5186 Clouds 12 1015 44 10000 3.1 0 22:27 28.11.2020
5187 Clouds 12 1015 46 10000 3.6 300 20:24 28.11.2020
5188 Clouds 13 1015 50 10000 4.6 260 19:28 28.11.2020
5189 Clouds 13 1015 50 10000 4.1 270 18:57 28.11.2020
5190 Clouds 13 1016 50 10000 1.5 0 18:21 28.11.2020
5191 Clouds 12 1016 66 10000 2.6 250 16:58 28.11.2020
5192 Clouds 10 1016 76 10000 1.5 200 14:59 28.11.2020
5193 Clouds 9 1016 71 10000 2.1 240 13:55 28.11.2020
5194 Clouds 9 1015 71 10000 3.6 220 11:29 28.11.2020
5195 Clouds 9 1015 61 10000 2.1 270 09:27 28.11.2020
5196 Clear 11 1016 58 10000 1.5 0 03:48 28.11.2020
5197 Clouds 12 1016 66 10000 2.1 260 01:54 28.11.2020
5198 Clouds 14 1016 58 10000 2.6 270 23:22 27.11.2020
5199 Clouds 15 1016 58 10000 2.6 270 22:45 27.11.2020
5200 Clouds 16 1016 59 10000 1.5 240 20:41 27.11.2020
5201 Clouds 16 1016 59 10000 1.5 240 20:23 27.11.2020
5202 Clouds 16 1017 59 10000 2.1 200 19:19 27.11.2020
5203 Clear 14 1019 76 10000 2.1 250 16:58 27.11.2020
5204 Clear 11 1019 81 10000 2.6 250 14:45 27.11.2020
5205 Clouds 10 1018 81 10000 2.1 230 13:21 27.11.2020
5206 Clouds 10 1018 81 10000 2.1 230 12:47 27.11.2020
5207 Clouds 10 1018 81 10000 2.1 220 11:34 27.11.2020
5208 Clear 10 1018 81 10000 2.1 220 10:49 27.11.2020
5209 Clear 11 1018 81 10000 3.1 220 09:53 27.11.2020
5210 Clear 12 1017 80 10000 0.45 345 05:47 27.11.2020
5211 Clouds 17 1015 64 10000 0.89 290 22:27 26.11.2020
5212 Clouds 17 1015 63 10000 0.89 258 21:56 26.11.2020
5213 Clouds 18 1014 72 10000 4.1 270 20:52 26.11.2020
5214 Clouds 18 1015 82 10000 5.1 270 18:41 26.11.2020
5215 Clouds 17 1016 88 10000 2.6 240 17:51 26.11.2020
5216 Clouds 15 1017 93 10000 3.1 230 14:50 26.11.2020
5217 Mist 14 1017 93 9656 3.1 280 13:41 26.11.2020
5218 Rain 14 1018 93 10000 3.6 230 12:42 26.11.2020
5219 Rain 13 1018 87 10000 5.49 180 11:36 26.11.2020
5220 Rain 13 1019 87 10000 1.5 0 10:33 26.11.2020
5221 Rain 12 1019 87 10000 4.66 186 09:46 26.11.2020
5222 Rain 12 1019 87 10000 3.36 200 09:27 26.11.2020
5223 Clouds 12 1020 87 10000 3.36 200 08:38 26.11.2020
5224 Clouds 12 1021 76 10000 1.5 0 06:49 26.11.2020
5225 Clear 11 1025 66 10000 1.5 250 22:59 25.11.2020
5226 Clouds 12 1025 62 10000 4.1 250 20:43 25.11.2020
5227 Clouds 12 1026 58 10000 3.6 220 19:55 25.11.2020
5228 Clouds 12 1026 58 10000 5.1 230 18:28 25.11.2020
5229 Clear 10 1028 57 10000 3.1 220 16:44 25.11.2020
5230 Clear 9 1029 66 10000 3.6 240 15:40 25.11.2020
5231 Clouds 8 1029 66 10000 3.1 240 13:57 25.11.2020
5232 Clouds 8 1029 66 10000 3.1 240 13:38 25.11.2020
5233 Clouds 8 1028 66 10000 4.1 220 11:58 25.11.2020
5234 Clouds 8 1029 61 10000 4.18 188 11:18 25.11.2020
5235 Clouds 7 1029 61 10000 2.6 50 09:19 25.11.2020
5236 Clouds 7 1029 53 10000 2.1 50 08:44 25.11.2020
5237 Clear 6 1030 49 10000 1.5 0 03:59 25.11.2020
5238 Clear 7 1030 49 10000 1.97 16 02:26 25.11.2020
5239 Clear 7 1029 52 10000 2.1 0 00:28 25.11.2020
5240 Clear 7 1029 49 10000 2.1 260 23:55 24.11.2020
5241 Clear 7 1029 49 10000 2.1 260 23:34 24.11.2020
5242 Clear 9 1027 36 10000 3.6 300 21:52 24.11.2020
5243 Clear 9 1027 36 10000 3.6 300 21:31 24.11.2020
5244 Clear 9 1027 39 10000 3.52 312 20:45 24.11.2020
5245 Clear 9 1027 39 10000 1.5 0 19:21 24.11.2020
5246 Clouds 8 1028 49 10000 4.1 250 17:31 24.11.2020
5247 Clouds 7 1028 49 10000 4.6 250 16:56 24.11.2020
5248 Clouds 7 1028 49 10000 4.6 250 16:36 24.11.2020
5249 Clear 7 1028 52 10000 1.5 0 15:55 24.11.2020
5250 Clear 7 1028 52 10000 1.5 0 15:19 24.11.2020
5251 Clouds 6 1027 60 10000 4.1 250 14:43 24.11.2020
5252 Clouds 5 1025 67 10000 3.6 260 12:58 24.11.2020
5253 Clouds 5 1025 66 10000 3.6 260 12:31 24.11.2020
5254 Clouds 5 1024 66 10000 3.6 260 11:58 24.11.2020
5255 Clouds 5 1023 65 10000 4.1 270 10:49 24.11.2020
5256 Clouds 5 1023 65 10000 4.1 270 10:25 24.11.2020
5257 Clouds 5 1023 65 10000 3.1 250 09:36 24.11.2020
5258 Clear 5 1022 56 10000 2.6 260 08:33 24.11.2020
5259 Clear 6 1021 56 10000 1.5 0 04:50 24.11.2020
5260 Clear 7 1019 52 10000 1.5 0 23:35 23.11.2020
5261 Clear 8 1016 45 10000 3.6 310 21:47 23.11.2020
5262 Clear 9 1015 45 10000 3.1 0 21:20 23.11.2020
5263 Clear 10 1015 45 10000 3.1 0 20:28 23.11.2020
5264 Clouds 10 1015 57 10000 4.1 300 19:36 23.11.2020
5265 Clouds 10 1014 71 10000 1.5 0 17:29 23.11.2020
5266 Clouds 10 1014 71 10000 1.5 0 16:55 23.11.2020
5267 Clouds 13 1012 93 10000 7.87 305 14:50 23.11.2020
5268 Rain 13 1011 93 10000 5.83 280 13:56 23.11.2020
5269 Rain 14 1011 93 10000 3.6 280 12:40 23.11.2020
5270 Rain 14 1012 93 9656 2.6 290 11:59 23.11.2020
5271 Rain 14 1013 93 10000 2.6 280 11:40 23.11.2020
5272 Rain 14 1015 93 10000 1.5 0 09:59 23.11.2020
5273 Clouds 15 1016 93 10000 2.1 280 08:58 23.11.2020
5274 Clouds 15 1017 93 10000 1.5 0 08:18 23.11.2020
5275 Clouds 14 1019 87 10000 3.1 0 05:22 23.11.2020
5276 Clouds 11 1025 76 10000 4.1 50 23:54 22.11.2020
5277 Clouds 10 1026 76 10000 5.1 50 22:40 22.11.2020
5278 Clouds 10 1028 76 10000 3.6 60 21:26 22.11.2020
5279 Clouds 9 1028 71 10000 6.7 30 20:35 22.11.2020
5280 Clouds 9 1030 66 10000 4.1 60 19:51 22.11.2020
5281 Clouds 9 1030 62 10000 6.2 30 18:39 22.11.2020
5282 Clouds 9 1031 66 10000 5.7 40 16:36 22.11.2020
5283 Clouds 8 1032 66 10000 5.7 40 15:29 22.11.2020
5284 Clouds 8 1031 66 10000 7.2 50 14:27 22.11.2020
5285 Clouds 7 1032 61 10000 6.7 30 12:44 22.11.2020
5286 Clouds 7 1032 61 10000 5.1 30 11:55 22.11.2020
5287 Clouds 7 1032 61 10000 5.1 40 11:20 22.11.2020
5288 Clouds 7 1032 61 10000 5.1 40 10:38 22.11.2020
5289 Clouds 8 1032 52 10000 3.1 0 08:26 22.11.2020
5290 Clouds 13 1029 47 10000 5.06 347 01:47 22.11.2020
5291 Clouds 15 1027 48 10000 1.5 0 22:56 21.11.2020
5292 Clouds 16 1027 51 10000 4.1 60 21:39 21.11.2020
5293 Clouds 16 1026 42 10000 1.5 160 20:55 21.11.2020
5294 Clouds 17 1026 42 10000 1.5 160 20:33 21.11.2020
5295 Clear 18 1026 37 10000 4.39 327 19:52 21.11.2020
5296 Clear 18 1026 37 10000 3.38 329 19:26 21.11.2020
5297 Clear 17 1027 45 10000 3.6 250 17:57 21.11.2020
5298 Clear 15 1027 58 10000 2.1 180 16:48 21.11.2020
5299 Clear 14 1028 54 10000 2.1 220 15:51 21.11.2020
5300 Clear 13 1028 54 10000 2.1 220 15:21 21.11.2020
5301 Clear 13 1027 62 10000 2.1 200 14:42 21.11.2020
5302 Clear 11 1027 62 10000 2.6 200 13:48 21.11.2020
5303 Clear 10 1026 66 10000 2.1 210 12:26 21.11.2020
5304 Clear 11 1026 62 10000 2.6 190 11:56 21.11.2020
5305 Clear 11 1025 66 10000 1.5 210 10:39 21.11.2020
5306 Clouds 11 1025 66 10000 2.1 210 09:32 21.11.2020
5307 Clouds 12 1025 50 10000 3.6 260 08:51 21.11.2020
5308 Clear 12 1025 47 10000 3.1 0 05:47 21.11.2020
5309 Clear 13 1026 54 10000 3.1 270 04:27 21.11.2020
5310 Clear 14 1025 44 10000 4.1 270 00:38 21.11.2020
5311 Clear 15 1025 41 10000 2.6 250 23:25 20.11.2020
5312 Clear 17 1025 39 10000 3.6 240 21:56 20.11.2020
5313 Clear 17 1025 39 10000 3.6 240 21:38 20.11.2020
5314 Clear 17 1025 39 10000 3.6 240 21:38 20.11.2020
5315 Clear 17 1025 36 10000 2.6 250 21:18 20.11.2020
5316 Clear 16 1026 41 10000 2.6 220 19:44 20.11.2020
5317 Clear 14 1027 47 10000 2.1 220 18:36 20.11.2020
5318 Clear 13 1028 54 10000 4.1 250 17:47 20.11.2020
5319 Clear 12 1028 54 10000 4.1 250 17:23 20.11.2020
5320 Clear 11 1029 53 10000 5.7 240 16:38 20.11.2020
5321 Clear 9 1029 61 10000 5.7 240 15:56 20.11.2020
5322 Clear 8 1030 65 10000 4.1 250 14:49 20.11.2020
5323 Clear 7 1030 65 10000 4.1 230 13:44 20.11.2020
5324 Clear 7 1030 65 10000 4.1 230 13:18 20.11.2020
5325 Clear 7 1029 65 10000 3.6 230 12:33 20.11.2020
5326 Clear 7 1029 65 10000 5.1 260 11:45 20.11.2020
5327 Clear 7 1029 65 10000 4.6 240 10:53 20.11.2020
5328 Clear 7 1030 65 10000 4.6 230 08:53 20.11.2020
5329 Clear 7 1030 65 10000 4.6 230 08:24 20.11.2020
5330 Clear 7 1030 61 10000 5.1 240 05:43 20.11.2020
5331 Clear 7 1030 58 10000 5.7 230 03:44 20.11.2020
5332 Clear 9 1031 39 10000 6.93 214 22:35 19.11.2020
5333 Clear 9 1032 39 10000 2.1 0 21:55 19.11.2020
5334 Clear 9 1032 39 10000 2.1 0 21:34 19.11.2020
5335 Clear 8 1033 45 10000 4.6 230 20:31 19.11.2020
5336 Clear 8 1034 49 10000 5.7 210 19:49 19.11.2020
5337 Clear 8 1034 39 10000 2.1 250 19:23 19.11.2020
5338 Clear 6 1036 56 10000 5.1 230 17:39 19.11.2020
5339 Clear 4 1037 64 10000 4.6 210 16:48 19.11.2020
5340 Clear 2 1038 59 10000 3.1 240 15:32 19.11.2020
5341 Clear 1 1038 59 10000 4.1 270 14:39 19.11.2020
5342 Clear 0 1037 59 10000 2.1 250 13:45 19.11.2020
5343 Clear 0 1037 59 10000 2.1 250 13:18 19.11.2020
5344 Clear 0 1037 59 10000 3.6 270 12:34 19.11.2020
5345 Clear -1 1037 55 10000 2.1 0 11:44 19.11.2020
5346 Clear -1 1037 55 10000 2.1 0 11:25 19.11.2020
5347 Clear -1 1037 55 10000 2.1 280 10:52 19.11.2020
5348 Clear -1 1036 55 10000 2.6 260 09:58 19.11.2020
5349 Clear -1 1036 55 10000 2.6 260 09:37 19.11.2020
5350 Clear -1 1036 55 10000 2.1 0 09:18 19.11.2020
5351 Clear -1 1036 55 10000 2.1 0 08:19 19.11.2020
5352 Clear 0 1035 43 10000 3.1 300 02:20 19.11.2020
5353 Clear 1 1035 51 10000 5.5 331 01:30 19.11.2020
5354 Clear 1 1034 40 10000 2.1 0 23:47 18.11.2020
5355 Clear 1 1034 40 10000 2.1 0 23:24 18.11.2020
5356 Clear 2 1033 34 10000 5.1 300 22:30 18.11.2020
5357 Clear 2 1032 34 10000 5.1 290 21:47 18.11.2020
5358 Clear 2 1032 34 10000 5.1 290 21:27 18.11.2020
5359 Clear 2 1032 34 10000 7.2 300 20:41 18.11.2020
5360 Clouds 2 1032 37 10000 4.6 330 19:45 18.11.2020
5361 Clouds 2 1032 40 10000 6.47 320 19:25 18.11.2020
5362 Clouds 2 1032 40 10000 6.56 320 18:49 18.11.2020
5363 Clouds 1 1032 40 10000 6.7 300 17:55 18.11.2020
5364 Clouds 1 1032 40 10000 6.7 300 17:35 18.11.2020
5365 Clear 1 1031 40 10000 4.1 350 16:22 18.11.2020
5366 Clear 1 1029 79 10000 4.1 290 14:49 18.11.2020
5367 Clear 0 1029 81 10000 4.1 290 14:29 18.11.2020
5368 Clouds 0 1029 81 10000 6.2 300 13:42 18.11.2020
5369 Clouds 0 1028 47 10000 7.7 300 12:47 18.11.2020
5370 Clear 1 1027 55 10000 4.1 300 12:18 18.11.2020
5371 Clear 1 1027 55 10000 4.1 300 11:27 18.11.2020
5372 Clouds 1 1026 47 10000 2.6 0 10:31 18.11.2020
5373 Clear 1 1025 47 10000 5.1 300 09:41 18.11.2020
5374 Clear 2 1024 47 10000 1.5 0 07:37 18.11.2020
5375 Clouds 2 1023 47 10000 6.2 300 06:30 18.11.2020
5376 Clouds 6 1017 56 10000 2.6 0 00:23 18.11.2020
5377 Clouds 6 1017 56 10000 2.6 0 23:31 17.11.2020
5378 Clouds 6 1016 56 10000 5.1 300 22:46 17.11.2020
5379 Clouds 7 1016 56 10000 5.1 300 22:28 17.11.2020
5380 Clouds 7 1015 64 10000 6.2 300 21:49 17.11.2020
5381 Clouds 7 1015 80 10000 6.2 300 21:30 17.11.2020
5382 Clouds 7 1014 49 10000 3.6 290 20:44 17.11.2020
5383 Clouds 8 1014 49 10000 3.6 290 20:24 17.11.2020
5384 Clouds 9 1013 46 10000 2.1 0 19:54 17.11.2020
5385 Clouds 9 1013 46 10000 2.1 0 19:54 17.11.2020
5386 Clouds 9 1013 73 10000 1.5 0 18:24 17.11.2020
5387 Clouds 9 1013 42 10000 2.1 290 18:24 17.11.2020
5388 Clouds 9 1013 53 10000 3.1 240 17:33 17.11.2020
5389 Clouds 9 1014 57 10000 3.6 270 16:49 17.11.2020
5390 Clouds 9 1015 52 10000 3.6 260 16:18 17.11.2020
5391 Clouds 8 1015 52 10000 3.6 260 15:39 17.11.2020
5392 Clouds 8 1014 52 10000 3.1 260 15:21 17.11.2020
5393 Clouds 7 1014 52 10000 3.1 260 14:53 17.11.2020
5394 Clouds 7 1014 56 10000 1.5 0 13:59 17.11.2020
5395 Clouds 6 1014 56 10000 1.5 0 13:34 17.11.2020
5396 Clear 6 1015 48 10000 2.1 0 12:46 17.11.2020
5397 Clear 6 1015 48 10000 2.6 250 11:59 17.11.2020
5398 Clear 6 1015 48 10000 2.6 250 11:40 17.11.2020
5399 Clear 6 1015 45 10000 2.1 0 10:45 17.11.2020
5400 Clear 6 1015 48 10000 3.1 270 10:23 17.11.2020
5401 Clear 6 1015 48 10000 3.1 270 09:48 17.11.2020
5402 Clear 6 1016 49 10000 3.6 260 08:54 17.11.2020
5403 Clear 7 1016 55 10000 3.6 260 08:21 17.11.2020
5404 Clear 7 1016 55 10000 3.6 260 07:35 17.11.2020
5405 Clear 8 1016 53 10000 3.1 250 04:32 17.11.2020
5406 Clear 9 1016 57 10000 3.1 270 03:29 17.11.2020
5407 Clear 9 1016 50 10000 2.6 260 02:29 17.11.2020
5408 Clear 10 1016 43 10000 2.1 260 00:57 17.11.2020
5409 Clear 10 1015 40 10000 3.6 260 00:19 17.11.2020
5410 Clear 10 1015 40 10000 3.6 260 23:41 16.11.2020
5411 Clear 10 1015 37 10000 3.6 290 23:19 16.11.2020
5412 Clear 11 1015 37 10000 3.6 290 22:26 16.11.2020
5413 Clear 11 1015 37 10000 3.6 300 21:59 16.11.2020
5414 Clear 11 1015 37 10000 3.6 300 21:40 16.11.2020
5415 Clear 12 1015 34 10000 5.1 270 21:20 16.11.2020
5416 Clear 12 1015 34 10000 5.1 270 20:26 16.11.2020
5417 Clear 12 1015 32 10000 2.1 0 19:56 16.11.2020
5418 Clear 12 1015 32 10000 2.1 0 19:31 16.11.2020
5419 Clear 12 1015 29 10000 5.1 270 18:53 16.11.2020
5420 Clear 12 1015 29 10000 5.1 270 18:28 16.11.2020
5421 Clear 12 1015 40 10000 5.7 270 17:41 16.11.2020
5422 Clear 11 1015 43 10000 3.6 280 17:19 16.11.2020
5423 Clear 11 1015 43 10000 3.6 280 16:51 16.11.2020
5424 Clear 11 1015 43 10000 3.6 280 16:26 16.11.2020
5425 Clear 10 1014 53 10000 6.7 270 15:47 16.11.2020
5426 Clear 10 1014 53 10000 6.7 270 15:28 16.11.2020
5427 Clear 9 1014 53 10000 7.7 270 14:53 16.11.2020
5428 Clear 9 1014 57 10000 7.7 270 13:59 16.11.2020
5429 Clear 9 1014 57 10000 7.7 270 13:21 16.11.2020
5430 Clear 9 1012 53 10000 6.2 270 12:32 16.11.2020
5431 Clouds 9 1012 45 10000 1.5 0 11:43 16.11.2020
5432 Clear 9 1012 52 10000 6.2 270 11:23 16.11.2020
5433 Clear 10 1011 43 10000 6.2 270 10:44 16.11.2020
5434 Clear 10 1011 43 10000 6.2 270 10:26 16.11.2020
5435 Clear 10 1011 40 10000 3.1 0 09:53 16.11.2020
5436 Clear 10 1011 40 10000 3.1 0 09:34 16.11.2020
5437 Clear 11 1010 52 10000 2.1 0 08:48 16.11.2020
5438 Clear 11 1010 51 10000 2.1 0 08:22 16.11.2020
5439 Clouds 12 1010 50 10000 5.7 260 07:34 16.11.2020
5440 Clouds 12 1008 50 10000 3.1 0 06:46 16.11.2020
5441 Clouds 13 1007 66 10000 8.63 272 05:49 16.11.2020
5442 Clouds 13 1007 82 10000 2.6 0 03:54 16.11.2020
5443 Rain 17 1006 77 10000 7.7 180 01:45 16.11.2020
5444 Clouds 17 1008 82 10000 6.2 180 00:42 16.11.2020
5445 Clouds 16 1009 77 10000 8.7 180 23:33 15.11.2020
5446 Clouds 15 1012 72 10000 5.1 130 22:58 15.11.2020
5447 Clouds 15 1012 72 10000 5.1 130 22:26 15.11.2020
5448 Clouds 14 1014 67 10000 5.7 160 21:56 15.11.2020
5449 Clouds 14 1014 67 10000 5.7 160 21:36 15.11.2020
5450 Clouds 14 1015 67 10000 6.2 160 21:18 15.11.2020
5451 Clouds 14 1015 67 10000 6.2 160 20:39 15.11.2020
5452 Clouds 13 1017 66 10000 7.7 170 19:57 15.11.2020
5453 Clouds 13 1017 66 10000 7.7 170 19:39 15.11.2020
5454 Clouds 13 1017 66 10000 7.7 170 19:39 15.11.2020
5455 Clouds 13 1017 66 10000 7.7 170 19:20 15.11.2020
5456 Clouds 13 1019 62 10000 6.2 180 18:45 15.11.2020
5457 Clouds 13 1019 62 10000 6.2 180 18:25 15.11.2020
5458 Clouds 13 1020 58 10000 6.2 140 17:58 15.11.2020
5459 Clouds 13 1020 58 10000 6.2 140 17:39 15.11.2020
5460 Clouds 13 1022 62 10000 5.1 180 17:20 15.11.2020
5461 Clouds 13 1022 62 10000 5.1 180 16:41 15.11.2020
5462 Clouds 11 1023 66 10000 3.6 30 16:19 15.11.2020
5463 Clouds 10 1023 66 10000 3.6 30 15:43 15.11.2020
5464 Clear 9 1023 70 10000 5.1 20 15:24 15.11.2020
5465 Clear 8 1023 70 10000 5.1 20 14:53 15.11.2020
5466 Clear 7 1023 70 10000 5.1 20 14:26 15.11.2020
5467 Clouds 6 1024 61 10000 4.1 20 13:44 15.11.2020
5468 Clouds 6 1024 61 10000 4.1 20 13:25 15.11.2020
5469 Clear 6 1024 61 10000 5.1 40 12:47 15.11.2020
5470 Clear 6 1024 59 10000 5.1 40 12:20 15.11.2020
5471 Clear 6 1024 65 10000 5.1 40 11:45 15.11.2020
5472 Clear 6 1025 65 10000 4.6 50 11:19 15.11.2020
5473 Clear 6 1025 65 10000 4.6 50 10:53 15.11.2020
5474 Clear 6 1025 65 10000 4.6 50 10:31 15.11.2020
5475 Clear 5 1025 65 10000 4.6 60 09:56 15.11.2020
5476 Clear 5 1025 65 10000 4.6 60 09:33 15.11.2020
5477 Clear 6 1025 65 10000 4.1 60 08:59 15.11.2020
5478 Clear 6 1025 65 10000 4.1 60 08:41 15.11.2020
5479 Clear 7 1025 55 10000 4.1 40 07:46 15.11.2020
5480 Clear 7 1025 61 10000 4.1 60 06:49 15.11.2020
5481 Clear 7 1025 57 10000 3.1 50 04:56 15.11.2020
5482 Clear 8 1024 46 10000 1.5 0 02:27 15.11.2020
5483 Clear 9 1023 40 10000 4.24 319 00:36 15.11.2020
5484 Clear 9 1023 39 10000 2.6 270 00:18 15.11.2020
5485 Clear 10 1023 39 10000 2.6 270 23:27 14.11.2020
5486 Clear 11 1022 37 10000 1.5 0 22:45 14.11.2020
5487 Clear 11 1022 37 10000 1.5 0 22:26 14.11.2020
5488 Clear 11 1021 37 10000 4.17 309 21:39 14.11.2020
5489 Clear 12 1021 37 10000 1.5 270 21:21 14.11.2020
5490 Clear 11 1021 37 10000 1.5 270 21:21 14.11.2020
5491 Clear 11 1021 37 10000 1.5 270 20:48 14.11.2020
5492 Clear 11 1022 37 10000 2.1 0 20:25 14.11.2020
5493 Clear 11 1022 37 10000 2.1 0 19:39 14.11.2020
5494 Clear 11 1022 39 10000 3.6 310 19:20 14.11.2020
5495 Clear 11 1022 39 10000 3.6 310 18:42 14.11.2020
5496 Clear 11 1022 39 10000 3.6 310 18:22 14.11.2020
5497 Clear 10 1022 42 10000 3.6 280 17:47 14.11.2020
5498 Clear 10 1022 42 10000 3.6 280 17:47 14.11.2020
5499 Clear 10 1022 42 10000 3.6 280 17:29 14.11.2020
5500 Clouds 10 1022 46 10000 6.7 300 16:53 14.11.2020
5501 Clouds 9 1022 46 10000 6.7 300 16:34 14.11.2020
5502 Clear 9 1022 57 10000 1.5 0 15:59 14.11.2020
5503 Clear 9 1022 61 10000 2.1 0 15:33 14.11.2020
5504 Clear 8 1021 66 10000 2.1 0 14:59 14.11.2020
5505 Clear 8 1021 66 10000 2.1 0 14:38 14.11.2020
5506 Clear 7 1021 75 10000 2.6 260 14:19 14.11.2020
5507 Clear 7 1021 75 10000 2.6 260 13:40 14.11.2020
5508 Clear 7 1021 75 10000 2.6 260 13:21 14.11.2020
5509 Clear 6 1020 70 10000 2.6 260 12:43 14.11.2020
5510 Clear 7 1020 70 10000 2.6 260 12:23 14.11.2020
5511 Clear 7 1019 70 10000 2.6 0 11:41 14.11.2020
5512 Clear 7 1019 70 10000 2.6 0 11:41 14.11.2020
5513 Clear 7 1019 70 10000 3.6 240 11:22 14.11.2020
5514 Clear 7 1019 70 10000 3.6 240 10:42 14.11.2020
5515 Clear 8 1018 66 10000 3.1 260 10:23 14.11.2020
5516 Clear 8 1018 66 10000 3.1 260 09:46 14.11.2020
5517 Clear 8 1018 66 10000 3.1 260 09:28 14.11.2020
5518 Clear 8 1018 66 10000 3.1 260 08:49 14.11.2020
5519 Clear 8 1018 66 10000 3.1 260 08:26 14.11.2020
5520 Clear 8 1017 70 10000 3.6 250 07:44 14.11.2020
5521 Clear 8 1017 70 10000 3.6 250 07:25 14.11.2020
5522 Clear 8 1017 76 10000 2.1 0 06:31 14.11.2020
5523 Clear 8 1017 87 10000 2.6 0 05:29 14.11.2020
5524 Clear 9 1016 81 10000 2.6 250 03:53 14.11.2020
5525 Clouds 10 1015 81 10000 1.5 270 00:56 14.11.2020
5526 Clear 10 1014 87 10000 1.5 290 23:47 13.11.2020
5527 Clear 10 1014 87 10000 1.5 290 23:25 13.11.2020
5528 Clouds 10 1014 87 10000 3.2 305 22:46 13.11.2020
5529 Clouds 10 1014 87 10000 3 308 22:26 13.11.2020
5530 Clouds 10 1014 87 10000 2.6 0 21:56 13.11.2020
5531 Clouds 10 1014 87 10000 3 308 21:37 13.11.2020
5532 Mist 10 1014 87 9656 3.6 320 21:19 13.11.2020
5533 Mist 9 1015 93 4023 5.1 300 20:42 13.11.2020
5534 Mist 9 1015 93 4023 5.1 300 20:22 13.11.2020
5535 Mist 9 1015 93 4023 5.1 300 20:22 13.11.2020
5536 Mist 9 1015 93 8047 1.5 0 19:46 13.11.2020
5537 Mist 9 1015 93 8047 1.5 0 19:23 13.11.2020
5538 Mist 9 1015 93 4828 1.5 10 18:56 13.11.2020
5539 Mist 9 1015 93 4828 1.5 10 18:25 13.11.2020
5540 Mist 9 1016 93 2816 2.1 0 17:43 13.11.2020
5541 Rain 9 1016 100 2012 1.5 0 17:19 13.11.2020
5542 Mist 9 1016 100 2012 1.5 0 16:49 13.11.2020
5543 Mist 9 1016 93 2012 2.1 0 16:24 13.11.2020
5544 Mist 9 1016 93 2012 2.1 0 15:50 13.11.2020
5545 Mist 9 1017 93 4023 1.5 90 15:27 13.11.2020
5546 Mist 9 1017 93 9656 5.7 40 14:50 13.11.2020
5547 Mist 9 1017 93 9656 5.7 40 14:25 13.11.2020
5548 Mist 9 1017 93 6437 4.6 30 13:53 13.11.2020
5549 Mist 9 1017 93 6437 4.6 30 13:27 13.11.2020
5550 Mist 9 1017 93 8047 3.6 30 12:51 13.11.2020
5551 Mist 9 1017 93 8047 3.6 30 12:25 13.11.2020
5552 Mist 9 1017 87 8047 4.6 40 11:52 13.11.2020
5553 Mist 9 1017 87 8047 4.6 40 11:33 13.11.2020
5554 Mist 9 1018 93 4828 2.1 70 10:59 13.11.2020
5555 Mist 9 1018 93 4828 3.1 20 10:40 13.11.2020
5556 Mist 9 1019 87 4023 2.6 50 10:22 13.11.2020
5557 Mist 9 1018 87 9656 4.6 30 09:44 13.11.2020
5558 Mist 9 1019 87 4023 2.6 50 09:24 13.11.2020
5559 Clouds 9 1019 76 10000 2.6 60 08:52 13.11.2020
5560 Clouds 9 1019 70 10000 2.6 0 08:21 13.11.2020
5561 Clouds 9 1019 70 10000 2.6 0 07:47 13.11.2020
5562 Clouds 9 1019 70 10000 2.6 0 07:26 13.11.2020
5563 Clouds 9 1019 70 10000 4.1 50 06:50 13.11.2020
5564 Clouds 9 1019 61 10000 2.1 0 06:20 13.11.2020
5565 Clouds 9 1019 61 10000 2.1 0 05:39 13.11.2020
5566 Clouds 9 1019 76 10000 4.1 40 02:22 13.11.2020
5567 Clouds 9 1019 76 10000 4.1 40 01:36 13.11.2020
5568 Clouds 9 1018 87 10000 3.1 0 00:34 13.11.2020
5569 Clouds 8 1018 93 10000 5.1 50 23:43 12.11.2020
5570 Rain 8 1018 93 10000 5.1 50 23:20 12.11.2020
5571 Mist 9 1018 87 6437 2.1 0 22:54 12.11.2020
5572 Clouds 9 1017 81 4828 4.1 30 22:36 12.11.2020
5573 Rain 9 1016 93 6437 4.6 30 21:57 12.11.2020
5574 Rain 9 1016 87 10000 7.2 20 21:38 12.11.2020
5575 Rain 10 1016 76 10000 5.1 40 21:18 12.11.2020
5576 Clouds 11 1016 76 10000 4.6 60 20:40 12.11.2020
5577 Clouds 11 1017 71 10000 4.6 350 20:22 12.11.2020
5578 Clouds 11 1017 71 10000 4.6 350 19:52 12.11.2020
5579 Clouds 11 1017 71 10000 4.6 350 19:33 12.11.2020
5580 Clouds 12 1016 76 10000 3.6 50 18:56 12.11.2020
5581 Clouds 12 1015 76 10000 4.1 60 18:37 12.11.2020
5582 Clouds 12 1015 76 10000 4.1 60 18:18 12.11.2020
5583 Clouds 13 1016 87 10000 3.6 30 17:39 12.11.2020
5584 Clouds 13 1015 93 10000 4.6 50 17:21 12.11.2020
5585 Clouds 13 1015 93 10000 4.6 50 16:44 12.11.2020
5586 Clouds 13 1015 93 10000 4.6 50 16:23 12.11.2020
5587 Mist 13 1015 93 6437 2.6 0 15:47 12.11.2020
5588 Clouds 13 1015 93 10000 6.7 40 15:27 12.11.2020
5589 Rain 14 1015 93 10000 3.6 50 14:47 12.11.2020
5590 Rain 14 1015 93 10000 3.6 50 14:47 12.11.2020
5591 Clouds 15 1015 93 10000 3.6 50 14:27 12.11.2020
5592 Rain 16 1013 100 4828 1.5 0 13:58 12.11.2020
5593 Rain 17 1013 93 2816 5.61 9 13:40 12.11.2020
5594 Rain 18 1013 100 10000 3.1 280 13:19 12.11.2020
5595 Rain 18 1013 100 10000 3.1 280 12:44 12.11.2020
5596 Rain 18 1013 100 10000 3.1 280 12:24 12.11.2020
5597 Rain 19 1012 93 4828 4.74 344 11:53 12.11.2020
5598 Rain 19 1012 93 2816 2.14 338 11:30 12.11.2020
5599 Rain 19 1012 93 10000 2.14 338 10:49 12.11.2020
5600 Rain 19 1013 100 1207 3.1 190 10:29 12.11.2020
5601 Mist 19 1012 100 6437 2.1 0 09:51 12.11.2020
5602 Rain 19 1012 100 6437 2.1 0 09:27 12.11.2020
5603 Rain 19 1013 100 10000 3.1 260 08:58 12.11.2020
5604 Rain 19 1013 100 10000 3.1 260 08:40 12.11.2020
5605 Rain 19 1013 100 10000 3.1 260 08:20 12.11.2020
5606 Rain 19 1013 100 10000 3.1 270 07:54 12.11.2020
5607 Clouds 19 1013 93 10000 4.1 270 07:31 12.11.2020
5608 Clouds 19 1013 93 10000 4.1 280 06:51 12.11.2020
5609 Clouds 19 1013 93 10000 4.1 280 06:22 12.11.2020
5610 Rain 19 1014 93 10000 2.6 300 03:45 12.11.2020
5611 Clouds 19 1014 93 10000 2.1 270 03:19 12.11.2020
5612 Rain 19 1015 93 10000 1.5 260 00:32 12.11.2020
5613 Rain 19 1015 93 10000 3.6 240 23:43 11.11.2020
5614 Rain 19 1015 93 10000 3.6 240 23:24 11.11.2020
5615 Rain 19 1015 93 10000 3.1 250 22:48 11.11.2020
5616 Rain 19 1015 93 10000 2.1 280 22:23 11.11.2020
5617 Rain 20 1015 88 10000 4.31 209 21:58 11.11.2020
5618 Rain 20 1015 88 10000 4.31 209 21:38 11.11.2020
5619 Rain 20 1015 88 10000 5.29 206 21:20 11.11.2020
5620 Rain 21 1015 83 10000 5.29 206 20:54 11.11.2020
5621 Rain 21 1015 83 10000 2.1 270 20:36 11.11.2020
5622 Clouds 21 1016 83 10000 2.1 0 20:18 11.11.2020
5623 Clouds 21 1016 83 10000 5.16 216 19:41 11.11.2020
5624 Clouds 21 1016 83 10000 4.89 216 19:22 11.11.2020
5625 Clouds 21 1017 83 10000 2.6 260 18:44 11.11.2020
5626 Clouds 21 1017 83 10000 2.6 260 18:26 11.11.2020
5627 Clouds 21 1018 88 10000 2.6 260 17:41 11.11.2020
5628 Clouds 21 1018 88 10000 2.6 260 17:21 11.11.2020
5629 Clouds 20 1018 93 10000 3.6 250 16:45 11.11.2020
5630 Clouds 20 1018 93 10000 3.6 250 16:27 11.11.2020
5631 Clouds 19 1019 88 10000 2.6 260 15:44 11.11.2020
5632 Clouds 19 1019 88 10000 2.6 260 15:26 11.11.2020
5633 Clouds 18 1018 93 10000 1.5 0 14:52 11.11.2020
5634 Clouds 18 1018 93 10000 1.5 0 14:52 11.11.2020
5635 Clouds 18 1018 93 10000 1.5 0 14:31 11.11.2020
5636 Clouds 18 1019 93 10000 3.1 280 13:52 11.11.2020
5637 Clouds 17 1019 93 10000 3.1 280 13:33 11.11.2020
5638 Clouds 17 1019 93 10000 2.6 280 12:41 11.11.2020
5639 Clouds 17 1019 88 10000 2.6 270 12:20 11.11.2020
5640 Clouds 17 1019 88 10000 2.6 270 11:49 11.11.2020
5641 Clouds 17 1019 88 10000 3.1 290 11:29 11.11.2020
5642 Clouds 17 1019 88 10000 3.1 290 10:41 11.11.2020
5643 Clouds 17 1019 88 10000 3.1 290 10:22 11.11.2020
5644 Clouds 17 1019 88 10000 3.1 290 09:46 11.11.2020
5645 Clear 17 1019 88 10000 2.6 290 09:28 11.11.2020
5646 Clear 17 1019 88 10000 4.6 300 08:46 11.11.2020
5647 Clear 17 1019 88 10000 4.6 300 08:27 11.11.2020
5648 Clear 17 1020 88 10000 3.6 280 07:51 11.11.2020
5649 Clear 17 1020 88 10000 3.6 280 07:30 11.11.2020
5650 Clear 17 1020 88 10000 4.1 280 06:27 11.11.2020
5651 Clear 18 1021 88 10000 2.1 270 04:32 11.11.2020
5652 Clear 19 1021 72 10000 4.02 192 01:32 11.11.2020
5653 Clouds 20 1021 64 10000 2.1 0 00:36 11.11.2020
5654 Clouds 20 1020 64 10000 2.91 204 23:55 10.11.2020
5655 Clear 22 1020 56 10000 3.1 260 23:24 10.11.2020
5656 Clear 22 1020 56 10000 3.1 260 22:57 10.11.2020
5657 Clear 22 1020 56 10000 3.1 260 22:28 10.11.2020
5658 Clouds 23 1021 56 10000 3.6 240 21:56 10.11.2020
5659 Clouds 23 1021 56 10000 3.6 240 21:38 10.11.2020
5660 Clouds 23 1021 56 10000 3.6 230 21:19 10.11.2020
5661 Clouds 23 1021 56 10000 3.6 230 20:42 10.11.2020
5662 Clouds 23 1021 56 10000 3.6 230 20:23 10.11.2020
5663 Clear 23 1021 56 10000 2.6 250 19:56 10.11.2020
5664 Clear 23 1021 56 10000 2.6 250 19:38 10.11.2020
5665 Clear 23 1021 56 10000 2.6 250 19:20 10.11.2020
5666 Clear 22 1022 64 10000 3.6 260 18:41 10.11.2020
5667 Clear 21 1022 64 10000 3.6 260 18:20 10.11.2020
5668 Clear 20 1023 68 10000 3.6 270 17:45 10.11.2020
5669 Clear 20 1023 68 10000 3.6 270 17:45 10.11.2020
5670 Clear 20 1023 68 10000 3.6 270 17:27 10.11.2020
5671 Clear 19 1024 72 10000 3.1 260 16:58 10.11.2020
5672 Clear 19 1024 72 10000 3.1 260 16:39 10.11.2020
5673 Clear 18 1024 72 10000 3.1 260 16:21 10.11.2020
5674 Clear 18 1024 77 10000 2.6 250 15:47 10.11.2020
5675 Clear 17 1024 77 10000 2.6 250 15:27 10.11.2020
5676 Clear 16 1024 87 10000 2.6 260 14:43 10.11.2020
5677 Clear 14 1024 93 10000 2.1 270 14:23 10.11.2020
5678 Clear 15 1024 93 10000 2.1 270 13:58 10.11.2020
5679 Clear 14 1024 93 10000 2.1 270 13:37 10.11.2020
5680 Clear 14 1024 93 10000 2.6 280 13:19 10.11.2020
5681 Clear 14 1024 93 10000 2.6 280 12:45 10.11.2020
5682 Clear 14 1024 93 10000 2.6 280 12:24 10.11.2020
5683 Clear 14 1024 77 10000 3.6 230 11:41 10.11.2020
5684 Clear 15 1024 82 10000 2.1 270 11:21 10.11.2020
5685 Clear 15 1024 82 10000 2.1 270 11:21 10.11.2020
5686 Clear 15 1024 82 10000 2.1 270 10:56 10.11.2020
5687 Clear 15 1024 82 10000 2.1 270 10:37 10.11.2020
5688 Clear 15 1024 82 10000 3.1 270 10:18 10.11.2020
5689 Clear 15 1024 82 10000 3.1 270 09:42 10.11.2020
5690 Clear 15 1024 82 10000 3.1 270 09:24 10.11.2020
5691 Clear 15 1024 82 10000 3.1 270 09:24 10.11.2020
5692 Clear 15 1024 82 10000 3.1 280 08:52 10.11.2020
5693 Clear 16 1024 82 10000 3.1 280 08:26 10.11.2020
5694 Clear 16 1024 77 10000 2.1 270 07:44 10.11.2020
5695 Clear 16 1024 77 10000 2.1 270 07:24 10.11.2020
5696 Clear 16 1025 77 10000 2.1 260 06:40 10.11.2020
5697 Clear 17 1025 72 10000 1.5 220 05:43 10.11.2020
5698 Clear 16 1025 68 10000 2.1 280 04:59 10.11.2020
5699 Clear 17 1025 63 10000 1.69 224 02:29 10.11.2020
5700 Clear 17 1026 63 10000 1.69 224 01:30 10.11.2020
5701 Clear 19 1025 56 10000 1.84 222 23:55 09.11.2020
5702 Clear 20 1025 56 10000 1.98 215 23:36 09.11.2020
5703 Clear 21 1025 41 10000 1.5 0 22:48 09.11.2020
5704 Clear 22 1025 41 10000 1.5 0 22:25 09.11.2020
5705 Clear 23 1025 34 10000 1.5 270 21:56 09.11.2020
5706 Clear 24 1025 34 10000 1.5 270 21:37 09.11.2020
5707 Clear 24 1025 36 10000 2.66 232 21:18 09.11.2020
5708 Clear 24 1025 36 10000 2.66 232 20:37 09.11.2020
5709 Clear 24 1025 36 10000 2.42 228 20:19 09.11.2020
5710 Clear 24 1026 38 10000 1.5 200 19:41 09.11.2020
5711 Clear 23 1026 38 10000 1.5 200 19:22 09.11.2020
5712 Clear 22 1027 46 10000 1.5 210 18:42 09.11.2020
5713 Clear 21 1027 55 10000 2.1 210 18:20 09.11.2020
5714 Clear 21 1027 55 10000 2.1 210 17:56 09.11.2020
5715 Clear 21 1028 40 10000 2.43 230 17:38 09.11.2020
5716 Clear 20 1027 55 10000 2.1 210 17:20 09.11.2020
5717 Clear 19 1028 48 10000 2.03 237 16:37 09.11.2020
5718 Clear 17 1028 71 10000 2.1 230 16:18 09.11.2020
5719 Clear 16 1028 71 10000 2.1 230 15:41 09.11.2020
5720 Clear 15 1028 76 10000 1.5 220 15:20 09.11.2020
5721 Clear 14 1028 76 10000 1.5 220 14:44 09.11.2020
5722 Clear 14 1028 76 10000 1.5 220 14:25 09.11.2020
5723 Clear 12 1028 81 10000 1.5 220 13:48 09.11.2020
5724 Clear 11 1028 81 10000 1.5 220 13:20 09.11.2020
5725 Clear 11 1028 87 10000 1.43 282 12:47 09.11.2020
5726 Clear 11 1028 87 10000 1.48 291 12:26 09.11.2020
5727 Clear 11 1028 81 10000 1.5 220 11:57 09.11.2020
5728 Clear 12 1028 81 10000 1.5 220 11:38 09.11.2020
5729 Clear 12 1028 76 10000 2.1 240 11:19 09.11.2020
5730 Clear 12 1028 76 10000 2.1 240 10:42 09.11.2020
5731 Clear 13 1028 76 10000 2.1 240 10:23 09.11.2020
5732 Clear 12 1028 76 10000 2.6 240 09:45 09.11.2020
5733 Clear 12 1028 76 10000 2.6 240 09:23 09.11.2020
5734 Clear 13 1028 62 10000 3.1 270 08:41 09.11.2020
5735 Clear 14 1028 62 10000 3.1 270 08:20 09.11.2020
5736 Clear 14 1027 71 10000 2.6 250 07:40 09.11.2020
5737 Clear 14 1028 82 10000 2.1 250 07:19 09.11.2020
5738 Clear 14 1028 82 10000 2.1 250 06:31 09.11.2020
5739 Clear 16 1028 63 10000 1.14 283 03:31 09.11.2020
5740 Clear 17 1028 45 10000 1.58 224 01:44 09.11.2020
5741 Clear 18 1028 42 10000 1.73 214 00:59 09.11.2020
5742 Clear 20 1028 46 10000 1.5 270 23:53 08.11.2020
5743 Clear 20 1028 46 10000 1.5 270 23:53 08.11.2020
5744 Clear 20 1028 46 10000 1.5 270 23:30 08.11.2020
5745 Clear 21 1028 36 10000 0.97 177 22:55 08.11.2020
5746 Clear 22 1028 36 10000 0.69 216 22:36 08.11.2020
5747 Clear 23 1028 40 10000 1.5 220 22:18 08.11.2020
5748 Clear 23 1028 40 10000 1.5 220 21:38 08.11.2020
5749 Clear 24 1028 38 10000 2.1 250 21:19 08.11.2020
5750 Clear 23 1028 38 10000 2.1 250 20:54 08.11.2020
5751 Clear 23 1028 38 10000 2.1 250 20:36 08.11.2020
5752 Clear 23 1028 35 10000 0.9 226 20:18 08.11.2020
5753 Clear 23 1028 35 10000 0.9 226 19:42 08.11.2020
5754 Clear 23 1028 35 10000 0.35 224 19:21 08.11.2020
5755 Clear 22 1028 37 10000 0.35 224 18:48 08.11.2020
5756 Clear 22 1028 37 10000 0.35 224 18:48 08.11.2020
5757 Clear 21 1029 45 10000 0.73 9 18:22 08.11.2020
5758 Clear 20 1029 55 10000 2.1 250 17:58 08.11.2020
5759 Clear 20 1029 55 10000 2.1 250 17:58 08.11.2020
5760 Clear 21 1029 45 10000 0.73 9 17:38 08.11.2020
5761 Clear 19 1029 63 10000 2.1 210 17:19 08.11.2020
5762 Clear 19 1029 63 10000 2.1 210 16:55 08.11.2020
5763 Clear 19 1029 63 10000 2.1 210 16:36 08.11.2020
5764 Clear 17 1029 67 10000 1.5 210 16:18 08.11.2020
5765 Clear 17 1029 67 10000 1.5 210 15:43 08.11.2020
5766 Clear 16 1029 67 10000 1.5 210 15:22 08.11.2020
5767 Clear 15 1029 71 10000 1.5 160 14:42 08.11.2020
5768 Clear 14 1029 71 10000 1.5 160 14:22 08.11.2020
5769 Clear 13 1028 76 10000 1.81 330 13:47 08.11.2020
5770 Clear 13 1028 76 10000 1.82 314 13:24 08.11.2020
5771 Clear 13 1027 76 10000 1.73 325 12:46 08.11.2020
5772 Clear 12 1027 76 10000 1.77 318 12:28 08.11.2020
5773 Clear 13 1027 71 10000 1.77 318 11:58 08.11.2020
5774 Clear 13 1027 71 10000 1.77 318 11:40 08.11.2020
5775 Clear 13 1027 71 10000 1.9 309 11:20 08.11.2020
5776 Clear 14 1026 62 10000 2.1 250 10:50 08.11.2020
5777 Clear 14 1026 62 10000 2.1 250 10:20 08.11.2020
5778 Clear 14 1026 58 10000 3.6 250 09:57 08.11.2020
5779 Clear 14 1026 58 10000 3.6 250 09:39 08.11.2020
5780 Clear 15 1026 67 10000 3.1 240 09:18 08.11.2020
5781 Clear 15 1026 67 10000 3.1 240 08:40 08.11.2020
5782 Clear 15 1026 67 10000 3.1 240 08:20 08.11.2020
5783 Clear 15 1026 67 10000 3.1 210 07:52 08.11.2020
5784 Clear 16 1026 67 10000 3.1 210 07:29 08.11.2020
5785 Clear 15 1026 67 10000 3.1 210 06:24 08.11.2020
5786 Clear 16 1025 51 10000 3.1 260 05:53 08.11.2020
5787 Clear 17 1025 48 10000 3.1 240 04:50 08.11.2020
5788 Clear 17 1025 42 10000 2.6 270 01:54 08.11.2020
5789 Clear 19 1025 40 10000 2.1 250 01:19 08.11.2020
5790 Clear 19 1025 40 10000 2.1 250 00:30 08.11.2020
5791 Clear 20 1024 35 10000 2.6 240 23:50 07.11.2020
5792 Clear 20 1025 37 10000 1.5 210 23:30 07.11.2020
5793 Clear 22 1024 36 10000 3.1 260 22:47 07.11.2020
5794 Clear 23 1024 36 10000 3.1 260 22:28 07.11.2020
5795 Clear 23 1024 33 10000 2.1 250 21:56 07.11.2020
5796 Clear 23 1024 33 10000 2.1 250 21:38 07.11.2020
5797 Clear 24 1024 33 10000 2.1 240 21:19 07.11.2020
5798 Clear 24 1024 33 10000 2.1 240 20:45 07.11.2020
5799 Clear 24 1024 33 10000 2.1 240 20:26 07.11.2020
5800 Clear 23 1024 38 10000 1.5 210 19:45 07.11.2020
5801 Clear 23 1025 43 10000 2.69 258 19:27 07.11.2020
5802 Clear 22 1025 43 10000 2.69 258 18:43 07.11.2020
5803 Clear 22 1025 43 10000 2.51 264 18:25 07.11.2020
5804 Clear 21 1026 42 10000 1.5 0 17:48 07.11.2020
5805 Clear 20 1026 52 10000 2.6 250 17:29 07.11.2020
5806 Clear 19 1026 45 10000 2.1 280 16:46 07.11.2020
5807 Clear 19 1026 59 10000 3.1 250 16:26 07.11.2020
5808 Clear 18 1026 62 10000 3.1 220 15:58 07.11.2020
5809 Clear 17 1026 62 10000 3.1 220 15:40 07.11.2020
5810 Clear 16 1026 66 10000 4.1 270 15:20 07.11.2020
5811 Clear 15 1026 66 10000 4.1 270 14:43 07.11.2020
5812 Clear 14 1026 66 10000 4.1 270 14:24 07.11.2020
5813 Clear 14 1025 66 10000 3.1 260 13:52 07.11.2020
5814 Clear 13 1025 66 10000 3.1 260 13:30 07.11.2020
5815 Clear 13 1025 66 10000 3.1 280 12:47 07.11.2020
5816 Clear 13 1025 66 10000 3.1 280 12:25 07.11.2020
5817 Clear 13 1024 66 10000 3.6 280 11:43 07.11.2020
5818 Clear 14 1024 66 10000 3.6 280 11:22 07.11.2020
5819 Clear 13 1024 71 10000 2.6 250 10:45 07.11.2020
5820 Clear 13 1024 71 10000 2.6 250 10:27 07.11.2020
5821 Clear 13 1024 71 10000 2.1 230 09:54 07.11.2020
5822 Clear 13 1024 71 10000 2.1 230 09:36 07.11.2020
5823 Clear 14 1024 67 10000 3.1 210 08:55 07.11.2020
5824 Clear 14 1024 67 10000 3.1 210 08:36 07.11.2020
5825 Clear 14 1024 67 10000 3.1 210 08:36 07.11.2020
5826 Clear 15 1024 59 10000 2.1 250 07:55 07.11.2020
5827 Clear 15 1024 59 10000 2.1 250 07:31 07.11.2020
5828 Clear 14 1024 59 10000 2.6 260 06:47 07.11.2020
5829 Clear 15 1024 55 10000 3.1 260 05:37 07.11.2020
5830 Clear 16 1024 55 10000 3.1 270 03:24 07.11.2020
5831 Clear 17 1024 52 10000 2.1 230 01:43 07.11.2020
5832 Clear 17 1024 52 10000 2.1 230 01:24 07.11.2020
5833 Clear 18 1023 48 10000 3.6 280 00:27 07.11.2020
5834 Clear 19 1023 43 10000 2.6 260 23:25 06.11.2020
5835 Clear 20 1023 40 10000 2.6 250 22:45 06.11.2020
5836 Clear 20 1023 40 10000 2.6 250 22:45 06.11.2020
5837 Clear 21 1023 40 10000 2.6 260 22:20 06.11.2020
5838 Clear 21 1023 40 10000 2.6 260 21:58 06.11.2020
5839 Clear 21 1023 40 10000 2.6 260 21:40 06.11.2020
5840 Clear 22 1023 43 10000 2.6 250 21:18 06.11.2020
5841 Clear 22 1023 43 10000 2.6 250 20:43 06.11.2020
5842 Clear 22 1024 46 10000 2.6 240 20:19 06.11.2020
5843 Clear 22 1024 46 10000 2.6 240 19:45 06.11.2020
5844 Clear 21 1024 46 10000 2.6 240 19:26 06.11.2020
5845 Clear 20 1025 59 10000 2.6 240 18:47 06.11.2020
5846 Clear 20 1025 59 10000 2.6 240 18:28 06.11.2020
5847 Clear 19 1025 67 10000 3.1 260 17:52 06.11.2020
5848 Clear 18 1025 67 10000 3.1 260 17:34 06.11.2020
5849 Clear 17 1026 77 10000 2.1 260 16:59 06.11.2020
5850 Clear 17 1026 77 10000 2.1 260 16:37 06.11.2020
5851 Clear 16 1026 77 10000 2.1 260 16:19 06.11.2020
5852 Clear 15 1027 82 10000 2.6 260 15:41 06.11.2020
5853 Clear 14 1027 82 10000 2.6 260 15:22 06.11.2020
5854 Clear 13 1027 87 10000 3.1 230 14:41 06.11.2020
5855 Clear 13 1027 87 10000 3.1 230 14:18 06.11.2020
5856 Clear 13 1026 82 10000 3.6 260 13:42 06.11.2020
5857 Clear 13 1026 87 10000 3.1 280 13:19 06.11.2020
5858 Clear 13 1026 87 10000 3.1 280 12:42 06.11.2020
5859 Clear 13 1026 87 10000 3.1 280 12:22 06.11.2020
5860 Clear 12 1026 87 10000 3.1 260 11:38 06.11.2020
5861 Clear 12 1026 87 10000 3.1 280 10:59 06.11.2020
5862 Clear 13 1026 87 10000 3.1 280 10:36 06.11.2020
5863 Clear 13 1026 87 10000 2.6 270 10:18 06.11.2020
5864 Clear 12 1026 87 10000 2.6 270 09:41 06.11.2020
5865 Clear 13 1027 82 10000 2.1 220 09:21 06.11.2020
5866 Clear 13 1027 82 10000 2.1 220 08:47 06.11.2020
5867 Clear 13 1027 82 10000 2.1 220 08:28 06.11.2020
5868 Clear 13 1027 82 10000 2.1 250 07:44 06.11.2020
5869 Clear 13 1027 82 10000 2.6 260 07:21 06.11.2020
5870 Clear 13 1027 82 10000 2.6 260 06:42 06.11.2020
5871 Clear 14 1027 77 10000 2.6 270 05:40 06.11.2020
5872 Clear 15 1028 63 10000 3.1 280 02:53 06.11.2020
5873 Clear 15 1028 67 10000 4.96 209 00:35 06.11.2020
5874 Clear 16 1027 72 10000 4.98 208 23:57 05.11.2020
5875 Clear 17 1028 63 10000 1.5 140 23:26 05.11.2020
5876 Clear 17 1028 63 10000 1.5 140 22:49 05.11.2020
5877 Clear 18 1028 63 10000 1.5 140 22:26 05.11.2020
5878 Clear 19 1028 52 10000 2.1 190 21:59 05.11.2020
5879 Clear 19 1028 52 10000 2.1 190 21:41 05.11.2020
5880 Clear 19 1028 52 10000 2.1 190 21:21 05.11.2020
5881 Clear 20 1028 49 10000 3.1 240 20:44 05.11.2020
5882 Clear 20 1028 49 10000 3.1 240 20:25 05.11.2020
5883 Clear 20 1029 52 10000 4.1 230 19:58 05.11.2020
5884 Clear 20 1029 52 10000 4.1 230 19:40 05.11.2020
5885 Clear 19 1029 63 10000 2.1 270 19:20 05.11.2020
5886 Clear 19 1029 63 10000 2.1 270 18:42 05.11.2020
5887 Clear 18 1030 72 10000 2.6 0 18:23 05.11.2020
5888 Clear 18 1030 72 10000 2.6 0 17:51 05.11.2020
5889 Clear 16 1030 72 10000 2.6 0 17:27 05.11.2020
5890 Clear 15 1031 87 10000 2.6 260 16:53 05.11.2020
5891 Clear 14 1031 87 10000 2.6 260 16:29 05.11.2020
5892 Clouds 13 1031 87 10000 2.6 0 15:59 05.11.2020
5893 Mist 13 1031 93 6437 3.1 260 15:40 05.11.2020
5894 Mist 13 1031 93 6437 3.1 260 15:21 05.11.2020
5895 Mist 12 1031 93 6437 2.6 260 14:44 05.11.2020
5896 Mist 11 1031 93 6437 2.6 260 14:24 05.11.2020
5897 Clouds 11 1031 87 10000 2.1 270 13:42 05.11.2020
5898 Clouds 11 1031 87 10000 2.1 270 13:23 05.11.2020
5899 Clouds 11 1031 81 10000 2.6 270 12:48 05.11.2020
5900 Clouds 11 1031 81 10000 2.6 270 12:24 05.11.2020
5901 Clouds 11 1031 81 10000 2.1 270 11:49 05.11.2020
5902 Clouds 11 1031 87 10000 2.1 260 11:26 05.11.2020
5903 Clouds 11 1031 87 10000 2.1 260 10:53 05.11.2020
5904 Clear 11 1031 87 10000 2.1 250 10:32 05.11.2020
5905 Clear 11 1031 81 10000 1.5 0 09:59 05.11.2020
5906 Clear 11 1031 81 10000 1.5 0 09:41 05.11.2020
5907 Clear 11 1031 81 10000 3.1 270 09:21 05.11.2020
5908 Clear 11 1031 81 10000 3.1 270 08:43 05.11.2020
5909 Clear 11 1031 81 10000 3.1 270 08:25 05.11.2020
5910 Clear 11 1031 81 10000 3.6 250 07:29 05.11.2020
5911 Clear 12 1032 71 10000 3.1 260 06:52 05.11.2020
5912 Clear 12 1032 71 10000 3.1 260 06:34 05.11.2020
5913 Clear 12 1032 71 10000 3.6 280 05:22 05.11.2020
5914 Clear 14 1031 58 10000 4.6 240 01:23 05.11.2020
5915 Clear 14 1031 67 10000 4.04 199 00:30 05.11.2020
5916 Clear 15 1031 58 10000 4.04 199 23:44 04.11.2020
5917 Clear 15 1031 51 10000 3.22 190 23:25 04.11.2020
5918 Clear 16 1031 51 10000 3.22 190 22:48 04.11.2020
5919 Clear 17 1031 51 10000 3.3 186 22:24 04.11.2020
5920 Clear 16 1031 51 10000 3.3 186 22:24 04.11.2020
5921 Clear 17 1031 48 10000 2.1 170 21:57 04.11.2020
5922 Clear 17 1031 48 10000 2.1 170 21:37 04.11.2020
5923 Clear 17 1031 44 10000 3.62 187 21:18 04.11.2020
5924 Clear 17 1031 44 10000 3.62 187 20:42 04.11.2020
5925 Clear 17 1031 44 10000 3.74 187 20:24 04.11.2020
5926 Clear 17 1031 45 10000 2.6 240 19:48 04.11.2020
5927 Clear 17 1031 45 10000 2.6 240 19:29 04.11.2020
5928 Clear 16 1031 44 10000 1.5 0 18:55 04.11.2020
5929 Clear 16 1031 44 10000 1.5 0 18:37 04.11.2020
5930 Clear 14 1032 58 10000 1.5 250 18:18 04.11.2020
5931 Clear 14 1032 58 10000 1.5 250 17:40 04.11.2020
5932 Clear 13 1032 58 10000 1.5 250 17:21 04.11.2020
5933 Clear 12 1032 58 10000 3 214 16:38 04.11.2020
5934 Clear 11 1032 58 10000 2.43 225 16:20 04.11.2020
5935 Clear 10 1032 62 10000 3.1 60 15:47 04.11.2020
5936 Clear 9 1031 70 10000 2.1 60 15:25 04.11.2020
5937 Clear 8 1031 70 10000 2.1 60 14:59 04.11.2020
5938 Clear 7 1031 70 10000 2.1 60 14:41 04.11.2020
5939 Clear 7 1031 65 10000 4.1 30 14:21 04.11.2020
5940 Clear 6 1031 65 10000 4.1 30 13:45 04.11.2020
5941 Clear 6 1031 65 10000 4.1 30 13:20 04.11.2020
5942 Clear 5 1030 64 10000 5.7 20 12:53 04.11.2020
5943 Clear 6 1030 62 10000 5.7 20 12:27 04.11.2020
5944 Clear 5 1030 56 10000 4.6 30 11:56 04.11.2020
5945 Clear 5 1030 56 10000 4.6 30 11:38 04.11.2020
5946 Clear 6 1030 56 10000 4.6 30 11:20 04.11.2020
5947 Clear 6 1030 56 10000 5.7 20 10:46 04.11.2020
5948 Clear 6 1030 56 10000 5.7 20 10:22 04.11.2020
5949 Clear 6 1029 56 10000 5.7 30 09:53 04.11.2020
5950 Clear 6 1029 56 10000 5.7 30 09:23 04.11.2020
5951 Clear 6 1029 59 10000 5.1 40 08:46 04.11.2020
5952 Clear 6 1028 61 10000 5.1 50 08:20 04.11.2020
5953 Clear 6 1028 61 10000 5.1 50 07:50 04.11.2020
5954 Clear 7 1028 61 10000 5.1 50 07:28 04.11.2020
5955 Clear 7 1028 52 10000 2.6 120 06:55 04.11.2020
5956 Clear 7 1028 52 10000 2.6 120 06:36 04.11.2020
5957 Clouds 9 1026 57 10000 2.6 0 03:55 04.11.2020
5958 Clouds 10 1025 53 10000 1.5 0 02:24 04.11.2020
5959 Clouds 11 1022 46 10000 1.5 0 00:43 04.11.2020
5960 Clouds 11 1021 46 10000 4.13 318 23:48 03.11.2020
5961 Clouds 11 1021 46 10000 4.66 315 23:24 03.11.2020
5962 Clear 11 1021 51 10000 5.1 320 22:42 03.11.2020
5963 Clouds 12 1019 43 10000 1.5 0 22:21 03.11.2020
5964 Clouds 12 1019 43 10000 1.5 0 21:59 03.11.2020
5965 Clouds 12 1019 43 10000 1.5 0 21:41 03.11.2020
5966 Clouds 12 1019 43 10000 1.5 0 21:21 03.11.2020
5967 Clouds 12 1018 47 10000 1.5 0 20:45 03.11.2020
5968 Clouds 12 1018 47 10000 1.5 0 20:26 03.11.2020
5969 Clouds 12 1017 47 10000 1.5 0 19:45 03.11.2020
5970 Clouds 12 1017 47 10000 1.5 0 19:27 03.11.2020
5971 Clouds 12 1016 50 10000 2.1 0 18:57 03.11.2020
5972 Clouds 12 1016 50 10000 2.1 0 18:38 03.11.2020
5973 Clouds 11 1016 50 10000 2.1 0 18:18 03.11.2020
5974 Clouds 11 1016 50 10000 2.1 0 17:43 03.11.2020
5975 Clear 11 1015 55 10000 6.2 260 17:25 03.11.2020
5976 Clear 10 1015 55 10000 6.2 260 16:45 03.11.2020
5977 Clear 10 1015 52 10000 6.2 260 16:25 03.11.2020
5978 Clouds 9 1014 45 10000 8.7 270 15:52 03.11.2020
5979 Clouds 9 1014 45 10000 8.7 270 15:29 03.11.2020
5980 Clear 8 1014 49 10000 9.3 270 14:54 03.11.2020
5981 Clear 7 1014 49 10000 9.3 270 14:33 03.11.2020
5982 Clear 6 1013 48 10000 8.7 260 13:59 03.11.2020
5983 Clear 6 1013 48 10000 8.7 260 13:40 03.11.2020
5984 Clear 6 1012 48 10000 8.2 260 13:20 03.11.2020
5985 Clear 6 1012 48 10000 8.2 260 12:44 03.11.2020
5986 Clear 5 1011 48 10000 8.7 260 12:21 03.11.2020
5987 Clear 6 1011 48 10000 8.7 260 11:46 03.11.2020
5988 Clear 5 1011 52 10000 8.2 260 11:22 03.11.2020
5989 Clear 5 1011 52 10000 8.2 260 10:55 03.11.2020
5990 Clear 5 1011 52 10000 8.2 260 10:36 03.11.2020
5991 Clear 5 1011 52 10000 8.2 260 10:18 03.11.2020
5992 Clear 5 1011 52 10000 8.2 260 09:44 03.11.2020
5993 Clear 4 1011 52 10000 8.2 260 09:20 03.11.2020
5994 Clear 5 1011 52 10000 7.7 260 08:45 03.11.2020
5995 Clear 4 1012 52 10000 8.7 260 08:26 03.11.2020
5996 Clear 4 1012 52 10000 8.7 260 07:37 03.11.2020
5997 Clear 4 1012 56 10000 7.7 260 06:53 03.11.2020
5998 Clear 4 1012 56 10000 7.7 260 06:21 03.11.2020
5999 Clear 5 1014 56 10000 8.2 260 03:59 03.11.2020
6000 Clear 6 1014 33 10000 3.6 280 00:44 03.11.2020
6001 Clear 6 1013 30 10000 4.6 290 00:20 03.11.2020
6002 Clear 6 1013 30 10000 4.6 290 23:42 02.11.2020
6003 Clear 7 1013 28 10000 3.6 290 23:20 02.11.2020
6004 Clear 7 1013 28 10000 3.6 290 22:43 02.11.2020
6005 Clear 7 1012 28 10000 4.1 280 22:23 02.11.2020
6006 Clear 7 1012 28 10000 4.1 280 21:39 02.11.2020
6007 Clear 7 1012 26 10000 6.7 290 21:20 02.11.2020
6008 Clear 7 1012 26 10000 6.7 290 20:55 02.11.2020
6009 Clear 7 1012 26 10000 6.7 290 20:37 02.11.2020
6010 Clear 7 1011 30 10000 5.1 280 20:18 02.11.2020
6011 Clear 7 1011 30 10000 5.1 280 19:42 02.11.2020
6012 Clear 7 1011 30 10000 5.1 280 19:24 02.11.2020
6013 Clouds 6 1011 41 10000 5.1 290 18:42 02.11.2020
6014 Clouds 6 1011 41 10000 9.3 290 18:21 02.11.2020
6015 Clouds 7 1010 48 10000 3.6 330 17:57 02.11.2020
6016 Clouds 6 1010 48 10000 3.6 330 17:39 02.11.2020
6017 Clouds 6 1010 48 10000 3.6 330 17:20 02.11.2020
6018 Clouds 6 1010 41 10000 8.7 280 16:41 02.11.2020
6019 Clouds 5 1010 41 10000 5.7 290 16:23 02.11.2020
6020 Clouds 5 1010 41 10000 5.7 290 15:41 02.11.2020
6021 Clouds 5 1009 56 10000 7.2 280 15:22 02.11.2020
6022 Clouds 5 1009 56 10000 7.2 280 14:54 02.11.2020
6023 Clear 5 1007 60 10000 4.6 270 14:20 02.11.2020
6024 Clear 4 1007 60 10000 4.6 270 13:56 02.11.2020
6025 Clear 4 1007 60 10000 4.6 270 13:38 02.11.2020
6026 Clouds 4 1007 65 10000 7.2 270 13:19 02.11.2020
6027 Clouds 4 1007 65 10000 7.2 270 12:31 02.11.2020
6028 Clouds 4 1007 65 10000 7.2 260 11:59 02.11.2020
6029 Clouds 4 1007 65 10000 7.2 260 11:59 02.11.2020
6030 Clouds 4 1007 65 10000 7.2 260 11:38 02.11.2020
6031 Clouds 4 1007 60 10000 6.7 260 11:19 02.11.2020
6032 Clouds 4 1007 60 10000 6.7 260 10:43 02.11.2020
6033 Clouds 4 1007 60 10000 6.7 260 10:22 02.11.2020
6034 Clouds 4 1007 55 10000 5.7 290 09:51 02.11.2020
6035 Clouds 4 1007 55 10000 5.7 290 09:24 02.11.2020
6036 Clear 5 1007 52 10000 1.5 0 08:46 02.11.2020
6037 Clear 5 1007 56 10000 1.5 0 08:27 02.11.2020
6038 Clear 5 1007 56 10000 1.5 0 07:53 02.11.2020
6039 Clouds 6 1007 56 10000 4.1 290 07:25 02.11.2020
6040 Clear 7 1007 61 10000 8.09 300 06:36 02.11.2020
6041 Clouds 8 1007 61 10000 5.7 300 04:55 02.11.2020
6042 Clouds 12 1006 93 10000 1.5 0 01:26 02.11.2020
6043 Clouds 12 1005 93 10000 4.1 250 00:36 02.11.2020
6044 Clouds 12 1007 93 10000 3.1 210 23:55 01.11.2020
6045 Clouds 12 1007 93 10000 3.1 210 23:36 01.11.2020
6046 Clouds 12 1007 87 10000 4.1 210 23:18 01.11.2020
6047 Rain 12 1007 87 10000 4.1 210 22:38 01.11.2020
6048 Rain 12 1007 87 10000 4.1 210 22:18 01.11.2020
6049 Rain 12 1010 93 10000 5.7 200 21:41 01.11.2020
6050 Rain 12 1010 93 10000 5.7 200 21:23 01.11.2020
6051 Rain 12 1012 81 10000 2.6 200 20:45 01.11.2020
6052 Rain 12 1012 81 10000 2.6 200 20:25 01.11.2020
6053 Rain 12 1014 87 6437 1.5 0 19:46 01.11.2020
6054 Rain 12 1014 87 6437 1.5 0 19:28 01.11.2020
6055 Rain 12 1015 66 10000 4.6 190 18:57 01.11.2020
6056 Rain 12 1015 66 10000 4.6 190 18:37 01.11.2020
6057 Rain 12 1015 66 10000 4.6 190 18:18 01.11.2020
6058 Clouds 13 1017 66 10000 5.1 190 17:43 01.11.2020
6059 Clouds 13 1017 66 10000 5.1 190 17:25 01.11.2020
6060 Clouds 13 1018 62 10000 5.1 200 16:45 01.11.2020
6061 Clouds 13 1018 62 10000 5.1 200 16:26 01.11.2020
6062 Clouds 12 1020 66 10000 6.7 200 15:57 01.11.2020
6063 Clouds 12 1020 66 10000 6.7 200 15:38 01.11.2020
6064 Clouds 12 1020 66 10000 6.7 200 15:38 01.11.2020
6065 Clouds 11 1020 66 10000 6.7 200 15:18 01.11.2020
6066 Clouds 11 1022 66 10000 4.6 200 14:45 01.11.2020
6067 Clouds 10 1022 71 10000 4.1 200 14:22 01.11.2020
6068 Clouds 10 1022 71 10000 4.1 200 13:57 01.11.2020
6069 Clouds 10 1022 71 10000 4.1 200 13:39 01.11.2020
6070 Clouds 9 1022 71 10000 4.1 200 13:20 01.11.2020
6071 Clouds 9 1023 62 10000 4.6 200 12:40 01.11.2020
6072 Clouds 9 1025 57 10000 2.1 0 12:19 01.11.2020
6073 Clouds 8 1025 57 10000 2.1 0 11:48 01.11.2020
6074 Clouds 8 1025 57 10000 2.1 0 11:18 01.11.2020
6075 Clouds 8 1026 57 10000 4.1 200 10:42 01.11.2020
6076 Clouds 7 1026 57 10000 4.1 200 10:24 01.11.2020
6077 Clouds 7 1027 61 10000 6.2 200 09:49 01.11.2020
6078 Clouds 7 1027 61 10000 6.2 200 09:27 01.11.2020
6079 Clouds 7 1028 65 10000 4.6 220 08:44 01.11.2020
6080 Clouds 6 1028 65 10000 4.6 220 08:18 01.11.2020
6081 Clear 6 1029 65 10000 4.6 230 07:21 01.11.2020
6082 Clouds 7 1031 61 10000 5.1 230 03:25 01.11.2020
6083 Clouds 7 1032 57 10000 2.99 172 01:42 01.11.2020
6084 Clear 7 1033 65 10000 2.6 150 00:22 01.11.2020
6085 Clear 6 1033 60 10000 1.5 0 23:24 31.10.2020
6086 Clear 7 1033 52 10000 3.33 164 22:45 31.10.2020
6087 Clear 7 1033 52 10000 1.5 0 22:25 31.10.2020
6088 Clear 7 1033 52 10000 3.15 160 22:25 31.10.2020
6089 Clear 8 1033 52 10000 1.5 0 21:47 31.10.2020
6090 Clear 8 1033 52 10000 1.5 0 21:26 31.10.2020
6091 Clear 8 1033 49 10000 1.5 210 20:59 31.10.2020
6092 Clear 8 1033 49 10000 1.5 210 20:38 31.10.2020
6093 Clear 8 1034 45 10000 2.6 0 20:18 31.10.2020
6094 Clear 8 1034 45 10000 2.6 0 19:40 31.10.2020
6095 Clear 8 1034 45 10000 2.6 0 19:20 31.10.2020
6096 Clear 7 1035 49 10000 2.6 250 18:47 31.10.2020
6097 Clear 7 1035 45 10000 1.62 72 18:23 31.10.2020
6098 Clear 7 1035 45 10000 1.62 72 17:40 31.10.2020
6099 Clouds 6 1035 52 10000 3.1 90 17:22 31.10.2020
6100 Clear 6 1035 60 10000 2.6 0 16:43 31.10.2020
6101 Clear 5 1035 74 10000 2.1 0 16:25 31.10.2020
6102 Clear 4 1035 74 10000 2.1 0 15:45 31.10.2020
6103 Clear 4 1035 74 10000 2.1 0 15:25 31.10.2020
6104 Clear 3 1034 74 10000 1.5 0 14:51 31.10.2020
6105 Clear 2 1034 74 10000 1.5 0 14:31 31.10.2020
6106 Clear 2 1033 86 10000 4.36 22 13:50 31.10.2020
6107 Clear 1 1033 86 10000 4.31 17 13:27 31.10.2020
6108 Clear 1 1032 86 10000 2.6 50 12:43 31.10.2020
6109 Clear 1 1031 80 10000 3.1 40 12:19 31.10.2020
6110 Clear 1 1031 80 10000 1.5 290 11:39 31.10.2020
6111 Clear 1 1030 80 10000 2.1 0 11:21 31.10.2020
6112 Clear 1 1030 80 10000 2.1 0 10:37 31.10.2020
6113 Clear 1 1029 74 10000 2.7 352 09:56 31.10.2020
6114 Clear 1 1029 74 10000 2.7 352 09:37 31.10.2020
6115 Clear 2 1029 80 10000 2.1 0 09:18 31.10.2020
6116 Clear 2 1029 73 10000 3.1 0 08:22 31.10.2020
6117 Clear 2 1028 80 10000 3.88 337 07:29 31.10.2020
6118 Clear 3 1027 86 10000 2.1 0 06:57 31.10.2020
6119 Clear 3 1027 86 10000 2.1 0 06:36 31.10.2020
6120 Clear 3 1025 80 10000 3.1 360 03:48 31.10.2020
6121 Clouds 4 1023 80 10000 2.6 10 02:39 31.10.2020
6122 Clouds 4 1022 86 10000 2.6 0 00:55 31.10.2020
6123 Clouds 5 1020 86 10000 3.14 347 23:56 30.10.2020
6124 Clouds 5 1020 86 10000 3.14 347 23:31 30.10.2020
6125 Clouds 6 1018 75 10000 3.1 30 22:59 30.10.2020
6126 Rain 6 1018 75 10000 3.1 30 22:38 30.10.2020
6127 Rain 6 1018 75 10000 3.1 30 22:20 30.10.2020
6128 Clouds 6 1017 70 10000 2.6 0 21:49 30.10.2020
6129 Clouds 6 1017 70 10000 2.6 0 21:26 30.10.2020
6130 Clouds 6 1016 80 10000 2.6 0 20:45 30.10.2020
6131 Clouds 6 1016 86 10000 2.6 360 20:27 30.10.2020
6132 Clouds 5 1016 86 10000 2.6 360 19:59 30.10.2020
6133 Clouds 5 1015 81 10000 7.2 360 19:40 30.10.2020
6134 Clouds 5 1014 86 10000 2.6 10 19:18 30.10.2020
6135 Clouds 5 1014 86 10000 2.6 10 18:42 30.10.2020
6136 Rain 4 1014 93 10000 4.6 10 18:23 30.10.2020
6137 Rain 4 1014 93 10000 4.6 10 17:47 30.10.2020
6138 Rain 4 1013 93 10000 4.1 10 17:22 30.10.2020
6139 Rain 4 1013 93 10000 5.1 60 16:52 30.10.2020
6140 Rain 4 1013 93 10000 5.1 60 16:25 30.10.2020
6141 Rain 3 1011 93 9656 4.1 20 15:56 30.10.2020
6142 Rain 4 1011 93 9656 4.1 20 15:37 30.10.2020
6143 Rain 4 1011 93 8047 5.1 20 15:18 30.10.2020
6144 Mist 4 1010 86 4828 5.1 40 14:42 30.10.2020
6145 Rain 4 1008 93 6437 6.2 20 14:23 30.10.2020
6146 Rain 4 1008 93 6437 6.2 20 13:44 30.10.2020
6147 Rain 5 1006 87 6437 5.1 30 13:20 30.10.2020
6148 Rain 5 1006 87 6437 5.1 30 12:49 30.10.2020
6149 Rain 6 1005 93 10000 8.2 40 12:22 30.10.2020
6150 Rain 6 1005 93 10000 8.2 40 11:56 30.10.2020
6151 Rain 6 1005 93 10000 8.2 40 11:22 30.10.2020
6152 Rain 7 1005 87 9656 4.6 30 10:50 30.10.2020
6153 Rain 7 1005 87 9656 4.6 30 10:26 30.10.2020
6154 Rain 7 1005 93 10000 6.2 50 09:57 30.10.2020
6155 Rain 7 1005 93 10000 6.2 50 09:38 30.10.2020
6156 Rain 7 1006 93 4828 4.1 20 09:19 30.10.2020
6157 Rain 7 1006 93 4828 4.1 20 09:19 30.10.2020
6158 Rain 7 1006 93 4828 4.1 20 08:32 30.10.2020
6159 Rain 8 1006 93 4023 3.6 20 07:58 30.10.2020
6160 Mist 8 1005 93 8047 3.6 20 07:40 30.10.2020
6161 Mist 8 1005 93 8047 3.6 20 07:21 30.10.2020
6162 Rain 8 1005 93 10000 3.6 50 06:19 30.10.2020
6163 Mist 8 1004 93 8047 5.7 30 04:23 30.10.2020
6164 Mist 9 1003 93 9656 4.6 30 01:28 30.10.2020
6165 Rain 9 1002 87 8047 6.7 50 00:31 30.10.2020
6166 Rain 9 1000 93 8047 10.3 30 23:46 29.10.2020
6167 Rain 9 1000 93 8047 10.3 30 23:28 29.10.2020
6168 Mist 10 1002 93 3219 4.6 40 22:48 29.10.2020
6169 Rain 10 1002 93 3219 4.6 40 22:27 29.10.2020
6170 Rain 10 1002 93 3219 4.1 50 21:51 29.10.2020
6171 Rain 10 1003 93 4828 5.7 50 21:26 29.10.2020
6172 Rain 10 1004 93 4828 4.1 70 20:59 29.10.2020
6173 Rain 10 1005 93 4023 2.1 0 20:39 29.10.2020
6174 Rain 10 1004 93 4828 8.2 30 20:18 29.10.2020
6175 Rain 10 1005 93 4828 8.7 40 19:39 29.10.2020
6176 Rain 10 1005 93 4828 8.7 40 19:21 29.10.2020
6177 Rain 10 1007 93 1609 3.6 50 18:46 29.10.2020
6178 Rain 10 1007 93 1609 3.6 50 18:26 29.10.2020
6179 Rain 10 1009 93 3219 3.6 60 17:43 29.10.2020
6180 Rain 10 1010 93 6437 6.7 40 17:24 29.10.2020
6181 Rain 10 1010 93 6437 6.7 40 16:58 29.10.2020
6182 Rain 10 1010 93 6437 6.7 40 16:37 29.10.2020
6183 Rain 10 1012 87 2816 3.6 60 16:18 29.10.2020
6184 Rain 11 1011 87 4828 4.1 60 15:41 29.10.2020
6185 Rain 11 1013 87 10000 2.6 60 15:22 29.10.2020
6186 Rain 11 1012 93 10000 5.7 40 14:59 29.10.2020
6187 Rain 11 1012 93 10000 5.7 40 14:40 29.10.2020
6188 Rain 11 1013 87 9656 3.1 70 14:20 29.10.2020
6189 Rain 11 1013 87 10000 1.5 50 13:45 29.10.2020
6190 Rain 11 1013 87 10000 1.5 50 13:26 29.10.2020
6191 Rain 12 1013 76 10000 3.6 30 12:43 29.10.2020
6192 Rain 12 1014 71 10000 2.6 20 12:19 29.10.2020
6193 Clouds 12 1014 71 10000 2.6 20 11:49 29.10.2020
6194 Rain 12 1014 71 10000 2.73 355 11:27 29.10.2020
6195 Rain 13 1014 71 10000 2.73 355 10:59 29.10.2020
6196 Clouds 13 1014 71 10000 2.23 358 10:36 29.10.2020
6197 Clouds 13 1014 71 10000 2.23 358 10:18 29.10.2020
6198 Clouds 13 1014 71 10000 3.1 40 09:46 29.10.2020
6199 Clouds 13 1014 71 10000 3.1 40 09:24 29.10.2020
6200 Clouds 13 1014 82 10000 1.69 351 08:40 29.10.2020
6201 Clouds 13 1014 82 10000 1.57 350 08:22 29.10.2020
6202 Clouds 13 1015 82 10000 1.5 230 07:49 29.10.2020
6203 Clouds 13 1015 82 10000 1.5 260 06:59 29.10.2020
6204 Clouds 13 1015 82 10000 1.5 260 06:28 29.10.2020
6205 Clouds 13 1016 87 10000 2.1 270 04:48 29.10.2020
6206 Clouds 14 1017 84 10000 3.99 309 02:19 29.10.2020
6207 Clouds 14 1017 83 10000 0.45 216 00:41 29.10.2020
6208 Clouds 14 1017 83 10000 4.29 285 00:21 29.10.2020
6209 Clouds 14 1016 83 10000 0.45 221 23:41 28.10.2020
6210 Clouds 14 1016 83 10000 4.29 280 23:20 28.10.2020
6211 Clouds 14 1016 83 10000 4.29 280 22:43 28.10.2020
6212 Clouds 14 1015 87 10000 3.1 250 22:23 28.10.2020
6213 Clouds 14 1015 87 10000 3.1 250 21:45 28.10.2020
6214 Clouds 14 1015 87 10000 3.1 250 21:26 28.10.2020
6215 Clouds 14 1015 87 10000 2.6 260 20:58 28.10.2020
6216 Clouds 14 1015 87 10000 3.1 250 20:40 28.10.2020
6217 Clouds 13 1015 93 10000 3.1 250 20:18 28.10.2020
6218 Clouds 13 1016 93 10000 4.48 250 19:42 28.10.2020
6219 Clouds 13 1016 93 10000 2.81 254 19:24 28.10.2020
6220 Mist 12 1017 93 6437 3.1 290 18:43 28.10.2020
6221 Mist 12 1016 93 4828 2.52 261 18:20 28.10.2020
6222 Mist 12 1017 93 4023 1.5 0 17:44 28.10.2020
6223 Mist 12 1017 93 4023 1.5 0 17:22 28.10.2020
6224 Clouds 12 1016 93 10000 2.51 297 16:49 28.10.2020
6225 Clouds 12 1016 93 10000 2.51 297 16:30 28.10.2020
6226 Mist 12 1017 93 6437 2.6 40 15:46 28.10.2020
6227 Mist 12 1018 93 2012 2.1 0 15:20 28.10.2020
6228 Mist 11 1018 93 2012 2.1 0 14:58 28.10.2020
6229 Rain 11 1018 93 4023 2.6 60 14:38 28.10.2020
6230 Rain 11 1018 93 4023 2.6 60 14:19 28.10.2020
6231 Mist 11 1018 93 6437 1.5 0 12:39 28.10.2020
6232 Mist 11 1018 93 6437 1.5 0 12:21 28.10.2020
6233 Mist 11 1019 87 4023 1.5 60 11:44 28.10.2020
6234 Rain 11 1020 87 9656 1.5 50 11:23 28.10.2020
6235 Mist 12 1020 87 9656 1.5 50 10:59 28.10.2020
6236 Clouds 12 1020 81 10000 1.06 202 10:40 28.10.2020
6237 Clouds 12 1020 81 10000 1.73 176 10:22 28.10.2020
6238 Rain 12 1020 71 10000 1.73 176 09:41 28.10.2020
6239 Rain 12 1020 71 10000 1.83 153 09:22 28.10.2020
6240 Clouds 12 1020 71 10000 2.1 40 08:49 28.10.2020
6241 Clouds 12 1020 71 10000 2.1 40 08:27 28.10.2020
6242 Clouds 13 1020 66 10000 2.1 70 07:49 28.10.2020
6243 Clouds 12 1020 66 10000 2.1 70 07:30 28.10.2020
6244 Clouds 12 1021 66 10000 2.6 50 06:42 28.10.2020
6245 Clouds 12 1022 66 10000 2.1 50 05:52 28.10.2020
6246 Clouds 13 1023 58 10000 1.5 10 05:21 28.10.2020
6247 Clouds 13 1022 62 10000 2.6 70 04:26 28.10.2020
6248 Clouds 14 1022 62 10000 1.46 350 02:26 28.10.2020
6249 Clouds 14 1022 62 10000 1.46 350 01:51 28.10.2020
6250 Clouds 14 1021 62 10000 2.6 0 00:29 28.10.2020
6251 Clear 14 1021 62 10000 1.5 250 23:45 27.10.2020
6252 Clear 14 1021 62 10000 1.5 250 23:21 27.10.2020
6253 Clear 14 1021 67 10000 0.75 34 22:44 27.10.2020
6254 Clear 15 1021 67 10000 1.46 8 22:19 27.10.2020
6255 Clear 15 1021 67 10000 1.46 8 21:56 27.10.2020
6256 Clear 15 1020 59 10000 1.46 8 21:37 27.10.2020
6257 Clear 15 1020 59 10000 1.46 8 21:37 27.10.2020
6258 Clear 15 1020 59 10000 1.3 353 21:19 27.10.2020
6259 Clouds 15 1022 62 10000 2.1 180 20:46 27.10.2020
6260 Clouds 15 1022 62 10000 2.1 180 20:24 27.10.2020
6261 Clouds 15 1022 63 10000 3.6 40 19:55 27.10.2020
6262 Clouds 15 1022 63 10000 3.6 40 19:37 27.10.2020
6263 Clouds 15 1022 63 10000 3.6 40 19:18 27.10.2020
6264 Clouds 14 1022 67 10000 2.1 0 18:44 27.10.2020
6265 Clouds 14 1022 76 10000 2.6 90 18:21 27.10.2020
6266 Clouds 14 1022 76 10000 2.6 90 17:57 27.10.2020
6267 Clouds 13 1022 76 10000 2.6 90 17:38 27.10.2020
6268 Clouds 13 1022 76 10000 2.6 90 17:18 27.10.2020
6269 Clouds 13 1023 82 10000 2.1 270 16:42 27.10.2020
6270 Clouds 12 1023 87 10000 3.1 0 16:23 27.10.2020
6271 Clouds 12 1023 87 10000 3.1 0 15:42 27.10.2020
6272 Clouds 12 1023 87 10000 3.1 0 15:23 27.10.2020
6273 Clouds 12 1022 87 10000 4.25 4 14:49 27.10.2020
6274 Clouds 12 1022 87 10000 3.69 352 14:29 27.10.2020
6275 Clouds 12 1023 87 10000 3.1 0 13:58 27.10.2020
6276 Clouds 12 1023 87 10000 3.1 0 13:28 27.10.2020
6277 Clouds 13 1021 93 10000 1.5 280 12:44 27.10.2020
6278 Clouds 13 1021 93 10000 1.5 280 12:25 27.10.2020
6279 Clouds 14 1020 93 10000 2.6 240 11:59 27.10.2020
6280 Clouds 14 1020 93 10000 2.6 240 11:41 27.10.2020
6281 Clouds 14 1020 93 10000 2.6 240 11:21 27.10.2020
6282 Clouds 14 1020 93 10000 1.5 0 10:43 27.10.2020
6283 Clouds 14 1020 93 10000 1.5 0 10:20 27.10.2020
6284 Clouds 14 1019 93 10000 2.1 250 09:28 27.10.2020
6285 Fog 14 1020 93 805 1.5 280 08:59 27.10.2020
6286 Clouds 14 1019 93 10000 2.1 260 08:33 27.10.2020
6287 Clouds 15 1019 93 10000 2.12 286 07:57 27.10.2020
6288 Mist 15 1019 93 4828 2.12 286 07:38 27.10.2020
6289 Mist 15 1019 93 4828 2.4 290 07:20 27.10.2020
6290 Fog 14 1019 87 805 1.5 270 06:21 27.10.2020
6291 Mist 14 1020 100 3219 1.58 269 05:46 27.10.2020
6292 Mist 14 1020 100 3219 0.72 264 05:27 27.10.2020
6293 Mist 14 1020 93 4828 0.73 290 03:38 27.10.2020
6294 Mist 14 1021 93 4023 1.24 60 01:24 27.10.2020
6295 Clouds 14 1020 93 10000 2.6 40 00:44 27.10.2020
6296 Mist 14 1020 93 9656 2.1 40 23:40 26.10.2020
6297 Mist 14 1020 93 9656 2.1 40 23:19 26.10.2020
6298 Mist 14 1020 93 9656 2.1 20 22:46 26.10.2020
6299 Mist 14 1020 93 6437 3.1 40 22:21 26.10.2020
6300 Mist 14 1020 93 6437 3.1 40 21:42 26.10.2020
6301 Mist 14 1020 93 6437 3.1 40 21:20 26.10.2020
6302 Mist 14 1020 87 4828 3.1 40 20:57 26.10.2020
6303 Mist 14 1020 87 4828 3.1 40 20:38 26.10.2020
6304 Mist 14 1021 93 6437 3.6 40 20:18 26.10.2020
6305 Mist 14 1021 93 6437 3.6 40 19:46 26.10.2020
6306 Mist 13 1021 93 6437 3.6 40 19:22 26.10.2020
6307 Mist 13 1021 93 4828 4.6 50 18:44 26.10.2020
6308 Mist 13 1022 87 2816 4.32 97 18:23 26.10.2020
6309 Mist 14 1022 87 2816 4.32 97 17:56 26.10.2020
6310 Mist 12 1022 87 2816 4.85 94 17:37 26.10.2020
6311 Mist 12 1022 93 9656 4.1 40 17:19 26.10.2020
6312 Mist 12 1022 93 9656 4.1 40 16:40 26.10.2020
6313 Mist 12 1022 93 9656 4.1 40 16:21 26.10.2020
6314 Mist 12 1023 93 6437 4.6 30 15:42 26.10.2020
6315 Mist 12 1023 93 6437 4.6 30 15:22 26.10.2020
6316 Mist 12 1023 93 4828 6.2 30 14:53 26.10.2020
6317 Mist 12 1024 93 8047 3.1 60 14:32 26.10.2020
6318 Mist 12 1023 93 6437 5.1 30 13:45 26.10.2020
6319 Mist 11 1023 93 6437 5.1 30 13:24 26.10.2020
6320 Mist 11 1023 93 8047 4.6 40 12:53 26.10.2020
6321 Mist 11 1023 93 8047 4.6 40 12:31 26.10.2020
6322 Mist 11 1024 93 6437 2.6 0 11:57 26.10.2020
6323 Mist 11 1023 87 8047 6.2 30 11:39 26.10.2020
6324 Clouds 11 1023 87 10000 2.6 0 11:21 26.10.2020
6325 Clouds 11 1023 87 10000 2.6 0 10:48 26.10.2020
6326 Clouds 11 1023 87 10000 2.6 0 10:26 26.10.2020
6327 Clouds 11 1023 93 10000 5.1 40 09:55 26.10.2020
6328 Clouds 11 1023 93 10000 5.1 40 09:29 26.10.2020
6329 Mist 11 1023 93 6437 5.7 40 08:54 26.10.2020
6330 Mist 11 1024 93 4828 5.1 30 08:24 26.10.2020
6331 Mist 12 1024 87 8047 4.6 30 07:40 26.10.2020
6332 Clouds 11 1024 87 10000 5.7 50 07:21 26.10.2020
6333 Clouds 11 1024 81 10000 4.1 20 05:46 26.10.2020
6334 Clouds 10 1025 81 10000 5.1 50 04:19 26.10.2020
6335 Clouds 10 1025 81 10000 5.1 50 03:21 26.10.2020
6336 Clouds 10 1025 81 10000 5.1 50 03:21 26.10.2020
6337 Clouds 10 1025 81 10000 5.1 50 03:21 26.10.2020
6338 Clouds 10 1025 81 10000 5.1 50 03:21 26.10.2020
6339 Clouds 11 1025 71 10000 4.1 40 01:34 26.10.2020
6340 Clouds 11 1025 71 10000 4.6 80 00:36 26.10.2020
6341 Clouds 11 1024 58 10000 5.1 40 23:51 25.10.2020
6342 Clouds 11 1024 58 10000 5.1 40 23:30 25.10.2020
6343 Clouds 11 1024 58 10000 4.6 60 22:48 25.10.2020
6344 Clouds 11 1024 58 10000 4.6 60 22:30 25.10.2020
6345 Clouds 11 1024 58 10000 4.6 60 22:30 25.10.2020
6346 Clouds 11 1025 58 10000 4.1 70 21:57 25.10.2020
6347 Clouds 11 1025 53 10000 2.6 0 21:39 25.10.2020
6348 Clouds 11 1025 53 10000 2.6 0 21:19 25.10.2020
6349 Clouds 11 1025 53 10000 2.6 0 20:43 25.10.2020
6350 Clouds 11 1025 53 10000 2.6 0 20:24 25.10.2020
6351 Clouds 11 1025 53 10000 3.1 120 19:56 25.10.2020
6352 Clouds 11 1025 53 10000 3.1 120 19:37 25.10.2020
6353 Clear 11 1025 50 10000 3.6 60 19:19 25.10.2020
6354 Clear 11 1025 50 10000 3.6 60 18:41 25.10.2020
6355 Clear 11 1025 53 10000 3.95 52 18:22 25.10.2020
6356 Clear 10 1025 53 10000 3.95 52 17:57 25.10.2020
6357 Clear 10 1025 53 10000 3.95 52 17:38 25.10.2020
6358 Clear 10 1025 57 10000 4.1 40 17:19 25.10.2020
6359 Clear 10 1025 57 10000 5.1 40 16:46 25.10.2020
6360 Clear 10 1025 57 10000 5.1 40 16:28 25.10.2020
6361 Clear 9 1025 48 10000 3.1 0 15:50 25.10.2020
6362 Clear 9 1025 52 10000 3.1 0 15:29 25.10.2020
6363 Clear 8 1025 57 10000 5.1 30 14:55 25.10.2020
6364 Clear 8 1025 54 10000 2.6 0 14:32 25.10.2020
6365 Clear 8 1024 54 10000 3.1 0 13:58 25.10.2020
6366 Clear 7 1024 54 10000 3.1 0 13:39 25.10.2020
6367 Clear 7 1023 52 10000 2.6 0 13:19 25.10.2020
6368 Clear 7 1023 52 10000 2.6 0 12:46 25.10.2020
6369 Clear 7 1023 52 10000 2.6 0 12:25 25.10.2020
6370 Clear 7 1023 52 10000 4.6 40 11:44 25.10.2020
6371 Clear 7 1022 52 10000 4.1 40 11:21 25.10.2020
6372 Clear 7 1022 52 10000 4.1 40 10:57 25.10.2020
6373 Clear 8 1022 52 10000 4.1 40 10:38 25.10.2020
6374 Clear 8 1021 65 10000 2.6 30 10:19 25.10.2020
6375 Clear 8 1021 65 10000 2.6 30 09:40 25.10.2020
6376 Clear 8 1021 65 10000 2.1 0 09:19 25.10.2020
6377 Clear 8 1021 65 10000 2.1 0 08:41 25.10.2020
6378 Clear 8 1020 65 10000 2.1 0 08:22 25.10.2020
6379 Clear 8 1020 65 10000 2.1 0 07:47 25.10.2020
6380 Clear 8 1020 65 10000 2.1 0 07:25 25.10.2020
6381 Clear 9 1020 61 10000 1.5 0 06:46 25.10.2020
6382 Clear 9 1019 62 10000 4.49 354 05:43 25.10.2020
6383 Clear 10 1020 57 10000 4.68 344 04:52 25.10.2020
6384 Clear 13 1016 54 10000 2.6 240 02:58 25.10.2020
6385 Clouds 15 1015 55 10000 1.5 0 01:20 25.10.2020
6386 Clouds 16 1014 55 10000 1.5 0 00:42 25.10.2020
6387 Clouds 17 1014 55 10000 2.1 0 00:18 25.10.2020
6388 Clouds 18 1014 55 10000 2.1 0 23:43 24.10.2020
6389 Clouds 19 1013 52 10000 1.5 0 23:24 24.10.2020
6390 Clouds 20 1013 56 10000 3.1 300 22:42 24.10.2020
6391 Clouds 20 1013 56 10000 3.1 300 22:23 24.10.2020
6392 Clouds 21 1012 68 10000 1.5 0 21:57 24.10.2020
6393 Clouds 21 1012 68 10000 1.5 0 21:38 24.10.2020
6394 Clouds 21 1012 68 10000 1.5 0 21:19 24.10.2020
6395 Clouds 20 1012 77 10000 4.86 314 20:45 24.10.2020
6396 Clouds 20 1012 77 10000 4.08 297 20:22 24.10.2020
6397 Clouds 20 1013 82 10000 1.5 220 19:45 24.10.2020
6398 Clouds 20 1013 82 10000 1.5 220 19:26 24.10.2020
6399 Clouds 19 1014 88 10000 2.6 220 18:55 24.10.2020
6400 Clouds 18 1014 88 10000 2.6 220 18:36 24.10.2020
6401 Clouds 18 1014 88 10000 3.1 240 17:57 24.10.2020
6402 Clouds 18 1014 88 10000 3.1 240 17:37 24.10.2020
6403 Clouds 18 1015 88 10000 3.1 220 17:19 24.10.2020
6404 Clouds 18 1015 88 10000 3.1 220 16:41 24.10.2020
6405 Clouds 17 1015 88 10000 3.1 220 16:19 24.10.2020
6406 Clouds 17 1015 88 10000 3.6 220 15:39 24.10.2020
6407 Clouds 17 1015 88 10000 3.6 220 15:19 24.10.2020
6408 Clouds 17 1014 93 10000 3.6 230 14:46 24.10.2020
6409 Clouds 17 1014 93 10000 3.6 230 14:27 24.10.2020
6410 Clouds 17 1015 93 10000 2.6 240 13:45 24.10.2020
6411 Clouds 17 1015 93 10000 2.6 240 13:23 24.10.2020
6412 Clouds 17 1015 93 10000 2.6 240 12:44 24.10.2020
6413 Clouds 17 1015 93 10000 2.6 240 12:21 24.10.2020
6414 Clouds 17 1016 93 10000 3.1 240 11:51 24.10.2020
6415 Clouds 17 1016 93 10000 3.1 240 11:32 24.10.2020
6416 Clouds 17 1016 93 10000 3.6 220 10:52 24.10.2020
6417 Clouds 17 1016 93 10000 3.6 220 10:33 24.10.2020
6418 Clouds 17 1016 93 10000 1.5 270 09:50 24.10.2020
6419 Clouds 17 1016 93 10000 1.5 270 09:32 24.10.2020
6420 Clouds 17 1017 93 10000 3.19 229 08:59 24.10.2020
6421 Clouds 17 1017 93 10000 2.67 206 08:20 24.10.2020
6422 Clouds 17 1017 93 10000 2.6 200 07:54 24.10.2020
6423 Clouds 17 1017 93 10000 2.6 200 07:25 24.10.2020
6424 Clouds 17 1018 93 10000 2.72 205 06:53 24.10.2020
6425 Clouds 17 1018 93 10000 1.5 270 06:23 24.10.2020
6426 Clouds 17 1019 88 10000 3.43 170 03:35 24.10.2020
6427 Clouds 17 1020 88 10000 2.1 0 02:18 24.10.2020
6428 Clouds 18 1020 88 10000 2.1 190 00:42 24.10.2020
6429 Clouds 18 1020 88 10000 2.1 190 00:22 24.10.2020
6430 Clouds 18 1020 88 10000 1.5 180 23:49 23.10.2020
6431 Clouds 18 1020 88 10000 1.5 180 23:27 23.10.2020
6432 Clouds 18 1021 88 10000 2.1 110 22:59 23.10.2020
6433 Clouds 19 1021 82 10000 1.5 180 22:40 23.10.2020
6434 Clouds 19 1021 82 10000 1.5 180 22:20 23.10.2020
6435 Clouds 20 1021 73 10000 2.6 180 21:50 23.10.2020
6436 Clouds 20 1021 73 10000 2.6 180 21:25 23.10.2020
6437 Clouds 20 1022 77 10000 3.1 140 20:43 23.10.2020
6438 Clouds 20 1022 77 10000 3.1 140 20:25 23.10.2020
6439 Clouds 20 1023 82 10000 2.6 150 19:59 23.10.2020
6440 Clouds 19 1023 82 10000 2.6 150 19:34 23.10.2020
6441 Clouds 19 1024 93 10000 3.6 130 18:58 23.10.2020
6442 Clouds 19 1024 93 10000 3.6 130 18:39 23.10.2020
6443 Clouds 19 1024 93 10000 1.5 0 18:19 23.10.2020
6444 Clouds 18 1024 93 10000 1.5 0 17:43 23.10.2020
6445 Clouds 18 1024 93 10000 2.52 128 17:21 23.10.2020
6446 Mist 18 1025 93 9656 2.1 160 16:46 23.10.2020
6447 Mist 18 1025 93 9656 2.1 160 16:26 23.10.2020
6448 Clouds 17 1025 93 10000 2.41 123 15:47 23.10.2020
6449 Clouds 17 1024 93 10000 2.06 125 15:25 23.10.2020
6450 Clouds 17 1024 93 10000 2.06 125 14:58 23.10.2020
6451 Clouds 17 1024 93 10000 2.06 125 14:39 23.10.2020
6452 Clouds 17 1024 93 10000 1.73 128 14:21 23.10.2020
6453 Clouds 17 1024 93 10000 1.8 132 13:38 23.10.2020
6454 Mist 17 1024 93 9656 1.28 120 13:20 23.10.2020
6455 Mist 17 1023 93 6437 1.5 200 12:48 23.10.2020
6456 Mist 17 1023 93 6437 1.5 200 12:27 23.10.2020
6457 Mist 17 1023 100 3219 0.93 124 11:48 23.10.2020
6458 Mist 17 1023 100 3219 0.8 170 11:22 23.10.2020
6459 Mist 17 1022 100 1609 1.5 200 10:47 23.10.2020
6460 Mist 17 1022 100 1609 1.5 200 10:26 23.10.2020
6461 Clouds 17 1023 93 10000 1.5 190 09:48 23.10.2020
6462 Mist 18 1023 93 6437 1.26 174 09:27 23.10.2020
6463 Mist 18 1023 93 6437 1.26 174 08:56 23.10.2020
6464 Mist 18 1023 93 6437 1.26 174 08:37 23.10.2020
6465 Clouds 18 1024 93 10000 2.6 160 07:47 23.10.2020
6466 Clouds 18 1024 93 10000 2.6 160 07:26 23.10.2020
6467 Clouds 18 1024 93 10000 2.1 160 06:43 23.10.2020
6468 Mist 18 1024 93 8047 2.1 160 05:59 23.10.2020
6469 Mist 18 1024 88 9656 2.61 152 02:54 23.10.2020
6470 Clouds 19 1024 88 10000 2.64 149 02:26 23.10.2020
6471 Clouds 20 1024 88 10000 1.5 260 00:48 23.10.2020
6472 Clouds 20 1024 88 10000 2.53 160 23:59 22.10.2020
6473 Clouds 20 1024 88 10000 2.64 167 23:31 22.10.2020
6474 Clouds 20 1024 88 10000 2.1 270 22:56 22.10.2020
6475 Clouds 20 1024 88 10000 2.1 270 22:38 22.10.2020
6476 Clouds 20 1024 88 10000 2.1 270 22:19 22.10.2020
6477 Clouds 20 1024 88 10000 2.1 270 21:43 22.10.2020
6478 Clouds 20 1024 88 10000 2.1 270 21:24 22.10.2020
6479 Clouds 20 1024 82 10000 1.5 250 20:58 22.10.2020
6480 Clouds 20 1024 82 10000 1.5 250 20:40 22.10.2020
6481 Clouds 20 1024 82 10000 1.5 250 20:20 22.10.2020
6482 Clouds 20 1025 88 10000 1.5 50 19:41 22.10.2020
6483 Mist 19 1025 88 9656 1.46 101 19:20 22.10.2020
6484 Mist 19 1025 88 9656 1.46 101 18:43 22.10.2020
6485 Mist 19 1025 88 9656 2.6 80 18:21 22.10.2020
6486 Mist 19 1025 88 9656 2.6 80 17:47 22.10.2020
6487 Mist 19 1025 88 9656 2.6 80 17:26 22.10.2020
6488 Mist 19 1025 93 9656 3.1 70 16:59 22.10.2020
6489 Clouds 19 1025 93 10000 3.6 60 16:41 22.10.2020
6490 Clouds 18 1025 93 10000 3.6 60 16:23 22.10.2020
6491 Mist 18 1025 100 9656 1.6 56 15:48 22.10.2020
6492 Mist 18 1025 100 9656 1.63 58 15:25 22.10.2020
6493 Mist 18 1025 93 8047 1.63 58 14:49 22.10.2020
6494 Fog 18 1024 100 402 1.5 250 14:26 22.10.2020
6495 Mist 18 1024 100 4023 1.44 26 14:26 22.10.2020
6496 Fog 18 1024 100 402 1.5 250 13:49 22.10.2020
6497 Fog 18 1024 93 402 1.29 0 13:24 22.10.2020
6498 Fog 18 1024 93 402 1.29 0 13:24 22.10.2020
6499 Clouds 18 1024 100 10000 1.5 260 12:57 22.10.2020
6500 Mist 18 1024 100 4828 1.5 0 12:27 22.10.2020
6501 Mist 18 1024 100 1207 1.28 337 11:50 22.10.2020
6502 Fog 18 1023 100 805 1.5 220 11:20 22.10.2020
6503 Fog 18 1023 100 805 1.5 220 10:52 22.10.2020
6504 Fog 18 1023 100 805 2.1 240 10:30 22.10.2020
6505 Fog 18 1023 93 805 2.1 250 09:59 22.10.2020
6506 Mist 18 1024 93 1207 1.5 250 09:41 22.10.2020
6507 Mist 18 1024 93 8047 2.6 270 08:57 22.10.2020
6508 Clouds 18 1024 88 10000 1.5 230 08:38 22.10.2020
6509 Clouds 18 1024 93 10000 1.5 260 08:18 22.10.2020
6510 Clouds 18 1024 93 10000 1.5 260 07:43 22.10.2020
6511 Clouds 18 1024 100 10000 1.5 220 06:59 22.10.2020
6512 Clouds 18 1024 100 10000 1.5 220 06:37 22.10.2020
6513 Clouds 18 1024 93 10000 2.47 220 05:42 22.10.2020
6514 Mist 18 1024 93 8047 2.67 215 05:22 22.10.2020
6515 Clouds 18 1024 93 10000 3.1 160 02:25 22.10.2020
6516 Clouds 19 1024 82 10000 1.5 170 00:36 22.10.2020
6517 Clouds 20 1023 77 10000 3.43 175 00:18 22.10.2020
6518 Clear 20 1024 88 10000 3.43 175 23:38 21.10.2020
6519 Clear 21 1024 82 10000 2.1 140 22:58 21.10.2020
6520 Clear 21 1024 82 10000 2.1 140 22:37 21.10.2020
6521 Clouds 21 1024 73 10000 4.75 167 22:18 21.10.2020
6522 Clouds 21 1024 73 10000 4.75 167 21:44 21.10.2020
6523 Clouds 20 1024 88 10000 2.1 130 21:19 21.10.2020
6524 Clouds 19 1024 88 10000 2.1 130 20:55 21.10.2020
6525 Clouds 19 1024 88 10000 2.1 130 20:36 21.10.2020
6526 Clouds 20 1025 88 10000 1.5 210 20:18 21.10.2020
6527 Clouds 20 1025 88 10000 1.5 210 19:40 21.10.2020
6528 Clouds 20 1025 88 10000 1.5 210 19:22 21.10.2020
6529 Clouds 19 1026 88 10000 2.6 170 18:48 21.10.2020
6530 Clouds 19 1026 88 10000 2.6 170 18:26 21.10.2020
6531 Clouds 18 1027 93 10000 1.5 200 17:48 21.10.2020
6532 Clouds 18 1027 93 10000 1.5 200 17:21 21.10.2020
6533 Clouds 17 1027 88 10000 1.5 160 16:58 21.10.2020
6534 Clouds 17 1026 93 10000 2.53 192 16:37 21.10.2020
6535 Clouds 17 1026 93 10000 2.43 186 16:18 21.10.2020
6536 Clouds 17 1026 93 10000 2.43 186 15:44 21.10.2020
6537 Clouds 16 1026 100 10000 2.1 150 15:21 21.10.2020
6538 Clouds 16 1026 100 10000 2.1 150 14:48 21.10.2020
6539 Clouds 16 1026 100 10000 2.1 150 14:28 21.10.2020
6540 Mist 16 1026 93 9656 1.5 180 13:56 21.10.2020
6541 Mist 16 1026 93 9656 1.5 180 13:38 21.10.2020
6542 Clouds 16 1025 100 10000 2.6 140 13:19 21.10.2020
6543 Clouds 16 1025 93 10000 2.1 150 12:38 21.10.2020
6544 Clouds 16 1025 93 10000 2.1 150 12:19 21.10.2020
6545 Clouds 16 1025 93 10000 2.1 150 11:41 21.10.2020
6546 Clouds 16 1025 93 10000 2.1 160 11:20 21.10.2020
6547 Clouds 17 1025 93 10000 2.1 160 10:47 21.10.2020
6548 Clouds 17 1025 100 10000 1.5 170 10:26 21.10.2020
6549 Clouds 17 1025 100 10000 1.5 170 09:57 21.10.2020
6550 Clouds 17 1025 100 10000 1.5 170 09:35 21.10.2020
6551 Mist 17 1025 100 8047 1.09 176 08:57 21.10.2020
6552 Mist 17 1025 100 8047 1.09 176 08:39 21.10.2020
6553 Mist 17 1025 100 4828 1.3 182 08:21 21.10.2020
6554 Mist 17 1025 100 3219 1.44 165 07:38 21.10.2020
6555 Mist 17 1025 100 3219 1.25 163 06:58 21.10.2020
6556 Mist 17 1025 100 3219 1.25 163 06:32 21.10.2020
6557 Mist 17 1025 93 8047 1.36 181 04:48 21.10.2020
6558 Clouds 17 1024 93 10000 2.78 162 02:27 21.10.2020
6559 Clear 21 1023 73 10000 1.5 250 23:55 20.10.2020
6560 Clear 21 1024 77 10000 2.13 170 23:25 20.10.2020
6561 Clear 22 1023 69 10000 2.1 230 22:37 20.10.2020
6562 Clear 22 1024 73 10000 2.19 176 22:19 20.10.2020
6563 Clear 22 1024 73 10000 2.19 176 21:47 20.10.2020
6564 Clouds 21 1024 77 10000 1.5 260 21:18 20.10.2020
6565 Clouds 21 1024 77 10000 1.5 260 20:42 20.10.2020
6566 Clouds 21 1024 82 10000 1.79 162 20:23 20.10.2020
6567 Clouds 20 1024 82 10000 1.79 162 19:45 20.10.2020
6568 Clouds 19 1024 88 10000 1.5 220 19:22 20.10.2020
6569 Clouds 19 1024 88 10000 1.5 220 18:59 20.10.2020
6570 Clouds 19 1024 88 10000 1.5 220 18:38 20.10.2020
6571 Clouds 19 1024 93 10000 2.6 200 17:51 20.10.2020
6572 Clouds 18 1024 93 10000 2.6 200 17:33 20.10.2020
6573 Clouds 18 1024 93 10000 2.6 200 16:59 20.10.2020
6574 Mist 18 1024 93 3219 3.77 180 16:40 20.10.2020
6575 Clouds 17 1025 93 10000 2.1 180 16:22 20.10.2020
6576 Clouds 17 1025 93 10000 2.1 180 15:46 20.10.2020
6577 Clouds 17 1025 93 10000 2.1 180 15:27 20.10.2020
6578 Mist 16 1024 93 4828 1.5 150 14:45 20.10.2020
6579 Mist 16 1024 93 4828 1.5 150 14:25 20.10.2020
6580 Clouds 16 1024 93 10000 2.47 176 13:59 20.10.2020
6581 Clouds 16 1024 93 10000 2.58 165 13:40 20.10.2020
6582 Clouds 16 1024 88 10000 2.58 165 13:20 20.10.2020
6583 Clouds 16 1024 88 10000 2.58 165 12:50 20.10.2020
6584 Clouds 15 1024 88 10000 2.43 156 12:30 20.10.2020
6585 Clouds 15 1024 82 10000 2.43 156 11:47 20.10.2020
6586 Clouds 15 1024 82 10000 2.33 155 11:28 20.10.2020
6587 Clouds 15 1024 87 10000 2.33 155 10:49 20.10.2020
6588 Clouds 15 1025 87 10000 3.6 20 10:26 20.10.2020
6589 Clouds 15 1025 87 10000 3.6 20 09:46 20.10.2020
6590 Clouds 15 1025 87 10000 2.1 40 09:20 20.10.2020
6591 Clear 15 1025 87 10000 2.1 0 08:50 20.10.2020
6592 Clear 15 1025 87 10000 2.1 0 08:26 20.10.2020
6593 Clear 15 1025 82 10000 2.6 130 07:48 20.10.2020
6594 Clear 15 1026 82 10000 2.6 0 07:24 20.10.2020
6595 Clouds 15 1026 82 10000 4.08 147 06:24 20.10.2020
6596 Clear 16 1026 82 10000 2.6 0 04:55 20.10.2020
6597 Clear 16 1027 77 10000 2.1 0 02:31 20.10.2020
6598 Clouds 16 1027 77 10000 2.6 0 01:30 20.10.2020
6599 Clouds 17 1027 77 10000 3.55 151 00:56 20.10.2020
6600 Clouds 17 1027 77 10000 3.55 151 00:37 20.10.2020
6601 Clear 17 1026 67 10000 3.36 159 00:18 20.10.2020
6602 Clouds 18 1026 63 10000 3.6 140 23:29 19.10.2020
6603 Clouds 18 1026 63 10000 3.6 140 22:59 19.10.2020
6604 Clouds 18 1027 67 10000 1.5 0 22:30 19.10.2020
6605 Clouds 18 1027 67 10000 1.5 0 21:58 19.10.2020
6606 Clouds 18 1027 67 10000 1.5 0 21:39 19.10.2020
6607 Clouds 18 1027 68 10000 4.1 120 21:19 19.10.2020
6608 Clouds 18 1027 68 10000 4.1 120 20:44 19.10.2020
6609 Clouds 18 1027 68 10000 4.6 120 20:26 19.10.2020
6610 Clouds 18 1028 68 10000 3.1 120 19:46 19.10.2020
6611 Clouds 18 1028 68 10000 3.1 0 19:20 19.10.2020
6612 Clouds 18 1028 72 10000 2.1 120 18:51 19.10.2020
6613 Clouds 18 1028 72 10000 2.1 120 18:31 19.10.2020
6614 Clouds 17 1027 68 10000 3.1 140 17:56 19.10.2020
6615 Clouds 17 1027 68 10000 3.1 140 17:38 19.10.2020
6616 Clouds 17 1028 72 10000 2.6 0 17:19 19.10.2020
6617 Clouds 16 1028 72 10000 2.6 40 16:42 19.10.2020
6618 Clear 15 1028 77 10000 3.6 40 16:20 19.10.2020
6619 Clouds 15 1026 81 10000 2.68 124 15:40 19.10.2020
6620 Clouds 14 1025 83 10000 0.89 327 15:21 19.10.2020
6621 Clouds 13 1031 58 10000 1.79 86 14:50 19.10.2020
6622 Clouds 13 1031 60 10000 1.79 94 14:24 19.10.2020
6623 Clouds 12 1030 60 10000 2.24 88 13:49 19.10.2020
6624 Clouds 13 1031 60 10000 0.89 115 13:31 19.10.2020
6625 Clouds 12 1031 60 10000 1.79 112 12:49 19.10.2020
6626 Clouds 12 1029 85 10000 1.66 170 12:31 19.10.2020
6627 Clouds 12 1024 84 10000 1.34 304 11:51 19.10.2020
6628 Clouds 12 1028 76 10000 3.1 40 11:25 19.10.2020
6629 Clouds 12 1028 76 10000 3.1 40 10:56 19.10.2020
6630 Clouds 13 1028 76 10000 3.1 40 10:37 19.10.2020
6631 Clouds 13 1028 76 10000 2.1 40 10:19 19.10.2020
6632 Clouds 13 1028 76 10000 2.1 40 09:42 19.10.2020
6633 Clear 13 1028 76 10000 2.6 30 09:19 19.10.2020
6634 Clear 13 1028 76 10000 2.6 30 08:48 19.10.2020
6635 Clear 13 1028 76 10000 2.6 30 08:22 19.10.2020
6636 Clear 13 1028 76 10000 2.6 30 07:39 19.10.2020
6637 Clear 13 1028 76 10000 2.6 30 07:18 19.10.2020
6638 Clear 13 1029 71 10000 2.1 20 06:18 19.10.2020
6639 Clear 14 1029 67 10000 1.5 0 03:48 19.10.2020
6640 Clouds 15 1029 67 10000 2.6 130 02:23 19.10.2020
6641 Clouds 15 1029 71 10000 5.25 139 00:49 19.10.2020
6642 Clouds 15 1029 59 10000 6.2 130 00:20 19.10.2020
6643 Clouds 16 1029 59 10000 6.2 130 23:45 18.10.2020
6644 Clear 16 1030 55 10000 4.6 110 23:24 18.10.2020
6645 Clear 16 1030 55 10000 4.6 110 22:51 18.10.2020
6646 Clouds 17 1030 52 10000 4.1 140 22:22 18.10.2020
6647 Clouds 17 1030 52 10000 4.1 140 21:54 18.10.2020
6648 Clouds 17 1030 52 10000 4.1 140 21:32 18.10.2020
6649 Clouds 17 1031 59 10000 4.6 110 20:59 18.10.2020
6650 Clouds 17 1031 59 10000 4.6 110 20:39 18.10.2020
6651 Clouds 17 1031 59 10000 4.6 110 20:19 18.10.2020
6652 Clouds 17 1032 55 10000 5.7 110 19:43 18.10.2020
6653 Clouds 17 1032 55 10000 5.7 110 19:25 18.10.2020
6654 Clouds 17 1033 55 10000 4.1 130 18:48 18.10.2020
6655 Clouds 17 1033 55 10000 4.1 130 18:27 18.10.2020
6656 Clouds 17 1033 51 10000 5.1 150 17:43 18.10.2020
6657 Clouds 16 1033 51 10000 5.1 150 17:25 18.10.2020
6658 Clear 14 1033 58 10000 3.1 30 16:46 18.10.2020
6659 Clear 14 1033 58 10000 3.1 30 16:27 18.10.2020
6660 Clear 11 1033 76 10000 1.5 0 15:59 18.10.2020
6661 Clear 11 1033 76 10000 1.5 0 15:41 18.10.2020
6662 Clear 9 1033 76 10000 2.6 30 15:19 18.10.2020
6663 Clear 8 1033 76 10000 2.6 30 14:53 18.10.2020
6664 Clear 9 1033 76 10000 2.6 30 14:28 18.10.2020
6665 Clear 8 1032 76 10000 2.6 30 13:56 18.10.2020
6666 Clear 8 1032 76 10000 2.6 30 13:37 18.10.2020
6667 Clear 9 1032 76 10000 2.6 30 13:19 18.10.2020
6668 Clear 9 1032 76 10000 1.61 20 12:41 18.10.2020
6669 Clear 9 1031 76 10000 1.68 358 12:21 18.10.2020
6670 Clear 9 1031 76 10000 1.68 358 11:42 18.10.2020
6671 Clear 8 1031 76 10000 1.56 345 11:22 18.10.2020
6672 Clear 9 1031 71 10000 2.1 260 10:41 18.10.2020
6673 Clear 10 1031 71 10000 2.1 260 10:21 18.10.2020
6674 Clear 10 1031 71 10000 2.1 260 10:21 18.10.2020
6675 Clear 10 1031 50 10000 1.53 335 09:51 18.10.2020
6676 Clear 10 1031 50 10000 1.18 326 09:24 18.10.2020
6677 Clear 10 1031 58 10000 2.6 270 08:58 18.10.2020
6678 Clear 10 1031 58 10000 2.6 270 08:39 18.10.2020
6679 Clear 10 1031 58 10000 2.6 270 08:20 18.10.2020
6680 Clear 11 1031 62 10000 2.1 270 07:30 18.10.2020
6681 Clear 12 1030 62 10000 1.5 250 05:33 18.10.2020
6682 Clear 13 1029 44 10000 2.1 250 03:20 18.10.2020
6683 Clear 13 1028 37 10000 0.36 355 01:43 18.10.2020
6684 Clear 14 1027 33 10000 1.52 336 00:55 18.10.2020
6685 Clear 14 1027 33 10000 2.76 325 00:35 18.10.2020
6686 Clear 15 1027 33 10000 2.1 300 23:57 17.10.2020
6687 Clear 15 1027 33 10000 2.1 300 23:38 17.10.2020
6688 Clear 16 1026 30 10000 3.33 324 23:20 17.10.2020
6689 Clear 16 1026 30 10000 3.33 324 22:45 17.10.2020
6690 Clear 16 1026 30 10000 3.72 328 22:20 17.10.2020
6691 Clear 16 1026 28 10000 4.1 300 21:59 17.10.2020
6692 Clear 16 1026 28 10000 4.1 300 21:40 17.10.2020
6693 Clear 16 1025 26 10000 8.2 310 21:20 17.10.2020
6694 Clear 15 1027 32 10000 4.02 329 20:43 17.10.2020
6695 Clear 15 1026 29 10000 5.7